<?xml version="1.0" encoding="UTF-8" standalone="no" ?>
<gpx xmlns="http://www.topografix.com/GPX/1/1" xmlns:xsi="http://www.w3.org/2001/XMLSchema-instance" xsi:schemaLocation="http://www.topografix.com/GPX/1/1 http://www.topografix.com/GPX/1/1/gpx.xsd" version="1.1" creator="VisuGPX - https://www.visugpx.com">
  <metadata>
    <name>2023-03-26_09-57_Sun Toit du Vexin</name>
  </metadata>
  <trk>
    <name><![CDATA[2023-03-26_09-57_Sun Toit du Vexin_1]]></name>
    <trkseg>
      <trkpt lat="49.14289" lon="2.02156">
        <ele>206.3</ele>
        <time>2023-03-26T07:57:12Z</time>
      </trkpt>
      <trkpt lat="49.14295" lon="2.02154">
        <ele>202.9</ele>
        <time>2023-03-26T07:57:17Z</time>
      </trkpt>
      <trkpt lat="49.14295" lon="2.02153">
        <ele>200</ele>
        <time>2023-03-26T07:57:22Z</time>
      </trkpt>
      <trkpt lat="49.14294" lon="2.02152">
        <ele>200.1</ele>
        <time>2023-03-26T07:57:27Z</time>
      </trkpt>
      <trkpt lat="49.14295" lon="2.02161">
        <ele>199.1</ele>
        <time>2023-03-26T07:57:33Z</time>
      </trkpt>
      <trkpt lat="49.14294" lon="2.02153">
        <ele>195.3</ele>
        <time>2023-03-26T07:57:38Z</time>
      </trkpt>
      <trkpt lat="49.14294" lon="2.02145">
        <ele>194.6</ele>
        <time>2023-03-26T07:57:43Z</time>
      </trkpt>
      <trkpt lat="49.14298" lon="2.0214">
        <ele>194.6</ele>
        <time>2023-03-26T07:57:49Z</time>
      </trkpt>
      <trkpt lat="49.14299" lon="2.02134">
        <ele>194.6</ele>
        <time>2023-03-26T07:57:55Z</time>
      </trkpt>
      <trkpt lat="49.14302" lon="2.02127">
        <ele>194.5</ele>
        <time>2023-03-26T07:58:01Z</time>
      </trkpt>
      <trkpt lat="49.14303" lon="2.0212">
        <ele>194.1</ele>
        <time>2023-03-26T07:58:07Z</time>
      </trkpt>
      <trkpt lat="49.14311" lon="2.02114">
        <ele>193.6</ele>
        <time>2023-03-26T07:58:13Z</time>
      </trkpt>
      <trkpt lat="49.14316" lon="2.02107">
        <ele>192.8</ele>
        <time>2023-03-26T07:58:19Z</time>
      </trkpt>
      <trkpt lat="49.14322" lon="2.02099">
        <ele>191.9</ele>
        <time>2023-03-26T07:58:25Z</time>
      </trkpt>
      <trkpt lat="49.14325" lon="2.02096">
        <ele>190.8</ele>
        <time>2023-03-26T07:58:30Z</time>
      </trkpt>
      <trkpt lat="49.14331" lon="2.02092">
        <ele>189.9</ele>
        <time>2023-03-26T07:58:35Z</time>
      </trkpt>
      <trkpt lat="49.14334" lon="2.02087">
        <ele>188.9</ele>
        <time>2023-03-26T07:58:40Z</time>
      </trkpt>
      <trkpt lat="49.14339" lon="2.02081">
        <ele>188</ele>
        <time>2023-03-26T07:58:46Z</time>
      </trkpt>
      <trkpt lat="49.14343" lon="2.02077">
        <ele>187.5</ele>
        <time>2023-03-26T07:58:51Z</time>
      </trkpt>
      <trkpt lat="49.14348" lon="2.02073">
        <ele>187</ele>
        <time>2023-03-26T07:58:57Z</time>
      </trkpt>
      <trkpt lat="49.14352" lon="2.0207">
        <ele>186.4</ele>
        <time>2023-03-26T07:59:02Z</time>
      </trkpt>
      <trkpt lat="49.14358" lon="2.02069">
        <ele>186</ele>
        <time>2023-03-26T07:59:08Z</time>
      </trkpt>
      <trkpt lat="49.14361" lon="2.02069">
        <ele>185.4</ele>
        <time>2023-03-26T07:59:13Z</time>
      </trkpt>
      <trkpt lat="49.14364" lon="2.02065">
        <ele>184.8</ele>
        <time>2023-03-26T07:59:19Z</time>
      </trkpt>
      <trkpt lat="49.14369" lon="2.02061">
        <ele>183.7</ele>
        <time>2023-03-26T07:59:25Z</time>
      </trkpt>
      <trkpt lat="49.14372" lon="2.02058">
        <ele>182.7</ele>
        <time>2023-03-26T07:59:30Z</time>
      </trkpt>
      <trkpt lat="49.14375" lon="2.02054">
        <ele>181.2</ele>
        <time>2023-03-26T07:59:36Z</time>
      </trkpt>
      <trkpt lat="49.14379" lon="2.02052">
        <ele>179.5</ele>
        <time>2023-03-26T07:59:42Z</time>
      </trkpt>
      <trkpt lat="49.14382" lon="2.0205">
        <ele>177.8</ele>
        <time>2023-03-26T07:59:47Z</time>
      </trkpt>
      <trkpt lat="49.14387" lon="2.02045">
        <ele>175.6</ele>
        <time>2023-03-26T07:59:53Z</time>
      </trkpt>
      <trkpt lat="49.14391" lon="2.02041">
        <ele>173.7</ele>
        <time>2023-03-26T07:59:58Z</time>
      </trkpt>
      <trkpt lat="49.14394" lon="2.02034">
        <ele>171</ele>
        <time>2023-03-26T08:00:04Z</time>
      </trkpt>
      <trkpt lat="49.14397" lon="2.02026">
        <ele>168.9</ele>
        <time>2023-03-26T08:00:09Z</time>
      </trkpt>
      <trkpt lat="49.14404" lon="2.02019">
        <ele>167.6</ele>
        <time>2023-03-26T08:00:15Z</time>
      </trkpt>
      <trkpt lat="49.14409" lon="2.02013">
        <ele>167.3</ele>
        <time>2023-03-26T08:00:20Z</time>
      </trkpt>
      <trkpt lat="49.14414" lon="2.02003">
        <ele>168.4</ele>
        <time>2023-03-26T08:00:26Z</time>
      </trkpt>
      <trkpt lat="49.14418" lon="2.02002">
        <ele>169.6</ele>
        <time>2023-03-26T08:00:32Z</time>
      </trkpt>
      <trkpt lat="49.14422" lon="2.02004">
        <ele>170.4</ele>
        <time>2023-03-26T08:00:38Z</time>
      </trkpt>
      <trkpt lat="49.14426" lon="2.02008">
        <ele>171.2</ele>
        <time>2023-03-26T08:00:43Z</time>
      </trkpt>
      <trkpt lat="49.14432" lon="2.02017">
        <ele>172</ele>
        <time>2023-03-26T08:00:49Z</time>
      </trkpt>
      <trkpt lat="49.14438" lon="2.02023">
        <ele>172.4</ele>
        <time>2023-03-26T08:00:54Z</time>
      </trkpt>
      <trkpt lat="49.14442" lon="2.02028">
        <ele>172.6</ele>
        <time>2023-03-26T08:01:00Z</time>
      </trkpt>
      <trkpt lat="49.14444" lon="2.02033">
        <ele>172.6</ele>
        <time>2023-03-26T08:01:06Z</time>
      </trkpt>
      <trkpt lat="49.14447" lon="2.02038">
        <ele>172.5</ele>
        <time>2023-03-26T08:01:11Z</time>
      </trkpt>
      <trkpt lat="49.14451" lon="2.02045">
        <ele>172.2</ele>
        <time>2023-03-26T08:01:16Z</time>
      </trkpt>
      <trkpt lat="49.14456" lon="2.02051">
        <ele>171.9</ele>
        <time>2023-03-26T08:01:22Z</time>
      </trkpt>
      <trkpt lat="49.14463" lon="2.02057">
        <ele>171.7</ele>
        <time>2023-03-26T08:01:28Z</time>
      </trkpt>
      <trkpt lat="49.14474" lon="2.02062">
        <ele>171.8</ele>
        <time>2023-03-26T08:01:33Z</time>
      </trkpt>
      <trkpt lat="49.14485" lon="2.02067">
        <ele>172.4</ele>
        <time>2023-03-26T08:01:39Z</time>
      </trkpt>
      <trkpt lat="49.14493" lon="2.02071">
        <ele>173.1</ele>
        <time>2023-03-26T08:01:44Z</time>
      </trkpt>
      <trkpt lat="49.14503" lon="2.02075">
        <ele>173.8</ele>
        <time>2023-03-26T08:01:50Z</time>
      </trkpt>
      <trkpt lat="49.1451" lon="2.02077">
        <ele>174.4</ele>
        <time>2023-03-26T08:01:55Z</time>
      </trkpt>
      <trkpt lat="49.14518" lon="2.0208">
        <ele>174.7</ele>
        <time>2023-03-26T08:02:00Z</time>
      </trkpt>
      <trkpt lat="49.14526" lon="2.02086">
        <ele>175.1</ele>
        <time>2023-03-26T08:02:06Z</time>
      </trkpt>
      <trkpt lat="49.14531" lon="2.02092">
        <ele>175.5</ele>
        <time>2023-03-26T08:02:11Z</time>
      </trkpt>
      <trkpt lat="49.14537" lon="2.02098">
        <ele>175.7</ele>
        <time>2023-03-26T08:02:17Z</time>
      </trkpt>
      <trkpt lat="49.14539" lon="2.02102">
        <ele>175.6</ele>
        <time>2023-03-26T08:02:22Z</time>
      </trkpt>
      <trkpt lat="49.14539" lon="2.02107">
        <ele>175.3</ele>
        <time>2023-03-26T08:02:28Z</time>
      </trkpt>
      <trkpt lat="49.14538" lon="2.02112">
        <ele>175.1</ele>
        <time>2023-03-26T08:02:33Z</time>
      </trkpt>
      <trkpt lat="49.14538" lon="2.0212">
        <ele>174.7</ele>
        <time>2023-03-26T08:02:39Z</time>
      </trkpt>
      <trkpt lat="49.14538" lon="2.02128">
        <ele>173.9</ele>
        <time>2023-03-26T08:02:44Z</time>
      </trkpt>
      <trkpt lat="49.14538" lon="2.02135">
        <ele>173</ele>
        <time>2023-03-26T08:02:49Z</time>
      </trkpt>
      <trkpt lat="49.1454" lon="2.02145">
        <ele>171.4</ele>
        <time>2023-03-26T08:02:55Z</time>
      </trkpt>
      <trkpt lat="49.14543" lon="2.02154">
        <ele>169.8</ele>
        <time>2023-03-26T08:03:00Z</time>
      </trkpt>
      <trkpt lat="49.14547" lon="2.02165">
        <ele>167.9</ele>
        <time>2023-03-26T08:03:06Z</time>
      </trkpt>
      <trkpt lat="49.1455" lon="2.02174">
        <ele>166.3</ele>
        <time>2023-03-26T08:03:11Z</time>
      </trkpt>
      <trkpt lat="49.14557" lon="2.02184">
        <ele>164.5</ele>
        <time>2023-03-26T08:03:17Z</time>
      </trkpt>
      <trkpt lat="49.14563" lon="2.02194">
        <ele>163.4</ele>
        <time>2023-03-26T08:03:22Z</time>
      </trkpt>
      <trkpt lat="49.14567" lon="2.02207">
        <ele>162.5</ele>
        <time>2023-03-26T08:03:28Z</time>
      </trkpt>
      <trkpt lat="49.14571" lon="2.02217">
        <ele>161.7</ele>
        <time>2023-03-26T08:03:33Z</time>
      </trkpt>
      <trkpt lat="49.14575" lon="2.02228">
        <ele>160.7</ele>
        <time>2023-03-26T08:03:39Z</time>
      </trkpt>
      <trkpt lat="49.14579" lon="2.02237">
        <ele>159.9</ele>
        <time>2023-03-26T08:03:45Z</time>
      </trkpt>
      <trkpt lat="49.14584" lon="2.02243">
        <ele>159.4</ele>
        <time>2023-03-26T08:03:50Z</time>
      </trkpt>
      <trkpt lat="49.14592" lon="2.02248">
        <ele>158.8</ele>
        <time>2023-03-26T08:03:55Z</time>
      </trkpt>
      <trkpt lat="49.14599" lon="2.02251">
        <ele>158.3</ele>
        <time>2023-03-26T08:04:00Z</time>
      </trkpt>
      <trkpt lat="49.14606" lon="2.02255">
        <ele>157.8</ele>
        <time>2023-03-26T08:04:06Z</time>
      </trkpt>
      <trkpt lat="49.14613" lon="2.02261">
        <ele>157.3</ele>
        <time>2023-03-26T08:04:11Z</time>
      </trkpt>
      <trkpt lat="49.1462" lon="2.02267">
        <ele>156.8</ele>
        <time>2023-03-26T08:04:17Z</time>
      </trkpt>
      <trkpt lat="49.14626" lon="2.02271">
        <ele>156.5</ele>
        <time>2023-03-26T08:04:22Z</time>
      </trkpt>
      <trkpt lat="49.14636" lon="2.02277">
        <ele>156.5</ele>
        <time>2023-03-26T08:04:28Z</time>
      </trkpt>
      <trkpt lat="49.14645" lon="2.02281">
        <ele>156.6</ele>
        <time>2023-03-26T08:04:33Z</time>
      </trkpt>
      <trkpt lat="49.14656" lon="2.02288">
        <ele>157</ele>
        <time>2023-03-26T08:04:39Z</time>
      </trkpt>
      <trkpt lat="49.14663" lon="2.02292">
        <ele>157.3</ele>
        <time>2023-03-26T08:04:44Z</time>
      </trkpt>
      <trkpt lat="49.14673" lon="2.02298">
        <ele>157.6</ele>
        <time>2023-03-26T08:04:49Z</time>
      </trkpt>
      <trkpt lat="49.14683" lon="2.02304">
        <ele>158.1</ele>
        <time>2023-03-26T08:04:55Z</time>
      </trkpt>
      <trkpt lat="49.14691" lon="2.02309">
        <ele>158.6</ele>
        <time>2023-03-26T08:05:01Z</time>
      </trkpt>
      <trkpt lat="49.14698" lon="2.02313">
        <ele>158.7</ele>
        <time>2023-03-26T08:05:06Z</time>
      </trkpt>
      <trkpt lat="49.14707" lon="2.0232">
        <ele>158.9</ele>
        <time>2023-03-26T08:05:12Z</time>
      </trkpt>
      <trkpt lat="49.14715" lon="2.02326">
        <ele>159</ele>
        <time>2023-03-26T08:05:17Z</time>
      </trkpt>
      <trkpt lat="49.14722" lon="2.02332">
        <ele>159.2</ele>
        <time>2023-03-26T08:05:22Z</time>
      </trkpt>
      <trkpt lat="49.1473" lon="2.02339">
        <ele>159.4</ele>
        <time>2023-03-26T08:05:28Z</time>
      </trkpt>
      <trkpt lat="49.14737" lon="2.02344">
        <ele>159.5</ele>
        <time>2023-03-26T08:05:33Z</time>
      </trkpt>
      <trkpt lat="49.14745" lon="2.02349">
        <ele>159.7</ele>
        <time>2023-03-26T08:05:39Z</time>
      </trkpt>
      <trkpt lat="49.14754" lon="2.02356">
        <ele>159.8</ele>
        <time>2023-03-26T08:05:45Z</time>
      </trkpt>
      <trkpt lat="49.14762" lon="2.02364">
        <ele>160</ele>
        <time>2023-03-26T08:05:51Z</time>
      </trkpt>
      <trkpt lat="49.14769" lon="2.02371">
        <ele>160.2</ele>
        <time>2023-03-26T08:05:57Z</time>
      </trkpt>
      <trkpt lat="49.14776" lon="2.02379">
        <ele>160.2</ele>
        <time>2023-03-26T08:06:03Z</time>
      </trkpt>
      <trkpt lat="49.14782" lon="2.02386">
        <ele>160.3</ele>
        <time>2023-03-26T08:06:09Z</time>
      </trkpt>
      <trkpt lat="49.14787" lon="2.02392">
        <ele>160.2</ele>
        <time>2023-03-26T08:06:14Z</time>
      </trkpt>
      <trkpt lat="49.14792" lon="2.024">
        <ele>160.1</ele>
        <time>2023-03-26T08:06:19Z</time>
      </trkpt>
      <trkpt lat="49.14798" lon="2.02409">
        <ele>160</ele>
        <time>2023-03-26T08:06:25Z</time>
      </trkpt>
      <trkpt lat="49.14805" lon="2.02418">
        <ele>160</ele>
        <time>2023-03-26T08:06:31Z</time>
      </trkpt>
      <trkpt lat="49.14811" lon="2.02426">
        <ele>159.7</ele>
        <time>2023-03-26T08:06:37Z</time>
      </trkpt>
      <trkpt lat="49.14816" lon="2.02434">
        <ele>159.3</ele>
        <time>2023-03-26T08:06:43Z</time>
      </trkpt>
      <trkpt lat="49.14823" lon="2.02443">
        <ele>158.8</ele>
        <time>2023-03-26T08:06:49Z</time>
      </trkpt>
      <trkpt lat="49.14829" lon="2.02451">
        <ele>158.5</ele>
        <time>2023-03-26T08:06:55Z</time>
      </trkpt>
      <trkpt lat="49.14837" lon="2.02459">
        <ele>158.3</ele>
        <time>2023-03-26T08:07:01Z</time>
      </trkpt>
      <trkpt lat="49.14843" lon="2.02466">
        <ele>158.2</ele>
        <time>2023-03-26T08:07:06Z</time>
      </trkpt>
      <trkpt lat="49.14852" lon="2.02471">
        <ele>158.2</ele>
        <time>2023-03-26T08:07:12Z</time>
      </trkpt>
      <trkpt lat="49.14858" lon="2.02475">
        <ele>158.1</ele>
        <time>2023-03-26T08:07:17Z</time>
      </trkpt>
      <trkpt lat="49.14866" lon="2.0248">
        <ele>158</ele>
        <time>2023-03-26T08:07:23Z</time>
      </trkpt>
      <trkpt lat="49.14872" lon="2.02484">
        <ele>158</ele>
        <time>2023-03-26T08:07:28Z</time>
      </trkpt>
      <trkpt lat="49.14879" lon="2.02488">
        <ele>157.8</ele>
        <time>2023-03-26T08:07:34Z</time>
      </trkpt>
      <trkpt lat="49.14887" lon="2.02488">
        <ele>157.5</ele>
        <time>2023-03-26T08:07:39Z</time>
      </trkpt>
      <trkpt lat="49.14893" lon="2.02489">
        <ele>157</ele>
        <time>2023-03-26T08:07:44Z</time>
      </trkpt>
      <trkpt lat="49.14901" lon="2.0249">
        <ele>156.2</ele>
        <time>2023-03-26T08:07:50Z</time>
      </trkpt>
      <trkpt lat="49.14908" lon="2.0249">
        <ele>155.5</ele>
        <time>2023-03-26T08:07:55Z</time>
      </trkpt>
      <trkpt lat="49.14914" lon="2.02489">
        <ele>154.9</ele>
        <time>2023-03-26T08:08:00Z</time>
      </trkpt>
      <trkpt lat="49.14919" lon="2.02487">
        <ele>154.5</ele>
        <time>2023-03-26T08:08:05Z</time>
      </trkpt>
      <trkpt lat="49.14929" lon="2.02485">
        <ele>154.1</ele>
        <time>2023-03-26T08:08:11Z</time>
      </trkpt>
      <trkpt lat="49.14938" lon="2.02482">
        <ele>153.9</ele>
        <time>2023-03-26T08:08:17Z</time>
      </trkpt>
      <trkpt lat="49.14944" lon="2.0248">
        <ele>153.7</ele>
        <time>2023-03-26T08:08:22Z</time>
      </trkpt>
      <trkpt lat="49.14953" lon="2.02477">
        <ele>153.7</ele>
        <time>2023-03-26T08:08:28Z</time>
      </trkpt>
      <trkpt lat="49.14961" lon="2.02475">
        <ele>153.7</ele>
        <time>2023-03-26T08:08:33Z</time>
      </trkpt>
      <trkpt lat="49.1497" lon="2.02472">
        <ele>153.8</ele>
        <time>2023-03-26T08:08:39Z</time>
      </trkpt>
      <trkpt lat="49.1498" lon="2.02472">
        <ele>153.8</ele>
        <time>2023-03-26T08:08:45Z</time>
      </trkpt>
      <trkpt lat="49.14987" lon="2.0247">
        <ele>153.8</ele>
        <time>2023-03-26T08:08:50Z</time>
      </trkpt>
      <trkpt lat="49.14995" lon="2.02466">
        <ele>153.6</ele>
        <time>2023-03-26T08:08:56Z</time>
      </trkpt>
      <trkpt lat="49.15003" lon="2.02465">
        <ele>153.2</ele>
        <time>2023-03-26T08:09:02Z</time>
      </trkpt>
      <trkpt lat="49.15009" lon="2.02465">
        <ele>153</ele>
        <time>2023-03-26T08:09:07Z</time>
      </trkpt>
      <trkpt lat="49.15016" lon="2.02464">
        <ele>152.8</ele>
        <time>2023-03-26T08:09:12Z</time>
      </trkpt>
      <trkpt lat="49.15024" lon="2.02462">
        <ele>152.5</ele>
        <time>2023-03-26T08:09:18Z</time>
      </trkpt>
      <trkpt lat="49.1503" lon="2.02462">
        <ele>152.2</ele>
        <time>2023-03-26T08:09:23Z</time>
      </trkpt>
      <trkpt lat="49.15036" lon="2.02461">
        <ele>151.9</ele>
        <time>2023-03-26T08:09:28Z</time>
      </trkpt>
      <trkpt lat="49.15043" lon="2.02461">
        <ele>151.3</ele>
        <time>2023-03-26T08:09:34Z</time>
      </trkpt>
      <trkpt lat="49.15051" lon="2.02457">
        <ele>150.8</ele>
        <time>2023-03-26T08:09:39Z</time>
      </trkpt>
      <trkpt lat="49.15059" lon="2.02456">
        <ele>150.5</ele>
        <time>2023-03-26T08:09:44Z</time>
      </trkpt>
      <trkpt lat="49.15067" lon="2.02458">
        <ele>150.3</ele>
        <time>2023-03-26T08:09:50Z</time>
      </trkpt>
      <trkpt lat="49.15074" lon="2.02458">
        <ele>150.1</ele>
        <time>2023-03-26T08:09:55Z</time>
      </trkpt>
      <trkpt lat="49.15081" lon="2.02458">
        <ele>149.9</ele>
        <time>2023-03-26T08:10:00Z</time>
      </trkpt>
      <trkpt lat="49.1509" lon="2.02459">
        <ele>149.7</ele>
        <time>2023-03-26T08:10:06Z</time>
      </trkpt>
      <trkpt lat="49.15098" lon="2.02459">
        <ele>149.7</ele>
        <time>2023-03-26T08:10:11Z</time>
      </trkpt>
      <trkpt lat="49.15107" lon="2.0246">
        <ele>149.6</ele>
        <time>2023-03-26T08:10:17Z</time>
      </trkpt>
      <trkpt lat="49.15112" lon="2.02463">
        <ele>149.7</ele>
        <time>2023-03-26T08:10:22Z</time>
      </trkpt>
      <trkpt lat="49.15118" lon="2.02466">
        <ele>149.9</ele>
        <time>2023-03-26T08:10:28Z</time>
      </trkpt>
      <trkpt lat="49.15125" lon="2.02469">
        <ele>150.1</ele>
        <time>2023-03-26T08:10:34Z</time>
      </trkpt>
      <trkpt lat="49.15134" lon="2.02471">
        <ele>150.3</ele>
        <time>2023-03-26T08:10:40Z</time>
      </trkpt>
      <trkpt lat="49.15143" lon="2.02472">
        <ele>150.4</ele>
        <time>2023-03-26T08:10:46Z</time>
      </trkpt>
      <trkpt lat="49.15151" lon="2.02475">
        <ele>150.6</ele>
        <time>2023-03-26T08:10:52Z</time>
      </trkpt>
      <trkpt lat="49.15161" lon="2.02475">
        <ele>150.7</ele>
        <time>2023-03-26T08:10:58Z</time>
      </trkpt>
      <trkpt lat="49.15169" lon="2.02477">
        <ele>150.7</ele>
        <time>2023-03-26T08:11:04Z</time>
      </trkpt>
      <trkpt lat="49.15175" lon="2.02478">
        <ele>150.8</ele>
        <time>2023-03-26T08:11:09Z</time>
      </trkpt>
      <trkpt lat="49.15181" lon="2.02481">
        <ele>150.9</ele>
        <time>2023-03-26T08:11:14Z</time>
      </trkpt>
      <trkpt lat="49.1519" lon="2.02485">
        <ele>150.9</ele>
        <time>2023-03-26T08:11:20Z</time>
      </trkpt>
      <trkpt lat="49.15196" lon="2.02488">
        <ele>150.6</ele>
        <time>2023-03-26T08:11:26Z</time>
      </trkpt>
      <trkpt lat="49.15204" lon="2.02493">
        <ele>150.4</ele>
        <time>2023-03-26T08:11:32Z</time>
      </trkpt>
      <trkpt lat="49.15212" lon="2.02497">
        <ele>150.3</ele>
        <time>2023-03-26T08:11:37Z</time>
      </trkpt>
      <trkpt lat="49.15218" lon="2.02504">
        <ele>150.2</ele>
        <time>2023-03-26T08:11:43Z</time>
      </trkpt>
      <trkpt lat="49.15222" lon="2.02511">
        <ele>150.2</ele>
        <time>2023-03-26T08:11:48Z</time>
      </trkpt>
      <trkpt lat="49.1523" lon="2.02517">
        <ele>150.2</ele>
        <time>2023-03-26T08:11:54Z</time>
      </trkpt>
      <trkpt lat="49.15238" lon="2.02521">
        <ele>150.4</ele>
        <time>2023-03-26T08:11:59Z</time>
      </trkpt>
      <trkpt lat="49.15243" lon="2.02527">
        <ele>150.8</ele>
        <time>2023-03-26T08:12:05Z</time>
      </trkpt>
      <trkpt lat="49.15249" lon="2.02534">
        <ele>151</ele>
        <time>2023-03-26T08:12:10Z</time>
      </trkpt>
      <trkpt lat="49.15254" lon="2.0254">
        <ele>151</ele>
        <time>2023-03-26T08:12:15Z</time>
      </trkpt>
      <trkpt lat="49.1526" lon="2.02547">
        <ele>151.1</ele>
        <time>2023-03-26T08:12:21Z</time>
      </trkpt>
      <trkpt lat="49.15266" lon="2.02555">
        <ele>151.1</ele>
        <time>2023-03-26T08:12:27Z</time>
      </trkpt>
      <trkpt lat="49.15272" lon="2.02561">
        <ele>151</ele>
        <time>2023-03-26T08:12:33Z</time>
      </trkpt>
      <trkpt lat="49.15278" lon="2.02566">
        <ele>151.2</ele>
        <time>2023-03-26T08:12:38Z</time>
      </trkpt>
      <trkpt lat="49.15286" lon="2.02571">
        <ele>151.3</ele>
        <time>2023-03-26T08:12:44Z</time>
      </trkpt>
      <trkpt lat="49.15295" lon="2.02577">
        <ele>151.2</ele>
        <time>2023-03-26T08:12:50Z</time>
      </trkpt>
      <trkpt lat="49.153" lon="2.02582">
        <ele>151</ele>
        <time>2023-03-26T08:12:55Z</time>
      </trkpt>
      <trkpt lat="49.15306" lon="2.02589">
        <ele>150.7</ele>
        <time>2023-03-26T08:13:00Z</time>
      </trkpt>
      <trkpt lat="49.15312" lon="2.02598">
        <ele>150.3</ele>
        <time>2023-03-26T08:13:06Z</time>
      </trkpt>
      <trkpt lat="49.15317" lon="2.02605">
        <ele>150.1</ele>
        <time>2023-03-26T08:13:11Z</time>
      </trkpt>
      <trkpt lat="49.15325" lon="2.02613">
        <ele>149.9</ele>
        <time>2023-03-26T08:13:17Z</time>
      </trkpt>
      <trkpt lat="49.15332" lon="2.02619">
        <ele>149.8</ele>
        <time>2023-03-26T08:13:22Z</time>
      </trkpt>
      <trkpt lat="49.15338" lon="2.02624">
        <ele>150</ele>
        <time>2023-03-26T08:13:27Z</time>
      </trkpt>
      <trkpt lat="49.15342" lon="2.02631">
        <ele>150.5</ele>
        <time>2023-03-26T08:13:33Z</time>
      </trkpt>
      <trkpt lat="49.15347" lon="2.02639">
        <ele>150.7</ele>
        <time>2023-03-26T08:13:38Z</time>
      </trkpt>
      <trkpt lat="49.15352" lon="2.02644">
        <ele>150.9</ele>
        <time>2023-03-26T08:13:43Z</time>
      </trkpt>
      <trkpt lat="49.1536" lon="2.02653">
        <ele>150.7</ele>
        <time>2023-03-26T08:13:49Z</time>
      </trkpt>
      <trkpt lat="49.15364" lon="2.02659">
        <ele>150.6</ele>
        <time>2023-03-26T08:13:54Z</time>
      </trkpt>
      <trkpt lat="49.1537" lon="2.02665">
        <ele>150.6</ele>
        <time>2023-03-26T08:13:59Z</time>
      </trkpt>
      <trkpt lat="49.15378" lon="2.02674">
        <ele>150.6</ele>
        <time>2023-03-26T08:14:05Z</time>
      </trkpt>
      <trkpt lat="49.15384" lon="2.02679">
        <ele>151</ele>
        <time>2023-03-26T08:14:10Z</time>
      </trkpt>
      <trkpt lat="49.15391" lon="2.02685">
        <ele>151.4</ele>
        <time>2023-03-26T08:14:16Z</time>
      </trkpt>
      <trkpt lat="49.15394" lon="2.0268">
        <ele>151.6</ele>
        <time>2023-03-26T08:14:21Z</time>
      </trkpt>
      <trkpt lat="49.15394" lon="2.02668">
        <ele>152</ele>
        <time>2023-03-26T08:14:27Z</time>
      </trkpt>
      <trkpt lat="49.15392" lon="2.02655">
        <ele>152.8</ele>
        <time>2023-03-26T08:14:33Z</time>
      </trkpt>
      <trkpt lat="49.15389" lon="2.02642">
        <ele>153.7</ele>
        <time>2023-03-26T08:14:39Z</time>
      </trkpt>
      <trkpt lat="49.15388" lon="2.02629">
        <ele>154.8</ele>
        <time>2023-03-26T08:14:45Z</time>
      </trkpt>
      <trkpt lat="49.15386" lon="2.02616">
        <ele>156</ele>
        <time>2023-03-26T08:14:51Z</time>
      </trkpt>
      <trkpt lat="49.15388" lon="2.02601">
        <ele>156.9</ele>
        <time>2023-03-26T08:14:57Z</time>
      </trkpt>
      <trkpt lat="49.15389" lon="2.02589">
        <ele>157.8</ele>
        <time>2023-03-26T08:15:03Z</time>
      </trkpt>
      <trkpt lat="49.15387" lon="2.02573">
        <ele>158.5</ele>
        <time>2023-03-26T08:15:09Z</time>
      </trkpt>
      <trkpt lat="49.15388" lon="2.02562">
        <ele>159</ele>
        <time>2023-03-26T08:15:15Z</time>
      </trkpt>
      <trkpt lat="49.15388" lon="2.02553">
        <ele>159.2</ele>
        <time>2023-03-26T08:15:20Z</time>
      </trkpt>
      <trkpt lat="49.15388" lon="2.0254">
        <ele>159.5</ele>
        <time>2023-03-26T08:15:26Z</time>
      </trkpt>
      <trkpt lat="49.15388" lon="2.02529">
        <ele>160.1</ele>
        <time>2023-03-26T08:15:32Z</time>
      </trkpt>
      <trkpt lat="49.15389" lon="2.02524">
        <ele>160.4</ele>
        <time>2023-03-26T08:15:38Z</time>
      </trkpt>
      <trkpt lat="49.15389" lon="2.02523">
        <ele>160.5</ele>
        <time>2023-03-26T08:15:44Z</time>
      </trkpt>
      <trkpt lat="49.15389" lon="2.02523">
        <ele>160.4</ele>
        <time>2023-03-26T08:15:49Z</time>
      </trkpt>
      <trkpt lat="49.15388" lon="2.02512">
        <ele>159.7</ele>
        <time>2023-03-26T08:15:55Z</time>
      </trkpt>
      <trkpt lat="49.15389" lon="2.02499">
        <ele>159.1</ele>
        <time>2023-03-26T08:16:01Z</time>
      </trkpt>
      <trkpt lat="49.15389" lon="2.02488">
        <ele>158.9</ele>
        <time>2023-03-26T08:16:07Z</time>
      </trkpt>
      <trkpt lat="49.15388" lon="2.02475">
        <ele>158.9</ele>
        <time>2023-03-26T08:16:12Z</time>
      </trkpt>
      <trkpt lat="49.15384" lon="2.02462">
        <ele>159.2</ele>
        <time>2023-03-26T08:16:17Z</time>
      </trkpt>
      <trkpt lat="49.15382" lon="2.02448">
        <ele>159.5</ele>
        <time>2023-03-26T08:16:24Z</time>
      </trkpt>
      <trkpt lat="49.15381" lon="2.02436">
        <ele>159.7</ele>
        <time>2023-03-26T08:16:29Z</time>
      </trkpt>
      <trkpt lat="49.15378" lon="2.02422">
        <ele>160.1</ele>
        <time>2023-03-26T08:16:35Z</time>
      </trkpt>
      <trkpt lat="49.15376" lon="2.02411">
        <ele>160.4</ele>
        <time>2023-03-26T08:16:41Z</time>
      </trkpt>
      <trkpt lat="49.15373" lon="2.02402">
        <ele>161</ele>
        <time>2023-03-26T08:16:46Z</time>
      </trkpt>
      <trkpt lat="49.15369" lon="2.02391">
        <ele>161.5</ele>
        <time>2023-03-26T08:16:52Z</time>
      </trkpt>
      <trkpt lat="49.15366" lon="2.02381">
        <ele>161.9</ele>
        <time>2023-03-26T08:16:58Z</time>
      </trkpt>
      <trkpt lat="49.15361" lon="2.02367">
        <ele>162.4</ele>
        <time>2023-03-26T08:17:03Z</time>
      </trkpt>
      <trkpt lat="49.15357" lon="2.02356">
        <ele>163</ele>
        <time>2023-03-26T08:17:09Z</time>
      </trkpt>
      <trkpt lat="49.15354" lon="2.02347">
        <ele>163.5</ele>
        <time>2023-03-26T08:17:14Z</time>
      </trkpt>
      <trkpt lat="49.15352" lon="2.02337">
        <ele>163.9</ele>
        <time>2023-03-26T08:17:20Z</time>
      </trkpt>
      <trkpt lat="49.1535" lon="2.02329">
        <ele>164.3</ele>
        <time>2023-03-26T08:17:25Z</time>
      </trkpt>
      <trkpt lat="49.15347" lon="2.02319">
        <ele>164.6</ele>
        <time>2023-03-26T08:17:31Z</time>
      </trkpt>
      <trkpt lat="49.15343" lon="2.02306">
        <ele>165</ele>
        <time>2023-03-26T08:17:36Z</time>
      </trkpt>
      <trkpt lat="49.15341" lon="2.02297">
        <ele>165.6</ele>
        <time>2023-03-26T08:17:41Z</time>
      </trkpt>
      <trkpt lat="49.15339" lon="2.02284">
        <ele>166.2</ele>
        <time>2023-03-26T08:17:48Z</time>
      </trkpt>
      <trkpt lat="49.15338" lon="2.02275">
        <ele>166.6</ele>
        <time>2023-03-26T08:17:53Z</time>
      </trkpt>
      <trkpt lat="49.15336" lon="2.02264">
        <ele>167</ele>
        <time>2023-03-26T08:17:58Z</time>
      </trkpt>
      <trkpt lat="49.15335" lon="2.02253">
        <ele>167.3</ele>
        <time>2023-03-26T08:18:03Z</time>
      </trkpt>
      <trkpt lat="49.15331" lon="2.02242">
        <ele>167.4</ele>
        <time>2023-03-26T08:18:09Z</time>
      </trkpt>
      <trkpt lat="49.1533" lon="2.02232">
        <ele>167.5</ele>
        <time>2023-03-26T08:18:15Z</time>
      </trkpt>
      <trkpt lat="49.15328" lon="2.0222">
        <ele>167.5</ele>
        <time>2023-03-26T08:18:21Z</time>
      </trkpt>
      <trkpt lat="49.15327" lon="2.02209">
        <ele>167.5</ele>
        <time>2023-03-26T08:18:26Z</time>
      </trkpt>
      <trkpt lat="49.15327" lon="2.02202">
        <ele>167.4</ele>
        <time>2023-03-26T08:18:32Z</time>
      </trkpt>
      <trkpt lat="49.15328" lon="2.0219">
        <ele>167.6</ele>
        <time>2023-03-26T08:18:37Z</time>
      </trkpt>
      <trkpt lat="49.15328" lon="2.0218">
        <ele>167.8</ele>
        <time>2023-03-26T08:18:42Z</time>
      </trkpt>
      <trkpt lat="49.15333" lon="2.02171">
        <ele>167.6</ele>
        <time>2023-03-26T08:18:48Z</time>
      </trkpt>
      <trkpt lat="49.1534" lon="2.02166">
        <ele>167.2</ele>
        <time>2023-03-26T08:18:54Z</time>
      </trkpt>
      <trkpt lat="49.15346" lon="2.02157">
        <ele>167</ele>
        <time>2023-03-26T08:19:00Z</time>
      </trkpt>
      <trkpt lat="49.15352" lon="2.0215">
        <ele>166.7</ele>
        <time>2023-03-26T08:19:05Z</time>
      </trkpt>
      <trkpt lat="49.15359" lon="2.02143">
        <ele>166.5</ele>
        <time>2023-03-26T08:19:10Z</time>
      </trkpt>
      <trkpt lat="49.15365" lon="2.02137">
        <ele>166.4</ele>
        <time>2023-03-26T08:19:16Z</time>
      </trkpt>
      <trkpt lat="49.1537" lon="2.02131">
        <ele>166.1</ele>
        <time>2023-03-26T08:19:21Z</time>
      </trkpt>
      <trkpt lat="49.15375" lon="2.02123">
        <ele>165.9</ele>
        <time>2023-03-26T08:19:27Z</time>
      </trkpt>
      <trkpt lat="49.1538" lon="2.02112">
        <ele>165.9</ele>
        <time>2023-03-26T08:19:33Z</time>
      </trkpt>
      <trkpt lat="49.15384" lon="2.02103">
        <ele>166</ele>
        <time>2023-03-26T08:19:38Z</time>
      </trkpt>
      <trkpt lat="49.15389" lon="2.02091">
        <ele>166.3</ele>
        <time>2023-03-26T08:19:44Z</time>
      </trkpt>
      <trkpt lat="49.15393" lon="2.02085">
        <ele>166.3</ele>
        <time>2023-03-26T08:19:50Z</time>
      </trkpt>
      <trkpt lat="49.15399" lon="2.02077">
        <ele>166.1</ele>
        <time>2023-03-26T08:19:55Z</time>
      </trkpt>
      <trkpt lat="49.15405" lon="2.02069">
        <ele>165.9</ele>
        <time>2023-03-26T08:20:01Z</time>
      </trkpt>
      <trkpt lat="49.1541" lon="2.02066">
        <ele>165.7</ele>
        <time>2023-03-26T08:20:06Z</time>
      </trkpt>
      <trkpt lat="49.15415" lon="2.02058">
        <ele>165.4</ele>
        <time>2023-03-26T08:20:12Z</time>
      </trkpt>
      <trkpt lat="49.15422" lon="2.02048">
        <ele>165.1</ele>
        <time>2023-03-26T08:20:18Z</time>
      </trkpt>
      <trkpt lat="49.15427" lon="2.02039">
        <ele>165</ele>
        <time>2023-03-26T08:20:23Z</time>
      </trkpt>
      <trkpt lat="49.15433" lon="2.02028">
        <ele>165</ele>
        <time>2023-03-26T08:20:30Z</time>
      </trkpt>
      <trkpt lat="49.15439" lon="2.02017">
        <ele>165.3</ele>
        <time>2023-03-26T08:20:35Z</time>
      </trkpt>
      <trkpt lat="49.15444" lon="2.02013">
        <ele>165.4</ele>
        <time>2023-03-26T08:20:41Z</time>
      </trkpt>
      <trkpt lat="49.1545" lon="2.02005">
        <ele>165.3</ele>
        <time>2023-03-26T08:20:46Z</time>
      </trkpt>
      <trkpt lat="49.15455" lon="2.01997">
        <ele>165.2</ele>
        <time>2023-03-26T08:20:53Z</time>
      </trkpt>
      <trkpt lat="49.15461" lon="2.01986">
        <ele>164.8</ele>
        <time>2023-03-26T08:20:58Z</time>
      </trkpt>
      <trkpt lat="49.15467" lon="2.01977">
        <ele>164.6</ele>
        <time>2023-03-26T08:21:04Z</time>
      </trkpt>
      <trkpt lat="49.15472" lon="2.01969">
        <ele>164.6</ele>
        <time>2023-03-26T08:21:10Z</time>
      </trkpt>
      <trkpt lat="49.15477" lon="2.01961">
        <ele>164.7</ele>
        <time>2023-03-26T08:21:15Z</time>
      </trkpt>
      <trkpt lat="49.15483" lon="2.01952">
        <ele>165</ele>
        <time>2023-03-26T08:21:20Z</time>
      </trkpt>
      <trkpt lat="49.15488" lon="2.01945">
        <ele>165.4</ele>
        <time>2023-03-26T08:21:25Z</time>
      </trkpt>
      <trkpt lat="49.15493" lon="2.01937">
        <ele>165.9</ele>
        <time>2023-03-26T08:21:30Z</time>
      </trkpt>
      <trkpt lat="49.15498" lon="2.01931">
        <ele>166.3</ele>
        <time>2023-03-26T08:21:36Z</time>
      </trkpt>
      <trkpt lat="49.15502" lon="2.01923">
        <ele>166.6</ele>
        <time>2023-03-26T08:21:41Z</time>
      </trkpt>
      <trkpt lat="49.15508" lon="2.01916">
        <ele>166.9</ele>
        <time>2023-03-26T08:21:46Z</time>
      </trkpt>
      <trkpt lat="49.15514" lon="2.01909">
        <ele>167.1</ele>
        <time>2023-03-26T08:21:51Z</time>
      </trkpt>
      <trkpt lat="49.15519" lon="2.01901">
        <ele>167.3</ele>
        <time>2023-03-26T08:21:56Z</time>
      </trkpt>
      <trkpt lat="49.15525" lon="2.01893">
        <ele>167.6</ele>
        <time>2023-03-26T08:22:03Z</time>
      </trkpt>
      <trkpt lat="49.1553" lon="2.01884">
        <ele>167.8</ele>
        <time>2023-03-26T08:22:09Z</time>
      </trkpt>
      <trkpt lat="49.15536" lon="2.01875">
        <ele>168.1</ele>
        <time>2023-03-26T08:22:14Z</time>
      </trkpt>
      <trkpt lat="49.15541" lon="2.01867">
        <ele>168.3</ele>
        <time>2023-03-26T08:22:20Z</time>
      </trkpt>
      <trkpt lat="49.15547" lon="2.0186">
        <ele>168.4</ele>
        <time>2023-03-26T08:22:26Z</time>
      </trkpt>
      <trkpt lat="49.15552" lon="2.01854">
        <ele>168.5</ele>
        <time>2023-03-26T08:22:31Z</time>
      </trkpt>
      <trkpt lat="49.15557" lon="2.01846">
        <ele>168.8</ele>
        <time>2023-03-26T08:22:36Z</time>
      </trkpt>
      <trkpt lat="49.15563" lon="2.01841">
        <ele>168.9</ele>
        <time>2023-03-26T08:22:42Z</time>
      </trkpt>
      <trkpt lat="49.15568" lon="2.01833">
        <ele>169</ele>
        <time>2023-03-26T08:22:47Z</time>
      </trkpt>
      <trkpt lat="49.15573" lon="2.01825">
        <ele>169.1</ele>
        <time>2023-03-26T08:22:52Z</time>
      </trkpt>
      <trkpt lat="49.1558" lon="2.01817">
        <ele>169.4</ele>
        <time>2023-03-26T08:22:58Z</time>
      </trkpt>
      <trkpt lat="49.15585" lon="2.01809">
        <ele>169.7</ele>
        <time>2023-03-26T08:23:04Z</time>
      </trkpt>
      <trkpt lat="49.15591" lon="2.01802">
        <ele>170</ele>
        <time>2023-03-26T08:23:09Z</time>
      </trkpt>
      <trkpt lat="49.15596" lon="2.01795">
        <ele>170.3</ele>
        <time>2023-03-26T08:23:15Z</time>
      </trkpt>
      <trkpt lat="49.15602" lon="2.01788">
        <ele>170.7</ele>
        <time>2023-03-26T08:23:20Z</time>
      </trkpt>
      <trkpt lat="49.15607" lon="2.0178">
        <ele>170.8</ele>
        <time>2023-03-26T08:23:25Z</time>
      </trkpt>
      <trkpt lat="49.15612" lon="2.0177">
        <ele>171</ele>
        <time>2023-03-26T08:23:31Z</time>
      </trkpt>
      <trkpt lat="49.15616" lon="2.01761">
        <ele>171.1</ele>
        <time>2023-03-26T08:23:36Z</time>
      </trkpt>
      <trkpt lat="49.15623" lon="2.01751">
        <ele>171.5</ele>
        <time>2023-03-26T08:23:43Z</time>
      </trkpt>
      <trkpt lat="49.15629" lon="2.01742">
        <ele>171.8</ele>
        <time>2023-03-26T08:23:48Z</time>
      </trkpt>
      <trkpt lat="49.15633" lon="2.01736">
        <ele>171.9</ele>
        <time>2023-03-26T08:23:53Z</time>
      </trkpt>
      <trkpt lat="49.15638" lon="2.01726">
        <ele>171.9</ele>
        <time>2023-03-26T08:23:59Z</time>
      </trkpt>
      <trkpt lat="49.15644" lon="2.01719">
        <ele>171.8</ele>
        <time>2023-03-26T08:24:05Z</time>
      </trkpt>
      <trkpt lat="49.15649" lon="2.01708">
        <ele>171.7</ele>
        <time>2023-03-26T08:24:12Z</time>
      </trkpt>
      <trkpt lat="49.15655" lon="2.017">
        <ele>171.5</ele>
        <time>2023-03-26T08:24:17Z</time>
      </trkpt>
      <trkpt lat="49.15661" lon="2.01693">
        <ele>171.3</ele>
        <time>2023-03-26T08:24:22Z</time>
      </trkpt>
      <trkpt lat="49.15666" lon="2.01683">
        <ele>171.1</ele>
        <time>2023-03-26T08:24:28Z</time>
      </trkpt>
      <trkpt lat="49.15671" lon="2.01677">
        <ele>170.6</ele>
        <time>2023-03-26T08:24:34Z</time>
      </trkpt>
      <trkpt lat="49.15676" lon="2.0167">
        <ele>170.3</ele>
        <time>2023-03-26T08:24:39Z</time>
      </trkpt>
      <trkpt lat="49.15683" lon="2.01663">
        <ele>169.7</ele>
        <time>2023-03-26T08:24:45Z</time>
      </trkpt>
      <trkpt lat="49.15688" lon="2.01656">
        <ele>169.3</ele>
        <time>2023-03-26T08:24:50Z</time>
      </trkpt>
      <trkpt lat="49.15695" lon="2.01649">
        <ele>169</ele>
        <time>2023-03-26T08:24:56Z</time>
      </trkpt>
      <trkpt lat="49.15701" lon="2.01643">
        <ele>168.8</ele>
        <time>2023-03-26T08:25:01Z</time>
      </trkpt>
      <trkpt lat="49.15708" lon="2.01635">
        <ele>168.7</ele>
        <time>2023-03-26T08:25:07Z</time>
      </trkpt>
      <trkpt lat="49.15714" lon="2.01631">
        <ele>168.6</ele>
        <time>2023-03-26T08:25:12Z</time>
      </trkpt>
      <trkpt lat="49.15723" lon="2.01626">
        <ele>168.6</ele>
        <time>2023-03-26T08:25:18Z</time>
      </trkpt>
      <trkpt lat="49.1573" lon="2.01622">
        <ele>168.4</ele>
        <time>2023-03-26T08:25:24Z</time>
      </trkpt>
      <trkpt lat="49.15735" lon="2.01618">
        <ele>168.2</ele>
        <time>2023-03-26T08:25:29Z</time>
      </trkpt>
      <trkpt lat="49.1574" lon="2.01615">
        <ele>167.9</ele>
        <time>2023-03-26T08:25:35Z</time>
      </trkpt>
      <trkpt lat="49.15742" lon="2.01613">
        <ele>167.8</ele>
        <time>2023-03-26T08:25:41Z</time>
      </trkpt>
      <trkpt lat="49.15748" lon="2.01608">
        <ele>167.8</ele>
        <time>2023-03-26T08:25:46Z</time>
      </trkpt>
      <trkpt lat="49.15753" lon="2.01603">
        <ele>167.7</ele>
        <time>2023-03-26T08:25:51Z</time>
      </trkpt>
      <trkpt lat="49.15757" lon="2.016">
        <ele>167.4</ele>
        <time>2023-03-26T08:25:56Z</time>
      </trkpt>
      <trkpt lat="49.15764" lon="2.01598">
        <ele>167</ele>
        <time>2023-03-26T08:26:02Z</time>
      </trkpt>
      <trkpt lat="49.1577" lon="2.01595">
        <ele>166.8</ele>
        <time>2023-03-26T08:26:07Z</time>
      </trkpt>
      <trkpt lat="49.15776" lon="2.01586">
        <ele>166.6</ele>
        <time>2023-03-26T08:26:13Z</time>
      </trkpt>
      <trkpt lat="49.15781" lon="2.0158">
        <ele>166.3</ele>
        <time>2023-03-26T08:26:18Z</time>
      </trkpt>
      <trkpt lat="49.15787" lon="2.01575">
        <ele>166</ele>
        <time>2023-03-26T08:26:24Z</time>
      </trkpt>
      <trkpt lat="49.15792" lon="2.01569">
        <ele>165.6</ele>
        <time>2023-03-26T08:26:29Z</time>
      </trkpt>
      <trkpt lat="49.15798" lon="2.01562">
        <ele>165.2</ele>
        <time>2023-03-26T08:26:35Z</time>
      </trkpt>
      <trkpt lat="49.15803" lon="2.01557">
        <ele>164.7</ele>
        <time>2023-03-26T08:26:41Z</time>
      </trkpt>
      <trkpt lat="49.15807" lon="2.01554">
        <ele>164.1</ele>
        <time>2023-03-26T08:26:46Z</time>
      </trkpt>
      <trkpt lat="49.15809" lon="2.01549">
        <ele>163.5</ele>
        <time>2023-03-26T08:26:52Z</time>
      </trkpt>
      <trkpt lat="49.15808" lon="2.01544">
        <ele>162.6</ele>
        <time>2023-03-26T08:26:58Z</time>
      </trkpt>
      <trkpt lat="49.1581" lon="2.01542">
        <ele>161.7</ele>
        <time>2023-03-26T08:27:03Z</time>
      </trkpt>
      <trkpt lat="49.15813" lon="2.0154">
        <ele>160.7</ele>
        <time>2023-03-26T08:27:09Z</time>
      </trkpt>
      <trkpt lat="49.15815" lon="2.01539">
        <ele>160.1</ele>
        <time>2023-03-26T08:27:14Z</time>
      </trkpt>
      <trkpt lat="49.15817" lon="2.01534">
        <ele>159.4</ele>
        <time>2023-03-26T08:27:21Z</time>
      </trkpt>
      <trkpt lat="49.1582" lon="2.01529">
        <ele>159</ele>
        <time>2023-03-26T08:27:26Z</time>
      </trkpt>
      <trkpt lat="49.15825" lon="2.01524">
        <ele>158.6</ele>
        <time>2023-03-26T08:27:31Z</time>
      </trkpt>
      <trkpt lat="49.15829" lon="2.01518">
        <ele>158.2</ele>
        <time>2023-03-26T08:27:37Z</time>
      </trkpt>
      <trkpt lat="49.1583" lon="2.01516">
        <ele>158</ele>
        <time>2023-03-26T08:27:43Z</time>
      </trkpt>
      <trkpt lat="49.1583" lon="2.01515">
        <ele>157.8</ele>
        <time>2023-03-26T08:27:49Z</time>
      </trkpt>
      <trkpt lat="49.15829" lon="2.01513">
        <ele>157.8</ele>
        <time>2023-03-26T08:27:55Z</time>
      </trkpt>
      <trkpt lat="49.15829" lon="2.01513">
        <ele>157.8</ele>
        <time>2023-03-26T08:28:01Z</time>
      </trkpt>
      <trkpt lat="49.15829" lon="2.01512">
        <ele>157.9</ele>
        <time>2023-03-26T08:28:07Z</time>
      </trkpt>
      <trkpt lat="49.15829" lon="2.01512">
        <ele>158.1</ele>
        <time>2023-03-26T08:28:13Z</time>
      </trkpt>
      <trkpt lat="49.15829" lon="2.01508">
        <ele>158.4</ele>
        <time>2023-03-26T08:28:18Z</time>
      </trkpt>
      <trkpt lat="49.15833" lon="2.01503">
        <ele>158.7</ele>
        <time>2023-03-26T08:28:23Z</time>
      </trkpt>
      <trkpt lat="49.15839" lon="2.01499">
        <ele>158.9</ele>
        <time>2023-03-26T08:28:29Z</time>
      </trkpt>
      <trkpt lat="49.15845" lon="2.01493">
        <ele>159.3</ele>
        <time>2023-03-26T08:28:35Z</time>
      </trkpt>
      <trkpt lat="49.15852" lon="2.01485">
        <ele>159.9</ele>
        <time>2023-03-26T08:28:41Z</time>
      </trkpt>
      <trkpt lat="49.15854" lon="2.01482">
        <ele>160.5</ele>
        <time>2023-03-26T08:28:46Z</time>
      </trkpt>
      <trkpt lat="49.15858" lon="2.01481">
        <ele>161</ele>
        <time>2023-03-26T08:28:51Z</time>
      </trkpt>
      <trkpt lat="49.15859" lon="2.01475">
        <ele>161.3</ele>
        <time>2023-03-26T08:28:57Z</time>
      </trkpt>
      <trkpt lat="49.15865" lon="2.01468">
        <ele>161.4</ele>
        <time>2023-03-26T08:29:02Z</time>
      </trkpt>
      <trkpt lat="49.15867" lon="2.01465">
        <ele>161.4</ele>
        <time>2023-03-26T08:29:08Z</time>
      </trkpt>
      <trkpt lat="49.15868" lon="2.01465">
        <ele>161.7</ele>
        <time>2023-03-26T08:29:13Z</time>
      </trkpt>
      <trkpt lat="49.15873" lon="2.0146">
        <ele>161.9</ele>
        <time>2023-03-26T08:29:19Z</time>
      </trkpt>
      <trkpt lat="49.15878" lon="2.01454">
        <ele>161.8</ele>
        <time>2023-03-26T08:29:25Z</time>
      </trkpt>
      <trkpt lat="49.15883" lon="2.0145">
        <ele>161.6</ele>
        <time>2023-03-26T08:29:30Z</time>
      </trkpt>
      <trkpt lat="49.15888" lon="2.01444">
        <ele>161.7</ele>
        <time>2023-03-26T08:29:35Z</time>
      </trkpt>
      <trkpt lat="49.15894" lon="2.01437">
        <ele>161.6</ele>
        <time>2023-03-26T08:29:40Z</time>
      </trkpt>
      <trkpt lat="49.15901" lon="2.01432">
        <ele>161.4</ele>
        <time>2023-03-26T08:29:46Z</time>
      </trkpt>
      <trkpt lat="49.15906" lon="2.01426">
        <ele>161.1</ele>
        <time>2023-03-26T08:29:52Z</time>
      </trkpt>
      <trkpt lat="49.15911" lon="2.01421">
        <ele>161.1</ele>
        <time>2023-03-26T08:29:57Z</time>
      </trkpt>
      <trkpt lat="49.15917" lon="2.01417">
        <ele>161.4</ele>
        <time>2023-03-26T08:30:02Z</time>
      </trkpt>
      <trkpt lat="49.15924" lon="2.01412">
        <ele>161.6</ele>
        <time>2023-03-26T08:30:08Z</time>
      </trkpt>
      <trkpt lat="49.15929" lon="2.01406">
        <ele>161.7</ele>
        <time>2023-03-26T08:30:14Z</time>
      </trkpt>
      <trkpt lat="49.15935" lon="2.01403">
        <ele>161.8</ele>
        <time>2023-03-26T08:30:19Z</time>
      </trkpt>
      <trkpt lat="49.1594" lon="2.01398">
        <ele>162</ele>
        <time>2023-03-26T08:30:25Z</time>
      </trkpt>
      <trkpt lat="49.15946" lon="2.0139">
        <ele>162.5</ele>
        <time>2023-03-26T08:30:30Z</time>
      </trkpt>
      <trkpt lat="49.15951" lon="2.01385">
        <ele>162.9</ele>
        <time>2023-03-26T08:30:35Z</time>
      </trkpt>
      <trkpt lat="49.15958" lon="2.0138">
        <ele>163.4</ele>
        <time>2023-03-26T08:30:41Z</time>
      </trkpt>
      <trkpt lat="49.15962" lon="2.01375">
        <ele>163.7</ele>
        <time>2023-03-26T08:30:46Z</time>
      </trkpt>
      <trkpt lat="49.15967" lon="2.01369">
        <ele>164</ele>
        <time>2023-03-26T08:30:51Z</time>
      </trkpt>
      <trkpt lat="49.15975" lon="2.01362">
        <ele>164.4</ele>
        <time>2023-03-26T08:30:58Z</time>
      </trkpt>
      <trkpt lat="49.15982" lon="2.01357">
        <ele>164.7</ele>
        <time>2023-03-26T08:31:03Z</time>
      </trkpt>
      <trkpt lat="49.1599" lon="2.01351">
        <ele>164.7</ele>
        <time>2023-03-26T08:31:10Z</time>
      </trkpt>
      <trkpt lat="49.15997" lon="2.01346">
        <ele>165.1</ele>
        <time>2023-03-26T08:31:15Z</time>
      </trkpt>
      <trkpt lat="49.16001" lon="2.01341">
        <ele>165.4</ele>
        <time>2023-03-26T08:31:20Z</time>
      </trkpt>
      <trkpt lat="49.16005" lon="2.01337">
        <ele>165.6</ele>
        <time>2023-03-26T08:31:26Z</time>
      </trkpt>
      <trkpt lat="49.16009" lon="2.01334">
        <ele>165.7</ele>
        <time>2023-03-26T08:31:32Z</time>
      </trkpt>
      <trkpt lat="49.16016" lon="2.01327">
        <ele>165.7</ele>
        <time>2023-03-26T08:31:37Z</time>
      </trkpt>
      <trkpt lat="49.16021" lon="2.01318">
        <ele>165.5</ele>
        <time>2023-03-26T08:31:42Z</time>
      </trkpt>
      <trkpt lat="49.16028" lon="2.0131">
        <ele>165.2</ele>
        <time>2023-03-26T08:31:49Z</time>
      </trkpt>
      <trkpt lat="49.16034" lon="2.01304">
        <ele>165.1</ele>
        <time>2023-03-26T08:31:54Z</time>
      </trkpt>
      <trkpt lat="49.16036" lon="2.01299">
        <ele>164.7</ele>
        <time>2023-03-26T08:32:00Z</time>
      </trkpt>
      <trkpt lat="49.16037" lon="2.01294">
        <ele>164.4</ele>
        <time>2023-03-26T08:32:05Z</time>
      </trkpt>
      <trkpt lat="49.1604" lon="2.01286">
        <ele>164.3</ele>
        <time>2023-03-26T08:32:10Z</time>
      </trkpt>
      <trkpt lat="49.16041" lon="2.01278">
        <ele>164.2</ele>
        <time>2023-03-26T08:32:15Z</time>
      </trkpt>
      <trkpt lat="49.16043" lon="2.01272">
        <ele>164</ele>
        <time>2023-03-26T08:32:20Z</time>
      </trkpt>
      <trkpt lat="49.16046" lon="2.01267">
        <ele>163.5</ele>
        <time>2023-03-26T08:32:25Z</time>
      </trkpt>
      <trkpt lat="49.1605" lon="2.01256">
        <ele>162.7</ele>
        <time>2023-03-26T08:32:31Z</time>
      </trkpt>
      <trkpt lat="49.16053" lon="2.01246">
        <ele>161.6</ele>
        <time>2023-03-26T08:32:37Z</time>
      </trkpt>
      <trkpt lat="49.16055" lon="2.01242">
        <ele>160.5</ele>
        <time>2023-03-26T08:32:43Z</time>
      </trkpt>
      <trkpt lat="49.16056" lon="2.01236">
        <ele>159.3</ele>
        <time>2023-03-26T08:32:48Z</time>
      </trkpt>
      <trkpt lat="49.16058" lon="2.01229">
        <ele>157.7</ele>
        <time>2023-03-26T08:32:54Z</time>
      </trkpt>
      <trkpt lat="49.16062" lon="2.01221">
        <ele>156.7</ele>
        <time>2023-03-26T08:32:59Z</time>
      </trkpt>
      <trkpt lat="49.16064" lon="2.01217">
        <ele>155.7</ele>
        <time>2023-03-26T08:33:04Z</time>
      </trkpt>
      <trkpt lat="49.16068" lon="2.01211">
        <ele>154.7</ele>
        <time>2023-03-26T08:33:10Z</time>
      </trkpt>
      <trkpt lat="49.16075" lon="2.01205">
        <ele>153.5</ele>
        <time>2023-03-26T08:33:15Z</time>
      </trkpt>
      <trkpt lat="49.1608" lon="2.01199">
        <ele>152.2</ele>
        <time>2023-03-26T08:33:20Z</time>
      </trkpt>
      <trkpt lat="49.16083" lon="2.01189">
        <ele>150.6</ele>
        <time>2023-03-26T08:33:27Z</time>
      </trkpt>
      <trkpt lat="49.16088" lon="2.01183">
        <ele>149.4</ele>
        <time>2023-03-26T08:33:32Z</time>
      </trkpt>
      <trkpt lat="49.16093" lon="2.01179">
        <ele>148.5</ele>
        <time>2023-03-26T08:33:37Z</time>
      </trkpt>
      <trkpt lat="49.16096" lon="2.01171">
        <ele>147.7</ele>
        <time>2023-03-26T08:33:42Z</time>
      </trkpt>
      <trkpt lat="49.16099" lon="2.01165">
        <ele>146.9</ele>
        <time>2023-03-26T08:33:47Z</time>
      </trkpt>
      <trkpt lat="49.16104" lon="2.01155">
        <ele>146.1</ele>
        <time>2023-03-26T08:33:54Z</time>
      </trkpt>
      <trkpt lat="49.16111" lon="2.01145">
        <ele>145.6</ele>
        <time>2023-03-26T08:33:59Z</time>
      </trkpt>
      <trkpt lat="49.16117" lon="2.01138">
        <ele>145.4</ele>
        <time>2023-03-26T08:34:04Z</time>
      </trkpt>
      <trkpt lat="49.16123" lon="2.01133">
        <ele>145.3</ele>
        <time>2023-03-26T08:34:09Z</time>
      </trkpt>
      <trkpt lat="49.16129" lon="2.01126">
        <ele>145.4</ele>
        <time>2023-03-26T08:34:15Z</time>
      </trkpt>
      <trkpt lat="49.16135" lon="2.01119">
        <ele>145.6</ele>
        <time>2023-03-26T08:34:20Z</time>
      </trkpt>
      <trkpt lat="49.16141" lon="2.01111">
        <ele>146</ele>
        <time>2023-03-26T08:34:26Z</time>
      </trkpt>
      <trkpt lat="49.16147" lon="2.01102">
        <ele>146.3</ele>
        <time>2023-03-26T08:34:32Z</time>
      </trkpt>
      <trkpt lat="49.16153" lon="2.01094">
        <ele>146.8</ele>
        <time>2023-03-26T08:34:38Z</time>
      </trkpt>
      <trkpt lat="49.16157" lon="2.01089">
        <ele>147.2</ele>
        <time>2023-03-26T08:34:43Z</time>
      </trkpt>
      <trkpt lat="49.16162" lon="2.0108">
        <ele>147.5</ele>
        <time>2023-03-26T08:34:49Z</time>
      </trkpt>
      <trkpt lat="49.16168" lon="2.01071">
        <ele>148.2</ele>
        <time>2023-03-26T08:34:55Z</time>
      </trkpt>
      <trkpt lat="49.16173" lon="2.01062">
        <ele>149.2</ele>
        <time>2023-03-26T08:35:01Z</time>
      </trkpt>
      <trkpt lat="49.16179" lon="2.01055">
        <ele>150.3</ele>
        <time>2023-03-26T08:35:06Z</time>
      </trkpt>
      <trkpt lat="49.16185" lon="2.01048">
        <ele>151.6</ele>
        <time>2023-03-26T08:35:12Z</time>
      </trkpt>
      <trkpt lat="49.1619" lon="2.01043">
        <ele>152.6</ele>
        <time>2023-03-26T08:35:18Z</time>
      </trkpt>
      <trkpt lat="49.16197" lon="2.01036">
        <ele>153.8</ele>
        <time>2023-03-26T08:35:23Z</time>
      </trkpt>
      <trkpt lat="49.16204" lon="2.0103">
        <ele>155</ele>
        <time>2023-03-26T08:35:30Z</time>
      </trkpt>
      <trkpt lat="49.1621" lon="2.01024">
        <ele>156.2</ele>
        <time>2023-03-26T08:35:35Z</time>
      </trkpt>
      <trkpt lat="49.16215" lon="2.01021">
        <ele>157.1</ele>
        <time>2023-03-26T08:35:40Z</time>
      </trkpt>
      <trkpt lat="49.1622" lon="2.01017">
        <ele>158.1</ele>
        <time>2023-03-26T08:35:46Z</time>
      </trkpt>
      <trkpt lat="49.16225" lon="2.01014">
        <ele>158.7</ele>
        <time>2023-03-26T08:35:51Z</time>
      </trkpt>
      <trkpt lat="49.1623" lon="2.01009">
        <ele>159.4</ele>
        <time>2023-03-26T08:35:57Z</time>
      </trkpt>
      <trkpt lat="49.16236" lon="2.01002">
        <ele>160</ele>
        <time>2023-03-26T08:36:03Z</time>
      </trkpt>
      <trkpt lat="49.16242" lon="2.00996">
        <ele>160.5</ele>
        <time>2023-03-26T08:36:10Z</time>
      </trkpt>
      <trkpt lat="49.16248" lon="2.0099">
        <ele>161</ele>
        <time>2023-03-26T08:36:15Z</time>
      </trkpt>
      <trkpt lat="49.16253" lon="2.00986">
        <ele>161.4</ele>
        <time>2023-03-26T08:36:20Z</time>
      </trkpt>
      <trkpt lat="49.16258" lon="2.0098">
        <ele>161.7</ele>
        <time>2023-03-26T08:36:26Z</time>
      </trkpt>
      <trkpt lat="49.16263" lon="2.00974">
        <ele>162.1</ele>
        <time>2023-03-26T08:36:31Z</time>
      </trkpt>
      <trkpt lat="49.16269" lon="2.00966">
        <ele>162.5</ele>
        <time>2023-03-26T08:36:37Z</time>
      </trkpt>
      <trkpt lat="49.16275" lon="2.0096">
        <ele>163.1</ele>
        <time>2023-03-26T08:36:43Z</time>
      </trkpt>
      <trkpt lat="49.1628" lon="2.00953">
        <ele>163.8</ele>
        <time>2023-03-26T08:36:49Z</time>
      </trkpt>
      <trkpt lat="49.16286" lon="2.00945">
        <ele>164.4</ele>
        <time>2023-03-26T08:36:55Z</time>
      </trkpt>
      <trkpt lat="49.16291" lon="2.00939">
        <ele>164.7</ele>
        <time>2023-03-26T08:37:00Z</time>
      </trkpt>
      <trkpt lat="49.16296" lon="2.00933">
        <ele>165.1</ele>
        <time>2023-03-26T08:37:06Z</time>
      </trkpt>
      <trkpt lat="49.16299" lon="2.00928">
        <ele>165.2</ele>
        <time>2023-03-26T08:37:11Z</time>
      </trkpt>
      <trkpt lat="49.16304" lon="2.00922">
        <ele>165.1</ele>
        <time>2023-03-26T08:37:17Z</time>
      </trkpt>
      <trkpt lat="49.16308" lon="2.00915">
        <ele>164.9</ele>
        <time>2023-03-26T08:37:23Z</time>
      </trkpt>
      <trkpt lat="49.16313" lon="2.00907">
        <ele>164.7</ele>
        <time>2023-03-26T08:37:30Z</time>
      </trkpt>
      <trkpt lat="49.16318" lon="2.00898">
        <ele>164.4</ele>
        <time>2023-03-26T08:37:35Z</time>
      </trkpt>
      <trkpt lat="49.16324" lon="2.0089">
        <ele>164.1</ele>
        <time>2023-03-26T08:37:41Z</time>
      </trkpt>
      <trkpt lat="49.16328" lon="2.00883">
        <ele>163.9</ele>
        <time>2023-03-26T08:37:46Z</time>
      </trkpt>
      <trkpt lat="49.16333" lon="2.00874">
        <ele>163.8</ele>
        <time>2023-03-26T08:37:52Z</time>
      </trkpt>
      <trkpt lat="49.16337" lon="2.00866">
        <ele>163.8</ele>
        <time>2023-03-26T08:37:57Z</time>
      </trkpt>
      <trkpt lat="49.16342" lon="2.00858">
        <ele>163.9</ele>
        <time>2023-03-26T08:38:03Z</time>
      </trkpt>
      <trkpt lat="49.16346" lon="2.00851">
        <ele>163.9</ele>
        <time>2023-03-26T08:38:09Z</time>
      </trkpt>
      <trkpt lat="49.16351" lon="2.00842">
        <ele>164</ele>
        <time>2023-03-26T08:38:14Z</time>
      </trkpt>
      <trkpt lat="49.16356" lon="2.00834">
        <ele>164.2</ele>
        <time>2023-03-26T08:38:19Z</time>
      </trkpt>
      <trkpt lat="49.16361" lon="2.00824">
        <ele>164.8</ele>
        <time>2023-03-26T08:38:25Z</time>
      </trkpt>
      <trkpt lat="49.16367" lon="2.00814">
        <ele>165.5</ele>
        <time>2023-03-26T08:38:32Z</time>
      </trkpt>
      <trkpt lat="49.16373" lon="2.00805">
        <ele>166.4</ele>
        <time>2023-03-26T08:38:37Z</time>
      </trkpt>
      <trkpt lat="49.16379" lon="2.00796">
        <ele>167.5</ele>
        <time>2023-03-26T08:38:43Z</time>
      </trkpt>
      <trkpt lat="49.16384" lon="2.0079">
        <ele>168.4</ele>
        <time>2023-03-26T08:38:48Z</time>
      </trkpt>
      <trkpt lat="49.16388" lon="2.00782">
        <ele>169.2</ele>
        <time>2023-03-26T08:38:54Z</time>
      </trkpt>
      <trkpt lat="49.16393" lon="2.00772">
        <ele>169.9</ele>
        <time>2023-03-26T08:39:00Z</time>
      </trkpt>
      <trkpt lat="49.16397" lon="2.00764">
        <ele>170.4</ele>
        <time>2023-03-26T08:39:06Z</time>
      </trkpt>
      <trkpt lat="49.16403" lon="2.00756">
        <ele>171</ele>
        <time>2023-03-26T08:39:11Z</time>
      </trkpt>
      <trkpt lat="49.16407" lon="2.00747">
        <ele>171.4</ele>
        <time>2023-03-26T08:39:17Z</time>
      </trkpt>
      <trkpt lat="49.16412" lon="2.00739">
        <ele>171.6</ele>
        <time>2023-03-26T08:39:22Z</time>
      </trkpt>
      <trkpt lat="49.16417" lon="2.00731">
        <ele>171.8</ele>
        <time>2023-03-26T08:39:28Z</time>
      </trkpt>
      <trkpt lat="49.16422" lon="2.00722">
        <ele>171.9</ele>
        <time>2023-03-26T08:39:33Z</time>
      </trkpt>
      <trkpt lat="49.16428" lon="2.00712">
        <ele>172</ele>
        <time>2023-03-26T08:39:39Z</time>
      </trkpt>
      <trkpt lat="49.16433" lon="2.00702">
        <ele>172</ele>
        <time>2023-03-26T08:39:45Z</time>
      </trkpt>
      <trkpt lat="49.16437" lon="2.00692">
        <ele>171.9</ele>
        <time>2023-03-26T08:39:51Z</time>
      </trkpt>
      <trkpt lat="49.16441" lon="2.00684">
        <ele>171.7</ele>
        <time>2023-03-26T08:39:56Z</time>
      </trkpt>
      <trkpt lat="49.16445" lon="2.00675">
        <ele>171.3</ele>
        <time>2023-03-26T08:40:02Z</time>
      </trkpt>
      <trkpt lat="49.16449" lon="2.00667">
        <ele>170.9</ele>
        <time>2023-03-26T08:40:07Z</time>
      </trkpt>
      <trkpt lat="49.16454" lon="2.00658">
        <ele>170.5</ele>
        <time>2023-03-26T08:40:13Z</time>
      </trkpt>
      <trkpt lat="49.16457" lon="2.00649">
        <ele>170.1</ele>
        <time>2023-03-26T08:40:19Z</time>
      </trkpt>
      <trkpt lat="49.16459" lon="2.0064">
        <ele>169.7</ele>
        <time>2023-03-26T08:40:25Z</time>
      </trkpt>
      <trkpt lat="49.16463" lon="2.00631">
        <ele>169.3</ele>
        <time>2023-03-26T08:40:31Z</time>
      </trkpt>
      <trkpt lat="49.16466" lon="2.00623">
        <ele>169</ele>
        <time>2023-03-26T08:40:36Z</time>
      </trkpt>
      <trkpt lat="49.16469" lon="2.00613">
        <ele>168.6</ele>
        <time>2023-03-26T08:40:41Z</time>
      </trkpt>
      <trkpt lat="49.16472" lon="2.00604">
        <ele>168.2</ele>
        <time>2023-03-26T08:40:47Z</time>
      </trkpt>
      <trkpt lat="49.16476" lon="2.00595">
        <ele>167.8</ele>
        <time>2023-03-26T08:40:52Z</time>
      </trkpt>
      <trkpt lat="49.16479" lon="2.00584">
        <ele>167.4</ele>
        <time>2023-03-26T08:40:58Z</time>
      </trkpt>
      <trkpt lat="49.16482" lon="2.00572">
        <ele>167.1</ele>
        <time>2023-03-26T08:41:04Z</time>
      </trkpt>
      <trkpt lat="49.16481" lon="2.00559">
        <ele>166.9</ele>
        <time>2023-03-26T08:41:10Z</time>
      </trkpt>
      <trkpt lat="49.16479" lon="2.00548">
        <ele>167</ele>
        <time>2023-03-26T08:41:16Z</time>
      </trkpt>
      <trkpt lat="49.16477" lon="2.00537">
        <ele>167.3</ele>
        <time>2023-03-26T08:41:21Z</time>
      </trkpt>
      <trkpt lat="49.16473" lon="2.00526">
        <ele>167.8</ele>
        <time>2023-03-26T08:41:27Z</time>
      </trkpt>
      <trkpt lat="49.1647" lon="2.00515">
        <ele>168.3</ele>
        <time>2023-03-26T08:41:34Z</time>
      </trkpt>
      <trkpt lat="49.16467" lon="2.00504">
        <ele>168.9</ele>
        <time>2023-03-26T08:41:39Z</time>
      </trkpt>
      <trkpt lat="49.16465" lon="2.00495">
        <ele>169.3</ele>
        <time>2023-03-26T08:41:44Z</time>
      </trkpt>
      <trkpt lat="49.16461" lon="2.00484">
        <ele>169.7</ele>
        <time>2023-03-26T08:41:50Z</time>
      </trkpt>
      <trkpt lat="49.16458" lon="2.00474">
        <ele>170.1</ele>
        <time>2023-03-26T08:41:55Z</time>
      </trkpt>
      <trkpt lat="49.16454" lon="2.00465">
        <ele>170.6</ele>
        <time>2023-03-26T08:42:00Z</time>
      </trkpt>
      <trkpt lat="49.16449" lon="2.00453">
        <ele>171.2</ele>
        <time>2023-03-26T08:42:06Z</time>
      </trkpt>
      <trkpt lat="49.16445" lon="2.00442">
        <ele>171.7</ele>
        <time>2023-03-26T08:42:12Z</time>
      </trkpt>
      <trkpt lat="49.16441" lon="2.00434">
        <ele>172.3</ele>
        <time>2023-03-26T08:42:17Z</time>
      </trkpt>
      <trkpt lat="49.16438" lon="2.00425">
        <ele>173</ele>
        <time>2023-03-26T08:42:23Z</time>
      </trkpt>
      <trkpt lat="49.16437" lon="2.00411">
        <ele>173.7</ele>
        <time>2023-03-26T08:42:29Z</time>
      </trkpt>
      <trkpt lat="49.16437" lon="2.00401">
        <ele>174.1</ele>
        <time>2023-03-26T08:42:34Z</time>
      </trkpt>
      <trkpt lat="49.16439" lon="2.00391">
        <ele>174.7</ele>
        <time>2023-03-26T08:42:40Z</time>
      </trkpt>
      <trkpt lat="49.16441" lon="2.0038">
        <ele>175.3</ele>
        <time>2023-03-26T08:42:46Z</time>
      </trkpt>
      <trkpt lat="49.16442" lon="2.00371">
        <ele>175.8</ele>
        <time>2023-03-26T08:42:51Z</time>
      </trkpt>
      <trkpt lat="49.16443" lon="2.00359">
        <ele>176.3</ele>
        <time>2023-03-26T08:42:57Z</time>
      </trkpt>
      <trkpt lat="49.16442" lon="2.00349">
        <ele>176.6</ele>
        <time>2023-03-26T08:43:03Z</time>
      </trkpt>
      <trkpt lat="49.1644" lon="2.0034">
        <ele>176.7</ele>
        <time>2023-03-26T08:43:08Z</time>
      </trkpt>
      <trkpt lat="49.16438" lon="2.0033">
        <ele>176.7</ele>
        <time>2023-03-26T08:43:13Z</time>
      </trkpt>
      <trkpt lat="49.16434" lon="2.00317">
        <ele>176.8</ele>
        <time>2023-03-26T08:43:19Z</time>
      </trkpt>
      <trkpt lat="49.16432" lon="2.00306">
        <ele>176.9</ele>
        <time>2023-03-26T08:43:25Z</time>
      </trkpt>
      <trkpt lat="49.1643" lon="2.00298">
        <ele>176.9</ele>
        <time>2023-03-26T08:43:30Z</time>
      </trkpt>
      <trkpt lat="49.16427" lon="2.00288">
        <ele>177.1</ele>
        <time>2023-03-26T08:43:35Z</time>
      </trkpt>
      <trkpt lat="49.16425" lon="2.00278">
        <ele>177.4</ele>
        <time>2023-03-26T08:43:41Z</time>
      </trkpt>
      <trkpt lat="49.16421" lon="2.00267">
        <ele>177.8</ele>
        <time>2023-03-26T08:43:46Z</time>
      </trkpt>
      <trkpt lat="49.16418" lon="2.00259">
        <ele>178</ele>
        <time>2023-03-26T08:43:51Z</time>
      </trkpt>
      <trkpt lat="49.16414" lon="2.00249">
        <ele>178.4</ele>
        <time>2023-03-26T08:43:57Z</time>
      </trkpt>
      <trkpt lat="49.16411" lon="2.00242">
        <ele>178.9</ele>
        <time>2023-03-26T08:44:03Z</time>
      </trkpt>
      <trkpt lat="49.16408" lon="2.00232">
        <ele>179.3</ele>
        <time>2023-03-26T08:44:08Z</time>
      </trkpt>
      <trkpt lat="49.16406" lon="2.00223">
        <ele>179.5</ele>
        <time>2023-03-26T08:44:13Z</time>
      </trkpt>
      <trkpt lat="49.16403" lon="2.00213">
        <ele>179.7</ele>
        <time>2023-03-26T08:44:18Z</time>
      </trkpt>
      <trkpt lat="49.164" lon="2.00201">
        <ele>180.1</ele>
        <time>2023-03-26T08:44:24Z</time>
      </trkpt>
      <trkpt lat="49.16397" lon="2.00191">
        <ele>180.5</ele>
        <time>2023-03-26T08:44:29Z</time>
      </trkpt>
      <trkpt lat="49.16394" lon="2.00179">
        <ele>181.2</ele>
        <time>2023-03-26T08:44:35Z</time>
      </trkpt>
      <trkpt lat="49.16391" lon="2.00169">
        <ele>181.8</ele>
        <time>2023-03-26T08:44:40Z</time>
      </trkpt>
      <trkpt lat="49.16388" lon="2.00157">
        <ele>182.6</ele>
        <time>2023-03-26T08:44:46Z</time>
      </trkpt>
      <trkpt lat="49.16386" lon="2.00147">
        <ele>183.2</ele>
        <time>2023-03-26T08:44:52Z</time>
      </trkpt>
      <trkpt lat="49.16384" lon="2.00136">
        <ele>183.9</ele>
        <time>2023-03-26T08:44:57Z</time>
      </trkpt>
      <trkpt lat="49.16381" lon="2.00125">
        <ele>184.5</ele>
        <time>2023-03-26T08:45:03Z</time>
      </trkpt>
      <trkpt lat="49.16378" lon="2.00116">
        <ele>185</ele>
        <time>2023-03-26T08:45:09Z</time>
      </trkpt>
      <trkpt lat="49.16377" lon="2.00109">
        <ele>185.3</ele>
        <time>2023-03-26T08:45:14Z</time>
      </trkpt>
      <trkpt lat="49.16375" lon="2.00099">
        <ele>185.4</ele>
        <time>2023-03-26T08:45:20Z</time>
      </trkpt>
      <trkpt lat="49.16373" lon="2.0009">
        <ele>185.5</ele>
        <time>2023-03-26T08:45:25Z</time>
      </trkpt>
      <trkpt lat="49.1637" lon="2.00079">
        <ele>185.7</ele>
        <time>2023-03-26T08:45:31Z</time>
      </trkpt>
      <trkpt lat="49.16368" lon="2.00068">
        <ele>185.8</ele>
        <time>2023-03-26T08:45:36Z</time>
      </trkpt>
      <trkpt lat="49.16366" lon="2.00058">
        <ele>186</ele>
        <time>2023-03-26T08:45:41Z</time>
      </trkpt>
      <trkpt lat="49.16363" lon="2.00046">
        <ele>186.3</ele>
        <time>2023-03-26T08:45:47Z</time>
      </trkpt>
      <trkpt lat="49.16361" lon="2.00034">
        <ele>186.4</ele>
        <time>2023-03-26T08:45:54Z</time>
      </trkpt>
      <trkpt lat="49.16359" lon="2.00024">
        <ele>186.4</ele>
        <time>2023-03-26T08:45:59Z</time>
      </trkpt>
      <trkpt lat="49.16356" lon="2.00013">
        <ele>186.5</ele>
        <time>2023-03-26T08:46:05Z</time>
      </trkpt>
      <trkpt lat="49.16353" lon="2.00002">
        <ele>186.9</ele>
        <time>2023-03-26T08:46:11Z</time>
      </trkpt>
      <trkpt lat="49.16351" lon="1.99992">
        <ele>187.1</ele>
        <time>2023-03-26T08:46:17Z</time>
      </trkpt>
      <trkpt lat="49.16349" lon="1.99982">
        <ele>187.2</ele>
        <time>2023-03-26T08:46:22Z</time>
      </trkpt>
      <trkpt lat="49.16348" lon="1.99974">
        <ele>187.4</ele>
        <time>2023-03-26T08:46:27Z</time>
      </trkpt>
      <trkpt lat="49.1635" lon="1.99969">
        <ele>187.6</ele>
        <time>2023-03-26T08:46:32Z</time>
      </trkpt>
      <trkpt lat="49.16355" lon="1.99967">
        <ele>188.1</ele>
        <time>2023-03-26T08:46:38Z</time>
      </trkpt>
      <trkpt lat="49.16362" lon="1.99966">
        <ele>188.6</ele>
        <time>2023-03-26T08:46:43Z</time>
      </trkpt>
      <trkpt lat="49.1637" lon="1.99964">
        <ele>189.1</ele>
        <time>2023-03-26T08:46:49Z</time>
      </trkpt>
      <trkpt lat="49.16378" lon="1.99962">
        <ele>189.7</ele>
        <time>2023-03-26T08:46:55Z</time>
      </trkpt>
      <trkpt lat="49.16387" lon="1.99958">
        <ele>190.3</ele>
        <time>2023-03-26T08:47:01Z</time>
      </trkpt>
      <trkpt lat="49.16395" lon="1.99956">
        <ele>190.9</ele>
        <time>2023-03-26T08:47:06Z</time>
      </trkpt>
      <trkpt lat="49.16402" lon="1.99953">
        <ele>191.5</ele>
        <time>2023-03-26T08:47:11Z</time>
      </trkpt>
      <trkpt lat="49.1641" lon="1.9995">
        <ele>192.3</ele>
        <time>2023-03-26T08:47:17Z</time>
      </trkpt>
      <trkpt lat="49.16417" lon="1.99948">
        <ele>193</ele>
        <time>2023-03-26T08:47:22Z</time>
      </trkpt>
      <trkpt lat="49.16425" lon="1.99944">
        <ele>193.8</ele>
        <time>2023-03-26T08:47:28Z</time>
      </trkpt>
      <trkpt lat="49.16434" lon="1.99942">
        <ele>194.6</ele>
        <time>2023-03-26T08:47:34Z</time>
      </trkpt>
      <trkpt lat="49.16441" lon="1.99941">
        <ele>195.4</ele>
        <time>2023-03-26T08:47:40Z</time>
      </trkpt>
      <trkpt lat="49.16447" lon="1.9994">
        <ele>195.8</ele>
        <time>2023-03-26T08:47:45Z</time>
      </trkpt>
      <trkpt lat="49.16455" lon="1.99939">
        <ele>196.3</ele>
        <time>2023-03-26T08:47:52Z</time>
      </trkpt>
      <trkpt lat="49.16463" lon="1.99937">
        <ele>196.8</ele>
        <time>2023-03-26T08:47:57Z</time>
      </trkpt>
      <trkpt lat="49.16471" lon="1.99935">
        <ele>197</ele>
        <time>2023-03-26T08:48:03Z</time>
      </trkpt>
      <trkpt lat="49.16479" lon="1.99932">
        <ele>197.1</ele>
        <time>2023-03-26T08:48:08Z</time>
      </trkpt>
      <trkpt lat="49.16488" lon="1.99928">
        <ele>197.3</ele>
        <time>2023-03-26T08:48:14Z</time>
      </trkpt>
      <trkpt lat="49.16496" lon="1.99922">
        <ele>197.5</ele>
        <time>2023-03-26T08:48:19Z</time>
      </trkpt>
      <trkpt lat="49.16503" lon="1.99918">
        <ele>197.8</ele>
        <time>2023-03-26T08:48:24Z</time>
      </trkpt>
      <trkpt lat="49.1651" lon="1.99915">
        <ele>198</ele>
        <time>2023-03-26T08:48:30Z</time>
      </trkpt>
      <trkpt lat="49.16516" lon="1.99912">
        <ele>198.3</ele>
        <time>2023-03-26T08:48:35Z</time>
      </trkpt>
      <trkpt lat="49.16522" lon="1.99908">
        <ele>198.3</ele>
        <time>2023-03-26T08:48:41Z</time>
      </trkpt>
      <trkpt lat="49.16528" lon="1.99905">
        <ele>198</ele>
        <time>2023-03-26T08:48:47Z</time>
      </trkpt>
      <trkpt lat="49.16533" lon="1.99903">
        <ele>197.5</ele>
        <time>2023-03-26T08:48:52Z</time>
      </trkpt>
      <trkpt lat="49.1654" lon="1.99902">
        <ele>197.2</ele>
        <time>2023-03-26T08:48:58Z</time>
      </trkpt>
      <trkpt lat="49.16549" lon="1.99901">
        <ele>197</ele>
        <time>2023-03-26T08:49:04Z</time>
      </trkpt>
      <trkpt lat="49.16558" lon="1.999">
        <ele>197.3</ele>
        <time>2023-03-26T08:49:10Z</time>
      </trkpt>
      <trkpt lat="49.16567" lon="1.99897">
        <ele>197.5</ele>
        <time>2023-03-26T08:49:15Z</time>
      </trkpt>
      <trkpt lat="49.16575" lon="1.99897">
        <ele>197.8</ele>
        <time>2023-03-26T08:49:21Z</time>
      </trkpt>
      <trkpt lat="49.16582" lon="1.99898">
        <ele>198.1</ele>
        <time>2023-03-26T08:49:27Z</time>
      </trkpt>
      <trkpt lat="49.16586" lon="1.99904">
        <ele>198.2</ele>
        <time>2023-03-26T08:49:32Z</time>
      </trkpt>
      <trkpt lat="49.16585" lon="1.99911">
        <ele>198</ele>
        <time>2023-03-26T08:49:37Z</time>
      </trkpt>
      <trkpt lat="49.16584" lon="1.9992">
        <ele>197.8</ele>
        <time>2023-03-26T08:49:43Z</time>
      </trkpt>
      <trkpt lat="49.16585" lon="1.99927">
        <ele>197.5</ele>
        <time>2023-03-26T08:49:49Z</time>
      </trkpt>
      <trkpt lat="49.16586" lon="1.9994">
        <ele>197.2</ele>
        <time>2023-03-26T08:49:54Z</time>
      </trkpt>
      <trkpt lat="49.16587" lon="1.99951">
        <ele>196.7</ele>
        <time>2023-03-26T08:49:59Z</time>
      </trkpt>
      <trkpt lat="49.16587" lon="1.99961">
        <ele>196.3</ele>
        <time>2023-03-26T08:50:04Z</time>
      </trkpt>
      <trkpt lat="49.16588" lon="1.99972">
        <ele>195.6</ele>
        <time>2023-03-26T08:50:09Z</time>
      </trkpt>
      <trkpt lat="49.16589" lon="1.99984">
        <ele>195.2</ele>
        <time>2023-03-26T08:50:15Z</time>
      </trkpt>
      <trkpt lat="49.1659" lon="1.99996">
        <ele>194.6</ele>
        <time>2023-03-26T08:50:20Z</time>
      </trkpt>
      <trkpt lat="49.16589" lon="2.00007">
        <ele>194.1</ele>
        <time>2023-03-26T08:50:26Z</time>
      </trkpt>
      <trkpt lat="49.1659" lon="2.00019">
        <ele>193.2</ele>
        <time>2023-03-26T08:50:31Z</time>
      </trkpt>
      <trkpt lat="49.16589" lon="2.0003">
        <ele>192.2</ele>
        <time>2023-03-26T08:50:37Z</time>
      </trkpt>
      <trkpt lat="49.1659" lon="2.00042">
        <ele>191.3</ele>
        <time>2023-03-26T08:50:43Z</time>
      </trkpt>
      <trkpt lat="49.1659" lon="2.00053">
        <ele>190.8</ele>
        <time>2023-03-26T08:50:49Z</time>
      </trkpt>
      <trkpt lat="49.16589" lon="2.00065">
        <ele>190.2</ele>
        <time>2023-03-26T08:50:54Z</time>
      </trkpt>
      <trkpt lat="49.1659" lon="2.00078">
        <ele>189.6</ele>
        <time>2023-03-26T08:51:00Z</time>
      </trkpt>
      <trkpt lat="49.1659" lon="2.00089">
        <ele>189</ele>
        <time>2023-03-26T08:51:06Z</time>
      </trkpt>
      <trkpt lat="49.16589" lon="2.00096">
        <ele>188.3</ele>
        <time>2023-03-26T08:51:12Z</time>
      </trkpt>
      <trkpt lat="49.16588" lon="2.00111">
        <ele>187.8</ele>
        <time>2023-03-26T08:51:17Z</time>
      </trkpt>
      <trkpt lat="49.16588" lon="2.00122">
        <ele>187.4</ele>
        <time>2023-03-26T08:51:22Z</time>
      </trkpt>
      <trkpt lat="49.16588" lon="2.00133">
        <ele>187</ele>
        <time>2023-03-26T08:51:28Z</time>
      </trkpt>
      <trkpt lat="49.16589" lon="2.00146">
        <ele>186.6</ele>
        <time>2023-03-26T08:51:33Z</time>
      </trkpt>
      <trkpt lat="49.16589" lon="2.00156">
        <ele>186.4</ele>
        <time>2023-03-26T08:51:38Z</time>
      </trkpt>
      <trkpt lat="49.16589" lon="2.00166">
        <ele>186.1</ele>
        <time>2023-03-26T08:51:44Z</time>
      </trkpt>
      <trkpt lat="49.1659" lon="2.00176">
        <ele>185.9</ele>
        <time>2023-03-26T08:51:49Z</time>
      </trkpt>
      <trkpt lat="49.16591" lon="2.00183">
        <ele>185.7</ele>
        <time>2023-03-26T08:51:54Z</time>
      </trkpt>
      <trkpt lat="49.16593" lon="2.00192">
        <ele>185.5</ele>
        <time>2023-03-26T08:52:00Z</time>
      </trkpt>
      <trkpt lat="49.16592" lon="2.00203">
        <ele>185.3</ele>
        <time>2023-03-26T08:52:05Z</time>
      </trkpt>
      <trkpt lat="49.16594" lon="2.00213">
        <ele>185.2</ele>
        <time>2023-03-26T08:52:11Z</time>
      </trkpt>
      <trkpt lat="49.16598" lon="2.00225">
        <ele>185.1</ele>
        <time>2023-03-26T08:52:16Z</time>
      </trkpt>
      <trkpt lat="49.16598" lon="2.00234">
        <ele>185</ele>
        <time>2023-03-26T08:52:21Z</time>
      </trkpt>
      <trkpt lat="49.16597" lon="2.00244">
        <ele>184.4</ele>
        <time>2023-03-26T08:52:27Z</time>
      </trkpt>
      <trkpt lat="49.16596" lon="2.00253">
        <ele>183.8</ele>
        <time>2023-03-26T08:52:32Z</time>
      </trkpt>
      <trkpt lat="49.16594" lon="2.00262">
        <ele>183</ele>
        <time>2023-03-26T08:52:38Z</time>
      </trkpt>
      <trkpt lat="49.16594" lon="2.00274">
        <ele>182.1</ele>
        <time>2023-03-26T08:52:43Z</time>
      </trkpt>
      <trkpt lat="49.16595" lon="2.00289">
        <ele>181.4</ele>
        <time>2023-03-26T08:52:49Z</time>
      </trkpt>
      <trkpt lat="49.16594" lon="2.003">
        <ele>180.8</ele>
        <time>2023-03-26T08:52:54Z</time>
      </trkpt>
      <trkpt lat="49.16592" lon="2.00312">
        <ele>180</ele>
        <time>2023-03-26T08:53:00Z</time>
      </trkpt>
      <trkpt lat="49.1659" lon="2.00322">
        <ele>179.5</ele>
        <time>2023-03-26T08:53:05Z</time>
      </trkpt>
      <trkpt lat="49.16588" lon="2.00334">
        <ele>178.9</ele>
        <time>2023-03-26T08:53:11Z</time>
      </trkpt>
      <trkpt lat="49.16588" lon="2.00342">
        <ele>178.5</ele>
        <time>2023-03-26T08:53:16Z</time>
      </trkpt>
      <trkpt lat="49.16587" lon="2.0035">
        <ele>178.2</ele>
        <time>2023-03-26T08:53:21Z</time>
      </trkpt>
      <trkpt lat="49.16585" lon="2.0036">
        <ele>178.2</ele>
        <time>2023-03-26T08:53:26Z</time>
      </trkpt>
      <trkpt lat="49.16583" lon="2.00374">
        <ele>178.3</ele>
        <time>2023-03-26T08:53:32Z</time>
      </trkpt>
      <trkpt lat="49.1658" lon="2.00385">
        <ele>178.3</ele>
        <time>2023-03-26T08:53:37Z</time>
      </trkpt>
      <trkpt lat="49.16579" lon="2.00394">
        <ele>178.4</ele>
        <time>2023-03-26T08:53:42Z</time>
      </trkpt>
      <trkpt lat="49.16578" lon="2.00405">
        <ele>178.4</ele>
        <time>2023-03-26T08:53:47Z</time>
      </trkpt>
      <trkpt lat="49.16579" lon="2.00418">
        <ele>178.4</ele>
        <time>2023-03-26T08:53:53Z</time>
      </trkpt>
      <trkpt lat="49.16579" lon="2.0043">
        <ele>178.6</ele>
        <time>2023-03-26T08:53:59Z</time>
      </trkpt>
      <trkpt lat="49.16581" lon="2.0044">
        <ele>178.7</ele>
        <time>2023-03-26T08:54:05Z</time>
      </trkpt>
      <trkpt lat="49.16585" lon="2.00451">
        <ele>178.8</ele>
        <time>2023-03-26T08:54:10Z</time>
      </trkpt>
      <trkpt lat="49.16587" lon="2.00461">
        <ele>178.9</ele>
        <time>2023-03-26T08:54:15Z</time>
      </trkpt>
      <trkpt lat="49.1659" lon="2.00471">
        <ele>178.9</ele>
        <time>2023-03-26T08:54:21Z</time>
      </trkpt>
      <trkpt lat="49.16593" lon="2.00482">
        <ele>178.9</ele>
        <time>2023-03-26T08:54:26Z</time>
      </trkpt>
      <trkpt lat="49.16595" lon="2.00492">
        <ele>178.7</ele>
        <time>2023-03-26T08:54:31Z</time>
      </trkpt>
      <trkpt lat="49.16598" lon="2.00504">
        <ele>178.4</ele>
        <time>2023-03-26T08:54:37Z</time>
      </trkpt>
      <trkpt lat="49.16602" lon="2.00516">
        <ele>178.1</ele>
        <time>2023-03-26T08:54:43Z</time>
      </trkpt>
      <trkpt lat="49.16605" lon="2.00526">
        <ele>177.9</ele>
        <time>2023-03-26T08:54:48Z</time>
      </trkpt>
      <trkpt lat="49.16608" lon="2.00538">
        <ele>177.9</ele>
        <time>2023-03-26T08:54:54Z</time>
      </trkpt>
      <trkpt lat="49.1661" lon="2.0055">
        <ele>178.1</ele>
        <time>2023-03-26T08:55:00Z</time>
      </trkpt>
      <trkpt lat="49.16611" lon="2.0056">
        <ele>178.4</ele>
        <time>2023-03-26T08:55:05Z</time>
      </trkpt>
      <trkpt lat="49.16614" lon="2.00568">
        <ele>178.4</ele>
        <time>2023-03-26T08:55:10Z</time>
      </trkpt>
      <trkpt lat="49.16615" lon="2.00571">
        <ele>178.3</ele>
        <time>2023-03-26T08:55:16Z</time>
      </trkpt>
      <trkpt lat="49.16615" lon="2.00571">
        <ele>178.1</ele>
        <time>2023-03-26T08:55:21Z</time>
      </trkpt>
      <trkpt lat="49.16617" lon="2.00573">
        <ele>178</ele>
        <time>2023-03-26T08:55:27Z</time>
      </trkpt>
      <trkpt lat="49.16617" lon="2.00569">
        <ele>177.8</ele>
        <time>2023-03-26T08:55:33Z</time>
      </trkpt>
      <trkpt lat="49.16613" lon="2.00565">
        <ele>177.6</ele>
        <time>2023-03-26T08:55:38Z</time>
      </trkpt>
      <trkpt lat="49.16608" lon="2.00564">
        <ele>177.7</ele>
        <time>2023-03-26T08:55:43Z</time>
      </trkpt>
      <trkpt lat="49.16601" lon="2.00561">
        <ele>177.7</ele>
        <time>2023-03-26T08:55:49Z</time>
      </trkpt>
      <trkpt lat="49.16596" lon="2.00558">
        <ele>177.8</ele>
        <time>2023-03-26T08:55:54Z</time>
      </trkpt>
      <trkpt lat="49.16589" lon="2.00554">
        <ele>177.5</ele>
        <time>2023-03-26T08:56:00Z</time>
      </trkpt>
      <trkpt lat="49.16584" lon="2.00552">
        <ele>177.2</ele>
        <time>2023-03-26T08:56:05Z</time>
      </trkpt>
      <trkpt lat="49.16582" lon="2.00547">
        <ele>176.9</ele>
        <time>2023-03-26T08:56:10Z</time>
      </trkpt>
      <trkpt lat="49.16579" lon="2.00544">
        <ele>176.8</ele>
        <time>2023-03-26T08:56:15Z</time>
      </trkpt>
      <trkpt lat="49.16582" lon="2.00549">
        <ele>176.7</ele>
        <time>2023-03-26T08:56:21Z</time>
      </trkpt>
      <trkpt lat="49.16588" lon="2.00553">
        <ele>176.6</ele>
        <time>2023-03-26T08:56:26Z</time>
      </trkpt>
      <trkpt lat="49.16595" lon="2.00556">
        <ele>176.7</ele>
        <time>2023-03-26T08:56:31Z</time>
      </trkpt>
      <trkpt lat="49.16605" lon="2.00559">
        <ele>176.9</ele>
        <time>2023-03-26T08:56:37Z</time>
      </trkpt>
      <trkpt lat="49.16614" lon="2.0056">
        <ele>177.1</ele>
        <time>2023-03-26T08:56:43Z</time>
      </trkpt>
      <trkpt lat="49.16617" lon="2.0056">
        <ele>177.4</ele>
        <time>2023-03-26T08:56:48Z</time>
      </trkpt>
      <trkpt lat="49.16617" lon="2.00559">
        <ele>177.6</ele>
        <time>2023-03-26T08:56:54Z</time>
      </trkpt>
      <trkpt lat="49.16614" lon="2.00563">
        <ele>177.6</ele>
        <time>2023-03-26T09:00:27Z</time>
      </trkpt>
      <trkpt lat="49.16614" lon="2.00563">
        <ele>177.6</ele>
        <time>2023-03-26T09:00:32Z</time>
      </trkpt>
      <trkpt lat="49.16614" lon="2.00563">
        <ele>177.6</ele>
        <time>2023-03-26T09:00:38Z</time>
      </trkpt>
      <trkpt lat="49.16614" lon="2.00563">
        <ele>177.6</ele>
        <time>2023-03-26T09:00:44Z</time>
      </trkpt>
      <trkpt lat="49.16614" lon="2.00563">
        <ele>177.6</ele>
        <time>2023-03-26T09:00:49Z</time>
      </trkpt>
      <trkpt lat="49.16613" lon="2.00563">
        <ele>177.6</ele>
        <time>2023-03-26T09:00:55Z</time>
      </trkpt>
      <trkpt lat="49.16613" lon="2.00563">
        <ele>177.6</ele>
        <time>2023-03-26T09:01:00Z</time>
      </trkpt>
      <trkpt lat="49.16613" lon="2.00562">
        <ele>177.6</ele>
        <time>2023-03-26T09:01:06Z</time>
      </trkpt>
      <trkpt lat="49.16613" lon="2.00563">
        <ele>177.6</ele>
        <time>2023-03-26T09:01:12Z</time>
      </trkpt>
      <trkpt lat="49.16613" lon="2.00562">
        <ele>177.6</ele>
        <time>2023-03-26T09:01:18Z</time>
      </trkpt>
      <trkpt lat="49.16613" lon="2.00563">
        <ele>177.6</ele>
        <time>2023-03-26T09:01:23Z</time>
      </trkpt>
      <trkpt lat="49.16613" lon="2.00563">
        <ele>177.6</ele>
        <time>2023-03-26T09:01:28Z</time>
      </trkpt>
      <trkpt lat="49.16613" lon="2.00563">
        <ele>177.6</ele>
        <time>2023-03-26T09:01:33Z</time>
      </trkpt>
      <trkpt lat="49.16613" lon="2.00563">
        <ele>177.6</ele>
        <time>2023-03-26T09:01:38Z</time>
      </trkpt>
      <trkpt lat="49.16613" lon="2.00563">
        <ele>177.6</ele>
        <time>2023-03-26T09:01:43Z</time>
      </trkpt>
      <trkpt lat="49.16615" lon="2.00566">
        <ele>177.7</ele>
        <time>2023-03-26T09:01:49Z</time>
      </trkpt>
      <trkpt lat="49.16622" lon="2.00573">
        <ele>177.7</ele>
        <time>2023-03-26T09:01:55Z</time>
      </trkpt>
      <trkpt lat="49.16629" lon="2.00574">
        <ele>178</ele>
        <time>2023-03-26T09:02:00Z</time>
      </trkpt>
      <trkpt lat="49.16636" lon="2.00574">
        <ele>178.5</ele>
        <time>2023-03-26T09:02:05Z</time>
      </trkpt>
      <trkpt lat="49.16643" lon="2.00575">
        <ele>178.9</ele>
        <time>2023-03-26T09:02:10Z</time>
      </trkpt>
      <trkpt lat="49.1665" lon="2.00577">
        <ele>179.4</ele>
        <time>2023-03-26T09:02:16Z</time>
      </trkpt>
      <trkpt lat="49.16657" lon="2.00581">
        <ele>179.9</ele>
        <time>2023-03-26T09:02:22Z</time>
      </trkpt>
      <trkpt lat="49.16661" lon="2.00582">
        <ele>180</ele>
        <time>2023-03-26T09:02:27Z</time>
      </trkpt>
      <trkpt lat="49.16668" lon="2.00583">
        <ele>180.1</ele>
        <time>2023-03-26T09:02:33Z</time>
      </trkpt>
      <trkpt lat="49.16675" lon="2.00585">
        <ele>180.1</ele>
        <time>2023-03-26T09:02:38Z</time>
      </trkpt>
      <trkpt lat="49.16681" lon="2.00585">
        <ele>180.2</ele>
        <time>2023-03-26T09:02:43Z</time>
      </trkpt>
      <trkpt lat="49.16686" lon="2.00584">
        <ele>180</ele>
        <time>2023-03-26T09:02:48Z</time>
      </trkpt>
      <trkpt lat="49.16695" lon="2.00586">
        <ele>179.7</ele>
        <time>2023-03-26T09:02:54Z</time>
      </trkpt>
      <trkpt lat="49.16705" lon="2.00587">
        <ele>179.6</ele>
        <time>2023-03-26T09:03:01Z</time>
      </trkpt>
      <trkpt lat="49.16713" lon="2.00587">
        <ele>179.6</ele>
        <time>2023-03-26T09:03:06Z</time>
      </trkpt>
      <trkpt lat="49.16721" lon="2.00588">
        <ele>180</ele>
        <time>2023-03-26T09:03:12Z</time>
      </trkpt>
      <trkpt lat="49.16728" lon="2.00588">
        <ele>180.6</ele>
        <time>2023-03-26T09:03:17Z</time>
      </trkpt>
      <trkpt lat="49.16735" lon="2.00588">
        <ele>181.4</ele>
        <time>2023-03-26T09:03:23Z</time>
      </trkpt>
      <trkpt lat="49.16741" lon="2.00585">
        <ele>182</ele>
        <time>2023-03-26T09:03:29Z</time>
      </trkpt>
      <trkpt lat="49.16747" lon="2.00583">
        <ele>182.4</ele>
        <time>2023-03-26T09:03:35Z</time>
      </trkpt>
      <trkpt lat="49.16753" lon="2.0058">
        <ele>182.5</ele>
        <time>2023-03-26T09:03:40Z</time>
      </trkpt>
      <trkpt lat="49.16761" lon="2.00575">
        <ele>182.6</ele>
        <time>2023-03-26T09:03:46Z</time>
      </trkpt>
      <trkpt lat="49.16766" lon="2.00572">
        <ele>182.6</ele>
        <time>2023-03-26T09:03:51Z</time>
      </trkpt>
      <trkpt lat="49.16771" lon="2.00565">
        <ele>182.7</ele>
        <time>2023-03-26T09:03:57Z</time>
      </trkpt>
      <trkpt lat="49.16775" lon="2.00561">
        <ele>182.6</ele>
        <time>2023-03-26T09:04:03Z</time>
      </trkpt>
      <trkpt lat="49.16781" lon="2.00557">
        <ele>182.2</ele>
        <time>2023-03-26T09:04:09Z</time>
      </trkpt>
      <trkpt lat="49.16788" lon="2.00551">
        <ele>181.9</ele>
        <time>2023-03-26T09:04:15Z</time>
      </trkpt>
      <trkpt lat="49.16797" lon="2.00545">
        <ele>181.8</ele>
        <time>2023-03-26T09:04:20Z</time>
      </trkpt>
      <trkpt lat="49.16807" lon="2.00539">
        <ele>181.9</ele>
        <time>2023-03-26T09:04:25Z</time>
      </trkpt>
      <trkpt lat="49.16812" lon="2.00534">
        <ele>182.1</ele>
        <time>2023-03-26T09:04:31Z</time>
      </trkpt>
      <trkpt lat="49.16817" lon="2.0053">
        <ele>182.6</ele>
        <time>2023-03-26T09:04:36Z</time>
      </trkpt>
      <trkpt lat="49.16824" lon="2.00523">
        <ele>183</ele>
        <time>2023-03-26T09:04:41Z</time>
      </trkpt>
      <trkpt lat="49.16831" lon="2.00517">
        <ele>183.2</ele>
        <time>2023-03-26T09:04:46Z</time>
      </trkpt>
      <trkpt lat="49.16839" lon="2.00512">
        <ele>183.5</ele>
        <time>2023-03-26T09:04:52Z</time>
      </trkpt>
      <trkpt lat="49.16845" lon="2.00506">
        <ele>184.1</ele>
        <time>2023-03-26T09:04:58Z</time>
      </trkpt>
      <trkpt lat="49.1685" lon="2.005">
        <ele>184.8</ele>
        <time>2023-03-26T09:05:04Z</time>
      </trkpt>
      <trkpt lat="49.16857" lon="2.00495">
        <ele>185.4</ele>
        <time>2023-03-26T09:05:10Z</time>
      </trkpt>
      <trkpt lat="49.16862" lon="2.00492">
        <ele>185.7</ele>
        <time>2023-03-26T09:05:15Z</time>
      </trkpt>
      <trkpt lat="49.16868" lon="2.00489">
        <ele>186.2</ele>
        <time>2023-03-26T09:05:20Z</time>
      </trkpt>
      <trkpt lat="49.1688" lon="2.00483">
        <ele>186.8</ele>
        <time>2023-03-26T09:05:26Z</time>
      </trkpt>
      <trkpt lat="49.16887" lon="2.00479">
        <ele>187.3</ele>
        <time>2023-03-26T09:05:32Z</time>
      </trkpt>
      <trkpt lat="49.16895" lon="2.00473">
        <ele>188</ele>
        <time>2023-03-26T09:05:37Z</time>
      </trkpt>
      <trkpt lat="49.16903" lon="2.00468">
        <ele>188.9</ele>
        <time>2023-03-26T09:05:43Z</time>
      </trkpt>
      <trkpt lat="49.16909" lon="2.00465">
        <ele>189.9</ele>
        <time>2023-03-26T09:05:49Z</time>
      </trkpt>
      <trkpt lat="49.16913" lon="2.00462">
        <ele>190.5</ele>
        <time>2023-03-26T09:05:55Z</time>
      </trkpt>
      <trkpt lat="49.16919" lon="2.00458">
        <ele>190.9</ele>
        <time>2023-03-26T09:06:01Z</time>
      </trkpt>
      <trkpt lat="49.16926" lon="2.00455">
        <ele>191.4</ele>
        <time>2023-03-26T09:06:06Z</time>
      </trkpt>
      <trkpt lat="49.16933" lon="2.00453">
        <ele>191.8</ele>
        <time>2023-03-26T09:06:12Z</time>
      </trkpt>
      <trkpt lat="49.16939" lon="2.00451">
        <ele>192.5</ele>
        <time>2023-03-26T09:06:17Z</time>
      </trkpt>
      <trkpt lat="49.16944" lon="2.00445">
        <ele>193.4</ele>
        <time>2023-03-26T09:06:23Z</time>
      </trkpt>
      <trkpt lat="49.16949" lon="2.00438">
        <ele>194</ele>
        <time>2023-03-26T09:06:28Z</time>
      </trkpt>
      <trkpt lat="49.16956" lon="2.0043">
        <ele>194.4</ele>
        <time>2023-03-26T09:06:34Z</time>
      </trkpt>
      <trkpt lat="49.16964" lon="2.00425">
        <ele>195.1</ele>
        <time>2023-03-26T09:06:40Z</time>
      </trkpt>
      <trkpt lat="49.16969" lon="2.00422">
        <ele>195.8</ele>
        <time>2023-03-26T09:06:45Z</time>
      </trkpt>
      <trkpt lat="49.16976" lon="2.00417">
        <ele>196.3</ele>
        <time>2023-03-26T09:06:51Z</time>
      </trkpt>
      <trkpt lat="49.1698" lon="2.00411">
        <ele>196.9</ele>
        <time>2023-03-26T09:06:56Z</time>
      </trkpt>
      <trkpt lat="49.16984" lon="2.00409">
        <ele>197.4</ele>
        <time>2023-03-26T09:07:02Z</time>
      </trkpt>
      <trkpt lat="49.16986" lon="2.00406">
        <ele>197.6</ele>
        <time>2023-03-26T09:07:07Z</time>
      </trkpt>
      <trkpt lat="49.16988" lon="2.00403">
        <ele>198.1</ele>
        <time>2023-03-26T09:07:13Z</time>
      </trkpt>
      <trkpt lat="49.16995" lon="2.00391">
        <ele>198.7</ele>
        <time>2023-03-26T09:07:20Z</time>
      </trkpt>
      <trkpt lat="49.17002" lon="2.00383">
        <ele>198.8</ele>
        <time>2023-03-26T09:07:25Z</time>
      </trkpt>
      <trkpt lat="49.1701" lon="2.00377">
        <ele>199.1</ele>
        <time>2023-03-26T09:07:31Z</time>
      </trkpt>
      <trkpt lat="49.17019" lon="2.0037">
        <ele>199.8</ele>
        <time>2023-03-26T09:07:36Z</time>
      </trkpt>
      <trkpt lat="49.17023" lon="2.00363">
        <ele>200.5</ele>
        <time>2023-03-26T09:07:41Z</time>
      </trkpt>
      <trkpt lat="49.1703" lon="2.00359">
        <ele>201.1</ele>
        <time>2023-03-26T09:07:47Z</time>
      </trkpt>
      <trkpt lat="49.17034" lon="2.00354">
        <ele>201.6</ele>
        <time>2023-03-26T09:07:52Z</time>
      </trkpt>
      <trkpt lat="49.17039" lon="2.00349">
        <ele>202.4</ele>
        <time>2023-03-26T09:07:58Z</time>
      </trkpt>
      <trkpt lat="49.17047" lon="2.00347">
        <ele>203.2</ele>
        <time>2023-03-26T09:08:03Z</time>
      </trkpt>
      <trkpt lat="49.17056" lon="2.00344">
        <ele>204.1</ele>
        <time>2023-03-26T09:08:09Z</time>
      </trkpt>
      <trkpt lat="49.17061" lon="2.00342">
        <ele>204.8</ele>
        <time>2023-03-26T09:08:14Z</time>
      </trkpt>
      <trkpt lat="49.17067" lon="2.00335">
        <ele>205.6</ele>
        <time>2023-03-26T09:08:20Z</time>
      </trkpt>
      <trkpt lat="49.17071" lon="2.00332">
        <ele>206.3</ele>
        <time>2023-03-26T09:08:25Z</time>
      </trkpt>
      <trkpt lat="49.17075" lon="2.00329">
        <ele>206.8</ele>
        <time>2023-03-26T09:08:30Z</time>
      </trkpt>
      <trkpt lat="49.1708" lon="2.00323">
        <ele>207.2</ele>
        <time>2023-03-26T09:08:36Z</time>
      </trkpt>
      <trkpt lat="49.17086" lon="2.00319">
        <ele>208.1</ele>
        <time>2023-03-26T09:08:41Z</time>
      </trkpt>
      <trkpt lat="49.17091" lon="2.00315">
        <ele>208.7</ele>
        <time>2023-03-26T09:08:47Z</time>
      </trkpt>
      <trkpt lat="49.17095" lon="2.00311">
        <ele>209.5</ele>
        <time>2023-03-26T09:08:53Z</time>
      </trkpt>
      <trkpt lat="49.171" lon="2.00309">
        <ele>210.2</ele>
        <time>2023-03-26T09:08:59Z</time>
      </trkpt>
      <trkpt lat="49.17104" lon="2.00315">
        <ele>210.4</ele>
        <time>2023-03-26T09:09:05Z</time>
      </trkpt>
      <trkpt lat="49.17105" lon="2.00323">
        <ele>210.3</ele>
        <time>2023-03-26T09:09:10Z</time>
      </trkpt>
      <trkpt lat="49.17105" lon="2.00328">
        <ele>210.3</ele>
        <time>2023-03-26T09:09:15Z</time>
      </trkpt>
      <trkpt lat="49.17107" lon="2.00339">
        <ele>210.3</ele>
        <time>2023-03-26T09:09:21Z</time>
      </trkpt>
      <trkpt lat="49.17107" lon="2.00351">
        <ele>210.2</ele>
        <time>2023-03-26T09:09:27Z</time>
      </trkpt>
      <trkpt lat="49.17111" lon="2.00367">
        <ele>210.3</ele>
        <time>2023-03-26T09:09:33Z</time>
      </trkpt>
      <trkpt lat="49.17112" lon="2.0038">
        <ele>210.2</ele>
        <time>2023-03-26T09:09:39Z</time>
      </trkpt>
      <trkpt lat="49.17111" lon="2.00389">
        <ele>210</ele>
        <time>2023-03-26T09:09:44Z</time>
      </trkpt>
      <trkpt lat="49.1711" lon="2.00399">
        <ele>209.7</ele>
        <time>2023-03-26T09:09:49Z</time>
      </trkpt>
      <trkpt lat="49.1711" lon="2.00409">
        <ele>209.3</ele>
        <time>2023-03-26T09:09:55Z</time>
      </trkpt>
      <trkpt lat="49.17109" lon="2.00421">
        <ele>208.8</ele>
        <time>2023-03-26T09:10:01Z</time>
      </trkpt>
      <trkpt lat="49.1711" lon="2.00429">
        <ele>208.5</ele>
        <time>2023-03-26T09:10:06Z</time>
      </trkpt>
      <trkpt lat="49.17109" lon="2.0044">
        <ele>208.2</ele>
        <time>2023-03-26T09:10:12Z</time>
      </trkpt>
      <trkpt lat="49.17107" lon="2.00451">
        <ele>207.8</ele>
        <time>2023-03-26T09:10:18Z</time>
      </trkpt>
      <trkpt lat="49.17106" lon="2.00461">
        <ele>207.4</ele>
        <time>2023-03-26T09:10:24Z</time>
      </trkpt>
      <trkpt lat="49.17106" lon="2.00469">
        <ele>206.8</ele>
        <time>2023-03-26T09:10:29Z</time>
      </trkpt>
      <trkpt lat="49.17106" lon="2.00477">
        <ele>205.8</ele>
        <time>2023-03-26T09:10:35Z</time>
      </trkpt>
      <trkpt lat="49.17105" lon="2.00486">
        <ele>204.9</ele>
        <time>2023-03-26T09:10:40Z</time>
      </trkpt>
      <trkpt lat="49.17104" lon="2.00498">
        <ele>204.1</ele>
        <time>2023-03-26T09:10:46Z</time>
      </trkpt>
      <trkpt lat="49.17105" lon="2.00508">
        <ele>203.8</ele>
        <time>2023-03-26T09:10:51Z</time>
      </trkpt>
      <trkpt lat="49.17107" lon="2.00517">
        <ele>203.7</ele>
        <time>2023-03-26T09:10:57Z</time>
      </trkpt>
      <trkpt lat="49.17109" lon="2.00527">
        <ele>203.7</ele>
        <time>2023-03-26T09:11:02Z</time>
      </trkpt>
      <trkpt lat="49.17113" lon="2.00538">
        <ele>203.9</ele>
        <time>2023-03-26T09:11:08Z</time>
      </trkpt>
      <trkpt lat="49.17117" lon="2.00548">
        <ele>204.3</ele>
        <time>2023-03-26T09:11:14Z</time>
      </trkpt>
      <trkpt lat="49.17122" lon="2.00557">
        <ele>204.7</ele>
        <time>2023-03-26T09:11:19Z</time>
      </trkpt>
      <trkpt lat="49.17125" lon="2.00564">
        <ele>205</ele>
        <time>2023-03-26T09:11:24Z</time>
      </trkpt>
      <trkpt lat="49.1713" lon="2.00571">
        <ele>205.5</ele>
        <time>2023-03-26T09:11:30Z</time>
      </trkpt>
      <trkpt lat="49.17134" lon="2.00574">
        <ele>205.8</ele>
        <time>2023-03-26T09:11:35Z</time>
      </trkpt>
      <trkpt lat="49.17141" lon="2.00579">
        <ele>206.2</ele>
        <time>2023-03-26T09:11:41Z</time>
      </trkpt>
      <trkpt lat="49.1715" lon="2.00585">
        <ele>206.9</ele>
        <time>2023-03-26T09:11:47Z</time>
      </trkpt>
      <trkpt lat="49.17157" lon="2.00592">
        <ele>207.9</ele>
        <time>2023-03-26T09:11:53Z</time>
      </trkpt>
      <trkpt lat="49.17163" lon="2.00597">
        <ele>209</ele>
        <time>2023-03-26T09:11:59Z</time>
      </trkpt>
      <trkpt lat="49.17167" lon="2.00603">
        <ele>209.7</ele>
        <time>2023-03-26T09:12:04Z</time>
      </trkpt>
      <trkpt lat="49.1717" lon="2.00609">
        <ele>210.6</ele>
        <time>2023-03-26T09:12:09Z</time>
      </trkpt>
      <trkpt lat="49.17176" lon="2.00616">
        <ele>212</ele>
        <time>2023-03-26T09:12:15Z</time>
      </trkpt>
      <trkpt lat="49.17181" lon="2.00622">
        <ele>213</ele>
        <time>2023-03-26T09:12:20Z</time>
      </trkpt>
      <trkpt lat="49.17187" lon="2.00629">
        <ele>213.9</ele>
        <time>2023-03-26T09:12:25Z</time>
      </trkpt>
      <trkpt lat="49.17192" lon="2.00639">
        <ele>214.9</ele>
        <time>2023-03-26T09:12:31Z</time>
      </trkpt>
      <trkpt lat="49.17197" lon="2.00647">
        <ele>215.8</ele>
        <time>2023-03-26T09:12:37Z</time>
      </trkpt>
      <trkpt lat="49.17201" lon="2.00655">
        <ele>216.4</ele>
        <time>2023-03-26T09:12:42Z</time>
      </trkpt>
      <trkpt lat="49.17206" lon="2.00663">
        <ele>217.5</ele>
        <time>2023-03-26T09:12:48Z</time>
      </trkpt>
      <trkpt lat="49.17211" lon="2.00671">
        <ele>218.3</ele>
        <time>2023-03-26T09:12:54Z</time>
      </trkpt>
      <trkpt lat="49.17215" lon="2.00679">
        <ele>218.8</ele>
        <time>2023-03-26T09:12:59Z</time>
      </trkpt>
      <trkpt lat="49.17219" lon="2.00687">
        <ele>219.4</ele>
        <time>2023-03-26T09:13:05Z</time>
      </trkpt>
      <trkpt lat="49.17223" lon="2.00695">
        <ele>220</ele>
        <time>2023-03-26T09:13:11Z</time>
      </trkpt>
      <trkpt lat="49.17227" lon="2.00701">
        <ele>220.5</ele>
        <time>2023-03-26T09:13:16Z</time>
      </trkpt>
      <trkpt lat="49.1723" lon="2.00706">
        <ele>221</ele>
        <time>2023-03-26T09:13:21Z</time>
      </trkpt>
      <trkpt lat="49.17233" lon="2.00713">
        <ele>221.7</ele>
        <time>2023-03-26T09:13:27Z</time>
      </trkpt>
      <trkpt lat="49.17238" lon="2.00722">
        <ele>222.4</ele>
        <time>2023-03-26T09:13:33Z</time>
      </trkpt>
      <trkpt lat="49.17242" lon="2.00731">
        <ele>223.1</ele>
        <time>2023-03-26T09:13:39Z</time>
      </trkpt>
      <trkpt lat="49.17247" lon="2.00737">
        <ele>223.9</ele>
        <time>2023-03-26T09:13:45Z</time>
      </trkpt>
      <trkpt lat="49.1725" lon="2.00742">
        <ele>224.8</ele>
        <time>2023-03-26T09:13:51Z</time>
      </trkpt>
      <trkpt lat="49.17254" lon="2.00748">
        <ele>225.7</ele>
        <time>2023-03-26T09:13:57Z</time>
      </trkpt>
      <trkpt lat="49.1726" lon="2.00756">
        <ele>226.6</ele>
        <time>2023-03-26T09:14:03Z</time>
      </trkpt>
      <trkpt lat="49.17266" lon="2.00762">
        <ele>227.4</ele>
        <time>2023-03-26T09:14:09Z</time>
      </trkpt>
      <trkpt lat="49.1727" lon="2.00768">
        <ele>228.4</ele>
        <time>2023-03-26T09:14:15Z</time>
      </trkpt>
      <trkpt lat="49.17275" lon="2.00775">
        <ele>229.2</ele>
        <time>2023-03-26T09:14:20Z</time>
      </trkpt>
      <trkpt lat="49.17279" lon="2.00781">
        <ele>230.1</ele>
        <time>2023-03-26T09:14:25Z</time>
      </trkpt>
      <trkpt lat="49.17283" lon="2.00787">
        <ele>231</ele>
        <time>2023-03-26T09:14:31Z</time>
      </trkpt>
      <trkpt lat="49.17287" lon="2.00792">
        <ele>231.7</ele>
        <time>2023-03-26T09:14:36Z</time>
      </trkpt>
      <trkpt lat="49.17292" lon="2.00797">
        <ele>232.3</ele>
        <time>2023-03-26T09:14:41Z</time>
      </trkpt>
      <trkpt lat="49.17296" lon="2.00802">
        <ele>233</ele>
        <time>2023-03-26T09:14:46Z</time>
      </trkpt>
      <trkpt lat="49.17301" lon="2.00807">
        <ele>234</ele>
        <time>2023-03-26T09:14:52Z</time>
      </trkpt>
      <trkpt lat="49.17303" lon="2.00812">
        <ele>234.9</ele>
        <time>2023-03-26T09:14:57Z</time>
      </trkpt>
      <trkpt lat="49.17305" lon="2.00819">
        <ele>235.6</ele>
        <time>2023-03-26T09:15:03Z</time>
      </trkpt>
      <trkpt lat="49.17309" lon="2.00825">
        <ele>236.3</ele>
        <time>2023-03-26T09:15:09Z</time>
      </trkpt>
      <trkpt lat="49.17314" lon="2.00832">
        <ele>236.7</ele>
        <time>2023-03-26T09:15:14Z</time>
      </trkpt>
      <trkpt lat="49.17317" lon="2.00838">
        <ele>236.9</ele>
        <time>2023-03-26T09:15:19Z</time>
      </trkpt>
      <trkpt lat="49.1732" lon="2.00844">
        <ele>236.8</ele>
        <time>2023-03-26T09:15:25Z</time>
      </trkpt>
      <trkpt lat="49.17322" lon="2.00847">
        <ele>236.8</ele>
        <time>2023-03-26T09:15:30Z</time>
      </trkpt>
      <trkpt lat="49.17324" lon="2.0085">
        <ele>237</ele>
        <time>2023-03-26T09:15:36Z</time>
      </trkpt>
      <trkpt lat="49.17327" lon="2.00856">
        <ele>237</ele>
        <time>2023-03-26T09:15:41Z</time>
      </trkpt>
      <trkpt lat="49.17329" lon="2.0086">
        <ele>237</ele>
        <time>2023-03-26T09:15:46Z</time>
      </trkpt>
      <trkpt lat="49.17331" lon="2.00864">
        <ele>236.8</ele>
        <time>2023-03-26T09:15:52Z</time>
      </trkpt>
      <trkpt lat="49.17335" lon="2.00871">
        <ele>236.6</ele>
        <time>2023-03-26T09:15:57Z</time>
      </trkpt>
      <trkpt lat="49.1734" lon="2.00877">
        <ele>236.3</ele>
        <time>2023-03-26T09:16:03Z</time>
      </trkpt>
      <trkpt lat="49.17343" lon="2.00885">
        <ele>235.7</ele>
        <time>2023-03-26T09:16:09Z</time>
      </trkpt>
      <trkpt lat="49.17345" lon="2.00895">
        <ele>235</ele>
        <time>2023-03-26T09:16:15Z</time>
      </trkpt>
      <trkpt lat="49.17348" lon="2.00903">
        <ele>234.1</ele>
        <time>2023-03-26T09:16:21Z</time>
      </trkpt>
      <trkpt lat="49.17352" lon="2.0091">
        <ele>233.7</ele>
        <time>2023-03-26T09:16:26Z</time>
      </trkpt>
      <trkpt lat="49.17357" lon="2.0092">
        <ele>233.3</ele>
        <time>2023-03-26T09:16:32Z</time>
      </trkpt>
      <trkpt lat="49.17363" lon="2.00929">
        <ele>233</ele>
        <time>2023-03-26T09:16:38Z</time>
      </trkpt>
      <trkpt lat="49.17371" lon="2.00936">
        <ele>232.7</ele>
        <time>2023-03-26T09:16:44Z</time>
      </trkpt>
      <trkpt lat="49.17378" lon="2.00945">
        <ele>232.3</ele>
        <time>2023-03-26T09:16:50Z</time>
      </trkpt>
      <trkpt lat="49.17383" lon="2.00953">
        <ele>232.1</ele>
        <time>2023-03-26T09:16:56Z</time>
      </trkpt>
      <trkpt lat="49.17387" lon="2.0096">
        <ele>232</ele>
        <time>2023-03-26T09:17:01Z</time>
      </trkpt>
      <trkpt lat="49.17391" lon="2.00969">
        <ele>232.1</ele>
        <time>2023-03-26T09:17:06Z</time>
      </trkpt>
      <trkpt lat="49.17394" lon="2.00981">
        <ele>232.2</ele>
        <time>2023-03-26T09:17:12Z</time>
      </trkpt>
      <trkpt lat="49.17396" lon="2.00991">
        <ele>232.4</ele>
        <time>2023-03-26T09:17:18Z</time>
      </trkpt>
      <trkpt lat="49.17401" lon="2.01004">
        <ele>232.5</ele>
        <time>2023-03-26T09:17:23Z</time>
      </trkpt>
      <trkpt lat="49.17403" lon="2.01016">
        <ele>232.4</ele>
        <time>2023-03-26T09:17:29Z</time>
      </trkpt>
      <trkpt lat="49.17404" lon="2.01026">
        <ele>232.2</ele>
        <time>2023-03-26T09:17:34Z</time>
      </trkpt>
      <trkpt lat="49.17405" lon="2.01035">
        <ele>231.6</ele>
        <time>2023-03-26T09:17:40Z</time>
      </trkpt>
      <trkpt lat="49.17405" lon="2.01042">
        <ele>231</ele>
        <time>2023-03-26T09:17:46Z</time>
      </trkpt>
      <trkpt lat="49.17405" lon="2.01049">
        <ele>230.4</ele>
        <time>2023-03-26T09:17:51Z</time>
      </trkpt>
      <trkpt lat="49.17406" lon="2.01063">
        <ele>229.7</ele>
        <time>2023-03-26T09:17:56Z</time>
      </trkpt>
      <trkpt lat="49.17405" lon="2.01078">
        <ele>229</ele>
        <time>2023-03-26T09:18:02Z</time>
      </trkpt>
      <trkpt lat="49.17405" lon="2.01087">
        <ele>228.6</ele>
        <time>2023-03-26T09:18:07Z</time>
      </trkpt>
      <trkpt lat="49.17407" lon="2.01094">
        <ele>228.1</ele>
        <time>2023-03-26T09:18:13Z</time>
      </trkpt>
      <trkpt lat="49.17409" lon="2.01097">
        <ele>227.9</ele>
        <time>2023-03-26T09:18:18Z</time>
      </trkpt>
      <trkpt lat="49.17412" lon="2.01105">
        <ele>227.8</ele>
        <time>2023-03-26T09:18:24Z</time>
      </trkpt>
      <trkpt lat="49.17417" lon="2.01112">
        <ele>227.7</ele>
        <time>2023-03-26T09:18:30Z</time>
      </trkpt>
      <trkpt lat="49.17423" lon="2.01115">
        <ele>227.5</ele>
        <time>2023-03-26T09:18:35Z</time>
      </trkpt>
      <trkpt lat="49.1743" lon="2.0112">
        <ele>227.1</ele>
        <time>2023-03-26T09:18:41Z</time>
      </trkpt>
      <trkpt lat="49.17437" lon="2.01124">
        <ele>226.9</ele>
        <time>2023-03-26T09:18:46Z</time>
      </trkpt>
      <trkpt lat="49.17445" lon="2.01129">
        <ele>226.8</ele>
        <time>2023-03-26T09:18:51Z</time>
      </trkpt>
      <trkpt lat="49.17454" lon="2.01135">
        <ele>226.5</ele>
        <time>2023-03-26T09:18:57Z</time>
      </trkpt>
      <trkpt lat="49.17461" lon="2.01141">
        <ele>226.4</ele>
        <time>2023-03-26T09:19:02Z</time>
      </trkpt>
      <trkpt lat="49.17469" lon="2.01144">
        <ele>226.4</ele>
        <time>2023-03-26T09:19:07Z</time>
      </trkpt>
      <trkpt lat="49.17477" lon="2.01147">
        <ele>226.8</ele>
        <time>2023-03-26T09:19:13Z</time>
      </trkpt>
      <trkpt lat="49.17484" lon="2.01153">
        <ele>227.2</ele>
        <time>2023-03-26T09:19:18Z</time>
      </trkpt>
      <trkpt lat="49.17493" lon="2.0116">
        <ele>227.7</ele>
        <time>2023-03-26T09:19:24Z</time>
      </trkpt>
      <trkpt lat="49.17499" lon="2.01166">
        <ele>227.9</ele>
        <time>2023-03-26T09:19:29Z</time>
      </trkpt>
      <trkpt lat="49.17506" lon="2.01171">
        <ele>228.2</ele>
        <time>2023-03-26T09:19:34Z</time>
      </trkpt>
      <trkpt lat="49.17512" lon="2.01176">
        <ele>228.5</ele>
        <time>2023-03-26T09:19:39Z</time>
      </trkpt>
      <trkpt lat="49.17518" lon="2.0118">
        <ele>228.8</ele>
        <time>2023-03-26T09:19:45Z</time>
      </trkpt>
      <trkpt lat="49.17523" lon="2.01181">
        <ele>228.7</ele>
        <time>2023-03-26T09:19:51Z</time>
      </trkpt>
      <trkpt lat="49.17528" lon="2.01183">
        <ele>228.3</ele>
        <time>2023-03-26T09:19:56Z</time>
      </trkpt>
      <trkpt lat="49.17534" lon="2.01186">
        <ele>227.3</ele>
        <time>2023-03-26T09:20:02Z</time>
      </trkpt>
      <trkpt lat="49.17539" lon="2.01186">
        <ele>226.1</ele>
        <time>2023-03-26T09:20:07Z</time>
      </trkpt>
      <trkpt lat="49.17545" lon="2.01188">
        <ele>225</ele>
        <time>2023-03-26T09:20:12Z</time>
      </trkpt>
      <trkpt lat="49.17553" lon="2.01191">
        <ele>223.7</ele>
        <time>2023-03-26T09:20:18Z</time>
      </trkpt>
      <trkpt lat="49.17563" lon="2.01195">
        <ele>222.8</ele>
        <time>2023-03-26T09:20:24Z</time>
      </trkpt>
      <trkpt lat="49.17573" lon="2.01201">
        <ele>222.6</ele>
        <time>2023-03-26T09:20:29Z</time>
      </trkpt>
      <trkpt lat="49.1758" lon="2.01207">
        <ele>222.4</ele>
        <time>2023-03-26T09:20:35Z</time>
      </trkpt>
      <trkpt lat="49.17588" lon="2.01216">
        <ele>221.9</ele>
        <time>2023-03-26T09:20:41Z</time>
      </trkpt>
      <trkpt lat="49.17596" lon="2.0123">
        <ele>221</ele>
        <time>2023-03-26T09:20:46Z</time>
      </trkpt>
      <trkpt lat="49.17602" lon="2.01243">
        <ele>219.9</ele>
        <time>2023-03-26T09:20:52Z</time>
      </trkpt>
      <trkpt lat="49.17603" lon="2.01252">
        <ele>219.1</ele>
        <time>2023-03-26T09:20:57Z</time>
      </trkpt>
      <trkpt lat="49.17603" lon="2.01262">
        <ele>218.3</ele>
        <time>2023-03-26T09:21:03Z</time>
      </trkpt>
      <trkpt lat="49.17601" lon="2.01273">
        <ele>217.4</ele>
        <time>2023-03-26T09:21:09Z</time>
      </trkpt>
      <trkpt lat="49.17601" lon="2.01284">
        <ele>216.8</ele>
        <time>2023-03-26T09:21:14Z</time>
      </trkpt>
      <trkpt lat="49.176" lon="2.01298">
        <ele>216.2</ele>
        <time>2023-03-26T09:21:20Z</time>
      </trkpt>
      <trkpt lat="49.176" lon="2.01312">
        <ele>215.7</ele>
        <time>2023-03-26T09:21:26Z</time>
      </trkpt>
      <trkpt lat="49.17601" lon="2.01324">
        <ele>215.2</ele>
        <time>2023-03-26T09:21:32Z</time>
      </trkpt>
      <trkpt lat="49.17603" lon="2.01331">
        <ele>214.8</ele>
        <time>2023-03-26T09:21:37Z</time>
      </trkpt>
      <trkpt lat="49.17605" lon="2.01338">
        <ele>214.3</ele>
        <time>2023-03-26T09:21:43Z</time>
      </trkpt>
      <trkpt lat="49.17608" lon="2.01346">
        <ele>214</ele>
        <time>2023-03-26T09:21:49Z</time>
      </trkpt>
      <trkpt lat="49.1761" lon="2.01354">
        <ele>213.6</ele>
        <time>2023-03-26T09:21:54Z</time>
      </trkpt>
      <trkpt lat="49.17612" lon="2.01364">
        <ele>213.3</ele>
        <time>2023-03-26T09:22:00Z</time>
      </trkpt>
      <trkpt lat="49.17613" lon="2.01377">
        <ele>213.2</ele>
        <time>2023-03-26T09:22:06Z</time>
      </trkpt>
      <trkpt lat="49.17615" lon="2.01389">
        <ele>213.2</ele>
        <time>2023-03-26T09:22:12Z</time>
      </trkpt>
      <trkpt lat="49.17617" lon="2.01397">
        <ele>213.4</ele>
        <time>2023-03-26T09:22:17Z</time>
      </trkpt>
      <trkpt lat="49.17619" lon="2.01405">
        <ele>213.9</ele>
        <time>2023-03-26T09:22:23Z</time>
      </trkpt>
      <trkpt lat="49.17623" lon="2.01409">
        <ele>214.7</ele>
        <time>2023-03-26T09:22:28Z</time>
      </trkpt>
      <trkpt lat="49.17628" lon="2.0142">
        <ele>215.4</ele>
        <time>2023-03-26T09:22:34Z</time>
      </trkpt>
      <trkpt lat="49.17634" lon="2.01432">
        <ele>215.5</ele>
        <time>2023-03-26T09:22:39Z</time>
      </trkpt>
      <trkpt lat="49.17639" lon="2.01446">
        <ele>215.2</ele>
        <time>2023-03-26T09:22:45Z</time>
      </trkpt>
      <trkpt lat="49.17642" lon="2.01456">
        <ele>214.8</ele>
        <time>2023-03-26T09:22:51Z</time>
      </trkpt>
      <trkpt lat="49.17643" lon="2.01465">
        <ele>213.9</ele>
        <time>2023-03-26T09:22:56Z</time>
      </trkpt>
      <trkpt lat="49.1764" lon="2.01476">
        <ele>212.8</ele>
        <time>2023-03-26T09:23:02Z</time>
      </trkpt>
      <trkpt lat="49.17639" lon="2.01485">
        <ele>211.9</ele>
        <time>2023-03-26T09:23:07Z</time>
      </trkpt>
      <trkpt lat="49.17639" lon="2.01496">
        <ele>210.6</ele>
        <time>2023-03-26T09:23:13Z</time>
      </trkpt>
      <trkpt lat="49.1764" lon="2.01506">
        <ele>209.8</ele>
        <time>2023-03-26T09:23:18Z</time>
      </trkpt>
      <trkpt lat="49.17645" lon="2.01517">
        <ele>209.3</ele>
        <time>2023-03-26T09:23:24Z</time>
      </trkpt>
      <trkpt lat="49.17653" lon="2.01531">
        <ele>208.9</ele>
        <time>2023-03-26T09:23:30Z</time>
      </trkpt>
      <trkpt lat="49.17659" lon="2.01543">
        <ele>208.6</ele>
        <time>2023-03-26T09:23:36Z</time>
      </trkpt>
      <trkpt lat="49.17663" lon="2.01554">
        <ele>208.2</ele>
        <time>2023-03-26T09:23:42Z</time>
      </trkpt>
      <trkpt lat="49.17667" lon="2.01565">
        <ele>208</ele>
        <time>2023-03-26T09:23:47Z</time>
      </trkpt>
      <trkpt lat="49.1767" lon="2.0158">
        <ele>207.9</ele>
        <time>2023-03-26T09:23:53Z</time>
      </trkpt>
      <trkpt lat="49.17671" lon="2.01594">
        <ele>207.7</ele>
        <time>2023-03-26T09:23:59Z</time>
      </trkpt>
      <trkpt lat="49.17674" lon="2.01604">
        <ele>207.3</ele>
        <time>2023-03-26T09:24:04Z</time>
      </trkpt>
      <trkpt lat="49.17676" lon="2.01615">
        <ele>207</ele>
        <time>2023-03-26T09:24:10Z</time>
      </trkpt>
      <trkpt lat="49.17679" lon="2.01622">
        <ele>206.7</ele>
        <time>2023-03-26T09:24:16Z</time>
      </trkpt>
      <trkpt lat="49.17681" lon="2.0163">
        <ele>206.6</ele>
        <time>2023-03-26T09:24:21Z</time>
      </trkpt>
      <trkpt lat="49.17682" lon="2.01643">
        <ele>206.4</ele>
        <time>2023-03-26T09:24:27Z</time>
      </trkpt>
      <trkpt lat="49.17686" lon="2.01655">
        <ele>206</ele>
        <time>2023-03-26T09:24:32Z</time>
      </trkpt>
      <trkpt lat="49.17689" lon="2.01667">
        <ele>205.5</ele>
        <time>2023-03-26T09:24:37Z</time>
      </trkpt>
      <trkpt lat="49.17692" lon="2.01679">
        <ele>204.7</ele>
        <time>2023-03-26T09:24:43Z</time>
      </trkpt>
      <trkpt lat="49.17694" lon="2.01691">
        <ele>204.2</ele>
        <time>2023-03-26T09:24:49Z</time>
      </trkpt>
      <trkpt lat="49.17696" lon="2.01701">
        <ele>203.9</ele>
        <time>2023-03-26T09:24:55Z</time>
      </trkpt>
      <trkpt lat="49.17696" lon="2.01709">
        <ele>203.8</ele>
        <time>2023-03-26T09:25:01Z</time>
      </trkpt>
      <trkpt lat="49.17696" lon="2.0172">
        <ele>203.2</ele>
        <time>2023-03-26T09:25:07Z</time>
      </trkpt>
      <trkpt lat="49.17695" lon="2.01733">
        <ele>202.7</ele>
        <time>2023-03-26T09:25:13Z</time>
      </trkpt>
      <trkpt lat="49.17693" lon="2.01743">
        <ele>202.2</ele>
        <time>2023-03-26T09:25:18Z</time>
      </trkpt>
      <trkpt lat="49.1769" lon="2.01754">
        <ele>201.8</ele>
        <time>2023-03-26T09:25:24Z</time>
      </trkpt>
      <trkpt lat="49.17687" lon="2.01765">
        <ele>201.6</ele>
        <time>2023-03-26T09:25:30Z</time>
      </trkpt>
      <trkpt lat="49.17686" lon="2.01773">
        <ele>201.6</ele>
        <time>2023-03-26T09:25:35Z</time>
      </trkpt>
      <trkpt lat="49.17686" lon="2.01785">
        <ele>201.8</ele>
        <time>2023-03-26T09:25:41Z</time>
      </trkpt>
      <trkpt lat="49.17686" lon="2.01796">
        <ele>202.1</ele>
        <time>2023-03-26T09:25:46Z</time>
      </trkpt>
      <trkpt lat="49.17688" lon="2.01812">
        <ele>202.4</ele>
        <time>2023-03-26T09:25:52Z</time>
      </trkpt>
      <trkpt lat="49.1769" lon="2.01823">
        <ele>202.6</ele>
        <time>2023-03-26T09:25:57Z</time>
      </trkpt>
      <trkpt lat="49.17693" lon="2.01833">
        <ele>202.9</ele>
        <time>2023-03-26T09:26:03Z</time>
      </trkpt>
      <trkpt lat="49.17696" lon="2.0184">
        <ele>203.2</ele>
        <time>2023-03-26T09:26:08Z</time>
      </trkpt>
      <trkpt lat="49.177" lon="2.0185">
        <ele>203.7</ele>
        <time>2023-03-26T09:26:14Z</time>
      </trkpt>
      <trkpt lat="49.17703" lon="2.0186">
        <ele>204</ele>
        <time>2023-03-26T09:26:19Z</time>
      </trkpt>
      <trkpt lat="49.17705" lon="2.0187">
        <ele>204.3</ele>
        <time>2023-03-26T09:26:25Z</time>
      </trkpt>
      <trkpt lat="49.17707" lon="2.01878">
        <ele>204.7</ele>
        <time>2023-03-26T09:26:30Z</time>
      </trkpt>
      <trkpt lat="49.17708" lon="2.01888">
        <ele>205.3</ele>
        <time>2023-03-26T09:26:36Z</time>
      </trkpt>
      <trkpt lat="49.1771" lon="2.01898">
        <ele>206</ele>
        <time>2023-03-26T09:26:42Z</time>
      </trkpt>
      <trkpt lat="49.17715" lon="2.01908">
        <ele>206.5</ele>
        <time>2023-03-26T09:26:48Z</time>
      </trkpt>
      <trkpt lat="49.17719" lon="2.01917">
        <ele>207.2</ele>
        <time>2023-03-26T09:26:53Z</time>
      </trkpt>
      <trkpt lat="49.17722" lon="2.01926">
        <ele>208.1</ele>
        <time>2023-03-26T09:26:58Z</time>
      </trkpt>
      <trkpt lat="49.17725" lon="2.01934">
        <ele>209.2</ele>
        <time>2023-03-26T09:27:04Z</time>
      </trkpt>
      <trkpt lat="49.17727" lon="2.01943">
        <ele>210.2</ele>
        <time>2023-03-26T09:27:09Z</time>
      </trkpt>
      <trkpt lat="49.17729" lon="2.01951">
        <ele>211.4</ele>
        <time>2023-03-26T09:27:14Z</time>
      </trkpt>
      <trkpt lat="49.17734" lon="2.01958">
        <ele>212.8</ele>
        <time>2023-03-26T09:27:20Z</time>
      </trkpt>
      <trkpt lat="49.17739" lon="2.01962">
        <ele>214.6</ele>
        <time>2023-03-26T09:27:26Z</time>
      </trkpt>
      <trkpt lat="49.17743" lon="2.01964">
        <ele>216.4</ele>
        <time>2023-03-26T09:27:32Z</time>
      </trkpt>
      <trkpt lat="49.17746" lon="2.01965">
        <ele>217.8</ele>
        <time>2023-03-26T09:27:37Z</time>
      </trkpt>
      <trkpt lat="49.1775" lon="2.01966">
        <ele>219.4</ele>
        <time>2023-03-26T09:27:44Z</time>
      </trkpt>
      <trkpt lat="49.17745" lon="2.01967">
        <ele>221</ele>
        <time>2023-03-26T09:27:49Z</time>
      </trkpt>
      <trkpt lat="49.17745" lon="2.01965">
        <ele>222.6</ele>
        <time>2023-03-26T09:27:54Z</time>
      </trkpt>
      <trkpt lat="49.17748" lon="2.01962">
        <ele>223.8</ele>
        <time>2023-03-26T09:28:00Z</time>
      </trkpt>
      <trkpt lat="49.17751" lon="2.01958">
        <ele>224.6</ele>
        <time>2023-03-26T09:28:05Z</time>
      </trkpt>
      <trkpt lat="49.17755" lon="2.01956">
        <ele>225.3</ele>
        <time>2023-03-26T09:28:12Z</time>
      </trkpt>
      <trkpt lat="49.17757" lon="2.01953">
        <ele>226</ele>
        <time>2023-03-26T09:28:17Z</time>
      </trkpt>
      <trkpt lat="49.17763" lon="2.0195">
        <ele>226.9</ele>
        <time>2023-03-26T09:28:23Z</time>
      </trkpt>
      <trkpt lat="49.17771" lon="2.01945">
        <ele>227.7</ele>
        <time>2023-03-26T09:28:29Z</time>
      </trkpt>
      <trkpt lat="49.17776" lon="2.01941">
        <ele>228.2</ele>
        <time>2023-03-26T09:28:34Z</time>
      </trkpt>
      <trkpt lat="49.1778" lon="2.01936">
        <ele>228.7</ele>
        <time>2023-03-26T09:28:39Z</time>
      </trkpt>
      <trkpt lat="49.17785" lon="2.0193">
        <ele>229.1</ele>
        <time>2023-03-26T09:28:45Z</time>
      </trkpt>
      <trkpt lat="49.1779" lon="2.01925">
        <ele>229.1</ele>
        <time>2023-03-26T09:28:51Z</time>
      </trkpt>
      <trkpt lat="49.17794" lon="2.01922">
        <ele>228.7</ele>
        <time>2023-03-26T09:28:56Z</time>
      </trkpt>
      <trkpt lat="49.17799" lon="2.01916">
        <ele>228.3</ele>
        <time>2023-03-26T09:29:02Z</time>
      </trkpt>
      <trkpt lat="49.17805" lon="2.01907">
        <ele>228.5</ele>
        <time>2023-03-26T09:29:08Z</time>
      </trkpt>
      <trkpt lat="49.17808" lon="2.01896">
        <ele>228.6</ele>
        <time>2023-03-26T09:29:14Z</time>
      </trkpt>
      <trkpt lat="49.17809" lon="2.01887">
        <ele>228.4</ele>
        <time>2023-03-26T09:29:19Z</time>
      </trkpt>
      <trkpt lat="49.17811" lon="2.01876">
        <ele>228.1</ele>
        <time>2023-03-26T09:29:25Z</time>
      </trkpt>
      <trkpt lat="49.17814" lon="2.01867">
        <ele>227.7</ele>
        <time>2023-03-26T09:29:31Z</time>
      </trkpt>
      <trkpt lat="49.17816" lon="2.01859">
        <ele>227.3</ele>
        <time>2023-03-26T09:29:37Z</time>
      </trkpt>
      <trkpt lat="49.17817" lon="2.01852">
        <ele>227.1</ele>
        <time>2023-03-26T09:29:43Z</time>
      </trkpt>
      <trkpt lat="49.1782" lon="2.01842">
        <ele>226.8</ele>
        <time>2023-03-26T09:29:49Z</time>
      </trkpt>
      <trkpt lat="49.17821" lon="2.01832">
        <ele>226.4</ele>
        <time>2023-03-26T09:29:55Z</time>
      </trkpt>
      <trkpt lat="49.17823" lon="2.01819">
        <ele>225.9</ele>
        <time>2023-03-26T09:30:01Z</time>
      </trkpt>
      <trkpt lat="49.17825" lon="2.0181">
        <ele>225.5</ele>
        <time>2023-03-26T09:30:06Z</time>
      </trkpt>
      <trkpt lat="49.17825" lon="2.01802">
        <ele>225.3</ele>
        <time>2023-03-26T09:30:11Z</time>
      </trkpt>
      <trkpt lat="49.17826" lon="2.01795">
        <ele>224.9</ele>
        <time>2023-03-26T09:30:16Z</time>
      </trkpt>
      <trkpt lat="49.17826" lon="2.01786">
        <ele>224.5</ele>
        <time>2023-03-26T09:30:22Z</time>
      </trkpt>
      <trkpt lat="49.17828" lon="2.01778">
        <ele>223.7</ele>
        <time>2023-03-26T09:30:27Z</time>
      </trkpt>
      <trkpt lat="49.17831" lon="2.01769">
        <ele>222.9</ele>
        <time>2023-03-26T09:30:32Z</time>
      </trkpt>
      <trkpt lat="49.17833" lon="2.0176">
        <ele>222.1</ele>
        <time>2023-03-26T09:30:38Z</time>
      </trkpt>
      <trkpt lat="49.17836" lon="2.01751">
        <ele>221</ele>
        <time>2023-03-26T09:30:44Z</time>
      </trkpt>
      <trkpt lat="49.1784" lon="2.01739">
        <ele>220.3</ele>
        <time>2023-03-26T09:30:50Z</time>
      </trkpt>
      <trkpt lat="49.17843" lon="2.01731">
        <ele>219.8</ele>
        <time>2023-03-26T09:30:55Z</time>
      </trkpt>
      <trkpt lat="49.17846" lon="2.0172">
        <ele>219.4</ele>
        <time>2023-03-26T09:31:01Z</time>
      </trkpt>
      <trkpt lat="49.17847" lon="2.01711">
        <ele>219.3</ele>
        <time>2023-03-26T09:31:07Z</time>
      </trkpt>
      <trkpt lat="49.17848" lon="2.01704">
        <ele>219.3</ele>
        <time>2023-03-26T09:31:13Z</time>
      </trkpt>
      <trkpt lat="49.17849" lon="2.01698">
        <ele>219.3</ele>
        <time>2023-03-26T09:31:18Z</time>
      </trkpt>
      <trkpt lat="49.17852" lon="2.01689">
        <ele>219.4</ele>
        <time>2023-03-26T09:31:24Z</time>
      </trkpt>
      <trkpt lat="49.17853" lon="2.0168">
        <ele>219.5</ele>
        <time>2023-03-26T09:31:30Z</time>
      </trkpt>
      <trkpt lat="49.17855" lon="2.01668">
        <ele>219.5</ele>
        <time>2023-03-26T09:31:36Z</time>
      </trkpt>
      <trkpt lat="49.17856" lon="2.01661">
        <ele>219.6</ele>
        <time>2023-03-26T09:31:41Z</time>
      </trkpt>
      <trkpt lat="49.17858" lon="2.01655">
        <ele>219.7</ele>
        <time>2023-03-26T09:31:47Z</time>
      </trkpt>
      <trkpt lat="49.1786" lon="2.01647">
        <ele>220.2</ele>
        <time>2023-03-26T09:31:53Z</time>
      </trkpt>
      <trkpt lat="49.17863" lon="2.01637">
        <ele>220.7</ele>
        <time>2023-03-26T09:31:59Z</time>
      </trkpt>
      <trkpt lat="49.17867" lon="2.01627">
        <ele>221.1</ele>
        <time>2023-03-26T09:32:05Z</time>
      </trkpt>
      <trkpt lat="49.17871" lon="2.01617">
        <ele>221.5</ele>
        <time>2023-03-26T09:32:11Z</time>
      </trkpt>
      <trkpt lat="49.17872" lon="2.01608">
        <ele>221.5</ele>
        <time>2023-03-26T09:32:16Z</time>
      </trkpt>
      <trkpt lat="49.17874" lon="2.01597">
        <ele>221.7</ele>
        <time>2023-03-26T09:32:21Z</time>
      </trkpt>
      <trkpt lat="49.17876" lon="2.01586">
        <ele>222</ele>
        <time>2023-03-26T09:32:27Z</time>
      </trkpt>
      <trkpt lat="49.17877" lon="2.01576">
        <ele>222.3</ele>
        <time>2023-03-26T09:32:32Z</time>
      </trkpt>
      <trkpt lat="49.17877" lon="2.01568">
        <ele>222.9</ele>
        <time>2023-03-26T09:32:37Z</time>
      </trkpt>
      <trkpt lat="49.17873" lon="2.01561">
        <ele>223.7</ele>
        <time>2023-03-26T09:32:43Z</time>
      </trkpt>
      <trkpt lat="49.17872" lon="2.01557">
        <ele>224.2</ele>
        <time>2023-03-26T09:32:49Z</time>
      </trkpt>
      <trkpt lat="49.17872" lon="2.01556">
        <ele>224.5</ele>
        <time>2023-03-26T09:32:54Z</time>
      </trkpt>
      <trkpt lat="49.17871" lon="2.01554">
        <ele>224.8</ele>
        <time>2023-03-26T09:32:59Z</time>
      </trkpt>
      <trkpt lat="49.17868" lon="2.01552">
        <ele>225.3</ele>
        <time>2023-03-26T09:33:05Z</time>
      </trkpt>
      <trkpt lat="49.17866" lon="2.01549">
        <ele>225.6</ele>
        <time>2023-03-26T09:33:12Z</time>
      </trkpt>
      <trkpt lat="49.17865" lon="2.01548">
        <ele>225.9</ele>
        <time>2023-03-26T09:33:17Z</time>
      </trkpt>
      <trkpt lat="49.17864" lon="2.01547">
        <ele>226.3</ele>
        <time>2023-03-26T09:33:23Z</time>
      </trkpt>
      <trkpt lat="49.17864" lon="2.01546">
        <ele>226.6</ele>
        <time>2023-03-26T09:33:29Z</time>
      </trkpt>
      <trkpt lat="49.17864" lon="2.01545">
        <ele>227</ele>
        <time>2023-03-26T09:33:35Z</time>
      </trkpt>
      <trkpt lat="49.17863" lon="2.01544">
        <ele>227.8</ele>
        <time>2023-03-26T09:33:40Z</time>
      </trkpt>
      <trkpt lat="49.17862" lon="2.01543">
        <ele>228.8</ele>
        <time>2023-03-26T09:33:46Z</time>
      </trkpt>
      <trkpt lat="49.17862" lon="2.01541">
        <ele>229.1</ele>
        <time>2023-03-26T09:33:51Z</time>
      </trkpt>
      <trkpt lat="49.17861" lon="2.01539">
        <ele>229.5</ele>
        <time>2023-03-26T09:33:57Z</time>
      </trkpt>
      <trkpt lat="49.17861" lon="2.01537">
        <ele>232.1</ele>
        <time>2023-03-26T09:34:02Z</time>
      </trkpt>
      <trkpt lat="49.17861" lon="2.01536">
        <ele>233</ele>
        <time>2023-03-26T09:34:08Z</time>
      </trkpt>
      <trkpt lat="49.17861" lon="2.01536">
        <ele>233.4</ele>
        <time>2023-03-26T09:34:14Z</time>
      </trkpt>
      <trkpt lat="49.17861" lon="2.01535">
        <ele>233.7</ele>
        <time>2023-03-26T09:34:20Z</time>
      </trkpt>
      <trkpt lat="49.17861" lon="2.01535">
        <ele>234</ele>
        <time>2023-03-26T09:34:26Z</time>
      </trkpt>
      <trkpt lat="49.17861" lon="2.01535">
        <ele>234.3</ele>
        <time>2023-03-26T09:34:32Z</time>
      </trkpt>
      <trkpt lat="49.17861" lon="2.01535">
        <ele>234.5</ele>
        <time>2023-03-26T09:34:37Z</time>
      </trkpt>
      <trkpt lat="49.17861" lon="2.01536">
        <ele>235.2</ele>
        <time>2023-03-26T09:34:43Z</time>
      </trkpt>
      <trkpt lat="49.1786" lon="2.01536">
        <ele>235.5</ele>
        <time>2023-03-26T09:34:48Z</time>
      </trkpt>
      <trkpt lat="49.17861" lon="2.01535">
        <ele>236.1</ele>
        <time>2023-03-26T09:34:54Z</time>
      </trkpt>
      <trkpt lat="49.17861" lon="2.01534">
        <ele>237.1</ele>
        <time>2023-03-26T09:35:00Z</time>
      </trkpt>
      <trkpt lat="49.17861" lon="2.01534">
        <ele>237.4</ele>
        <time>2023-03-26T09:35:06Z</time>
      </trkpt>
      <trkpt lat="49.17861" lon="2.01534">
        <ele>237.6</ele>
        <time>2023-03-26T09:35:12Z</time>
      </trkpt>
      <trkpt lat="49.17861" lon="2.01534">
        <ele>237.8</ele>
        <time>2023-03-26T09:35:18Z</time>
      </trkpt>
      <trkpt lat="49.17861" lon="2.01534">
        <ele>238</ele>
        <time>2023-03-26T09:35:24Z</time>
      </trkpt>
      <trkpt lat="49.17861" lon="2.01535">
        <ele>238.5</ele>
        <time>2023-03-26T09:35:29Z</time>
      </trkpt>
      <trkpt lat="49.1786" lon="2.01536">
        <ele>238.7</ele>
        <time>2023-03-26T09:35:35Z</time>
      </trkpt>
      <trkpt lat="49.1786" lon="2.01536">
        <ele>238.9</ele>
        <time>2023-03-26T09:35:40Z</time>
      </trkpt>
      <trkpt lat="49.1786" lon="2.01536">
        <ele>239.1</ele>
        <time>2023-03-26T09:35:46Z</time>
      </trkpt>
      <trkpt lat="49.1786" lon="2.01536">
        <ele>239.3</ele>
        <time>2023-03-26T09:35:52Z</time>
      </trkpt>
      <trkpt lat="49.1786" lon="2.01536">
        <ele>239.4</ele>
        <time>2023-03-26T09:35:57Z</time>
      </trkpt>
      <trkpt lat="49.1786" lon="2.01537">
        <ele>239.6</ele>
        <time>2023-03-26T09:36:03Z</time>
      </trkpt>
      <trkpt lat="49.1786" lon="2.01537">
        <ele>239.8</ele>
        <time>2023-03-26T09:36:08Z</time>
      </trkpt>
      <trkpt lat="49.1786" lon="2.01537">
        <ele>239.9</ele>
        <time>2023-03-26T09:36:14Z</time>
      </trkpt>
      <trkpt lat="49.17859" lon="2.01537">
        <ele>240</ele>
        <time>2023-03-26T09:36:19Z</time>
      </trkpt>
      <trkpt lat="49.17859" lon="2.01538">
        <ele>240.1</ele>
        <time>2023-03-26T09:36:25Z</time>
      </trkpt>
      <trkpt lat="49.17859" lon="2.01538">
        <ele>240.3</ele>
        <time>2023-03-26T09:36:31Z</time>
      </trkpt>
      <trkpt lat="49.17858" lon="2.01538">
        <ele>240.4</ele>
        <time>2023-03-26T09:36:37Z</time>
      </trkpt>
      <trkpt lat="49.17858" lon="2.01538">
        <ele>240.5</ele>
        <time>2023-03-26T09:36:42Z</time>
      </trkpt>
      <trkpt lat="49.1786" lon="2.01534">
        <ele>241.3</ele>
        <time>2023-03-26T09:36:47Z</time>
      </trkpt>
      <trkpt lat="49.17862" lon="2.01532">
        <ele>242.2</ele>
        <time>2023-03-26T09:36:53Z</time>
      </trkpt>
      <trkpt lat="49.17864" lon="2.01531">
        <ele>242.9</ele>
        <time>2023-03-26T09:36:58Z</time>
      </trkpt>
      <trkpt lat="49.17868" lon="2.01531">
        <ele>243.7</ele>
        <time>2023-03-26T09:37:03Z</time>
      </trkpt>
      <trkpt lat="49.17872" lon="2.01528">
        <ele>244.2</ele>
        <time>2023-03-26T09:37:09Z</time>
      </trkpt>
      <trkpt lat="49.17874" lon="2.01522">
        <ele>244.4</ele>
        <time>2023-03-26T09:37:15Z</time>
      </trkpt>
      <trkpt lat="49.17874" lon="2.01517">
        <ele>244.4</ele>
        <time>2023-03-26T09:37:20Z</time>
      </trkpt>
      <trkpt lat="49.17874" lon="2.01511">
        <ele>244.3</ele>
        <time>2023-03-26T09:37:25Z</time>
      </trkpt>
      <trkpt lat="49.17879" lon="2.01506">
        <ele>244.2</ele>
        <time>2023-03-26T09:37:31Z</time>
      </trkpt>
      <trkpt lat="49.17886" lon="2.01501">
        <ele>244.1</ele>
        <time>2023-03-26T09:37:37Z</time>
      </trkpt>
      <trkpt lat="49.17891" lon="2.01495">
        <ele>243.9</ele>
        <time>2023-03-26T09:37:43Z</time>
      </trkpt>
      <trkpt lat="49.17897" lon="2.01488">
        <ele>243.8</ele>
        <time>2023-03-26T09:37:49Z</time>
      </trkpt>
      <trkpt lat="49.17902" lon="2.01483">
        <ele>243.6</ele>
        <time>2023-03-26T09:37:54Z</time>
      </trkpt>
      <trkpt lat="49.17906" lon="2.0148">
        <ele>243</ele>
        <time>2023-03-26T09:37:59Z</time>
      </trkpt>
      <trkpt lat="49.1791" lon="2.01479">
        <ele>242.1</ele>
        <time>2023-03-26T09:38:04Z</time>
      </trkpt>
      <trkpt lat="49.17913" lon="2.01478">
        <ele>241.4</ele>
        <time>2023-03-26T09:38:10Z</time>
      </trkpt>
      <trkpt lat="49.17916" lon="2.01477">
        <ele>241.2</ele>
        <time>2023-03-26T09:38:15Z</time>
      </trkpt>
      <trkpt lat="49.1792" lon="2.01481">
        <ele>240.8</ele>
        <time>2023-03-26T09:38:21Z</time>
      </trkpt>
      <trkpt lat="49.17924" lon="2.01487">
        <ele>240.2</ele>
        <time>2023-03-26T09:38:27Z</time>
      </trkpt>
      <trkpt lat="49.17928" lon="2.01495">
        <ele>240.2</ele>
        <time>2023-03-26T09:38:32Z</time>
      </trkpt>
      <trkpt lat="49.1793" lon="2.01504">
        <ele>240.2</ele>
        <time>2023-03-26T09:38:37Z</time>
      </trkpt>
      <trkpt lat="49.17932" lon="2.01513">
        <ele>240.1</ele>
        <time>2023-03-26T09:38:43Z</time>
      </trkpt>
      <trkpt lat="49.17934" lon="2.01523">
        <ele>240.2</ele>
        <time>2023-03-26T09:38:48Z</time>
      </trkpt>
      <trkpt lat="49.17936" lon="2.01535">
        <ele>240.6</ele>
        <time>2023-03-26T09:38:54Z</time>
      </trkpt>
      <trkpt lat="49.17939" lon="2.01541">
        <ele>241</ele>
        <time>2023-03-26T09:38:59Z</time>
      </trkpt>
      <trkpt lat="49.17942" lon="2.01547">
        <ele>241.3</ele>
        <time>2023-03-26T09:39:05Z</time>
      </trkpt>
      <trkpt lat="49.17945" lon="2.01551">
        <ele>241.4</ele>
        <time>2023-03-26T09:39:11Z</time>
      </trkpt>
      <trkpt lat="49.17947" lon="2.01555">
        <ele>241.3</ele>
        <time>2023-03-26T09:39:16Z</time>
      </trkpt>
      <trkpt lat="49.17951" lon="2.01558">
        <ele>241.1</ele>
        <time>2023-03-26T09:39:22Z</time>
      </trkpt>
      <trkpt lat="49.17956" lon="2.01561">
        <ele>240.9</ele>
        <time>2023-03-26T09:39:27Z</time>
      </trkpt>
      <trkpt lat="49.17962" lon="2.01566">
        <ele>240.8</ele>
        <time>2023-03-26T09:39:33Z</time>
      </trkpt>
      <trkpt lat="49.17966" lon="2.0157">
        <ele>240.6</ele>
        <time>2023-03-26T09:39:38Z</time>
      </trkpt>
      <trkpt lat="49.17969" lon="2.01573">
        <ele>240.4</ele>
        <time>2023-03-26T09:39:44Z</time>
      </trkpt>
      <trkpt lat="49.17973" lon="2.01575">
        <ele>240.2</ele>
        <time>2023-03-26T09:39:50Z</time>
      </trkpt>
      <trkpt lat="49.17978" lon="2.0158">
        <ele>240</ele>
        <time>2023-03-26T09:39:56Z</time>
      </trkpt>
      <trkpt lat="49.17983" lon="2.01584">
        <ele>239.8</ele>
        <time>2023-03-26T09:40:02Z</time>
      </trkpt>
      <trkpt lat="49.17988" lon="2.01589">
        <ele>239.8</ele>
        <time>2023-03-26T09:40:07Z</time>
      </trkpt>
      <trkpt lat="49.17992" lon="2.01595">
        <ele>239.7</ele>
        <time>2023-03-26T09:40:12Z</time>
      </trkpt>
      <trkpt lat="49.17999" lon="2.01601">
        <ele>239.6</ele>
        <time>2023-03-26T09:40:18Z</time>
      </trkpt>
      <trkpt lat="49.18004" lon="2.01605">
        <ele>238.9</ele>
        <time>2023-03-26T09:40:24Z</time>
      </trkpt>
      <trkpt lat="49.18009" lon="2.01609">
        <ele>238.3</ele>
        <time>2023-03-26T09:40:29Z</time>
      </trkpt>
      <trkpt lat="49.18014" lon="2.01614">
        <ele>237.9</ele>
        <time>2023-03-26T09:40:34Z</time>
      </trkpt>
      <trkpt lat="49.18021" lon="2.01618">
        <ele>237.5</ele>
        <time>2023-03-26T09:40:40Z</time>
      </trkpt>
      <trkpt lat="49.18032" lon="2.01623">
        <ele>236.8</ele>
        <time>2023-03-26T09:40:46Z</time>
      </trkpt>
      <trkpt lat="49.18043" lon="2.01629">
        <ele>236.3</ele>
        <time>2023-03-26T09:40:52Z</time>
      </trkpt>
      <trkpt lat="49.18051" lon="2.01634">
        <ele>236</ele>
        <time>2023-03-26T09:40:57Z</time>
      </trkpt>
      <trkpt lat="49.18058" lon="2.01638">
        <ele>236</ele>
        <time>2023-03-26T09:41:03Z</time>
      </trkpt>
      <trkpt lat="49.18063" lon="2.01642">
        <ele>235.9</ele>
        <time>2023-03-26T09:41:08Z</time>
      </trkpt>
      <trkpt lat="49.18068" lon="2.01649">
        <ele>236.1</ele>
        <time>2023-03-26T09:41:14Z</time>
      </trkpt>
      <trkpt lat="49.18072" lon="2.01654">
        <ele>236.4</ele>
        <time>2023-03-26T09:41:19Z</time>
      </trkpt>
      <trkpt lat="49.18078" lon="2.0166">
        <ele>236.9</ele>
        <time>2023-03-26T09:41:25Z</time>
      </trkpt>
      <trkpt lat="49.18084" lon="2.01666">
        <ele>237.4</ele>
        <time>2023-03-26T09:41:31Z</time>
      </trkpt>
      <trkpt lat="49.18089" lon="2.01674">
        <ele>237.8</ele>
        <time>2023-03-26T09:41:36Z</time>
      </trkpt>
      <trkpt lat="49.18094" lon="2.01682">
        <ele>238.3</ele>
        <time>2023-03-26T09:41:41Z</time>
      </trkpt>
      <trkpt lat="49.18102" lon="2.01691">
        <ele>238.9</ele>
        <time>2023-03-26T09:41:47Z</time>
      </trkpt>
      <trkpt lat="49.18109" lon="2.01699">
        <ele>239.5</ele>
        <time>2023-03-26T09:41:52Z</time>
      </trkpt>
      <trkpt lat="49.18115" lon="2.01707">
        <ele>240.3</ele>
        <time>2023-03-26T09:41:57Z</time>
      </trkpt>
      <trkpt lat="49.18122" lon="2.01715">
        <ele>241</ele>
        <time>2023-03-26T09:42:03Z</time>
      </trkpt>
      <trkpt lat="49.18126" lon="2.01722">
        <ele>241.5</ele>
        <time>2023-03-26T09:42:08Z</time>
      </trkpt>
      <trkpt lat="49.18131" lon="2.01729">
        <ele>241.8</ele>
        <time>2023-03-26T09:42:14Z</time>
      </trkpt>
      <trkpt lat="49.18139" lon="2.01736">
        <ele>242.4</ele>
        <time>2023-03-26T09:42:19Z</time>
      </trkpt>
      <trkpt lat="49.18147" lon="2.01742">
        <ele>243.2</ele>
        <time>2023-03-26T09:42:24Z</time>
      </trkpt>
      <trkpt lat="49.18154" lon="2.01749">
        <ele>244.1</ele>
        <time>2023-03-26T09:42:30Z</time>
      </trkpt>
      <trkpt lat="49.1816" lon="2.01756">
        <ele>244.7</ele>
        <time>2023-03-26T09:42:36Z</time>
      </trkpt>
      <trkpt lat="49.18165" lon="2.01761">
        <ele>245.2</ele>
        <time>2023-03-26T09:42:41Z</time>
      </trkpt>
      <trkpt lat="49.1817" lon="2.01767">
        <ele>245.8</ele>
        <time>2023-03-26T09:42:47Z</time>
      </trkpt>
      <trkpt lat="49.18176" lon="2.01776">
        <ele>246.4</ele>
        <time>2023-03-26T09:42:53Z</time>
      </trkpt>
      <trkpt lat="49.18182" lon="2.01783">
        <ele>246.9</ele>
        <time>2023-03-26T09:42:58Z</time>
      </trkpt>
      <trkpt lat="49.18189" lon="2.0179">
        <ele>247.5</ele>
        <time>2023-03-26T09:43:04Z</time>
      </trkpt>
      <trkpt lat="49.18198" lon="2.01798">
        <ele>247.8</ele>
        <time>2023-03-26T09:43:10Z</time>
      </trkpt>
      <trkpt lat="49.18204" lon="2.01807">
        <ele>248.2</ele>
        <time>2023-03-26T09:43:16Z</time>
      </trkpt>
      <trkpt lat="49.18207" lon="2.01814">
        <ele>248.6</ele>
        <time>2023-03-26T09:43:22Z</time>
      </trkpt>
      <trkpt lat="49.1821" lon="2.01821">
        <ele>248.9</ele>
        <time>2023-03-26T09:43:27Z</time>
      </trkpt>
      <trkpt lat="49.18213" lon="2.01829">
        <ele>249.2</ele>
        <time>2023-03-26T09:43:33Z</time>
      </trkpt>
      <trkpt lat="49.18217" lon="2.01839">
        <ele>249.4</ele>
        <time>2023-03-26T09:43:39Z</time>
      </trkpt>
      <trkpt lat="49.18221" lon="2.01848">
        <ele>249.6</ele>
        <time>2023-03-26T09:43:45Z</time>
      </trkpt>
      <trkpt lat="49.18224" lon="2.01856">
        <ele>249.7</ele>
        <time>2023-03-26T09:43:50Z</time>
      </trkpt>
      <trkpt lat="49.18228" lon="2.01864">
        <ele>249.7</ele>
        <time>2023-03-26T09:43:56Z</time>
      </trkpt>
      <trkpt lat="49.18232" lon="2.01874">
        <ele>249.2</ele>
        <time>2023-03-26T09:44:02Z</time>
      </trkpt>
      <trkpt lat="49.18235" lon="2.0188">
        <ele>248.8</ele>
        <time>2023-03-26T09:44:07Z</time>
      </trkpt>
      <trkpt lat="49.18239" lon="2.01888">
        <ele>248.3</ele>
        <time>2023-03-26T09:44:13Z</time>
      </trkpt>
      <trkpt lat="49.18241" lon="2.01894">
        <ele>247.9</ele>
        <time>2023-03-26T09:44:18Z</time>
      </trkpt>
      <trkpt lat="49.18247" lon="2.01904">
        <ele>247.4</ele>
        <time>2023-03-26T09:44:24Z</time>
      </trkpt>
      <trkpt lat="49.18253" lon="2.01915">
        <ele>246.8</ele>
        <time>2023-03-26T09:44:30Z</time>
      </trkpt>
      <trkpt lat="49.18257" lon="2.01922">
        <ele>246.5</ele>
        <time>2023-03-26T09:44:35Z</time>
      </trkpt>
      <trkpt lat="49.18262" lon="2.0193">
        <ele>246.2</ele>
        <time>2023-03-26T09:44:42Z</time>
      </trkpt>
      <trkpt lat="49.18268" lon="2.01941">
        <ele>246.1</ele>
        <time>2023-03-26T09:44:47Z</time>
      </trkpt>
      <trkpt lat="49.18273" lon="2.01952">
        <ele>246</ele>
        <time>2023-03-26T09:44:53Z</time>
      </trkpt>
      <trkpt lat="49.18277" lon="2.01961">
        <ele>246</ele>
        <time>2023-03-26T09:44:59Z</time>
      </trkpt>
      <trkpt lat="49.18282" lon="2.01971">
        <ele>245.7</ele>
        <time>2023-03-26T09:45:05Z</time>
      </trkpt>
      <trkpt lat="49.18287" lon="2.0198">
        <ele>245.3</ele>
        <time>2023-03-26T09:45:10Z</time>
      </trkpt>
      <trkpt lat="49.18292" lon="2.01989">
        <ele>244.8</ele>
        <time>2023-03-26T09:45:15Z</time>
      </trkpt>
      <trkpt lat="49.18298" lon="2.01999">
        <ele>244.2</ele>
        <time>2023-03-26T09:45:21Z</time>
      </trkpt>
      <trkpt lat="49.18302" lon="2.02004">
        <ele>243.7</ele>
        <time>2023-03-26T09:45:26Z</time>
      </trkpt>
      <trkpt lat="49.18306" lon="2.02011">
        <ele>243.1</ele>
        <time>2023-03-26T09:45:32Z</time>
      </trkpt>
      <trkpt lat="49.1831" lon="2.02021">
        <ele>242.5</ele>
        <time>2023-03-26T09:45:38Z</time>
      </trkpt>
      <trkpt lat="49.18313" lon="2.02031">
        <ele>241.9</ele>
        <time>2023-03-26T09:45:44Z</time>
      </trkpt>
      <trkpt lat="49.18315" lon="2.0204">
        <ele>241.3</ele>
        <time>2023-03-26T09:45:50Z</time>
      </trkpt>
      <trkpt lat="49.1832" lon="2.0205">
        <ele>240.7</ele>
        <time>2023-03-26T09:45:56Z</time>
      </trkpt>
      <trkpt lat="49.18326" lon="2.02056">
        <ele>240.3</ele>
        <time>2023-03-26T09:46:02Z</time>
      </trkpt>
      <trkpt lat="49.18333" lon="2.0206">
        <ele>240.1</ele>
        <time>2023-03-26T09:46:07Z</time>
      </trkpt>
      <trkpt lat="49.18338" lon="2.02063">
        <ele>239.8</ele>
        <time>2023-03-26T09:46:12Z</time>
      </trkpt>
      <trkpt lat="49.18344" lon="2.02071">
        <ele>239.5</ele>
        <time>2023-03-26T09:46:18Z</time>
      </trkpt>
      <trkpt lat="49.1835" lon="2.02082">
        <ele>239.1</ele>
        <time>2023-03-26T09:46:24Z</time>
      </trkpt>
      <trkpt lat="49.18356" lon="2.02092">
        <ele>238.8</ele>
        <time>2023-03-26T09:46:30Z</time>
      </trkpt>
      <trkpt lat="49.18362" lon="2.02101">
        <ele>239</ele>
        <time>2023-03-26T09:46:36Z</time>
      </trkpt>
      <trkpt lat="49.18369" lon="2.02109">
        <ele>239.9</ele>
        <time>2023-03-26T09:46:42Z</time>
      </trkpt>
      <trkpt lat="49.18378" lon="2.02116">
        <ele>241.2</ele>
        <time>2023-03-26T09:46:48Z</time>
      </trkpt>
      <trkpt lat="49.18383" lon="2.02123">
        <ele>242.2</ele>
        <time>2023-03-26T09:46:53Z</time>
      </trkpt>
      <trkpt lat="49.18388" lon="2.0213">
        <ele>243</ele>
        <time>2023-03-26T09:46:58Z</time>
      </trkpt>
      <trkpt lat="49.18393" lon="2.0214">
        <ele>243.6</ele>
        <time>2023-03-26T09:47:04Z</time>
      </trkpt>
      <trkpt lat="49.18398" lon="2.02148">
        <ele>243.8</ele>
        <time>2023-03-26T09:47:10Z</time>
      </trkpt>
      <trkpt lat="49.18401" lon="2.02155">
        <ele>243.8</ele>
        <time>2023-03-26T09:47:15Z</time>
      </trkpt>
      <trkpt lat="49.18407" lon="2.02162">
        <ele>243.5</ele>
        <time>2023-03-26T09:47:21Z</time>
      </trkpt>
      <trkpt lat="49.18412" lon="2.02168">
        <ele>243.1</ele>
        <time>2023-03-26T09:47:26Z</time>
      </trkpt>
      <trkpt lat="49.18418" lon="2.02173">
        <ele>242.2</ele>
        <time>2023-03-26T09:47:32Z</time>
      </trkpt>
      <trkpt lat="49.18424" lon="2.02178">
        <ele>241.3</ele>
        <time>2023-03-26T09:47:38Z</time>
      </trkpt>
      <trkpt lat="49.18428" lon="2.0218">
        <ele>240.4</ele>
        <time>2023-03-26T09:47:43Z</time>
      </trkpt>
      <trkpt lat="49.18433" lon="2.02183">
        <ele>239.2</ele>
        <time>2023-03-26T09:47:49Z</time>
      </trkpt>
      <trkpt lat="49.18438" lon="2.02186">
        <ele>237.9</ele>
        <time>2023-03-26T09:47:54Z</time>
      </trkpt>
      <trkpt lat="49.18444" lon="2.02189">
        <ele>236.7</ele>
        <time>2023-03-26T09:47:59Z</time>
      </trkpt>
      <trkpt lat="49.18452" lon="2.02193">
        <ele>234.5</ele>
        <time>2023-03-26T09:48:08Z</time>
      </trkpt>
      <trkpt lat="49.18462" lon="2.02192">
        <ele>233.4</ele>
        <time>2023-03-26T09:48:13Z</time>
      </trkpt>
      <trkpt lat="49.18472" lon="2.02191">
        <ele>233.2</ele>
        <time>2023-03-26T09:48:18Z</time>
      </trkpt>
      <trkpt lat="49.18487" lon="2.02188">
        <ele>234.4</ele>
        <time>2023-03-26T09:48:24Z</time>
      </trkpt>
      <trkpt lat="49.18498" lon="2.02186">
        <ele>235.9</ele>
        <time>2023-03-26T09:48:29Z</time>
      </trkpt>
      <trkpt lat="49.18508" lon="2.02183">
        <ele>237.7</ele>
        <time>2023-03-26T09:48:35Z</time>
      </trkpt>
      <trkpt lat="49.1852" lon="2.02181">
        <ele>239.8</ele>
        <time>2023-03-26T09:48:41Z</time>
      </trkpt>
      <trkpt lat="49.18531" lon="2.02183">
        <ele>242</ele>
        <time>2023-03-26T09:48:47Z</time>
      </trkpt>
      <trkpt lat="49.18542" lon="2.02187">
        <ele>244.2</ele>
        <time>2023-03-26T09:48:53Z</time>
      </trkpt>
      <trkpt lat="49.18549" lon="2.02191">
        <ele>246</ele>
        <time>2023-03-26T09:48:58Z</time>
      </trkpt>
      <trkpt lat="49.18556" lon="2.02196">
        <ele>247.8</ele>
        <time>2023-03-26T09:49:04Z</time>
      </trkpt>
      <trkpt lat="49.18563" lon="2.02202">
        <ele>249.3</ele>
        <time>2023-03-26T09:49:10Z</time>
      </trkpt>
      <trkpt lat="49.1857" lon="2.02209">
        <ele>250.2</ele>
        <time>2023-03-26T09:49:15Z</time>
      </trkpt>
      <trkpt lat="49.18578" lon="2.02214">
        <ele>251.4</ele>
        <time>2023-03-26T09:49:21Z</time>
      </trkpt>
      <trkpt lat="49.18583" lon="2.02217">
        <ele>252.3</ele>
        <time>2023-03-26T09:49:27Z</time>
      </trkpt>
      <trkpt lat="49.18589" lon="2.02218">
        <ele>253.1</ele>
        <time>2023-03-26T09:49:33Z</time>
      </trkpt>
      <trkpt lat="49.18597" lon="2.0222">
        <ele>253.6</ele>
        <time>2023-03-26T09:49:39Z</time>
      </trkpt>
      <trkpt lat="49.18604" lon="2.02221">
        <ele>253.9</ele>
        <time>2023-03-26T09:49:44Z</time>
      </trkpt>
      <trkpt lat="49.18612" lon="2.02223">
        <ele>254.1</ele>
        <time>2023-03-26T09:49:50Z</time>
      </trkpt>
      <trkpt lat="49.1862" lon="2.02224">
        <ele>254.3</ele>
        <time>2023-03-26T09:49:56Z</time>
      </trkpt>
      <trkpt lat="49.18626" lon="2.02225">
        <ele>254.5</ele>
        <time>2023-03-26T09:50:02Z</time>
      </trkpt>
      <trkpt lat="49.18634" lon="2.02227">
        <ele>254.6</ele>
        <time>2023-03-26T09:50:08Z</time>
      </trkpt>
      <trkpt lat="49.18642" lon="2.02229">
        <ele>254.7</ele>
        <time>2023-03-26T09:50:14Z</time>
      </trkpt>
      <trkpt lat="49.1865" lon="2.02231">
        <ele>254.7</ele>
        <time>2023-03-26T09:50:20Z</time>
      </trkpt>
      <trkpt lat="49.18658" lon="2.02231">
        <ele>254.7</ele>
        <time>2023-03-26T09:50:26Z</time>
      </trkpt>
      <trkpt lat="49.18665" lon="2.02231">
        <ele>254.9</ele>
        <time>2023-03-26T09:50:32Z</time>
      </trkpt>
      <trkpt lat="49.18671" lon="2.0223">
        <ele>255.1</ele>
        <time>2023-03-26T09:50:37Z</time>
      </trkpt>
      <trkpt lat="49.18678" lon="2.0223">
        <ele>255.3</ele>
        <time>2023-03-26T09:50:43Z</time>
      </trkpt>
      <trkpt lat="49.18684" lon="2.02231">
        <ele>255.4</ele>
        <time>2023-03-26T09:50:48Z</time>
      </trkpt>
      <trkpt lat="49.1869" lon="2.02232">
        <ele>255.5</ele>
        <time>2023-03-26T09:50:53Z</time>
      </trkpt>
      <trkpt lat="49.18699" lon="2.02233">
        <ele>255.6</ele>
        <time>2023-03-26T09:50:59Z</time>
      </trkpt>
      <trkpt lat="49.18705" lon="2.02234">
        <ele>255.8</ele>
        <time>2023-03-26T09:51:04Z</time>
      </trkpt>
      <trkpt lat="49.18713" lon="2.02238">
        <ele>256.2</ele>
        <time>2023-03-26T09:51:10Z</time>
      </trkpt>
      <trkpt lat="49.18721" lon="2.02243">
        <ele>256.6</ele>
        <time>2023-03-26T09:51:15Z</time>
      </trkpt>
      <trkpt lat="49.18729" lon="2.02246">
        <ele>256.9</ele>
        <time>2023-03-26T09:51:20Z</time>
      </trkpt>
      <trkpt lat="49.18735" lon="2.02248">
        <ele>257.2</ele>
        <time>2023-03-26T09:51:26Z</time>
      </trkpt>
      <trkpt lat="49.18743" lon="2.02251">
        <ele>257.6</ele>
        <time>2023-03-26T09:51:32Z</time>
      </trkpt>
      <trkpt lat="49.18748" lon="2.02249">
        <ele>257.8</ele>
        <time>2023-03-26T09:51:38Z</time>
      </trkpt>
      <trkpt lat="49.18751" lon="2.02249">
        <ele>258.1</ele>
        <time>2023-03-26T09:51:43Z</time>
      </trkpt>
      <trkpt lat="49.18755" lon="2.02251">
        <ele>258.2</ele>
        <time>2023-03-26T09:51:49Z</time>
      </trkpt>
      <trkpt lat="49.18765" lon="2.0225">
        <ele>258.3</ele>
        <time>2023-03-26T09:51:55Z</time>
      </trkpt>
      <trkpt lat="49.18774" lon="2.02249">
        <ele>258.3</ele>
        <time>2023-03-26T09:52:01Z</time>
      </trkpt>
      <trkpt lat="49.18779" lon="2.02247">
        <ele>258.3</ele>
        <time>2023-03-26T09:52:06Z</time>
      </trkpt>
      <trkpt lat="49.18786" lon="2.02244">
        <ele>258.3</ele>
        <time>2023-03-26T09:52:12Z</time>
      </trkpt>
      <trkpt lat="49.18792" lon="2.02241">
        <ele>258.3</ele>
        <time>2023-03-26T09:52:17Z</time>
      </trkpt>
      <trkpt lat="49.18798" lon="2.02236">
        <ele>258.1</ele>
        <time>2023-03-26T09:52:23Z</time>
      </trkpt>
      <trkpt lat="49.18806" lon="2.02238">
        <ele>257.9</ele>
        <time>2023-03-26T09:52:29Z</time>
      </trkpt>
      <trkpt lat="49.18812" lon="2.02235">
        <ele>257.8</ele>
        <time>2023-03-26T09:52:35Z</time>
      </trkpt>
      <trkpt lat="49.18816" lon="2.02229">
        <ele>258.1</ele>
        <time>2023-03-26T09:52:40Z</time>
      </trkpt>
      <trkpt lat="49.18821" lon="2.02226">
        <ele>258.5</ele>
        <time>2023-03-26T09:52:46Z</time>
      </trkpt>
      <trkpt lat="49.18831" lon="2.02221">
        <ele>259.2</ele>
        <time>2023-03-26T09:52:52Z</time>
      </trkpt>
      <trkpt lat="49.1884" lon="2.02216">
        <ele>259.6</ele>
        <time>2023-03-26T09:52:58Z</time>
      </trkpt>
      <trkpt lat="49.18847" lon="2.02209">
        <ele>259.9</ele>
        <time>2023-03-26T09:53:04Z</time>
      </trkpt>
      <trkpt lat="49.18855" lon="2.02202">
        <ele>259.9</ele>
        <time>2023-03-26T09:53:10Z</time>
      </trkpt>
      <trkpt lat="49.18863" lon="2.02192">
        <ele>259.8</ele>
        <time>2023-03-26T09:53:16Z</time>
      </trkpt>
      <trkpt lat="49.18867" lon="2.0219">
        <ele>260</ele>
        <time>2023-03-26T09:53:21Z</time>
      </trkpt>
      <trkpt lat="49.18875" lon="2.02182">
        <ele>260</ele>
        <time>2023-03-26T09:53:27Z</time>
      </trkpt>
      <trkpt lat="49.18882" lon="2.02179">
        <ele>260.3</ele>
        <time>2023-03-26T09:53:33Z</time>
      </trkpt>
      <trkpt lat="49.18887" lon="2.02176">
        <ele>260.6</ele>
        <time>2023-03-26T09:53:39Z</time>
      </trkpt>
      <trkpt lat="49.18891" lon="2.02172">
        <ele>260.8</ele>
        <time>2023-03-26T09:53:44Z</time>
      </trkpt>
      <trkpt lat="49.18897" lon="2.02168">
        <ele>261.1</ele>
        <time>2023-03-26T09:53:49Z</time>
      </trkpt>
      <trkpt lat="49.18903" lon="2.02162">
        <ele>261.3</ele>
        <time>2023-03-26T09:53:55Z</time>
      </trkpt>
      <trkpt lat="49.18911" lon="2.02155">
        <ele>261.3</ele>
        <time>2023-03-26T09:54:01Z</time>
      </trkpt>
      <trkpt lat="49.18914" lon="2.02152">
        <ele>261.3</ele>
        <time>2023-03-26T09:54:06Z</time>
      </trkpt>
      <trkpt lat="49.18917" lon="2.02149">
        <ele>261.6</ele>
        <time>2023-03-26T09:54:11Z</time>
      </trkpt>
      <trkpt lat="49.18923" lon="2.02143">
        <ele>261.9</ele>
        <time>2023-03-26T09:54:17Z</time>
      </trkpt>
      <trkpt lat="49.18933" lon="2.02131">
        <ele>262.3</ele>
        <time>2023-03-26T09:54:22Z</time>
      </trkpt>
      <trkpt lat="49.18941" lon="2.02125">
        <ele>262.4</ele>
        <time>2023-03-26T09:54:27Z</time>
      </trkpt>
      <trkpt lat="49.1895" lon="2.02121">
        <ele>262.1</ele>
        <time>2023-03-26T09:54:33Z</time>
      </trkpt>
      <trkpt lat="49.18955" lon="2.02119">
        <ele>262</ele>
        <time>2023-03-26T09:54:38Z</time>
      </trkpt>
      <trkpt lat="49.18962" lon="2.02121">
        <ele>261.9</ele>
        <time>2023-03-26T09:54:43Z</time>
      </trkpt>
      <trkpt lat="49.18969" lon="2.02122">
        <ele>261.8</ele>
        <time>2023-03-26T09:54:49Z</time>
      </trkpt>
      <trkpt lat="49.18975" lon="2.0212">
        <ele>261.8</ele>
        <time>2023-03-26T09:54:55Z</time>
      </trkpt>
      <trkpt lat="49.1898" lon="2.02115">
        <ele>261.8</ele>
        <time>2023-03-26T09:55:01Z</time>
      </trkpt>
      <trkpt lat="49.18986" lon="2.0211">
        <ele>262</ele>
        <time>2023-03-26T09:55:06Z</time>
      </trkpt>
      <trkpt lat="49.18993" lon="2.02104">
        <ele>262.1</ele>
        <time>2023-03-26T09:55:11Z</time>
      </trkpt>
      <trkpt lat="49.19" lon="2.02094">
        <ele>262.5</ele>
        <time>2023-03-26T09:55:17Z</time>
      </trkpt>
      <trkpt lat="49.19006" lon="2.02086">
        <ele>263.5</ele>
        <time>2023-03-26T09:55:23Z</time>
      </trkpt>
      <trkpt lat="49.19011" lon="2.02085">
        <ele>264</ele>
        <time>2023-03-26T09:55:28Z</time>
      </trkpt>
      <trkpt lat="49.19017" lon="2.02085">
        <ele>264.4</ele>
        <time>2023-03-26T09:55:33Z</time>
      </trkpt>
      <trkpt lat="49.19022" lon="2.02081">
        <ele>264.8</ele>
        <time>2023-03-26T09:55:38Z</time>
      </trkpt>
      <trkpt lat="49.19027" lon="2.0208">
        <ele>265.2</ele>
        <time>2023-03-26T09:55:44Z</time>
      </trkpt>
      <trkpt lat="49.19037" lon="2.02075">
        <ele>265.8</ele>
        <time>2023-03-26T09:55:50Z</time>
      </trkpt>
      <trkpt lat="49.19044" lon="2.02073">
        <ele>266</ele>
        <time>2023-03-26T09:55:56Z</time>
      </trkpt>
      <trkpt lat="49.19052" lon="2.02072">
        <ele>266</ele>
        <time>2023-03-26T09:56:02Z</time>
      </trkpt>
      <trkpt lat="49.19056" lon="2.02067">
        <ele>265.6</ele>
        <time>2023-03-26T09:56:07Z</time>
      </trkpt>
      <trkpt lat="49.19065" lon="2.02068">
        <ele>265.3</ele>
        <time>2023-03-26T09:56:13Z</time>
      </trkpt>
      <trkpt lat="49.19072" lon="2.02067">
        <ele>265.6</ele>
        <time>2023-03-26T09:56:19Z</time>
      </trkpt>
      <trkpt lat="49.1908" lon="2.0207">
        <ele>265.5</ele>
        <time>2023-03-26T09:56:25Z</time>
      </trkpt>
      <trkpt lat="49.19087" lon="2.02067">
        <ele>265.2</ele>
        <time>2023-03-26T09:56:30Z</time>
      </trkpt>
      <trkpt lat="49.19093" lon="2.02063">
        <ele>265.2</ele>
        <time>2023-03-26T09:56:35Z</time>
      </trkpt>
      <trkpt lat="49.19098" lon="2.02057">
        <ele>264.9</ele>
        <time>2023-03-26T09:56:41Z</time>
      </trkpt>
      <trkpt lat="49.19107" lon="2.02051">
        <ele>264.4</ele>
        <time>2023-03-26T09:56:47Z</time>
      </trkpt>
      <trkpt lat="49.19114" lon="2.0205">
        <ele>264.1</ele>
        <time>2023-03-26T09:56:53Z</time>
      </trkpt>
      <trkpt lat="49.19118" lon="2.02047">
        <ele>263.5</ele>
        <time>2023-03-26T09:56:59Z</time>
      </trkpt>
      <trkpt lat="49.19123" lon="2.02041">
        <ele>262.7</ele>
        <time>2023-03-26T09:57:05Z</time>
      </trkpt>
      <trkpt lat="49.19129" lon="2.02036">
        <ele>262.1</ele>
        <time>2023-03-26T09:57:11Z</time>
      </trkpt>
      <trkpt lat="49.19135" lon="2.02033">
        <ele>262</ele>
        <time>2023-03-26T09:57:16Z</time>
      </trkpt>
      <trkpt lat="49.19144" lon="2.02029">
        <ele>261.8</ele>
        <time>2023-03-26T09:57:21Z</time>
      </trkpt>
      <trkpt lat="49.19148" lon="2.02027">
        <ele>261.1</ele>
        <time>2023-03-26T09:57:27Z</time>
      </trkpt>
      <trkpt lat="49.19156" lon="2.02028">
        <ele>260.4</ele>
        <time>2023-03-26T09:57:32Z</time>
      </trkpt>
      <trkpt lat="49.19163" lon="2.02028">
        <ele>259.3</ele>
        <time>2023-03-26T09:57:38Z</time>
      </trkpt>
      <trkpt lat="49.19169" lon="2.02026">
        <ele>258.4</ele>
        <time>2023-03-26T09:57:43Z</time>
      </trkpt>
      <trkpt lat="49.19176" lon="2.02023">
        <ele>257.5</ele>
        <time>2023-03-26T09:57:48Z</time>
      </trkpt>
      <trkpt lat="49.19188" lon="2.02025">
        <ele>256.4</ele>
        <time>2023-03-26T09:57:54Z</time>
      </trkpt>
      <trkpt lat="49.19195" lon="2.02026">
        <ele>255.4</ele>
        <time>2023-03-26T09:57:59Z</time>
      </trkpt>
      <trkpt lat="49.19199" lon="2.02025">
        <ele>254.7</ele>
        <time>2023-03-26T09:58:05Z</time>
      </trkpt>
      <trkpt lat="49.19206" lon="2.02028">
        <ele>253.9</ele>
        <time>2023-03-26T09:58:10Z</time>
      </trkpt>
      <trkpt lat="49.19213" lon="2.02033">
        <ele>252.8</ele>
        <time>2023-03-26T09:58:15Z</time>
      </trkpt>
      <trkpt lat="49.19219" lon="2.02038">
        <ele>251.6</ele>
        <time>2023-03-26T09:58:21Z</time>
      </trkpt>
      <trkpt lat="49.19224" lon="2.02041">
        <ele>250.5</ele>
        <time>2023-03-26T09:58:27Z</time>
      </trkpt>
      <trkpt lat="49.19232" lon="2.02046">
        <ele>249.7</ele>
        <time>2023-03-26T09:58:33Z</time>
      </trkpt>
      <trkpt lat="49.19238" lon="2.02047">
        <ele>249.1</ele>
        <time>2023-03-26T09:58:38Z</time>
      </trkpt>
      <trkpt lat="49.19245" lon="2.02051">
        <ele>248.5</ele>
        <time>2023-03-26T09:58:44Z</time>
      </trkpt>
      <trkpt lat="49.1925" lon="2.02054">
        <ele>247.7</ele>
        <time>2023-03-26T09:58:49Z</time>
      </trkpt>
      <trkpt lat="49.19257" lon="2.02059">
        <ele>246.4</ele>
        <time>2023-03-26T09:58:55Z</time>
      </trkpt>
      <trkpt lat="49.19264" lon="2.02059">
        <ele>245.2</ele>
        <time>2023-03-26T09:59:01Z</time>
      </trkpt>
      <trkpt lat="49.19272" lon="2.02062">
        <ele>244.2</ele>
        <time>2023-03-26T09:59:06Z</time>
      </trkpt>
      <trkpt lat="49.19281" lon="2.02064">
        <ele>243.1</ele>
        <time>2023-03-26T09:59:12Z</time>
      </trkpt>
      <trkpt lat="49.19289" lon="2.02068">
        <ele>241.7</ele>
        <time>2023-03-26T09:59:18Z</time>
      </trkpt>
      <trkpt lat="49.19294" lon="2.02071">
        <ele>241</ele>
        <time>2023-03-26T09:59:24Z</time>
      </trkpt>
      <trkpt lat="49.19304" lon="2.02077">
        <ele>239.7</ele>
        <time>2023-03-26T09:59:30Z</time>
      </trkpt>
      <trkpt lat="49.19312" lon="2.02077">
        <ele>238.5</ele>
        <time>2023-03-26T09:59:38Z</time>
      </trkpt>
      <trkpt lat="49.19317" lon="2.02077">
        <ele>237.5</ele>
        <time>2023-03-26T09:59:43Z</time>
      </trkpt>
      <trkpt lat="49.19325" lon="2.0208">
        <ele>236.4</ele>
        <time>2023-03-26T09:59:48Z</time>
      </trkpt>
      <trkpt lat="49.19334" lon="2.02085">
        <ele>235.5</ele>
        <time>2023-03-26T09:59:54Z</time>
      </trkpt>
      <trkpt lat="49.19342" lon="2.02087">
        <ele>234.6</ele>
        <time>2023-03-26T10:00:00Z</time>
      </trkpt>
      <trkpt lat="49.19349" lon="2.02088">
        <ele>233.8</ele>
        <time>2023-03-26T10:00:06Z</time>
      </trkpt>
      <trkpt lat="49.19357" lon="2.02094">
        <ele>232.9</ele>
        <time>2023-03-26T10:00:11Z</time>
      </trkpt>
      <trkpt lat="49.19367" lon="2.02096">
        <ele>232.5</ele>
        <time>2023-03-26T10:00:17Z</time>
      </trkpt>
      <trkpt lat="49.19373" lon="2.02097">
        <ele>232.1</ele>
        <time>2023-03-26T10:00:22Z</time>
      </trkpt>
      <trkpt lat="49.19382" lon="2.02097">
        <ele>231.5</ele>
        <time>2023-03-26T10:00:28Z</time>
      </trkpt>
      <trkpt lat="49.19389" lon="2.02099">
        <ele>230.8</ele>
        <time>2023-03-26T10:00:33Z</time>
      </trkpt>
      <trkpt lat="49.19395" lon="2.02097">
        <ele>229.9</ele>
        <time>2023-03-26T10:00:38Z</time>
      </trkpt>
      <trkpt lat="49.19403" lon="2.02096">
        <ele>228.6</ele>
        <time>2023-03-26T10:00:44Z</time>
      </trkpt>
      <trkpt lat="49.1941" lon="2.02095">
        <ele>227.7</ele>
        <time>2023-03-26T10:00:49Z</time>
      </trkpt>
      <trkpt lat="49.19419" lon="2.02097">
        <ele>226.7</ele>
        <time>2023-03-26T10:00:55Z</time>
      </trkpt>
      <trkpt lat="49.19425" lon="2.02096">
        <ele>226</ele>
        <time>2023-03-26T10:01:00Z</time>
      </trkpt>
      <trkpt lat="49.19433" lon="2.02094">
        <ele>225.2</ele>
        <time>2023-03-26T10:01:05Z</time>
      </trkpt>
      <trkpt lat="49.19441" lon="2.02096">
        <ele>224.7</ele>
        <time>2023-03-26T10:01:11Z</time>
      </trkpt>
      <trkpt lat="49.19447" lon="2.021">
        <ele>224.3</ele>
        <time>2023-03-26T10:01:16Z</time>
      </trkpt>
      <trkpt lat="49.19451" lon="2.02104">
        <ele>223.8</ele>
        <time>2023-03-26T10:01:21Z</time>
      </trkpt>
      <trkpt lat="49.19455" lon="2.02109">
        <ele>223.2</ele>
        <time>2023-03-26T10:01:27Z</time>
      </trkpt>
      <trkpt lat="49.19463" lon="2.02107">
        <ele>222.5</ele>
        <time>2023-03-26T10:01:33Z</time>
      </trkpt>
      <trkpt lat="49.19468" lon="2.02111">
        <ele>221.1</ele>
        <time>2023-03-26T10:01:39Z</time>
      </trkpt>
      <trkpt lat="49.19475" lon="2.02118">
        <ele>219.8</ele>
        <time>2023-03-26T10:01:45Z</time>
      </trkpt>
      <trkpt lat="49.19483" lon="2.02123">
        <ele>218.7</ele>
        <time>2023-03-26T10:01:50Z</time>
      </trkpt>
      <trkpt lat="49.19491" lon="2.02126">
        <ele>217.6</ele>
        <time>2023-03-26T10:01:55Z</time>
      </trkpt>
      <trkpt lat="49.19504" lon="2.0213">
        <ele>216.7</ele>
        <time>2023-03-26T10:02:01Z</time>
      </trkpt>
      <trkpt lat="49.19512" lon="2.0213">
        <ele>216.2</ele>
        <time>2023-03-26T10:02:06Z</time>
      </trkpt>
      <trkpt lat="49.19517" lon="2.0213">
        <ele>215.7</ele>
        <time>2023-03-26T10:02:11Z</time>
      </trkpt>
      <trkpt lat="49.19524" lon="2.02129">
        <ele>215.2</ele>
        <time>2023-03-26T10:02:16Z</time>
      </trkpt>
      <trkpt lat="49.19532" lon="2.02126">
        <ele>214.6</ele>
        <time>2023-03-26T10:02:22Z</time>
      </trkpt>
      <trkpt lat="49.19538" lon="2.02123">
        <ele>214.1</ele>
        <time>2023-03-26T10:02:28Z</time>
      </trkpt>
      <trkpt lat="49.19546" lon="2.02118">
        <ele>213.6</ele>
        <time>2023-03-26T10:02:33Z</time>
      </trkpt>
      <trkpt lat="49.19553" lon="2.02113">
        <ele>213.2</ele>
        <time>2023-03-26T10:02:39Z</time>
      </trkpt>
      <trkpt lat="49.1956" lon="2.02109">
        <ele>213.1</ele>
        <time>2023-03-26T10:02:45Z</time>
      </trkpt>
      <trkpt lat="49.19567" lon="2.02105">
        <ele>212.8</ele>
        <time>2023-03-26T10:02:50Z</time>
      </trkpt>
      <trkpt lat="49.19572" lon="2.02101">
        <ele>212.5</ele>
        <time>2023-03-26T10:02:55Z</time>
      </trkpt>
      <trkpt lat="49.19579" lon="2.02096">
        <ele>212.1</ele>
        <time>2023-03-26T10:03:01Z</time>
      </trkpt>
      <trkpt lat="49.19585" lon="2.02089">
        <ele>211.8</ele>
        <time>2023-03-26T10:03:06Z</time>
      </trkpt>
      <trkpt lat="49.19584" lon="2.02079">
        <ele>211.5</ele>
        <time>2023-03-26T10:03:12Z</time>
      </trkpt>
      <trkpt lat="49.19585" lon="2.0207">
        <ele>210.9</ele>
        <time>2023-03-26T10:03:17Z</time>
      </trkpt>
      <trkpt lat="49.19587" lon="2.0206">
        <ele>210.2</ele>
        <time>2023-03-26T10:03:22Z</time>
      </trkpt>
      <trkpt lat="49.19589" lon="2.02047">
        <ele>209.6</ele>
        <time>2023-03-26T10:03:28Z</time>
      </trkpt>
      <trkpt lat="49.1959" lon="2.02037">
        <ele>209.2</ele>
        <time>2023-03-26T10:03:33Z</time>
      </trkpt>
      <trkpt lat="49.19589" lon="2.02027">
        <ele>208.8</ele>
        <time>2023-03-26T10:03:39Z</time>
      </trkpt>
      <trkpt lat="49.19591" lon="2.02017">
        <ele>208.5</ele>
        <time>2023-03-26T10:03:44Z</time>
      </trkpt>
      <trkpt lat="49.19593" lon="2.02009">
        <ele>208.3</ele>
        <time>2023-03-26T10:03:49Z</time>
      </trkpt>
      <trkpt lat="49.19594" lon="2.02003">
        <ele>208.4</ele>
        <time>2023-03-26T10:03:54Z</time>
      </trkpt>
      <trkpt lat="49.19594" lon="2.01997">
        <ele>208.8</ele>
        <time>2023-03-26T10:04:00Z</time>
      </trkpt>
      <trkpt lat="49.19595" lon="2.01985">
        <ele>209</ele>
        <time>2023-03-26T10:04:05Z</time>
      </trkpt>
      <trkpt lat="49.19596" lon="2.01978">
        <ele>208.9</ele>
        <time>2023-03-26T10:04:10Z</time>
      </trkpt>
      <trkpt lat="49.196" lon="2.01966">
        <ele>208.8</ele>
        <time>2023-03-26T10:04:16Z</time>
      </trkpt>
      <trkpt lat="49.196" lon="2.01954">
        <ele>208.6</ele>
        <time>2023-03-26T10:04:21Z</time>
      </trkpt>
      <trkpt lat="49.19601" lon="2.01944">
        <ele>208.5</ele>
        <time>2023-03-26T10:04:27Z</time>
      </trkpt>
      <trkpt lat="49.19605" lon="2.01935">
        <ele>208.4</ele>
        <time>2023-03-26T10:04:33Z</time>
      </trkpt>
      <trkpt lat="49.19605" lon="2.01929">
        <ele>208.2</ele>
        <time>2023-03-26T10:04:38Z</time>
      </trkpt>
      <trkpt lat="49.19604" lon="2.01917">
        <ele>208</ele>
        <time>2023-03-26T10:04:44Z</time>
      </trkpt>
      <trkpt lat="49.19604" lon="2.01908">
        <ele>207.7</ele>
        <time>2023-03-26T10:04:50Z</time>
      </trkpt>
      <trkpt lat="49.19607" lon="2.01901">
        <ele>207.8</ele>
        <time>2023-03-26T10:04:56Z</time>
      </trkpt>
      <trkpt lat="49.19606" lon="2.01892">
        <ele>207.9</ele>
        <time>2023-03-26T10:05:02Z</time>
      </trkpt>
      <trkpt lat="49.19605" lon="2.01884">
        <ele>208.1</ele>
        <time>2023-03-26T10:05:07Z</time>
      </trkpt>
      <trkpt lat="49.19606" lon="2.01873">
        <ele>208.3</ele>
        <time>2023-03-26T10:05:13Z</time>
      </trkpt>
      <trkpt lat="49.19606" lon="2.01864">
        <ele>208.5</ele>
        <time>2023-03-26T10:05:18Z</time>
      </trkpt>
      <trkpt lat="49.1961" lon="2.01852">
        <ele>208.7</ele>
        <time>2023-03-26T10:05:24Z</time>
      </trkpt>
      <trkpt lat="49.19613" lon="2.01842">
        <ele>208.9</ele>
        <time>2023-03-26T10:05:30Z</time>
      </trkpt>
      <trkpt lat="49.19611" lon="2.01836">
        <ele>208.9</ele>
        <time>2023-03-26T10:05:35Z</time>
      </trkpt>
      <trkpt lat="49.19611" lon="2.01826">
        <ele>208.8</ele>
        <time>2023-03-26T10:05:41Z</time>
      </trkpt>
      <trkpt lat="49.19611" lon="2.01817">
        <ele>208.3</ele>
        <time>2023-03-26T10:05:47Z</time>
      </trkpt>
      <trkpt lat="49.19612" lon="2.01808">
        <ele>207.8</ele>
        <time>2023-03-26T10:05:52Z</time>
      </trkpt>
      <trkpt lat="49.19613" lon="2.01797">
        <ele>207.2</ele>
        <time>2023-03-26T10:05:58Z</time>
      </trkpt>
      <trkpt lat="49.19614" lon="2.01788">
        <ele>206.8</ele>
        <time>2023-03-26T10:06:03Z</time>
      </trkpt>
      <trkpt lat="49.19614" lon="2.01775">
        <ele>206.5</ele>
        <time>2023-03-26T10:06:09Z</time>
      </trkpt>
      <trkpt lat="49.19614" lon="2.01762">
        <ele>206.2</ele>
        <time>2023-03-26T10:06:15Z</time>
      </trkpt>
      <trkpt lat="49.19616" lon="2.01747">
        <ele>206.1</ele>
        <time>2023-03-26T10:06:21Z</time>
      </trkpt>
      <trkpt lat="49.19617" lon="2.01735">
        <ele>206.4</ele>
        <time>2023-03-26T10:06:27Z</time>
      </trkpt>
      <trkpt lat="49.19617" lon="2.01725">
        <ele>206.8</ele>
        <time>2023-03-26T10:06:32Z</time>
      </trkpt>
      <trkpt lat="49.19618" lon="2.01717">
        <ele>207.2</ele>
        <time>2023-03-26T10:06:37Z</time>
      </trkpt>
      <trkpt lat="49.1962" lon="2.0171">
        <ele>207.4</ele>
        <time>2023-03-26T10:06:42Z</time>
      </trkpt>
      <trkpt lat="49.19621" lon="2.01698">
        <ele>207.5</ele>
        <time>2023-03-26T10:06:48Z</time>
      </trkpt>
      <trkpt lat="49.19621" lon="2.01689">
        <ele>207.5</ele>
        <time>2023-03-26T10:06:53Z</time>
      </trkpt>
      <trkpt lat="49.19622" lon="2.01683">
        <ele>207.4</ele>
        <time>2023-03-26T10:06:58Z</time>
      </trkpt>
      <trkpt lat="49.19624" lon="2.0167">
        <ele>207.5</ele>
        <time>2023-03-26T10:07:04Z</time>
      </trkpt>
      <trkpt lat="49.19625" lon="2.01656">
        <ele>207.5</ele>
        <time>2023-03-26T10:07:10Z</time>
      </trkpt>
      <trkpt lat="49.19628" lon="2.01643">
        <ele>207.8</ele>
        <time>2023-03-26T10:07:16Z</time>
      </trkpt>
      <trkpt lat="49.19629" lon="2.01634">
        <ele>207.9</ele>
        <time>2023-03-26T10:07:21Z</time>
      </trkpt>
      <trkpt lat="49.19631" lon="2.01621">
        <ele>207.9</ele>
        <time>2023-03-26T10:07:27Z</time>
      </trkpt>
      <trkpt lat="49.19632" lon="2.01611">
        <ele>207.8</ele>
        <time>2023-03-26T10:07:32Z</time>
      </trkpt>
      <trkpt lat="49.19633" lon="2.01602">
        <ele>208</ele>
        <time>2023-03-26T10:07:38Z</time>
      </trkpt>
      <trkpt lat="49.19636" lon="2.01592">
        <ele>208.2</ele>
        <time>2023-03-26T10:07:43Z</time>
      </trkpt>
      <trkpt lat="49.19639" lon="2.01581">
        <ele>208.2</ele>
        <time>2023-03-26T10:07:49Z</time>
      </trkpt>
      <trkpt lat="49.19641" lon="2.01571">
        <ele>208.3</ele>
        <time>2023-03-26T10:07:55Z</time>
      </trkpt>
      <trkpt lat="49.19642" lon="2.01565">
        <ele>208.1</ele>
        <time>2023-03-26T10:08:00Z</time>
      </trkpt>
      <trkpt lat="49.19645" lon="2.01556">
        <ele>207.8</ele>
        <time>2023-03-26T10:08:06Z</time>
      </trkpt>
      <trkpt lat="49.19646" lon="2.01545">
        <ele>207.4</ele>
        <time>2023-03-26T10:08:12Z</time>
      </trkpt>
      <trkpt lat="49.19649" lon="2.01536">
        <ele>207.3</ele>
        <time>2023-03-26T10:08:18Z</time>
      </trkpt>
      <trkpt lat="49.19652" lon="2.01524">
        <ele>207.3</ele>
        <time>2023-03-26T10:08:23Z</time>
      </trkpt>
      <trkpt lat="49.19655" lon="2.01513">
        <ele>207.1</ele>
        <time>2023-03-26T10:08:28Z</time>
      </trkpt>
      <trkpt lat="49.19658" lon="2.01504">
        <ele>206.8</ele>
        <time>2023-03-26T10:08:33Z</time>
      </trkpt>
      <trkpt lat="49.1966" lon="2.01493">
        <ele>206.8</ele>
        <time>2023-03-26T10:08:39Z</time>
      </trkpt>
      <trkpt lat="49.19661" lon="2.01481">
        <ele>206.8</ele>
        <time>2023-03-26T10:08:45Z</time>
      </trkpt>
      <trkpt lat="49.19663" lon="2.01472">
        <ele>207.2</ele>
        <time>2023-03-26T10:08:51Z</time>
      </trkpt>
      <trkpt lat="49.19664" lon="2.01467">
        <ele>207.4</ele>
        <time>2023-03-26T10:08:56Z</time>
      </trkpt>
      <trkpt lat="49.19665" lon="2.0146">
        <ele>207.3</ele>
        <time>2023-03-26T10:09:02Z</time>
      </trkpt>
      <trkpt lat="49.19667" lon="2.01449">
        <ele>207.1</ele>
        <time>2023-03-26T10:09:07Z</time>
      </trkpt>
      <trkpt lat="49.19672" lon="2.01435">
        <ele>207.3</ele>
        <time>2023-03-26T10:09:13Z</time>
      </trkpt>
      <trkpt lat="49.19673" lon="2.0143">
        <ele>207.3</ele>
        <time>2023-03-26T10:09:18Z</time>
      </trkpt>
      <trkpt lat="49.19672" lon="2.01421">
        <ele>207.3</ele>
        <time>2023-03-26T10:09:24Z</time>
      </trkpt>
      <trkpt lat="49.19671" lon="2.01411">
        <ele>207.1</ele>
        <time>2023-03-26T10:09:29Z</time>
      </trkpt>
      <trkpt lat="49.19675" lon="2.01399">
        <ele>207.1</ele>
        <time>2023-03-26T10:09:34Z</time>
      </trkpt>
      <trkpt lat="49.19679" lon="2.01389">
        <ele>207.2</ele>
        <time>2023-03-26T10:09:39Z</time>
      </trkpt>
      <trkpt lat="49.19683" lon="2.01383">
        <ele>207.2</ele>
        <time>2023-03-26T10:09:45Z</time>
      </trkpt>
      <trkpt lat="49.19684" lon="2.01379">
        <ele>207.2</ele>
        <time>2023-03-26T10:09:51Z</time>
      </trkpt>
      <trkpt lat="49.19687" lon="2.0137">
        <ele>207.2</ele>
        <time>2023-03-26T10:09:57Z</time>
      </trkpt>
      <trkpt lat="49.19692" lon="2.01364">
        <ele>207.2</ele>
        <time>2023-03-26T10:10:03Z</time>
      </trkpt>
      <trkpt lat="49.19698" lon="2.01354">
        <ele>207.2</ele>
        <time>2023-03-26T10:10:09Z</time>
      </trkpt>
      <trkpt lat="49.19703" lon="2.01345">
        <ele>207.2</ele>
        <time>2023-03-26T10:10:15Z</time>
      </trkpt>
      <trkpt lat="49.19705" lon="2.01336">
        <ele>207.3</ele>
        <time>2023-03-26T10:10:21Z</time>
      </trkpt>
      <trkpt lat="49.1971" lon="2.01329">
        <ele>207.7</ele>
        <time>2023-03-26T10:10:27Z</time>
      </trkpt>
      <trkpt lat="49.19714" lon="2.01322">
        <ele>207.8</ele>
        <time>2023-03-26T10:10:32Z</time>
      </trkpt>
      <trkpt lat="49.19719" lon="2.01317">
        <ele>208</ele>
        <time>2023-03-26T10:10:37Z</time>
      </trkpt>
      <trkpt lat="49.19725" lon="2.01308">
        <ele>208.2</ele>
        <time>2023-03-26T10:10:42Z</time>
      </trkpt>
      <trkpt lat="49.19728" lon="2.01298">
        <ele>208.6</ele>
        <time>2023-03-26T10:10:48Z</time>
      </trkpt>
      <trkpt lat="49.19731" lon="2.01288">
        <ele>208.8</ele>
        <time>2023-03-26T10:10:53Z</time>
      </trkpt>
      <trkpt lat="49.19736" lon="2.01279">
        <ele>209.2</ele>
        <time>2023-03-26T10:10:59Z</time>
      </trkpt>
      <trkpt lat="49.1974" lon="2.01272">
        <ele>209.8</ele>
        <time>2023-03-26T10:11:05Z</time>
      </trkpt>
      <trkpt lat="49.19748" lon="2.01261">
        <ele>210.2</ele>
        <time>2023-03-26T10:11:11Z</time>
      </trkpt>
      <trkpt lat="49.19749" lon="2.01252">
        <ele>210.5</ele>
        <time>2023-03-26T10:11:17Z</time>
      </trkpt>
      <trkpt lat="49.19752" lon="2.01247">
        <ele>210.8</ele>
        <time>2023-03-26T10:11:22Z</time>
      </trkpt>
      <trkpt lat="49.19755" lon="2.01241">
        <ele>211.2</ele>
        <time>2023-03-26T10:11:28Z</time>
      </trkpt>
      <trkpt lat="49.19758" lon="2.01231">
        <ele>211.4</ele>
        <time>2023-03-26T10:11:34Z</time>
      </trkpt>
      <trkpt lat="49.19763" lon="2.01224">
        <ele>211.3</ele>
        <time>2023-03-26T10:11:39Z</time>
      </trkpt>
      <trkpt lat="49.19768" lon="2.01221">
        <ele>211.2</ele>
        <time>2023-03-26T10:11:45Z</time>
      </trkpt>
      <trkpt lat="49.19773" lon="2.01221">
        <ele>210.9</ele>
        <time>2023-03-26T10:11:50Z</time>
      </trkpt>
      <trkpt lat="49.19779" lon="2.01222">
        <ele>210.7</ele>
        <time>2023-03-26T10:11:56Z</time>
      </trkpt>
      <trkpt lat="49.19786" lon="2.01222">
        <ele>210.3</ele>
        <time>2023-03-26T10:12:02Z</time>
      </trkpt>
      <trkpt lat="49.19794" lon="2.0122">
        <ele>209.9</ele>
        <time>2023-03-26T10:12:07Z</time>
      </trkpt>
      <trkpt lat="49.198" lon="2.01218">
        <ele>209.5</ele>
        <time>2023-03-26T10:12:12Z</time>
      </trkpt>
      <trkpt lat="49.19808" lon="2.0122">
        <ele>208.9</ele>
        <time>2023-03-26T10:12:18Z</time>
      </trkpt>
      <trkpt lat="49.19814" lon="2.01223">
        <ele>208.4</ele>
        <time>2023-03-26T10:12:23Z</time>
      </trkpt>
      <trkpt lat="49.19821" lon="2.01225">
        <ele>207.8</ele>
        <time>2023-03-26T10:12:29Z</time>
      </trkpt>
      <trkpt lat="49.19828" lon="2.01226">
        <ele>207.3</ele>
        <time>2023-03-26T10:12:34Z</time>
      </trkpt>
      <trkpt lat="49.19835" lon="2.01225">
        <ele>206.7</ele>
        <time>2023-03-26T10:12:40Z</time>
      </trkpt>
      <trkpt lat="49.19841" lon="2.01225">
        <ele>206.3</ele>
        <time>2023-03-26T10:12:45Z</time>
      </trkpt>
      <trkpt lat="49.19848" lon="2.01224">
        <ele>205.7</ele>
        <time>2023-03-26T10:12:51Z</time>
      </trkpt>
      <trkpt lat="49.19853" lon="2.01223">
        <ele>205.3</ele>
        <time>2023-03-26T10:12:56Z</time>
      </trkpt>
      <trkpt lat="49.19859" lon="2.01225">
        <ele>204.7</ele>
        <time>2023-03-26T10:13:01Z</time>
      </trkpt>
      <trkpt lat="49.19863" lon="2.01225">
        <ele>204</ele>
        <time>2023-03-26T10:13:07Z</time>
      </trkpt>
      <trkpt lat="49.19867" lon="2.01223">
        <ele>203.4</ele>
        <time>2023-03-26T10:13:12Z</time>
      </trkpt>
      <trkpt lat="49.19876" lon="2.01224">
        <ele>202.7</ele>
        <time>2023-03-26T10:13:18Z</time>
      </trkpt>
      <trkpt lat="49.19884" lon="2.01225">
        <ele>202</ele>
        <time>2023-03-26T10:13:24Z</time>
      </trkpt>
      <trkpt lat="49.19889" lon="2.01224">
        <ele>201.4</ele>
        <time>2023-03-26T10:13:29Z</time>
      </trkpt>
      <trkpt lat="49.19896" lon="2.01226">
        <ele>200.5</ele>
        <time>2023-03-26T10:13:34Z</time>
      </trkpt>
      <trkpt lat="49.19903" lon="2.01229">
        <ele>199.5</ele>
        <time>2023-03-26T10:13:40Z</time>
      </trkpt>
      <trkpt lat="49.1991" lon="2.01235">
        <ele>198.7</ele>
        <time>2023-03-26T10:13:46Z</time>
      </trkpt>
      <trkpt lat="49.19914" lon="2.0124">
        <ele>198.3</ele>
        <time>2023-03-26T10:13:51Z</time>
      </trkpt>
      <trkpt lat="49.19921" lon="2.01245">
        <ele>197.7</ele>
        <time>2023-03-26T10:13:56Z</time>
      </trkpt>
      <trkpt lat="49.19928" lon="2.01251">
        <ele>196.8</ele>
        <time>2023-03-26T10:14:02Z</time>
      </trkpt>
      <trkpt lat="49.19932" lon="2.01254">
        <ele>196.3</ele>
        <time>2023-03-26T10:14:07Z</time>
      </trkpt>
      <trkpt lat="49.19941" lon="2.01257">
        <ele>195.8</ele>
        <time>2023-03-26T10:14:13Z</time>
      </trkpt>
      <trkpt lat="49.19948" lon="2.01258">
        <ele>195</ele>
        <time>2023-03-26T10:14:18Z</time>
      </trkpt>
      <trkpt lat="49.19955" lon="2.01254">
        <ele>194.3</ele>
        <time>2023-03-26T10:14:24Z</time>
      </trkpt>
      <trkpt lat="49.19963" lon="2.01254">
        <ele>193.7</ele>
        <time>2023-03-26T10:14:29Z</time>
      </trkpt>
      <trkpt lat="49.19971" lon="2.01253">
        <ele>192.9</ele>
        <time>2023-03-26T10:14:35Z</time>
      </trkpt>
      <trkpt lat="49.19973" lon="2.0125">
        <ele>192.6</ele>
        <time>2023-03-26T10:14:40Z</time>
      </trkpt>
      <trkpt lat="49.19973" lon="2.01252">
        <ele>192.5</ele>
        <time>2023-03-26T10:14:45Z</time>
      </trkpt>
      <trkpt lat="49.19972" lon="2.01253">
        <ele>192.4</ele>
        <time>2023-03-26T10:14:51Z</time>
      </trkpt>
      <trkpt lat="49.19973" lon="2.0125">
        <ele>192.5</ele>
        <time>2023-03-26T10:14:57Z</time>
      </trkpt>
      <trkpt lat="49.19979" lon="2.01241">
        <ele>192.2</ele>
        <time>2023-03-26T10:15:03Z</time>
      </trkpt>
      <trkpt lat="49.19984" lon="2.01239">
        <ele>191.7</ele>
        <time>2023-03-26T10:15:08Z</time>
      </trkpt>
      <trkpt lat="49.19987" lon="2.01236">
        <ele>190.9</ele>
        <time>2023-03-26T10:15:13Z</time>
      </trkpt>
      <trkpt lat="49.19991" lon="2.01231">
        <ele>190.1</ele>
        <time>2023-03-26T10:15:19Z</time>
      </trkpt>
      <trkpt lat="49.1999" lon="2.0122">
        <ele>187.7</ele>
        <time>2023-03-26T10:15:24Z</time>
      </trkpt>
      <trkpt lat="49.19994" lon="2.0122">
        <ele>187</ele>
        <time>2023-03-26T10:15:30Z</time>
      </trkpt>
      <trkpt lat="49.19996" lon="2.01215">
        <ele>186.4</ele>
        <time>2023-03-26T10:15:35Z</time>
      </trkpt>
      <trkpt lat="49.19998" lon="2.01207">
        <ele>185.8</ele>
        <time>2023-03-26T10:15:40Z</time>
      </trkpt>
      <trkpt lat="49.2" lon="2.012">
        <ele>185.2</ele>
        <time>2023-03-26T10:15:46Z</time>
      </trkpt>
      <trkpt lat="49.20001" lon="2.01195">
        <ele>184.8</ele>
        <time>2023-03-26T10:15:51Z</time>
      </trkpt>
      <trkpt lat="49.20004" lon="2.01187">
        <ele>184.4</ele>
        <time>2023-03-26T10:15:57Z</time>
      </trkpt>
      <trkpt lat="49.20007" lon="2.01179">
        <ele>184.1</ele>
        <time>2023-03-26T10:16:03Z</time>
      </trkpt>
      <trkpt lat="49.20008" lon="2.01171">
        <ele>183.8</ele>
        <time>2023-03-26T10:16:08Z</time>
      </trkpt>
      <trkpt lat="49.20008" lon="2.01165">
        <ele>183.6</ele>
        <time>2023-03-26T10:16:14Z</time>
      </trkpt>
      <trkpt lat="49.20011" lon="2.01157">
        <ele>183.5</ele>
        <time>2023-03-26T10:16:19Z</time>
      </trkpt>
      <trkpt lat="49.20015" lon="2.01148">
        <ele>183.3</ele>
        <time>2023-03-26T10:16:24Z</time>
      </trkpt>
      <trkpt lat="49.20019" lon="2.0114">
        <ele>183.1</ele>
        <time>2023-03-26T10:16:29Z</time>
      </trkpt>
      <trkpt lat="49.20023" lon="2.01133">
        <ele>182.8</ele>
        <time>2023-03-26T10:16:35Z</time>
      </trkpt>
      <trkpt lat="49.20025" lon="2.01125">
        <ele>182.7</ele>
        <time>2023-03-26T10:16:40Z</time>
      </trkpt>
      <trkpt lat="49.20028" lon="2.01115">
        <ele>182.5</ele>
        <time>2023-03-26T10:16:46Z</time>
      </trkpt>
      <trkpt lat="49.20031" lon="2.01107">
        <ele>182.1</ele>
        <time>2023-03-26T10:16:52Z</time>
      </trkpt>
      <trkpt lat="49.20032" lon="2.01101">
        <ele>181.9</ele>
        <time>2023-03-26T10:16:57Z</time>
      </trkpt>
      <trkpt lat="49.20034" lon="2.01091">
        <ele>181.8</ele>
        <time>2023-03-26T10:17:03Z</time>
      </trkpt>
      <trkpt lat="49.2004" lon="2.01088">
        <ele>181.6</ele>
        <time>2023-03-26T10:17:09Z</time>
      </trkpt>
      <trkpt lat="49.20044" lon="2.01079">
        <ele>181.5</ele>
        <time>2023-03-26T10:17:15Z</time>
      </trkpt>
      <trkpt lat="49.20047" lon="2.01069">
        <ele>181.4</ele>
        <time>2023-03-26T10:17:20Z</time>
      </trkpt>
      <trkpt lat="49.20048" lon="2.01056">
        <ele>181.6</ele>
        <time>2023-03-26T10:17:26Z</time>
      </trkpt>
      <trkpt lat="49.2005" lon="2.01049">
        <ele>181.8</ele>
        <time>2023-03-26T10:17:31Z</time>
      </trkpt>
      <trkpt lat="49.20053" lon="2.01039">
        <ele>182.2</ele>
        <time>2023-03-26T10:17:37Z</time>
      </trkpt>
      <trkpt lat="49.20056" lon="2.01025">
        <ele>182.6</ele>
        <time>2023-03-26T10:17:43Z</time>
      </trkpt>
      <trkpt lat="49.20059" lon="2.01013">
        <ele>183</ele>
        <time>2023-03-26T10:17:49Z</time>
      </trkpt>
      <trkpt lat="49.20061" lon="2.01004">
        <ele>183.8</ele>
        <time>2023-03-26T10:17:55Z</time>
      </trkpt>
      <trkpt lat="49.20063" lon="2.00995">
        <ele>184.5</ele>
        <time>2023-03-26T10:18:01Z</time>
      </trkpt>
      <trkpt lat="49.20065" lon="2.0099">
        <ele>184.8</ele>
        <time>2023-03-26T10:18:06Z</time>
      </trkpt>
      <trkpt lat="49.20065" lon="2.00982">
        <ele>185</ele>
        <time>2023-03-26T10:18:11Z</time>
      </trkpt>
      <trkpt lat="49.20068" lon="2.00972">
        <ele>185.3</ele>
        <time>2023-03-26T10:18:17Z</time>
      </trkpt>
      <trkpt lat="49.20068" lon="2.00964">
        <ele>185.6</ele>
        <time>2023-03-26T10:18:23Z</time>
      </trkpt>
      <trkpt lat="49.20066" lon="2.00955">
        <ele>185.3</ele>
        <time>2023-03-26T10:18:29Z</time>
      </trkpt>
      <trkpt lat="49.2006" lon="2.00945">
        <ele>185.5</ele>
        <time>2023-03-26T10:18:35Z</time>
      </trkpt>
      <trkpt lat="49.20056" lon="2.00937">
        <ele>185.8</ele>
        <time>2023-03-26T10:18:40Z</time>
      </trkpt>
      <trkpt lat="49.20051" lon="2.00932">
        <ele>186</ele>
        <time>2023-03-26T10:18:46Z</time>
      </trkpt>
      <trkpt lat="49.20044" lon="2.00924">
        <ele>186.2</ele>
        <time>2023-03-26T10:18:52Z</time>
      </trkpt>
      <trkpt lat="49.20039" lon="2.00917">
        <ele>186.2</ele>
        <time>2023-03-26T10:18:57Z</time>
      </trkpt>
      <trkpt lat="49.20032" lon="2.0091">
        <ele>186.5</ele>
        <time>2023-03-26T10:19:03Z</time>
      </trkpt>
      <trkpt lat="49.20026" lon="2.009">
        <ele>187.1</ele>
        <time>2023-03-26T10:19:09Z</time>
      </trkpt>
      <trkpt lat="49.20021" lon="2.00894">
        <ele>187.9</ele>
        <time>2023-03-26T10:19:14Z</time>
      </trkpt>
      <trkpt lat="49.20015" lon="2.00886">
        <ele>188.8</ele>
        <time>2023-03-26T10:19:20Z</time>
      </trkpt>
      <trkpt lat="49.20009" lon="2.0088">
        <ele>189.7</ele>
        <time>2023-03-26T10:19:26Z</time>
      </trkpt>
      <trkpt lat="49.20003" lon="2.00875">
        <ele>190.7</ele>
        <time>2023-03-26T10:19:32Z</time>
      </trkpt>
      <trkpt lat="49.19997" lon="2.0087">
        <ele>191.6</ele>
        <time>2023-03-26T10:19:38Z</time>
      </trkpt>
      <trkpt lat="49.19992" lon="2.00865">
        <ele>192.2</ele>
        <time>2023-03-26T10:19:43Z</time>
      </trkpt>
      <trkpt lat="49.19986" lon="2.0086">
        <ele>192.8</ele>
        <time>2023-03-26T10:19:49Z</time>
      </trkpt>
      <trkpt lat="49.19982" lon="2.00856">
        <ele>193.3</ele>
        <time>2023-03-26T10:19:54Z</time>
      </trkpt>
      <trkpt lat="49.19979" lon="2.00854">
        <ele>193.6</ele>
        <time>2023-03-26T10:19:59Z</time>
      </trkpt>
      <trkpt lat="49.19972" lon="2.0085">
        <ele>193.9</ele>
        <time>2023-03-26T10:20:05Z</time>
      </trkpt>
      <trkpt lat="49.19967" lon="2.00845">
        <ele>194.2</ele>
        <time>2023-03-26T10:20:11Z</time>
      </trkpt>
      <trkpt lat="49.19962" lon="2.00838">
        <ele>195</ele>
        <time>2023-03-26T10:20:17Z</time>
      </trkpt>
      <trkpt lat="49.19955" lon="2.00833">
        <ele>195.8</ele>
        <time>2023-03-26T10:20:23Z</time>
      </trkpt>
      <trkpt lat="49.19949" lon="2.00829">
        <ele>196.5</ele>
        <time>2023-03-26T10:20:29Z</time>
      </trkpt>
      <trkpt lat="49.19944" lon="2.00823">
        <ele>196.7</ele>
        <time>2023-03-26T10:20:34Z</time>
      </trkpt>
      <trkpt lat="49.19938" lon="2.00819">
        <ele>196.9</ele>
        <time>2023-03-26T10:20:40Z</time>
      </trkpt>
      <trkpt lat="49.19933" lon="2.00819">
        <ele>197.1</ele>
        <time>2023-03-26T10:20:45Z</time>
      </trkpt>
      <trkpt lat="49.19928" lon="2.00812">
        <ele>197.4</ele>
        <time>2023-03-26T10:20:51Z</time>
      </trkpt>
      <trkpt lat="49.19925" lon="2.00804">
        <ele>197.8</ele>
        <time>2023-03-26T10:20:56Z</time>
      </trkpt>
      <trkpt lat="49.19922" lon="2.00798">
        <ele>198.5</ele>
        <time>2023-03-26T10:21:02Z</time>
      </trkpt>
      <trkpt lat="49.19917" lon="2.00795">
        <ele>199.3</ele>
        <time>2023-03-26T10:21:07Z</time>
      </trkpt>
      <trkpt lat="49.19915" lon="2.00789">
        <ele>200.1</ele>
        <time>2023-03-26T10:21:13Z</time>
      </trkpt>
      <trkpt lat="49.19913" lon="2.00785">
        <ele>200.5</ele>
        <time>2023-03-26T10:21:19Z</time>
      </trkpt>
      <trkpt lat="49.19907" lon="2.0078">
        <ele>200.8</ele>
        <time>2023-03-26T10:21:24Z</time>
      </trkpt>
      <trkpt lat="49.19902" lon="2.00774">
        <ele>200.6</ele>
        <time>2023-03-26T10:21:30Z</time>
      </trkpt>
      <trkpt lat="49.19897" lon="2.00768">
        <ele>200.3</ele>
        <time>2023-03-26T10:21:35Z</time>
      </trkpt>
      <trkpt lat="49.19892" lon="2.00763">
        <ele>200.3</ele>
        <time>2023-03-26T10:21:40Z</time>
      </trkpt>
      <trkpt lat="49.19885" lon="2.00757">
        <ele>200.5</ele>
        <time>2023-03-26T10:21:45Z</time>
      </trkpt>
      <trkpt lat="49.1988" lon="2.00751">
        <ele>201</ele>
        <time>2023-03-26T10:21:50Z</time>
      </trkpt>
      <trkpt lat="49.19877" lon="2.00746">
        <ele>201.5</ele>
        <time>2023-03-26T10:21:56Z</time>
      </trkpt>
      <trkpt lat="49.19875" lon="2.00742">
        <ele>202</ele>
        <time>2023-03-26T10:22:01Z</time>
      </trkpt>
      <trkpt lat="49.19871" lon="2.00732">
        <ele>202.7</ele>
        <time>2023-03-26T10:22:07Z</time>
      </trkpt>
      <trkpt lat="49.19866" lon="2.00722">
        <ele>203.5</ele>
        <time>2023-03-26T10:22:13Z</time>
      </trkpt>
      <trkpt lat="49.19861" lon="2.00715">
        <ele>204.3</ele>
        <time>2023-03-26T10:22:18Z</time>
      </trkpt>
      <trkpt lat="49.19854" lon="2.00709">
        <ele>205.5</ele>
        <time>2023-03-26T10:22:24Z</time>
      </trkpt>
      <trkpt lat="49.19848" lon="2.00704">
        <ele>206.6</ele>
        <time>2023-03-26T10:22:31Z</time>
      </trkpt>
      <trkpt lat="49.19839" lon="2.00699">
        <ele>208.1</ele>
        <time>2023-03-26T10:22:37Z</time>
      </trkpt>
      <trkpt lat="49.19834" lon="2.00698">
        <ele>209</ele>
        <time>2023-03-26T10:22:42Z</time>
      </trkpt>
      <trkpt lat="49.19829" lon="2.00698">
        <ele>210</ele>
        <time>2023-03-26T10:22:48Z</time>
      </trkpt>
      <trkpt lat="49.19819" lon="2.00701">
        <ele>211.1</ele>
        <time>2023-03-26T10:22:54Z</time>
      </trkpt>
      <trkpt lat="49.1981" lon="2.00703">
        <ele>212.1</ele>
        <time>2023-03-26T10:23:00Z</time>
      </trkpt>
      <trkpt lat="49.19804" lon="2.00703">
        <ele>212.8</ele>
        <time>2023-03-26T10:23:05Z</time>
      </trkpt>
      <trkpt lat="49.19798" lon="2.00704">
        <ele>213.6</ele>
        <time>2023-03-26T10:23:10Z</time>
      </trkpt>
      <trkpt lat="49.19791" lon="2.00706">
        <ele>214.3</ele>
        <time>2023-03-26T10:23:16Z</time>
      </trkpt>
      <trkpt lat="49.19783" lon="2.00704">
        <ele>215.1</ele>
        <time>2023-03-26T10:23:22Z</time>
      </trkpt>
      <trkpt lat="49.19777" lon="2.00704">
        <ele>215.6</ele>
        <time>2023-03-26T10:23:28Z</time>
      </trkpt>
      <trkpt lat="49.19771" lon="2.00705">
        <ele>216.1</ele>
        <time>2023-03-26T10:23:33Z</time>
      </trkpt>
      <trkpt lat="49.19763" lon="2.00705">
        <ele>216.9</ele>
        <time>2023-03-26T10:23:39Z</time>
      </trkpt>
      <trkpt lat="49.19758" lon="2.00701">
        <ele>217.6</ele>
        <time>2023-03-26T10:23:44Z</time>
      </trkpt>
      <trkpt lat="49.19751" lon="2.00698">
        <ele>218.3</ele>
        <time>2023-03-26T10:23:50Z</time>
      </trkpt>
      <trkpt lat="49.19745" lon="2.00696">
        <ele>218.9</ele>
        <time>2023-03-26T10:23:56Z</time>
      </trkpt>
      <trkpt lat="49.19738" lon="2.00693">
        <ele>219.3</ele>
        <time>2023-03-26T10:24:01Z</time>
      </trkpt>
      <trkpt lat="49.1973" lon="2.0069">
        <ele>219.7</ele>
        <time>2023-03-26T10:24:07Z</time>
      </trkpt>
      <trkpt lat="49.19728" lon="2.00683">
        <ele>220</ele>
        <time>2023-03-26T10:24:13Z</time>
      </trkpt>
      <trkpt lat="49.19721" lon="2.00681">
        <ele>220.4</ele>
        <time>2023-03-26T10:24:19Z</time>
      </trkpt>
      <trkpt lat="49.19715" lon="2.00679">
        <ele>220.9</ele>
        <time>2023-03-26T10:24:24Z</time>
      </trkpt>
      <trkpt lat="49.19707" lon="2.00675">
        <ele>221.3</ele>
        <time>2023-03-26T10:24:29Z</time>
      </trkpt>
      <trkpt lat="49.197" lon="2.00671">
        <ele>221.6</ele>
        <time>2023-03-26T10:24:34Z</time>
      </trkpt>
      <trkpt lat="49.19696" lon="2.00666">
        <ele>222</ele>
        <time>2023-03-26T10:24:39Z</time>
      </trkpt>
      <trkpt lat="49.19692" lon="2.00658">
        <ele>222.4</ele>
        <time>2023-03-26T10:24:45Z</time>
      </trkpt>
      <trkpt lat="49.19691" lon="2.0065">
        <ele>222.7</ele>
        <time>2023-03-26T10:24:50Z</time>
      </trkpt>
      <trkpt lat="49.19688" lon="2.00642">
        <ele>223.4</ele>
        <time>2023-03-26T10:24:56Z</time>
      </trkpt>
      <trkpt lat="49.19684" lon="2.00634">
        <ele>224.2</ele>
        <time>2023-03-26T10:25:02Z</time>
      </trkpt>
      <trkpt lat="49.19681" lon="2.0063">
        <ele>225</ele>
        <time>2023-03-26T10:25:08Z</time>
      </trkpt>
      <trkpt lat="49.19675" lon="2.00622">
        <ele>226.1</ele>
        <time>2023-03-26T10:25:13Z</time>
      </trkpt>
      <trkpt lat="49.19673" lon="2.00617">
        <ele>226.8</ele>
        <time>2023-03-26T10:25:18Z</time>
      </trkpt>
      <trkpt lat="49.19668" lon="2.0061">
        <ele>227.5</ele>
        <time>2023-03-26T10:25:24Z</time>
      </trkpt>
      <trkpt lat="49.19664" lon="2.00603">
        <ele>227.9</ele>
        <time>2023-03-26T10:25:29Z</time>
      </trkpt>
      <trkpt lat="49.19661" lon="2.00596">
        <ele>228.4</ele>
        <time>2023-03-26T10:25:35Z</time>
      </trkpt>
      <trkpt lat="49.19655" lon="2.0059">
        <ele>228.9</ele>
        <time>2023-03-26T10:25:41Z</time>
      </trkpt>
      <trkpt lat="49.1965" lon="2.00585">
        <ele>229.3</ele>
        <time>2023-03-26T10:25:47Z</time>
      </trkpt>
      <trkpt lat="49.19645" lon="2.00582">
        <ele>229.7</ele>
        <time>2023-03-26T10:25:52Z</time>
      </trkpt>
      <trkpt lat="49.19639" lon="2.00577">
        <ele>230.3</ele>
        <time>2023-03-26T10:25:58Z</time>
      </trkpt>
      <trkpt lat="49.19634" lon="2.00572">
        <ele>231.2</ele>
        <time>2023-03-26T10:26:04Z</time>
      </trkpt>
      <trkpt lat="49.19631" lon="2.00568">
        <ele>232.2</ele>
        <time>2023-03-26T10:26:09Z</time>
      </trkpt>
      <trkpt lat="49.19626" lon="2.00563">
        <ele>233.4</ele>
        <time>2023-03-26T10:26:15Z</time>
      </trkpt>
      <trkpt lat="49.19621" lon="2.00558">
        <ele>234.4</ele>
        <time>2023-03-26T10:26:21Z</time>
      </trkpt>
      <trkpt lat="49.19616" lon="2.00553">
        <ele>235.2</ele>
        <time>2023-03-26T10:26:27Z</time>
      </trkpt>
      <trkpt lat="49.19612" lon="2.00549">
        <ele>235.8</ele>
        <time>2023-03-26T10:26:33Z</time>
      </trkpt>
      <trkpt lat="49.19607" lon="2.00547">
        <ele>236.3</ele>
        <time>2023-03-26T10:26:38Z</time>
      </trkpt>
      <trkpt lat="49.196" lon="2.00546">
        <ele>237.1</ele>
        <time>2023-03-26T10:26:44Z</time>
      </trkpt>
      <trkpt lat="49.19597" lon="2.00545">
        <ele>237.5</ele>
        <time>2023-03-26T10:26:49Z</time>
      </trkpt>
      <trkpt lat="49.19594" lon="2.00544">
        <ele>238</ele>
        <time>2023-03-26T10:26:55Z</time>
      </trkpt>
      <trkpt lat="49.19588" lon="2.00541">
        <ele>238.4</ele>
        <time>2023-03-26T10:27:01Z</time>
      </trkpt>
      <trkpt lat="49.19581" lon="2.00537">
        <ele>238.7</ele>
        <time>2023-03-26T10:27:06Z</time>
      </trkpt>
      <trkpt lat="49.19577" lon="2.00533">
        <ele>239.1</ele>
        <time>2023-03-26T10:27:12Z</time>
      </trkpt>
      <trkpt lat="49.19574" lon="2.0053">
        <ele>239.5</ele>
        <time>2023-03-26T10:27:18Z</time>
      </trkpt>
      <trkpt lat="49.19569" lon="2.00527">
        <ele>240</ele>
        <time>2023-03-26T10:27:23Z</time>
      </trkpt>
      <trkpt lat="49.19563" lon="2.00523">
        <ele>240.6</ele>
        <time>2023-03-26T10:27:29Z</time>
      </trkpt>
      <trkpt lat="49.19557" lon="2.00519">
        <ele>241.3</ele>
        <time>2023-03-26T10:27:35Z</time>
      </trkpt>
      <trkpt lat="49.19551" lon="2.00514">
        <ele>242.2</ele>
        <time>2023-03-26T10:27:41Z</time>
      </trkpt>
      <trkpt lat="49.19547" lon="2.0051">
        <ele>242.8</ele>
        <time>2023-03-26T10:27:46Z</time>
      </trkpt>
      <trkpt lat="49.19542" lon="2.00508">
        <ele>243.7</ele>
        <time>2023-03-26T10:27:52Z</time>
      </trkpt>
      <trkpt lat="49.19535" lon="2.0051">
        <ele>244.8</ele>
        <time>2023-03-26T10:27:58Z</time>
      </trkpt>
      <trkpt lat="49.19532" lon="2.00507">
        <ele>245.3</ele>
        <time>2023-03-26T10:28:03Z</time>
      </trkpt>
      <trkpt lat="49.19524" lon="2.00502">
        <ele>246.1</ele>
        <time>2023-03-26T10:28:09Z</time>
      </trkpt>
      <trkpt lat="49.1952" lon="2.00499">
        <ele>246.8</ele>
        <time>2023-03-26T10:28:15Z</time>
      </trkpt>
      <trkpt lat="49.19519" lon="2.00498">
        <ele>247.4</ele>
        <time>2023-03-26T10:28:21Z</time>
      </trkpt>
      <trkpt lat="49.19519" lon="2.00497">
        <ele>247.6</ele>
        <time>2023-03-26T10:28:27Z</time>
      </trkpt>
      <trkpt lat="49.19518" lon="2.00497">
        <ele>247.7</ele>
        <time>2023-03-26T10:28:32Z</time>
      </trkpt>
      <trkpt lat="49.19517" lon="2.00501">
        <ele>247.7</ele>
        <time>2023-03-26T10:28:40Z</time>
      </trkpt>
      <trkpt lat="49.19509" lon="2.00503">
        <ele>248.5</ele>
        <time>2023-03-26T10:28:45Z</time>
      </trkpt>
      <trkpt lat="49.19514" lon="2.00501">
        <ele>248.8</ele>
        <time>2023-03-26T10:28:51Z</time>
      </trkpt>
      <trkpt lat="49.19515" lon="2.00503">
        <ele>249.5</ele>
        <time>2023-03-26T10:28:56Z</time>
      </trkpt>
      <trkpt lat="49.19513" lon="2.00506">
        <ele>249.9</ele>
        <time>2023-03-26T10:29:02Z</time>
      </trkpt>
      <trkpt lat="49.19513" lon="2.00507">
        <ele>250.2</ele>
        <time>2023-03-26T10:29:07Z</time>
      </trkpt>
      <trkpt lat="49.19513" lon="2.00507">
        <ele>250.9</ele>
        <time>2023-03-26T10:29:13Z</time>
      </trkpt>
      <trkpt lat="49.19513" lon="2.00506">
        <ele>251.6</ele>
        <time>2023-03-26T10:29:19Z</time>
      </trkpt>
      <trkpt lat="49.19514" lon="2.00505">
        <ele>252.6</ele>
        <time>2023-03-26T10:29:25Z</time>
      </trkpt>
      <trkpt lat="49.19514" lon="2.00504">
        <ele>252.7</ele>
        <time>2023-03-26T10:29:30Z</time>
      </trkpt>
      <trkpt lat="49.19515" lon="2.00503">
        <ele>252.9</ele>
        <time>2023-03-26T10:29:36Z</time>
      </trkpt>
      <trkpt lat="49.19515" lon="2.00501">
        <ele>253.3</ele>
        <time>2023-03-26T10:29:41Z</time>
      </trkpt>
      <trkpt lat="49.19517" lon="2.00498">
        <ele>254.4</ele>
        <time>2023-03-26T10:29:46Z</time>
      </trkpt>
      <trkpt lat="49.19518" lon="2.00495">
        <ele>255.1</ele>
        <time>2023-03-26T10:29:52Z</time>
      </trkpt>
      <trkpt lat="49.19518" lon="2.00495">
        <ele>255.4</ele>
        <time>2023-03-26T10:29:58Z</time>
      </trkpt>
      <trkpt lat="49.19519" lon="2.00493">
        <ele>256</ele>
        <time>2023-03-26T10:30:03Z</time>
      </trkpt>
      <trkpt lat="49.19519" lon="2.00492">
        <ele>256.1</ele>
        <time>2023-03-26T10:30:09Z</time>
      </trkpt>
      <trkpt lat="49.1952" lon="2.00492">
        <ele>256.5</ele>
        <time>2023-03-26T10:30:15Z</time>
      </trkpt>
      <trkpt lat="49.19522" lon="2.00493">
        <ele>257.1</ele>
        <time>2023-03-26T10:30:21Z</time>
      </trkpt>
      <trkpt lat="49.19523" lon="2.00496">
        <ele>257.9</ele>
        <time>2023-03-26T10:30:26Z</time>
      </trkpt>
      <trkpt lat="49.19524" lon="2.00499">
        <ele>258</ele>
        <time>2023-03-26T10:30:31Z</time>
      </trkpt>
      <trkpt lat="49.19522" lon="2.00502">
        <ele>258.1</ele>
        <time>2023-03-26T10:30:37Z</time>
      </trkpt>
      <trkpt lat="49.19522" lon="2.00505">
        <ele>258.1</ele>
        <time>2023-03-26T10:30:42Z</time>
      </trkpt>
      <trkpt lat="49.19521" lon="2.00506">
        <ele>258.1</ele>
        <time>2023-03-26T10:30:48Z</time>
      </trkpt>
      <trkpt lat="49.1952" lon="2.00507">
        <ele>258.1</ele>
        <time>2023-03-26T10:30:53Z</time>
      </trkpt>
      <trkpt lat="49.1952" lon="2.00508">
        <ele>258.1</ele>
        <time>2023-03-26T10:30:59Z</time>
      </trkpt>
      <trkpt lat="49.19518" lon="2.00507">
        <ele>258</ele>
        <time>2023-03-26T10:31:04Z</time>
      </trkpt>
      <trkpt lat="49.19518" lon="2.00508">
        <ele>258</ele>
        <time>2023-03-26T10:31:10Z</time>
      </trkpt>
      <trkpt lat="49.19518" lon="2.00509">
        <ele>258.1</ele>
        <time>2023-03-26T10:31:16Z</time>
      </trkpt>
      <trkpt lat="49.19518" lon="2.00509">
        <ele>258.1</ele>
        <time>2023-03-26T10:31:21Z</time>
      </trkpt>
      <trkpt lat="49.19518" lon="2.00509">
        <ele>258.1</ele>
        <time>2023-03-26T10:31:27Z</time>
      </trkpt>
      <trkpt lat="49.19518" lon="2.0051">
        <ele>258.1</ele>
        <time>2023-03-26T10:31:32Z</time>
      </trkpt>
      <trkpt lat="49.19518" lon="2.0051">
        <ele>258.1</ele>
        <time>2023-03-26T10:31:38Z</time>
      </trkpt>
      <trkpt lat="49.19518" lon="2.0051">
        <ele>258.1</ele>
        <time>2023-03-26T10:31:43Z</time>
      </trkpt>
      <trkpt lat="49.19518" lon="2.00511">
        <ele>258.1</ele>
        <time>2023-03-26T10:31:49Z</time>
      </trkpt>
      <trkpt lat="49.19518" lon="2.00511">
        <ele>258.2</ele>
        <time>2023-03-26T10:31:54Z</time>
      </trkpt>
      <trkpt lat="49.19518" lon="2.0051">
        <ele>258.8</ele>
        <time>2023-03-26T10:32:00Z</time>
      </trkpt>
      <trkpt lat="49.19516" lon="2.00499">
        <ele>259.6</ele>
        <time>2023-03-26T10:32:05Z</time>
      </trkpt>
      <trkpt lat="49.19514" lon="2.00486">
        <ele>260</ele>
        <time>2023-03-26T10:32:10Z</time>
      </trkpt>
      <trkpt lat="49.1951" lon="2.00473">
        <ele>260</ele>
        <time>2023-03-26T10:32:16Z</time>
      </trkpt>
      <trkpt lat="49.19506" lon="2.00462">
        <ele>259.8</ele>
        <time>2023-03-26T10:32:22Z</time>
      </trkpt>
      <trkpt lat="49.19503" lon="2.0045">
        <ele>259.5</ele>
        <time>2023-03-26T10:32:28Z</time>
      </trkpt>
      <trkpt lat="49.19499" lon="2.00442">
        <ele>259.3</ele>
        <time>2023-03-26T10:32:33Z</time>
      </trkpt>
      <trkpt lat="49.19496" lon="2.00433">
        <ele>259.1</ele>
        <time>2023-03-26T10:32:39Z</time>
      </trkpt>
      <trkpt lat="49.19492" lon="2.00423">
        <ele>259</ele>
        <time>2023-03-26T10:32:45Z</time>
      </trkpt>
      <trkpt lat="49.19488" lon="2.00412">
        <ele>258.7</ele>
        <time>2023-03-26T10:32:50Z</time>
      </trkpt>
      <trkpt lat="49.19487" lon="2.00401">
        <ele>258.5</ele>
        <time>2023-03-26T10:32:55Z</time>
      </trkpt>
      <trkpt lat="49.19486" lon="2.0039">
        <ele>258.3</ele>
        <time>2023-03-26T10:33:01Z</time>
      </trkpt>
      <trkpt lat="49.19484" lon="2.00381">
        <ele>258.1</ele>
        <time>2023-03-26T10:33:06Z</time>
      </trkpt>
      <trkpt lat="49.19481" lon="2.00371">
        <ele>258</ele>
        <time>2023-03-26T10:33:12Z</time>
      </trkpt>
      <trkpt lat="49.1948" lon="2.00362">
        <ele>257.7</ele>
        <time>2023-03-26T10:33:17Z</time>
      </trkpt>
      <trkpt lat="49.19479" lon="2.00352">
        <ele>257.4</ele>
        <time>2023-03-26T10:33:23Z</time>
      </trkpt>
      <trkpt lat="49.19478" lon="2.00341">
        <ele>257.2</ele>
        <time>2023-03-26T10:33:29Z</time>
      </trkpt>
      <trkpt lat="49.19476" lon="2.00334">
        <ele>256.9</ele>
        <time>2023-03-26T10:33:34Z</time>
      </trkpt>
      <trkpt lat="49.19473" lon="2.00325">
        <ele>256.7</ele>
        <time>2023-03-26T10:33:40Z</time>
      </trkpt>
      <trkpt lat="49.19471" lon="2.00319">
        <ele>256.9</ele>
        <time>2023-03-26T10:33:45Z</time>
      </trkpt>
      <trkpt lat="49.19471" lon="2.00314">
        <ele>256.8</ele>
        <time>2023-03-26T10:33:51Z</time>
      </trkpt>
      <trkpt lat="49.19472" lon="2.00317">
        <ele>257</ele>
        <time>2023-03-26T10:33:57Z</time>
      </trkpt>
      <trkpt lat="49.19474" lon="2.00319">
        <ele>257.1</ele>
        <time>2023-03-26T10:34:03Z</time>
      </trkpt>
      <trkpt lat="49.19477" lon="2.00324">
        <ele>257.2</ele>
        <time>2023-03-26T10:34:08Z</time>
      </trkpt>
      <trkpt lat="49.19481" lon="2.00335">
        <ele>257.2</ele>
        <time>2023-03-26T10:34:13Z</time>
      </trkpt>
      <trkpt lat="49.19483" lon="2.00346">
        <ele>257.1</ele>
        <time>2023-03-26T10:34:19Z</time>
      </trkpt>
      <trkpt lat="49.19484" lon="2.00357">
        <ele>257</ele>
        <time>2023-03-26T10:34:25Z</time>
      </trkpt>
      <trkpt lat="49.19485" lon="2.00366">
        <ele>256.4</ele>
        <time>2023-03-26T10:34:30Z</time>
      </trkpt>
      <trkpt lat="49.19488" lon="2.00376">
        <ele>255.6</ele>
        <time>2023-03-26T10:34:36Z</time>
      </trkpt>
      <trkpt lat="49.19489" lon="2.00387">
        <ele>254.9</ele>
        <time>2023-03-26T10:34:41Z</time>
      </trkpt>
      <trkpt lat="49.19491" lon="2.00397">
        <ele>254.2</ele>
        <time>2023-03-26T10:34:46Z</time>
      </trkpt>
      <trkpt lat="49.19491" lon="2.00405">
        <ele>253.8</ele>
        <time>2023-03-26T10:34:51Z</time>
      </trkpt>
      <trkpt lat="49.19492" lon="2.00419">
        <ele>253.6</ele>
        <time>2023-03-26T10:34:57Z</time>
      </trkpt>
      <trkpt lat="49.19496" lon="2.00432">
        <ele>253.3</ele>
        <time>2023-03-26T10:35:03Z</time>
      </trkpt>
      <trkpt lat="49.195" lon="2.00446">
        <ele>253.3</ele>
        <time>2023-03-26T10:35:09Z</time>
      </trkpt>
      <trkpt lat="49.19504" lon="2.00455">
        <ele>253.3</ele>
        <time>2023-03-26T10:35:14Z</time>
      </trkpt>
      <trkpt lat="49.19506" lon="2.00465">
        <ele>253.3</ele>
        <time>2023-03-26T10:35:20Z</time>
      </trkpt>
      <trkpt lat="49.19509" lon="2.00477">
        <ele>253.4</ele>
        <time>2023-03-26T10:35:26Z</time>
      </trkpt>
      <trkpt lat="49.19511" lon="2.00485">
        <ele>253.7</ele>
        <time>2023-03-26T10:35:31Z</time>
      </trkpt>
      <trkpt lat="49.19512" lon="2.00495">
        <ele>254</ele>
        <time>2023-03-26T10:35:37Z</time>
      </trkpt>
      <trkpt lat="49.19509" lon="2.00498">
        <ele>254.4</ele>
        <time>2023-03-26T10:35:42Z</time>
      </trkpt>
      <trkpt lat="49.19502" lon="2.00498">
        <ele>254.6</ele>
        <time>2023-03-26T10:35:47Z</time>
      </trkpt>
      <trkpt lat="49.19494" lon="2.00498">
        <ele>254.7</ele>
        <time>2023-03-26T10:35:53Z</time>
      </trkpt>
      <trkpt lat="49.19486" lon="2.00499">
        <ele>254.9</ele>
        <time>2023-03-26T10:35:59Z</time>
      </trkpt>
      <trkpt lat="49.1948" lon="2.00498">
        <ele>255.2</ele>
        <time>2023-03-26T10:36:05Z</time>
      </trkpt>
      <trkpt lat="49.19474" lon="2.00495">
        <ele>255.3</ele>
        <time>2023-03-26T10:36:10Z</time>
      </trkpt>
      <trkpt lat="49.19468" lon="2.00494">
        <ele>255.3</ele>
        <time>2023-03-26T10:36:16Z</time>
      </trkpt>
      <trkpt lat="49.19462" lon="2.00491">
        <ele>255.3</ele>
        <time>2023-03-26T10:36:22Z</time>
      </trkpt>
      <trkpt lat="49.19456" lon="2.0049">
        <ele>255.4</ele>
        <time>2023-03-26T10:36:28Z</time>
      </trkpt>
      <trkpt lat="49.19448" lon="2.00487">
        <ele>255.6</ele>
        <time>2023-03-26T10:36:33Z</time>
      </trkpt>
      <trkpt lat="49.19441" lon="2.00483">
        <ele>255.7</ele>
        <time>2023-03-26T10:36:39Z</time>
      </trkpt>
      <trkpt lat="49.19435" lon="2.00481">
        <ele>255.7</ele>
        <time>2023-03-26T10:36:44Z</time>
      </trkpt>
      <trkpt lat="49.1943" lon="2.00479">
        <ele>255.6</ele>
        <time>2023-03-26T10:36:50Z</time>
      </trkpt>
      <trkpt lat="49.19424" lon="2.00477">
        <ele>255.4</ele>
        <time>2023-03-26T10:36:56Z</time>
      </trkpt>
      <trkpt lat="49.19421" lon="2.00473">
        <ele>255.2</ele>
        <time>2023-03-26T10:37:01Z</time>
      </trkpt>
      <trkpt lat="49.19414" lon="2.00466">
        <ele>254.7</ele>
        <time>2023-03-26T10:37:07Z</time>
      </trkpt>
      <trkpt lat="49.19409" lon="2.00463">
        <ele>254.2</ele>
        <time>2023-03-26T10:37:13Z</time>
      </trkpt>
      <trkpt lat="49.19403" lon="2.00461">
        <ele>253.8</ele>
        <time>2023-03-26T10:37:19Z</time>
      </trkpt>
      <trkpt lat="49.19396" lon="2.00455">
        <ele>253.3</ele>
        <time>2023-03-26T10:37:25Z</time>
      </trkpt>
      <trkpt lat="49.19388" lon="2.00449">
        <ele>252.6</ele>
        <time>2023-03-26T10:37:31Z</time>
      </trkpt>
      <trkpt lat="49.19381" lon="2.00447">
        <ele>251.7</ele>
        <time>2023-03-26T10:37:37Z</time>
      </trkpt>
      <trkpt lat="49.19375" lon="2.00447">
        <ele>250.8</ele>
        <time>2023-03-26T10:37:42Z</time>
      </trkpt>
      <trkpt lat="49.19369" lon="2.00448">
        <ele>249.8</ele>
        <time>2023-03-26T10:37:48Z</time>
      </trkpt>
      <trkpt lat="49.19364" lon="2.00447">
        <ele>248.9</ele>
        <time>2023-03-26T10:37:53Z</time>
      </trkpt>
      <trkpt lat="49.19357" lon="2.00445">
        <ele>247.9</ele>
        <time>2023-03-26T10:37:59Z</time>
      </trkpt>
      <trkpt lat="49.19351" lon="2.00445">
        <ele>247.1</ele>
        <time>2023-03-26T10:38:04Z</time>
      </trkpt>
      <trkpt lat="49.19346" lon="2.00448">
        <ele>246.3</ele>
        <time>2023-03-26T10:38:10Z</time>
      </trkpt>
      <trkpt lat="49.19339" lon="2.00446">
        <ele>245.7</ele>
        <time>2023-03-26T10:38:15Z</time>
      </trkpt>
      <trkpt lat="49.19336" lon="2.00442">
        <ele>245.2</ele>
        <time>2023-03-26T10:38:21Z</time>
      </trkpt>
      <trkpt lat="49.19331" lon="2.00435">
        <ele>244.4</ele>
        <time>2023-03-26T10:38:27Z</time>
      </trkpt>
      <trkpt lat="49.19324" lon="2.00429">
        <ele>243.4</ele>
        <time>2023-03-26T10:38:33Z</time>
      </trkpt>
      <trkpt lat="49.19317" lon="2.00424">
        <ele>242.4</ele>
        <time>2023-03-26T10:38:39Z</time>
      </trkpt>
      <trkpt lat="49.1931" lon="2.00419">
        <ele>241.7</ele>
        <time>2023-03-26T10:38:45Z</time>
      </trkpt>
      <trkpt lat="49.19305" lon="2.00416">
        <ele>241.2</ele>
        <time>2023-03-26T10:38:50Z</time>
      </trkpt>
      <trkpt lat="49.19298" lon="2.0041">
        <ele>240.4</ele>
        <time>2023-03-26T10:38:56Z</time>
      </trkpt>
      <trkpt lat="49.19292" lon="2.00404">
        <ele>240</ele>
        <time>2023-03-26T10:39:02Z</time>
      </trkpt>
      <trkpt lat="49.19287" lon="2.00398">
        <ele>239.7</ele>
        <time>2023-03-26T10:39:07Z</time>
      </trkpt>
      <trkpt lat="49.19281" lon="2.00391">
        <ele>239.6</ele>
        <time>2023-03-26T10:39:13Z</time>
      </trkpt>
      <trkpt lat="49.19276" lon="2.00387">
        <ele>239.4</ele>
        <time>2023-03-26T10:39:18Z</time>
      </trkpt>
      <trkpt lat="49.1927" lon="2.00379">
        <ele>238.8</ele>
        <time>2023-03-26T10:39:24Z</time>
      </trkpt>
      <trkpt lat="49.19266" lon="2.00373">
        <ele>238.1</ele>
        <time>2023-03-26T10:39:29Z</time>
      </trkpt>
      <trkpt lat="49.1926" lon="2.00364">
        <ele>237.2</ele>
        <time>2023-03-26T10:39:35Z</time>
      </trkpt>
      <trkpt lat="49.19256" lon="2.00357">
        <ele>236.6</ele>
        <time>2023-03-26T10:39:40Z</time>
      </trkpt>
      <trkpt lat="49.19254" lon="2.00348">
        <ele>235.8</ele>
        <time>2023-03-26T10:39:46Z</time>
      </trkpt>
      <trkpt lat="49.19251" lon="2.00341">
        <ele>234.9</ele>
        <time>2023-03-26T10:39:52Z</time>
      </trkpt>
      <trkpt lat="49.19249" lon="2.00334">
        <ele>234.2</ele>
        <time>2023-03-26T10:39:57Z</time>
      </trkpt>
      <trkpt lat="49.19243" lon="2.00326">
        <ele>233.1</ele>
        <time>2023-03-26T10:40:03Z</time>
      </trkpt>
      <trkpt lat="49.1924" lon="2.00318">
        <ele>232.2</ele>
        <time>2023-03-26T10:40:08Z</time>
      </trkpt>
      <trkpt lat="49.19239" lon="2.0031">
        <ele>231.1</ele>
        <time>2023-03-26T10:40:14Z</time>
      </trkpt>
      <trkpt lat="49.19238" lon="2.00309">
        <ele>230</ele>
        <time>2023-03-26T10:40:20Z</time>
      </trkpt>
      <trkpt lat="49.19235" lon="2.00301">
        <ele>228.1</ele>
        <time>2023-03-26T10:40:26Z</time>
      </trkpt>
      <trkpt lat="49.1923" lon="2.00291">
        <ele>226.7</ele>
        <time>2023-03-26T10:40:31Z</time>
      </trkpt>
      <trkpt lat="49.19224" lon="2.00281">
        <ele>225.2</ele>
        <time>2023-03-26T10:40:37Z</time>
      </trkpt>
      <trkpt lat="49.19216" lon="2.00271">
        <ele>224.3</ele>
        <time>2023-03-26T10:40:43Z</time>
      </trkpt>
      <trkpt lat="49.1921" lon="2.00263">
        <ele>223.6</ele>
        <time>2023-03-26T10:40:49Z</time>
      </trkpt>
      <trkpt lat="49.19205" lon="2.00255">
        <ele>223.4</ele>
        <time>2023-03-26T10:40:54Z</time>
      </trkpt>
      <trkpt lat="49.192" lon="2.00249">
        <ele>223.5</ele>
        <time>2023-03-26T10:41:00Z</time>
      </trkpt>
      <trkpt lat="49.19195" lon="2.00245">
        <ele>223.8</ele>
        <time>2023-03-26T10:41:06Z</time>
      </trkpt>
      <trkpt lat="49.19189" lon="2.00242">
        <ele>224.2</ele>
        <time>2023-03-26T10:41:11Z</time>
      </trkpt>
      <trkpt lat="49.19182" lon="2.00235">
        <ele>224.7</ele>
        <time>2023-03-26T10:41:17Z</time>
      </trkpt>
      <trkpt lat="49.19176" lon="2.00228">
        <ele>225.4</ele>
        <time>2023-03-26T10:41:23Z</time>
      </trkpt>
      <trkpt lat="49.19171" lon="2.00221">
        <ele>226.2</ele>
        <time>2023-03-26T10:41:29Z</time>
      </trkpt>
      <trkpt lat="49.19165" lon="2.00214">
        <ele>226.9</ele>
        <time>2023-03-26T10:41:34Z</time>
      </trkpt>
      <trkpt lat="49.19158" lon="2.00207">
        <ele>227.8</ele>
        <time>2023-03-26T10:41:40Z</time>
      </trkpt>
      <trkpt lat="49.19151" lon="2.00201">
        <ele>228.6</ele>
        <time>2023-03-26T10:41:46Z</time>
      </trkpt>
      <trkpt lat="49.19146" lon="2.00198">
        <ele>229.1</ele>
        <time>2023-03-26T10:41:51Z</time>
      </trkpt>
      <trkpt lat="49.19141" lon="2.00195">
        <ele>229.3</ele>
        <time>2023-03-26T10:41:56Z</time>
      </trkpt>
      <trkpt lat="49.19136" lon="2.00194">
        <ele>229.5</ele>
        <time>2023-03-26T10:42:02Z</time>
      </trkpt>
      <trkpt lat="49.19131" lon="2.00193">
        <ele>229.5</ele>
        <time>2023-03-26T10:42:08Z</time>
      </trkpt>
      <trkpt lat="49.19126" lon="2.00191">
        <ele>229.5</ele>
        <time>2023-03-26T10:42:13Z</time>
      </trkpt>
      <trkpt lat="49.19121" lon="2.0019">
        <ele>229.5</ele>
        <time>2023-03-26T10:42:18Z</time>
      </trkpt>
      <trkpt lat="49.19116" lon="2.00189">
        <ele>229.4</ele>
        <time>2023-03-26T10:42:24Z</time>
      </trkpt>
      <trkpt lat="49.1911" lon="2.00187">
        <ele>229.2</ele>
        <time>2023-03-26T10:42:30Z</time>
      </trkpt>
      <trkpt lat="49.19105" lon="2.00184">
        <ele>228.8</ele>
        <time>2023-03-26T10:42:36Z</time>
      </trkpt>
      <trkpt lat="49.191" lon="2.00182">
        <ele>228.4</ele>
        <time>2023-03-26T10:42:42Z</time>
      </trkpt>
      <trkpt lat="49.19094" lon="2.00181">
        <ele>228.2</ele>
        <time>2023-03-26T10:42:47Z</time>
      </trkpt>
      <trkpt lat="49.19086" lon="2.00178">
        <ele>228</ele>
        <time>2023-03-26T10:42:53Z</time>
      </trkpt>
      <trkpt lat="49.19079" lon="2.00174">
        <ele>227.8</ele>
        <time>2023-03-26T10:42:59Z</time>
      </trkpt>
      <trkpt lat="49.19072" lon="2.00172">
        <ele>227.5</ele>
        <time>2023-03-26T10:43:04Z</time>
      </trkpt>
      <trkpt lat="49.19066" lon="2.00169">
        <ele>227.1</ele>
        <time>2023-03-26T10:43:10Z</time>
      </trkpt>
      <trkpt lat="49.19059" lon="2.00165">
        <ele>226.5</ele>
        <time>2023-03-26T10:43:15Z</time>
      </trkpt>
      <trkpt lat="49.19055" lon="2.00161">
        <ele>225.8</ele>
        <time>2023-03-26T10:43:20Z</time>
      </trkpt>
      <trkpt lat="49.1905" lon="2.00155">
        <ele>224.7</ele>
        <time>2023-03-26T10:43:26Z</time>
      </trkpt>
      <trkpt lat="49.19042" lon="2.00146">
        <ele>223.3</ele>
        <time>2023-03-26T10:43:32Z</time>
      </trkpt>
      <trkpt lat="49.19036" lon="2.00138">
        <ele>222</ele>
        <time>2023-03-26T10:43:38Z</time>
      </trkpt>
      <trkpt lat="49.19033" lon="2.00132">
        <ele>220.6</ele>
        <time>2023-03-26T10:43:43Z</time>
      </trkpt>
      <trkpt lat="49.19028" lon="2.00122">
        <ele>218.8</ele>
        <time>2023-03-26T10:43:49Z</time>
      </trkpt>
      <trkpt lat="49.19024" lon="2.00114">
        <ele>217.4</ele>
        <time>2023-03-26T10:43:54Z</time>
      </trkpt>
      <trkpt lat="49.19021" lon="2.00106">
        <ele>216.2</ele>
        <time>2023-03-26T10:44:00Z</time>
      </trkpt>
      <trkpt lat="49.19017" lon="2.001">
        <ele>215.2</ele>
        <time>2023-03-26T10:44:05Z</time>
      </trkpt>
      <trkpt lat="49.1901" lon="2.00093">
        <ele>214.2</ele>
        <time>2023-03-26T10:44:11Z</time>
      </trkpt>
      <trkpt lat="49.19004" lon="2.00089">
        <ele>213.5</ele>
        <time>2023-03-26T10:44:17Z</time>
      </trkpt>
      <trkpt lat="49.18995" lon="2.00084">
        <ele>212.9</ele>
        <time>2023-03-26T10:44:23Z</time>
      </trkpt>
      <trkpt lat="49.18986" lon="2.00077">
        <ele>212.5</ele>
        <time>2023-03-26T10:44:29Z</time>
      </trkpt>
      <trkpt lat="49.18979" lon="2.00074">
        <ele>212.4</ele>
        <time>2023-03-26T10:44:35Z</time>
      </trkpt>
      <trkpt lat="49.18974" lon="2.0007">
        <ele>212.2</ele>
        <time>2023-03-26T10:44:40Z</time>
      </trkpt>
      <trkpt lat="49.18968" lon="2.00067">
        <ele>212.2</ele>
        <time>2023-03-26T10:44:45Z</time>
      </trkpt>
      <trkpt lat="49.1896" lon="2.00065">
        <ele>212.1</ele>
        <time>2023-03-26T10:44:51Z</time>
      </trkpt>
      <trkpt lat="49.18952" lon="2.00061">
        <ele>212.1</ele>
        <time>2023-03-26T10:44:57Z</time>
      </trkpt>
      <trkpt lat="49.18945" lon="2.00056">
        <ele>212</ele>
        <time>2023-03-26T10:45:02Z</time>
      </trkpt>
      <trkpt lat="49.18939" lon="2.00054">
        <ele>211.9</ele>
        <time>2023-03-26T10:45:07Z</time>
      </trkpt>
      <trkpt lat="49.18933" lon="2.00053">
        <ele>211.6</ele>
        <time>2023-03-26T10:45:13Z</time>
      </trkpt>
      <trkpt lat="49.18925" lon="2.00053">
        <ele>211.1</ele>
        <time>2023-03-26T10:45:19Z</time>
      </trkpt>
      <trkpt lat="49.18917" lon="2.00053">
        <ele>210.3</ele>
        <time>2023-03-26T10:45:25Z</time>
      </trkpt>
      <trkpt lat="49.18912" lon="2.00053">
        <ele>209.2</ele>
        <time>2023-03-26T10:45:31Z</time>
      </trkpt>
      <trkpt lat="49.18903" lon="2.00054">
        <ele>207.6</ele>
        <time>2023-03-26T10:45:37Z</time>
      </trkpt>
      <trkpt lat="49.18896" lon="2.00056">
        <ele>206.4</ele>
        <time>2023-03-26T10:45:42Z</time>
      </trkpt>
      <trkpt lat="49.18888" lon="2.00057">
        <ele>205.1</ele>
        <time>2023-03-26T10:45:48Z</time>
      </trkpt>
      <trkpt lat="49.18883" lon="2.00056">
        <ele>204</ele>
        <time>2023-03-26T10:45:53Z</time>
      </trkpt>
      <trkpt lat="49.18876" lon="2.00058">
        <ele>202.9</ele>
        <time>2023-03-26T10:45:59Z</time>
      </trkpt>
      <trkpt lat="49.1887" lon="2.00058">
        <ele>201.9</ele>
        <time>2023-03-26T10:46:05Z</time>
      </trkpt>
      <trkpt lat="49.18862" lon="2.00059">
        <ele>201.1</ele>
        <time>2023-03-26T10:46:10Z</time>
      </trkpt>
      <trkpt lat="49.18854" lon="2.00058">
        <ele>200.2</ele>
        <time>2023-03-26T10:46:16Z</time>
      </trkpt>
      <trkpt lat="49.18846" lon="2.00057">
        <ele>199.3</ele>
        <time>2023-03-26T10:46:22Z</time>
      </trkpt>
      <trkpt lat="49.18838" lon="2.00054">
        <ele>198.5</ele>
        <time>2023-03-26T10:46:28Z</time>
      </trkpt>
      <trkpt lat="49.18832" lon="2.00048">
        <ele>197.4</ele>
        <time>2023-03-26T10:46:34Z</time>
      </trkpt>
      <trkpt lat="49.1883" lon="2.00039">
        <ele>196.5</ele>
        <time>2023-03-26T10:46:39Z</time>
      </trkpt>
      <trkpt lat="49.18828" lon="2.00031">
        <ele>195.7</ele>
        <time>2023-03-26T10:46:45Z</time>
      </trkpt>
      <trkpt lat="49.18829" lon="2.00029">
        <ele>194.5</ele>
        <time>2023-03-26T10:46:51Z</time>
      </trkpt>
      <trkpt lat="49.18829" lon="2.00019">
        <ele>192.7</ele>
        <time>2023-03-26T10:46:58Z</time>
      </trkpt>
      <trkpt lat="49.18828" lon="2.00002">
        <ele>191.2</ele>
        <time>2023-03-26T10:47:03Z</time>
      </trkpt>
      <trkpt lat="49.18826" lon="1.99983">
        <ele>190.1</ele>
        <time>2023-03-26T10:47:09Z</time>
      </trkpt>
      <trkpt lat="49.18824" lon="1.99971">
        <ele>189.4</ele>
        <time>2023-03-26T10:47:14Z</time>
      </trkpt>
      <trkpt lat="49.18822" lon="1.99958">
        <ele>188.8</ele>
        <time>2023-03-26T10:47:19Z</time>
      </trkpt>
      <trkpt lat="49.1882" lon="1.99944">
        <ele>188.3</ele>
        <time>2023-03-26T10:47:25Z</time>
      </trkpt>
      <trkpt lat="49.18818" lon="1.99931">
        <ele>187.9</ele>
        <time>2023-03-26T10:47:31Z</time>
      </trkpt>
      <trkpt lat="49.18816" lon="1.9992">
        <ele>187.6</ele>
        <time>2023-03-26T10:47:37Z</time>
      </trkpt>
      <trkpt lat="49.18814" lon="1.99912">
        <ele>187.5</ele>
        <time>2023-03-26T10:47:42Z</time>
      </trkpt>
      <trkpt lat="49.18812" lon="1.99901">
        <ele>187.3</ele>
        <time>2023-03-26T10:47:48Z</time>
      </trkpt>
      <trkpt lat="49.18809" lon="1.9989">
        <ele>186.9</ele>
        <time>2023-03-26T10:47:54Z</time>
      </trkpt>
      <trkpt lat="49.18807" lon="1.99882">
        <ele>186.7</ele>
        <time>2023-03-26T10:47:59Z</time>
      </trkpt>
      <trkpt lat="49.18805" lon="1.99873">
        <ele>186.6</ele>
        <time>2023-03-26T10:48:04Z</time>
      </trkpt>
      <trkpt lat="49.18801" lon="1.99865">
        <ele>186.5</ele>
        <time>2023-03-26T10:48:09Z</time>
      </trkpt>
      <trkpt lat="49.18796" lon="1.99855">
        <ele>186.5</ele>
        <time>2023-03-26T10:48:15Z</time>
      </trkpt>
      <trkpt lat="49.18791" lon="1.99844">
        <ele>186.3</ele>
        <time>2023-03-26T10:48:21Z</time>
      </trkpt>
      <trkpt lat="49.18786" lon="1.99835">
        <ele>186.2</ele>
        <time>2023-03-26T10:48:26Z</time>
      </trkpt>
      <trkpt lat="49.18783" lon="1.99826">
        <ele>186</ele>
        <time>2023-03-26T10:48:32Z</time>
      </trkpt>
      <trkpt lat="49.1878" lon="1.99816">
        <ele>186</ele>
        <time>2023-03-26T10:48:38Z</time>
      </trkpt>
      <trkpt lat="49.18778" lon="1.99803">
        <ele>186</ele>
        <time>2023-03-26T10:48:43Z</time>
      </trkpt>
      <trkpt lat="49.18775" lon="1.9979">
        <ele>185.9</ele>
        <time>2023-03-26T10:48:49Z</time>
      </trkpt>
      <trkpt lat="49.18774" lon="1.99777">
        <ele>185.7</ele>
        <time>2023-03-26T10:48:55Z</time>
      </trkpt>
      <trkpt lat="49.18774" lon="1.99766">
        <ele>185.3</ele>
        <time>2023-03-26T10:49:01Z</time>
      </trkpt>
      <trkpt lat="49.18773" lon="1.99759">
        <ele>184.8</ele>
        <time>2023-03-26T10:49:07Z</time>
      </trkpt>
      <trkpt lat="49.18773" lon="1.99757">
        <ele>184.7</ele>
        <time>2023-03-26T10:49:12Z</time>
      </trkpt>
      <trkpt lat="49.18773" lon="1.99757">
        <ele>184.7</ele>
        <time>2023-03-26T10:49:17Z</time>
      </trkpt>
      <trkpt lat="49.18773" lon="1.99759">
        <ele>184.6</ele>
        <time>2023-03-26T10:49:23Z</time>
      </trkpt>
      <trkpt lat="49.18773" lon="1.99761">
        <ele>184.6</ele>
        <time>2023-03-26T10:49:29Z</time>
      </trkpt>
      <trkpt lat="49.18773" lon="1.99762">
        <ele>184.6</ele>
        <time>2023-03-26T10:49:34Z</time>
      </trkpt>
      <trkpt lat="49.18773" lon="1.99762">
        <ele>184.5</ele>
        <time>2023-03-26T10:49:40Z</time>
      </trkpt>
      <trkpt lat="49.18774" lon="1.99762">
        <ele>184.5</ele>
        <time>2023-03-26T10:49:45Z</time>
      </trkpt>
      <trkpt lat="49.18774" lon="1.99762">
        <ele>184.5</ele>
        <time>2023-03-26T10:49:51Z</time>
      </trkpt>
      <trkpt lat="49.18774" lon="1.99762">
        <ele>184.5</ele>
        <time>2023-03-26T10:49:57Z</time>
      </trkpt>
      <trkpt lat="49.18775" lon="1.99763">
        <ele>184.5</ele>
        <time>2023-03-26T10:50:03Z</time>
      </trkpt>
      <trkpt lat="49.18775" lon="1.99763">
        <ele>184.5</ele>
        <time>2023-03-26T10:50:09Z</time>
      </trkpt>
      <trkpt lat="49.18775" lon="1.99763">
        <ele>184.5</ele>
        <time>2023-03-26T10:50:14Z</time>
      </trkpt>
      <trkpt lat="49.18775" lon="1.99763">
        <ele>184.5</ele>
        <time>2023-03-26T10:50:20Z</time>
      </trkpt>
      <trkpt lat="49.18775" lon="1.99763">
        <ele>184.5</ele>
        <time>2023-03-26T10:50:25Z</time>
      </trkpt>
      <trkpt lat="49.18774" lon="1.99763">
        <ele>184.6</ele>
        <time>2023-03-26T10:50:31Z</time>
      </trkpt>
      <trkpt lat="49.18774" lon="1.99763">
        <ele>184.6</ele>
        <time>2023-03-26T10:50:37Z</time>
      </trkpt>
      <trkpt lat="49.18774" lon="1.99763">
        <ele>184.6</ele>
        <time>2023-03-26T10:50:42Z</time>
      </trkpt>
      <trkpt lat="49.18774" lon="1.99763">
        <ele>184.6</ele>
        <time>2023-03-26T10:50:48Z</time>
      </trkpt>
      <trkpt lat="49.18774" lon="1.99764">
        <ele>184.6</ele>
        <time>2023-03-26T10:50:54Z</time>
      </trkpt>
      <trkpt lat="49.18774" lon="1.99764">
        <ele>184.6</ele>
        <time>2023-03-26T10:50:59Z</time>
      </trkpt>
      <trkpt lat="49.18774" lon="1.99764">
        <ele>184.6</ele>
        <time>2023-03-26T10:51:05Z</time>
      </trkpt>
      <trkpt lat="49.18774" lon="1.99764">
        <ele>184.7</ele>
        <time>2023-03-26T10:51:11Z</time>
      </trkpt>
      <trkpt lat="49.18774" lon="1.99764">
        <ele>184.7</ele>
        <time>2023-03-26T10:51:17Z</time>
      </trkpt>
      <trkpt lat="49.18774" lon="1.99764">
        <ele>184.7</ele>
        <time>2023-03-26T10:51:23Z</time>
      </trkpt>
      <trkpt lat="49.18774" lon="1.99764">
        <ele>184.7</ele>
        <time>2023-03-26T10:51:29Z</time>
      </trkpt>
      <trkpt lat="49.18774" lon="1.99764">
        <ele>184.7</ele>
        <time>2023-03-26T10:51:34Z</time>
      </trkpt>
      <trkpt lat="49.18773" lon="1.99764">
        <ele>184.7</ele>
        <time>2023-03-26T10:51:40Z</time>
      </trkpt>
      <trkpt lat="49.18773" lon="1.99764">
        <ele>184.7</ele>
        <time>2023-03-26T10:51:45Z</time>
      </trkpt>
      <trkpt lat="49.18773" lon="1.99764">
        <ele>184.7</ele>
        <time>2023-03-26T10:51:50Z</time>
      </trkpt>
      <trkpt lat="49.18773" lon="1.99764">
        <ele>184.8</ele>
        <time>2023-03-26T10:51:55Z</time>
      </trkpt>
      <trkpt lat="49.18773" lon="1.99764">
        <ele>184.8</ele>
        <time>2023-03-26T10:52:01Z</time>
      </trkpt>
      <trkpt lat="49.18773" lon="1.99765">
        <ele>184.8</ele>
        <time>2023-03-26T10:52:07Z</time>
      </trkpt>
      <trkpt lat="49.18773" lon="1.99765">
        <ele>184.8</ele>
        <time>2023-03-26T10:52:12Z</time>
      </trkpt>
      <trkpt lat="49.18773" lon="1.99765">
        <ele>184.9</ele>
        <time>2023-03-26T10:52:18Z</time>
      </trkpt>
      <trkpt lat="49.18773" lon="1.99765">
        <ele>184.9</ele>
        <time>2023-03-26T10:52:23Z</time>
      </trkpt>
      <trkpt lat="49.18773" lon="1.99765">
        <ele>184.9</ele>
        <time>2023-03-26T10:52:29Z</time>
      </trkpt>
      <trkpt lat="49.18773" lon="1.99765">
        <ele>184.9</ele>
        <time>2023-03-26T10:52:34Z</time>
      </trkpt>
      <trkpt lat="49.18773" lon="1.99765">
        <ele>184.9</ele>
        <time>2023-03-26T10:52:40Z</time>
      </trkpt>
      <trkpt lat="49.18773" lon="1.99765">
        <ele>184.9</ele>
        <time>2023-03-26T10:52:45Z</time>
      </trkpt>
      <trkpt lat="49.18773" lon="1.99765">
        <ele>184.9</ele>
        <time>2023-03-26T10:52:51Z</time>
      </trkpt>
      <trkpt lat="49.18773" lon="1.99765">
        <ele>184.9</ele>
        <time>2023-03-26T10:52:56Z</time>
      </trkpt>
      <trkpt lat="49.18773" lon="1.99765">
        <ele>184.9</ele>
        <time>2023-03-26T10:53:02Z</time>
      </trkpt>
      <trkpt lat="49.18773" lon="1.99765">
        <ele>184.9</ele>
        <time>2023-03-26T10:53:07Z</time>
      </trkpt>
      <trkpt lat="49.18773" lon="1.99765">
        <ele>184.9</ele>
        <time>2023-03-26T10:53:13Z</time>
      </trkpt>
      <trkpt lat="49.18773" lon="1.99765">
        <ele>184.9</ele>
        <time>2023-03-26T10:53:18Z</time>
      </trkpt>
      <trkpt lat="49.18773" lon="1.99765">
        <ele>184.9</ele>
        <time>2023-03-26T10:53:24Z</time>
      </trkpt>
      <trkpt lat="49.18773" lon="1.99765">
        <ele>184.9</ele>
        <time>2023-03-26T10:53:29Z</time>
      </trkpt>
      <trkpt lat="49.18773" lon="1.99765">
        <ele>184.9</ele>
        <time>2023-03-26T10:53:35Z</time>
      </trkpt>
      <trkpt lat="49.18773" lon="1.99765">
        <ele>184.9</ele>
        <time>2023-03-26T10:53:40Z</time>
      </trkpt>
      <trkpt lat="49.18773" lon="1.99765">
        <ele>185</ele>
        <time>2023-03-26T10:53:45Z</time>
      </trkpt>
      <trkpt lat="49.18773" lon="1.99765">
        <ele>185</ele>
        <time>2023-03-26T10:53:51Z</time>
      </trkpt>
      <trkpt lat="49.18773" lon="1.99765">
        <ele>185</ele>
        <time>2023-03-26T10:53:57Z</time>
      </trkpt>
      <trkpt lat="49.18773" lon="1.99765">
        <ele>185</ele>
        <time>2023-03-26T10:54:02Z</time>
      </trkpt>
      <trkpt lat="49.18773" lon="1.99765">
        <ele>185</ele>
        <time>2023-03-26T10:54:08Z</time>
      </trkpt>
      <trkpt lat="49.18773" lon="1.99764">
        <ele>185</ele>
        <time>2023-03-26T10:54:13Z</time>
      </trkpt>
      <trkpt lat="49.18773" lon="1.99764">
        <ele>185</ele>
        <time>2023-03-26T10:54:18Z</time>
      </trkpt>
      <trkpt lat="49.18773" lon="1.99764">
        <ele>185</ele>
        <time>2023-03-26T10:54:24Z</time>
      </trkpt>
      <trkpt lat="49.18773" lon="1.99764">
        <ele>185</ele>
        <time>2023-03-26T10:54:29Z</time>
      </trkpt>
      <trkpt lat="49.18773" lon="1.99764">
        <ele>185</ele>
        <time>2023-03-26T10:54:35Z</time>
      </trkpt>
      <trkpt lat="49.18772" lon="1.99764">
        <ele>185</ele>
        <time>2023-03-26T10:54:40Z</time>
      </trkpt>
      <trkpt lat="49.18772" lon="1.99764">
        <ele>185</ele>
        <time>2023-03-26T10:54:46Z</time>
      </trkpt>
      <trkpt lat="49.18772" lon="1.99764">
        <ele>185</ele>
        <time>2023-03-26T10:54:51Z</time>
      </trkpt>
      <trkpt lat="49.18772" lon="1.99764">
        <ele>185</ele>
        <time>2023-03-26T10:54:56Z</time>
      </trkpt>
      <trkpt lat="49.18772" lon="1.99764">
        <ele>185</ele>
        <time>2023-03-26T10:55:02Z</time>
      </trkpt>
      <trkpt lat="49.18772" lon="1.99764">
        <ele>184.9</ele>
        <time>2023-03-26T10:55:07Z</time>
      </trkpt>
      <trkpt lat="49.18772" lon="1.99764">
        <ele>184.9</ele>
        <time>2023-03-26T10:55:13Z</time>
      </trkpt>
      <trkpt lat="49.18772" lon="1.99764">
        <ele>184.9</ele>
        <time>2023-03-26T10:55:19Z</time>
      </trkpt>
      <trkpt lat="49.18773" lon="1.99764">
        <ele>185</ele>
        <time>2023-03-26T10:55:25Z</time>
      </trkpt>
      <trkpt lat="49.18773" lon="1.99764">
        <ele>185</ele>
        <time>2023-03-26T10:55:30Z</time>
      </trkpt>
      <trkpt lat="49.18773" lon="1.99764">
        <ele>185</ele>
        <time>2023-03-26T10:55:36Z</time>
      </trkpt>
      <trkpt lat="49.18773" lon="1.99765">
        <ele>185</ele>
        <time>2023-03-26T10:55:41Z</time>
      </trkpt>
      <trkpt lat="49.18773" lon="1.99765">
        <ele>185</ele>
        <time>2023-03-26T10:55:47Z</time>
      </trkpt>
      <trkpt lat="49.18773" lon="1.99765">
        <ele>185</ele>
        <time>2023-03-26T10:55:52Z</time>
      </trkpt>
      <trkpt lat="49.18773" lon="1.99764">
        <ele>185</ele>
        <time>2023-03-26T10:55:58Z</time>
      </trkpt>
      <trkpt lat="49.18773" lon="1.99764">
        <ele>185</ele>
        <time>2023-03-26T10:56:04Z</time>
      </trkpt>
      <trkpt lat="49.18773" lon="1.99764">
        <ele>185</ele>
        <time>2023-03-26T10:56:09Z</time>
      </trkpt>
      <trkpt lat="49.18773" lon="1.99765">
        <ele>185.1</ele>
        <time>2023-03-26T10:56:15Z</time>
      </trkpt>
      <trkpt lat="49.18773" lon="1.99765">
        <ele>185.1</ele>
        <time>2023-03-26T10:56:21Z</time>
      </trkpt>
      <trkpt lat="49.18773" lon="1.99765">
        <ele>185.1</ele>
        <time>2023-03-26T10:56:26Z</time>
      </trkpt>
      <trkpt lat="49.18773" lon="1.99765">
        <ele>185.1</ele>
        <time>2023-03-26T10:56:31Z</time>
      </trkpt>
      <trkpt lat="49.18773" lon="1.99765">
        <ele>185.1</ele>
        <time>2023-03-26T10:56:37Z</time>
      </trkpt>
      <trkpt lat="49.18773" lon="1.99765">
        <ele>185.1</ele>
        <time>2023-03-26T10:56:42Z</time>
      </trkpt>
      <trkpt lat="49.18773" lon="1.99765">
        <ele>185.1</ele>
        <time>2023-03-26T10:56:48Z</time>
      </trkpt>
      <trkpt lat="49.18773" lon="1.99765">
        <ele>185.1</ele>
        <time>2023-03-26T10:56:53Z</time>
      </trkpt>
      <trkpt lat="49.18773" lon="1.99765">
        <ele>185.1</ele>
        <time>2023-03-26T10:56:59Z</time>
      </trkpt>
      <trkpt lat="49.18773" lon="1.99765">
        <ele>185.1</ele>
        <time>2023-03-26T10:57:04Z</time>
      </trkpt>
      <trkpt lat="49.18773" lon="1.99765">
        <ele>185.2</ele>
        <time>2023-03-26T10:57:09Z</time>
      </trkpt>
      <trkpt lat="49.18773" lon="1.99765">
        <ele>185.2</ele>
        <time>2023-03-26T10:57:15Z</time>
      </trkpt>
      <trkpt lat="49.18773" lon="1.99765">
        <ele>185.2</ele>
        <time>2023-03-26T10:57:21Z</time>
      </trkpt>
      <trkpt lat="49.18773" lon="1.99765">
        <ele>185.2</ele>
        <time>2023-03-26T10:57:27Z</time>
      </trkpt>
      <trkpt lat="49.18773" lon="1.99764">
        <ele>185.1</ele>
        <time>2023-03-26T10:57:32Z</time>
      </trkpt>
      <trkpt lat="49.18773" lon="1.99765">
        <ele>185.1</ele>
        <time>2023-03-26T10:57:38Z</time>
      </trkpt>
      <trkpt lat="49.18773" lon="1.99765">
        <ele>185.1</ele>
        <time>2023-03-26T10:57:43Z</time>
      </trkpt>
      <trkpt lat="49.18773" lon="1.99765">
        <ele>185.1</ele>
        <time>2023-03-26T10:57:49Z</time>
      </trkpt>
      <trkpt lat="49.18773" lon="1.99765">
        <ele>185.1</ele>
        <time>2023-03-26T10:57:54Z</time>
      </trkpt>
      <trkpt lat="49.18773" lon="1.99765">
        <ele>185.1</ele>
        <time>2023-03-26T10:57:59Z</time>
      </trkpt>
      <trkpt lat="49.18773" lon="1.99765">
        <ele>185.1</ele>
        <time>2023-03-26T10:58:05Z</time>
      </trkpt>
      <trkpt lat="49.18773" lon="1.99765">
        <ele>185</ele>
        <time>2023-03-26T10:58:11Z</time>
      </trkpt>
      <trkpt lat="49.18773" lon="1.99765">
        <ele>185</ele>
        <time>2023-03-26T10:58:17Z</time>
      </trkpt>
      <trkpt lat="49.18773" lon="1.99765">
        <ele>185</ele>
        <time>2023-03-26T10:58:23Z</time>
      </trkpt>
      <trkpt lat="49.18773" lon="1.99765">
        <ele>185</ele>
        <time>2023-03-26T10:58:29Z</time>
      </trkpt>
      <trkpt lat="49.18773" lon="1.99765">
        <ele>184.9</ele>
        <time>2023-03-26T10:58:34Z</time>
      </trkpt>
      <trkpt lat="49.18773" lon="1.99765">
        <ele>184.9</ele>
        <time>2023-03-26T10:58:40Z</time>
      </trkpt>
      <trkpt lat="49.18773" lon="1.99765">
        <ele>185</ele>
        <time>2023-03-26T10:58:45Z</time>
      </trkpt>
      <trkpt lat="49.18773" lon="1.99765">
        <ele>184.9</ele>
        <time>2023-03-26T10:58:51Z</time>
      </trkpt>
      <trkpt lat="49.18773" lon="1.99765">
        <ele>184.9</ele>
        <time>2023-03-26T10:58:56Z</time>
      </trkpt>
      <trkpt lat="49.18773" lon="1.99765">
        <ele>184.9</ele>
        <time>2023-03-26T10:59:02Z</time>
      </trkpt>
      <trkpt lat="49.18774" lon="1.99765">
        <ele>184.9</ele>
        <time>2023-03-26T10:59:07Z</time>
      </trkpt>
      <trkpt lat="49.18774" lon="1.99765">
        <ele>184.9</ele>
        <time>2023-03-26T10:59:12Z</time>
      </trkpt>
      <trkpt lat="49.18774" lon="1.99765">
        <ele>184.9</ele>
        <time>2023-03-26T10:59:17Z</time>
      </trkpt>
      <trkpt lat="49.18774" lon="1.99765">
        <ele>184.9</ele>
        <time>2023-03-26T10:59:23Z</time>
      </trkpt>
      <trkpt lat="49.18774" lon="1.99765">
        <ele>184.9</ele>
        <time>2023-03-26T10:59:28Z</time>
      </trkpt>
      <trkpt lat="49.18774" lon="1.99765">
        <ele>184.8</ele>
        <time>2023-03-26T10:59:34Z</time>
      </trkpt>
      <trkpt lat="49.18774" lon="1.99765">
        <ele>184.8</ele>
        <time>2023-03-26T10:59:39Z</time>
      </trkpt>
      <trkpt lat="49.18774" lon="1.99765">
        <ele>184.8</ele>
        <time>2023-03-26T10:59:45Z</time>
      </trkpt>
      <trkpt lat="49.18773" lon="1.99765">
        <ele>184.8</ele>
        <time>2023-03-26T10:59:50Z</time>
      </trkpt>
      <trkpt lat="49.18773" lon="1.99765">
        <ele>184.8</ele>
        <time>2023-03-26T10:59:56Z</time>
      </trkpt>
      <trkpt lat="49.18773" lon="1.99765">
        <ele>184.8</ele>
        <time>2023-03-26T11:00:01Z</time>
      </trkpt>
      <trkpt lat="49.18773" lon="1.99765">
        <ele>184.8</ele>
        <time>2023-03-26T11:00:07Z</time>
      </trkpt>
      <trkpt lat="49.18773" lon="1.99765">
        <ele>184.8</ele>
        <time>2023-03-26T11:00:13Z</time>
      </trkpt>
      <trkpt lat="49.18773" lon="1.99765">
        <ele>184.8</ele>
        <time>2023-03-26T11:00:18Z</time>
      </trkpt>
      <trkpt lat="49.18773" lon="1.99764">
        <ele>184.8</ele>
        <time>2023-03-26T11:00:24Z</time>
      </trkpt>
      <trkpt lat="49.18773" lon="1.99764">
        <ele>184.7</ele>
        <time>2023-03-26T11:00:30Z</time>
      </trkpt>
      <trkpt lat="49.18773" lon="1.99764">
        <ele>184.7</ele>
        <time>2023-03-26T11:00:35Z</time>
      </trkpt>
      <trkpt lat="49.18773" lon="1.99764">
        <ele>184.7</ele>
        <time>2023-03-26T11:00:40Z</time>
      </trkpt>
      <trkpt lat="49.18772" lon="1.99764">
        <ele>184.7</ele>
        <time>2023-03-26T11:00:45Z</time>
      </trkpt>
      <trkpt lat="49.18773" lon="1.99764">
        <ele>184.7</ele>
        <time>2023-03-26T11:00:51Z</time>
      </trkpt>
      <trkpt lat="49.18773" lon="1.99764">
        <ele>184.7</ele>
        <time>2023-03-26T11:00:57Z</time>
      </trkpt>
      <trkpt lat="49.18773" lon="1.99764">
        <ele>184.7</ele>
        <time>2023-03-26T11:01:03Z</time>
      </trkpt>
      <trkpt lat="49.18773" lon="1.99764">
        <ele>184.7</ele>
        <time>2023-03-26T11:01:08Z</time>
      </trkpt>
      <trkpt lat="49.18773" lon="1.99765">
        <ele>184.7</ele>
        <time>2023-03-26T11:01:14Z</time>
      </trkpt>
      <trkpt lat="49.18772" lon="1.99765">
        <ele>184.7</ele>
        <time>2023-03-26T11:01:19Z</time>
      </trkpt>
      <trkpt lat="49.18772" lon="1.99765">
        <ele>184.7</ele>
        <time>2023-03-26T11:01:25Z</time>
      </trkpt>
      <trkpt lat="49.18772" lon="1.99765">
        <ele>184.7</ele>
        <time>2023-03-26T11:01:31Z</time>
      </trkpt>
      <trkpt lat="49.18772" lon="1.99764">
        <ele>184.7</ele>
        <time>2023-03-26T11:01:36Z</time>
      </trkpt>
      <trkpt lat="49.18772" lon="1.99764">
        <ele>184.7</ele>
        <time>2023-03-26T11:01:42Z</time>
      </trkpt>
      <trkpt lat="49.18773" lon="1.99764">
        <ele>184.7</ele>
        <time>2023-03-26T11:01:48Z</time>
      </trkpt>
      <trkpt lat="49.18773" lon="1.99764">
        <ele>184.7</ele>
        <time>2023-03-26T11:01:53Z</time>
      </trkpt>
      <trkpt lat="49.18773" lon="1.99764">
        <ele>184.7</ele>
        <time>2023-03-26T11:01:58Z</time>
      </trkpt>
      <trkpt lat="49.18773" lon="1.99765">
        <ele>184.7</ele>
        <time>2023-03-26T11:02:03Z</time>
      </trkpt>
      <trkpt lat="49.18773" lon="1.99765">
        <ele>184.7</ele>
        <time>2023-03-26T11:02:08Z</time>
      </trkpt>
      <trkpt lat="49.18773" lon="1.99765">
        <ele>184.7</ele>
        <time>2023-03-26T11:02:14Z</time>
      </trkpt>
      <trkpt lat="49.18773" lon="1.99765">
        <ele>184.7</ele>
        <time>2023-03-26T11:02:19Z</time>
      </trkpt>
      <trkpt lat="49.18773" lon="1.99765">
        <ele>184.7</ele>
        <time>2023-03-26T11:02:25Z</time>
      </trkpt>
      <trkpt lat="49.18773" lon="1.99765">
        <ele>184.7</ele>
        <time>2023-03-26T11:02:31Z</time>
      </trkpt>
      <trkpt lat="49.18773" lon="1.99765">
        <ele>184.7</ele>
        <time>2023-03-26T11:02:36Z</time>
      </trkpt>
      <trkpt lat="49.18773" lon="1.99765">
        <ele>184.7</ele>
        <time>2023-03-26T11:02:42Z</time>
      </trkpt>
      <trkpt lat="49.18773" lon="1.99765">
        <ele>184.8</ele>
        <time>2023-03-26T11:02:48Z</time>
      </trkpt>
      <trkpt lat="49.18773" lon="1.99765">
        <ele>184.8</ele>
        <time>2023-03-26T11:02:54Z</time>
      </trkpt>
      <trkpt lat="49.18773" lon="1.99765">
        <ele>184.8</ele>
        <time>2023-03-26T11:03:00Z</time>
      </trkpt>
      <trkpt lat="49.18773" lon="1.99765">
        <ele>184.8</ele>
        <time>2023-03-26T11:03:05Z</time>
      </trkpt>
      <trkpt lat="49.18773" lon="1.99765">
        <ele>184.8</ele>
        <time>2023-03-26T11:03:11Z</time>
      </trkpt>
      <trkpt lat="49.18773" lon="1.99765">
        <ele>184.8</ele>
        <time>2023-03-26T11:03:16Z</time>
      </trkpt>
      <trkpt lat="49.18773" lon="1.99765">
        <ele>184.8</ele>
        <time>2023-03-26T11:03:22Z</time>
      </trkpt>
      <trkpt lat="49.18773" lon="1.99764">
        <ele>184.8</ele>
        <time>2023-03-26T11:03:28Z</time>
      </trkpt>
      <trkpt lat="49.18774" lon="1.99764">
        <ele>184.8</ele>
        <time>2023-03-26T11:03:34Z</time>
      </trkpt>
      <trkpt lat="49.18774" lon="1.99764">
        <ele>184.8</ele>
        <time>2023-03-26T11:03:39Z</time>
      </trkpt>
      <trkpt lat="49.18774" lon="1.99764">
        <ele>184.8</ele>
        <time>2023-03-26T11:03:45Z</time>
      </trkpt>
      <trkpt lat="49.18773" lon="1.99765">
        <ele>184.8</ele>
        <time>2023-03-26T11:03:50Z</time>
      </trkpt>
      <trkpt lat="49.18772" lon="1.99764">
        <ele>184.9</ele>
        <time>2023-03-26T11:03:56Z</time>
      </trkpt>
      <trkpt lat="49.18772" lon="1.99764">
        <ele>184.9</ele>
        <time>2023-03-26T11:04:01Z</time>
      </trkpt>
      <trkpt lat="49.18772" lon="1.99764">
        <ele>185</ele>
        <time>2023-03-26T11:04:07Z</time>
      </trkpt>
      <trkpt lat="49.18772" lon="1.99763">
        <ele>185.1</ele>
        <time>2023-03-26T11:04:12Z</time>
      </trkpt>
      <trkpt lat="49.18772" lon="1.99763">
        <ele>185.4</ele>
        <time>2023-03-26T11:04:18Z</time>
      </trkpt>
      <trkpt lat="49.18772" lon="1.99764">
        <ele>185.4</ele>
        <time>2023-03-26T11:04:23Z</time>
      </trkpt>
      <trkpt lat="49.18772" lon="1.99764">
        <ele>185.5</ele>
        <time>2023-03-26T11:04:28Z</time>
      </trkpt>
      <trkpt lat="49.18772" lon="1.99764">
        <ele>185.5</ele>
        <time>2023-03-26T11:04:34Z</time>
      </trkpt>
      <trkpt lat="49.18772" lon="1.99764">
        <ele>185.6</ele>
        <time>2023-03-26T11:04:39Z</time>
      </trkpt>
      <trkpt lat="49.18772" lon="1.99764">
        <ele>185.7</ele>
        <time>2023-03-26T11:04:45Z</time>
      </trkpt>
      <trkpt lat="49.18772" lon="1.99764">
        <ele>185.7</ele>
        <time>2023-03-26T11:04:51Z</time>
      </trkpt>
      <trkpt lat="49.18772" lon="1.99765">
        <ele>185.8</ele>
        <time>2023-03-26T11:04:56Z</time>
      </trkpt>
      <trkpt lat="49.18772" lon="1.99765">
        <ele>185.8</ele>
        <time>2023-03-26T11:05:01Z</time>
      </trkpt>
      <trkpt lat="49.18772" lon="1.99765">
        <ele>185.9</ele>
        <time>2023-03-26T11:05:07Z</time>
      </trkpt>
      <trkpt lat="49.18772" lon="1.99765">
        <ele>185.9</ele>
        <time>2023-03-26T11:05:12Z</time>
      </trkpt>
      <trkpt lat="49.18772" lon="1.99765">
        <ele>186</ele>
        <time>2023-03-26T11:05:17Z</time>
      </trkpt>
      <trkpt lat="49.18772" lon="1.99764">
        <ele>186.1</ele>
        <time>2023-03-26T11:05:23Z</time>
      </trkpt>
      <trkpt lat="49.18772" lon="1.99764">
        <ele>186.2</ele>
        <time>2023-03-26T11:05:28Z</time>
      </trkpt>
      <trkpt lat="49.18772" lon="1.99764">
        <ele>186.2</ele>
        <time>2023-03-26T11:05:34Z</time>
      </trkpt>
      <trkpt lat="49.18772" lon="1.99764">
        <ele>186.3</ele>
        <time>2023-03-26T11:05:39Z</time>
      </trkpt>
      <trkpt lat="49.18772" lon="1.99764">
        <ele>186.3</ele>
        <time>2023-03-26T11:05:45Z</time>
      </trkpt>
      <trkpt lat="49.18772" lon="1.99765">
        <ele>186.4</ele>
        <time>2023-03-26T11:05:50Z</time>
      </trkpt>
      <trkpt lat="49.18772" lon="1.99765">
        <ele>186.4</ele>
        <time>2023-03-26T11:05:56Z</time>
      </trkpt>
      <trkpt lat="49.18772" lon="1.99765">
        <ele>186.4</ele>
        <time>2023-03-26T11:06:02Z</time>
      </trkpt>
      <trkpt lat="49.18772" lon="1.99765">
        <ele>186.5</ele>
        <time>2023-03-26T11:06:07Z</time>
      </trkpt>
      <trkpt lat="49.18772" lon="1.99767">
        <ele>186.5</ele>
        <time>2023-03-26T11:06:12Z</time>
      </trkpt>
      <trkpt lat="49.18772" lon="1.99768">
        <ele>186.6</ele>
        <time>2023-03-26T11:06:18Z</time>
      </trkpt>
      <trkpt lat="49.18772" lon="1.99768">
        <ele>186.6</ele>
        <time>2023-03-26T11:06:24Z</time>
      </trkpt>
      <trkpt lat="49.18772" lon="1.99767">
        <ele>186.7</ele>
        <time>2023-03-26T11:06:29Z</time>
      </trkpt>
      <trkpt lat="49.18772" lon="1.99767">
        <ele>186.7</ele>
        <time>2023-03-26T11:06:34Z</time>
      </trkpt>
      <trkpt lat="49.18772" lon="1.99767">
        <ele>186.8</ele>
        <time>2023-03-26T11:06:39Z</time>
      </trkpt>
      <trkpt lat="49.18772" lon="1.99767">
        <ele>186.8</ele>
        <time>2023-03-26T11:06:44Z</time>
      </trkpt>
      <trkpt lat="49.18772" lon="1.99767">
        <ele>186.9</ele>
        <time>2023-03-26T11:06:49Z</time>
      </trkpt>
      <trkpt lat="49.18771" lon="1.99767">
        <ele>186.9</ele>
        <time>2023-03-26T11:06:55Z</time>
      </trkpt>
      <trkpt lat="49.18771" lon="1.99767">
        <ele>186.9</ele>
        <time>2023-03-26T11:07:00Z</time>
      </trkpt>
      <trkpt lat="49.18771" lon="1.99767">
        <ele>187</ele>
        <time>2023-03-26T11:07:05Z</time>
      </trkpt>
      <trkpt lat="49.18771" lon="1.99767">
        <ele>187</ele>
        <time>2023-03-26T11:07:11Z</time>
      </trkpt>
      <trkpt lat="49.18772" lon="1.99766">
        <ele>187</ele>
        <time>2023-03-26T11:07:17Z</time>
      </trkpt>
      <trkpt lat="49.18772" lon="1.99766">
        <ele>187</ele>
        <time>2023-03-26T11:07:23Z</time>
      </trkpt>
      <trkpt lat="49.18772" lon="1.99766">
        <ele>187</ele>
        <time>2023-03-26T11:07:28Z</time>
      </trkpt>
      <trkpt lat="49.18772" lon="1.99766">
        <ele>187.1</ele>
        <time>2023-03-26T11:07:33Z</time>
      </trkpt>
      <trkpt lat="49.18772" lon="1.99766">
        <ele>187.1</ele>
        <time>2023-03-26T11:07:39Z</time>
      </trkpt>
      <trkpt lat="49.18772" lon="1.99766">
        <ele>187.2</ele>
        <time>2023-03-26T11:07:44Z</time>
      </trkpt>
      <trkpt lat="49.18772" lon="1.99766">
        <ele>187.2</ele>
        <time>2023-03-26T11:07:50Z</time>
      </trkpt>
      <trkpt lat="49.18772" lon="1.99766">
        <ele>187.3</ele>
        <time>2023-03-26T11:07:55Z</time>
      </trkpt>
      <trkpt lat="49.18772" lon="1.99766">
        <ele>187.3</ele>
        <time>2023-03-26T11:08:01Z</time>
      </trkpt>
      <trkpt lat="49.18772" lon="1.99765">
        <ele>187.3</ele>
        <time>2023-03-26T11:08:07Z</time>
      </trkpt>
      <trkpt lat="49.18772" lon="1.99765">
        <ele>187.3</ele>
        <time>2023-03-26T11:08:13Z</time>
      </trkpt>
      <trkpt lat="49.18772" lon="1.99765">
        <ele>187.3</ele>
        <time>2023-03-26T11:08:19Z</time>
      </trkpt>
      <trkpt lat="49.18771" lon="1.99765">
        <ele>187.3</ele>
        <time>2023-03-26T11:08:24Z</time>
      </trkpt>
      <trkpt lat="49.18772" lon="1.99765">
        <ele>187.3</ele>
        <time>2023-03-26T11:08:30Z</time>
      </trkpt>
      <trkpt lat="49.18771" lon="1.99765">
        <ele>187.3</ele>
        <time>2023-03-26T11:08:36Z</time>
      </trkpt>
      <trkpt lat="49.18771" lon="1.99765">
        <ele>187.3</ele>
        <time>2023-03-26T11:08:41Z</time>
      </trkpt>
      <trkpt lat="49.18771" lon="1.99765">
        <ele>187.3</ele>
        <time>2023-03-26T11:08:47Z</time>
      </trkpt>
      <trkpt lat="49.18771" lon="1.99765">
        <ele>187.3</ele>
        <time>2023-03-26T11:08:52Z</time>
      </trkpt>
      <trkpt lat="49.18771" lon="1.99765">
        <ele>187.3</ele>
        <time>2023-03-26T11:08:58Z</time>
      </trkpt>
      <trkpt lat="49.18771" lon="1.99765">
        <ele>187.3</ele>
        <time>2023-03-26T11:09:04Z</time>
      </trkpt>
      <trkpt lat="49.18771" lon="1.99765">
        <ele>187.3</ele>
        <time>2023-03-26T11:09:09Z</time>
      </trkpt>
      <trkpt lat="49.18771" lon="1.99765">
        <ele>187.3</ele>
        <time>2023-03-26T11:09:15Z</time>
      </trkpt>
      <trkpt lat="49.18771" lon="1.99765">
        <ele>187.3</ele>
        <time>2023-03-26T11:09:21Z</time>
      </trkpt>
      <trkpt lat="49.18771" lon="1.99765">
        <ele>187.3</ele>
        <time>2023-03-26T11:09:26Z</time>
      </trkpt>
      <trkpt lat="49.18771" lon="1.99765">
        <ele>187.3</ele>
        <time>2023-03-26T11:09:32Z</time>
      </trkpt>
      <trkpt lat="49.18771" lon="1.99765">
        <ele>187.3</ele>
        <time>2023-03-26T11:09:37Z</time>
      </trkpt>
      <trkpt lat="49.18771" lon="1.99765">
        <ele>187.3</ele>
        <time>2023-03-26T11:09:43Z</time>
      </trkpt>
      <trkpt lat="49.18771" lon="1.99765">
        <ele>187.3</ele>
        <time>2023-03-26T11:09:49Z</time>
      </trkpt>
      <trkpt lat="49.18771" lon="1.99765">
        <ele>187.3</ele>
        <time>2023-03-26T11:09:54Z</time>
      </trkpt>
      <trkpt lat="49.18771" lon="1.99765">
        <ele>187.3</ele>
        <time>2023-03-26T11:09:59Z</time>
      </trkpt>
      <trkpt lat="49.18771" lon="1.99765">
        <ele>187.3</ele>
        <time>2023-03-26T11:10:04Z</time>
      </trkpt>
      <trkpt lat="49.18771" lon="1.99765">
        <ele>187.3</ele>
        <time>2023-03-26T11:10:10Z</time>
      </trkpt>
      <trkpt lat="49.18771" lon="1.99765">
        <ele>187.4</ele>
        <time>2023-03-26T11:10:15Z</time>
      </trkpt>
      <trkpt lat="49.18771" lon="1.99765">
        <ele>187.4</ele>
        <time>2023-03-26T11:10:20Z</time>
      </trkpt>
      <trkpt lat="49.18771" lon="1.99765">
        <ele>187.4</ele>
        <time>2023-03-26T11:10:26Z</time>
      </trkpt>
      <trkpt lat="49.18771" lon="1.99765">
        <ele>187.4</ele>
        <time>2023-03-26T11:10:32Z</time>
      </trkpt>
      <trkpt lat="49.18771" lon="1.99765">
        <ele>187.4</ele>
        <time>2023-03-26T11:10:37Z</time>
      </trkpt>
      <trkpt lat="49.18771" lon="1.99765">
        <ele>187.4</ele>
        <time>2023-03-26T11:10:43Z</time>
      </trkpt>
      <trkpt lat="49.18771" lon="1.99765">
        <ele>187.4</ele>
        <time>2023-03-26T11:10:48Z</time>
      </trkpt>
      <trkpt lat="49.18771" lon="1.99765">
        <ele>187.4</ele>
        <time>2023-03-26T11:10:54Z</time>
      </trkpt>
      <trkpt lat="49.18771" lon="1.99765">
        <ele>187.5</ele>
        <time>2023-03-26T11:10:59Z</time>
      </trkpt>
      <trkpt lat="49.18771" lon="1.99765">
        <ele>187.5</ele>
        <time>2023-03-26T11:11:05Z</time>
      </trkpt>
      <trkpt lat="49.18771" lon="1.99765">
        <ele>187.5</ele>
        <time>2023-03-26T11:11:11Z</time>
      </trkpt>
      <trkpt lat="49.18771" lon="1.99765">
        <ele>187.5</ele>
        <time>2023-03-26T11:11:17Z</time>
      </trkpt>
      <trkpt lat="49.18771" lon="1.99765">
        <ele>187.5</ele>
        <time>2023-03-26T11:11:22Z</time>
      </trkpt>
      <trkpt lat="49.18771" lon="1.99765">
        <ele>187.5</ele>
        <time>2023-03-26T11:11:27Z</time>
      </trkpt>
      <trkpt lat="49.18771" lon="1.99765">
        <ele>187.5</ele>
        <time>2023-03-26T11:11:33Z</time>
      </trkpt>
      <trkpt lat="49.18771" lon="1.99765">
        <ele>187.5</ele>
        <time>2023-03-26T11:11:38Z</time>
      </trkpt>
      <trkpt lat="49.18771" lon="1.99765">
        <ele>187.5</ele>
        <time>2023-03-26T11:11:43Z</time>
      </trkpt>
      <trkpt lat="49.18772" lon="1.99765">
        <ele>187.5</ele>
        <time>2023-03-26T11:11:49Z</time>
      </trkpt>
      <trkpt lat="49.18772" lon="1.99765">
        <ele>187.5</ele>
        <time>2023-03-26T11:11:54Z</time>
      </trkpt>
      <trkpt lat="49.18772" lon="1.99765">
        <ele>187.5</ele>
        <time>2023-03-26T11:12:00Z</time>
      </trkpt>
      <trkpt lat="49.18772" lon="1.99766">
        <ele>187.5</ele>
        <time>2023-03-26T11:12:06Z</time>
      </trkpt>
      <trkpt lat="49.18772" lon="1.99766">
        <ele>187.5</ele>
        <time>2023-03-26T11:12:12Z</time>
      </trkpt>
      <trkpt lat="49.18772" lon="1.99766">
        <ele>187.5</ele>
        <time>2023-03-26T11:12:17Z</time>
      </trkpt>
      <trkpt lat="49.18771" lon="1.99766">
        <ele>187.5</ele>
        <time>2023-03-26T11:12:23Z</time>
      </trkpt>
      <trkpt lat="49.18771" lon="1.99766">
        <ele>187.5</ele>
        <time>2023-03-26T11:12:28Z</time>
      </trkpt>
      <trkpt lat="49.18771" lon="1.99766">
        <ele>187.5</ele>
        <time>2023-03-26T11:12:34Z</time>
      </trkpt>
      <trkpt lat="49.18771" lon="1.99766">
        <ele>187.5</ele>
        <time>2023-03-26T11:12:39Z</time>
      </trkpt>
      <trkpt lat="49.18771" lon="1.99766">
        <ele>187.5</ele>
        <time>2023-03-26T11:12:45Z</time>
      </trkpt>
      <trkpt lat="49.18771" lon="1.99765">
        <ele>187.5</ele>
        <time>2023-03-26T11:12:51Z</time>
      </trkpt>
      <trkpt lat="49.18771" lon="1.99765">
        <ele>187.5</ele>
        <time>2023-03-26T11:12:57Z</time>
      </trkpt>
      <trkpt lat="49.18771" lon="1.99765">
        <ele>187.5</ele>
        <time>2023-03-26T11:13:02Z</time>
      </trkpt>
      <trkpt lat="49.18771" lon="1.99765">
        <ele>187.5</ele>
        <time>2023-03-26T11:13:08Z</time>
      </trkpt>
      <trkpt lat="49.18771" lon="1.99765">
        <ele>187.5</ele>
        <time>2023-03-26T11:13:13Z</time>
      </trkpt>
      <trkpt lat="49.18771" lon="1.99765">
        <ele>187.5</ele>
        <time>2023-03-26T11:13:18Z</time>
      </trkpt>
      <trkpt lat="49.18771" lon="1.99765">
        <ele>187.5</ele>
        <time>2023-03-26T11:13:24Z</time>
      </trkpt>
      <trkpt lat="49.18771" lon="1.99765">
        <ele>187.5</ele>
        <time>2023-03-26T11:13:30Z</time>
      </trkpt>
      <trkpt lat="49.18771" lon="1.99765">
        <ele>187.5</ele>
        <time>2023-03-26T11:13:35Z</time>
      </trkpt>
      <trkpt lat="49.18771" lon="1.99765">
        <ele>187.5</ele>
        <time>2023-03-26T11:13:41Z</time>
      </trkpt>
      <trkpt lat="49.18771" lon="1.99765">
        <ele>187.5</ele>
        <time>2023-03-26T11:13:47Z</time>
      </trkpt>
      <trkpt lat="49.18771" lon="1.99765">
        <ele>187.4</ele>
        <time>2023-03-26T11:13:53Z</time>
      </trkpt>
      <trkpt lat="49.18771" lon="1.99765">
        <ele>187.4</ele>
        <time>2023-03-26T11:13:58Z</time>
      </trkpt>
      <trkpt lat="49.18771" lon="1.99765">
        <ele>187.4</ele>
        <time>2023-03-26T11:14:04Z</time>
      </trkpt>
      <trkpt lat="49.18771" lon="1.99765">
        <ele>187.4</ele>
        <time>2023-03-26T11:14:10Z</time>
      </trkpt>
      <trkpt lat="49.18771" lon="1.99765">
        <ele>187.4</ele>
        <time>2023-03-26T11:14:15Z</time>
      </trkpt>
      <trkpt lat="49.18771" lon="1.99765">
        <ele>187.4</ele>
        <time>2023-03-26T11:14:21Z</time>
      </trkpt>
      <trkpt lat="49.18771" lon="1.99765">
        <ele>187.4</ele>
        <time>2023-03-26T11:14:27Z</time>
      </trkpt>
      <trkpt lat="49.18771" lon="1.99765">
        <ele>187.4</ele>
        <time>2023-03-26T11:14:33Z</time>
      </trkpt>
      <trkpt lat="49.18771" lon="1.99765">
        <ele>187.4</ele>
        <time>2023-03-26T11:14:39Z</time>
      </trkpt>
      <trkpt lat="49.18771" lon="1.99765">
        <ele>187.4</ele>
        <time>2023-03-26T11:14:45Z</time>
      </trkpt>
      <trkpt lat="49.18771" lon="1.99765">
        <ele>187.3</ele>
        <time>2023-03-26T11:14:51Z</time>
      </trkpt>
      <trkpt lat="49.18771" lon="1.99765">
        <ele>187.3</ele>
        <time>2023-03-26T11:14:56Z</time>
      </trkpt>
      <trkpt lat="49.18771" lon="1.99765">
        <ele>187.3</ele>
        <time>2023-03-26T11:15:02Z</time>
      </trkpt>
      <trkpt lat="49.18771" lon="1.99765">
        <ele>187.3</ele>
        <time>2023-03-26T11:15:07Z</time>
      </trkpt>
      <trkpt lat="49.18771" lon="1.99765">
        <ele>187.3</ele>
        <time>2023-03-26T11:15:13Z</time>
      </trkpt>
      <trkpt lat="49.18771" lon="1.99765">
        <ele>187.3</ele>
        <time>2023-03-26T11:15:18Z</time>
      </trkpt>
      <trkpt lat="49.18771" lon="1.99766">
        <ele>187.3</ele>
        <time>2023-03-26T11:15:24Z</time>
      </trkpt>
      <trkpt lat="49.18771" lon="1.99766">
        <ele>187.3</ele>
        <time>2023-03-26T11:15:29Z</time>
      </trkpt>
      <trkpt lat="49.18771" lon="1.99765">
        <ele>187.3</ele>
        <time>2023-03-26T11:15:35Z</time>
      </trkpt>
      <trkpt lat="49.18771" lon="1.99765">
        <ele>187.3</ele>
        <time>2023-03-26T11:15:40Z</time>
      </trkpt>
      <trkpt lat="49.18771" lon="1.99765">
        <ele>187.3</ele>
        <time>2023-03-26T11:15:45Z</time>
      </trkpt>
      <trkpt lat="49.18771" lon="1.99765">
        <ele>187.3</ele>
        <time>2023-03-26T11:15:51Z</time>
      </trkpt>
      <trkpt lat="49.18772" lon="1.99765">
        <ele>187.3</ele>
        <time>2023-03-26T11:15:56Z</time>
      </trkpt>
      <trkpt lat="49.18772" lon="1.99765">
        <ele>187.3</ele>
        <time>2023-03-26T11:16:01Z</time>
      </trkpt>
      <trkpt lat="49.18771" lon="1.99765">
        <ele>187.3</ele>
        <time>2023-03-26T11:16:07Z</time>
      </trkpt>
      <trkpt lat="49.18771" lon="1.99765">
        <ele>187.3</ele>
        <time>2023-03-26T11:16:13Z</time>
      </trkpt>
      <trkpt lat="49.18771" lon="1.99765">
        <ele>187.3</ele>
        <time>2023-03-26T11:16:18Z</time>
      </trkpt>
      <trkpt lat="49.18771" lon="1.99764">
        <ele>187.3</ele>
        <time>2023-03-26T11:16:24Z</time>
      </trkpt>
      <trkpt lat="49.18771" lon="1.99765">
        <ele>187.3</ele>
        <time>2023-03-26T11:16:29Z</time>
      </trkpt>
      <trkpt lat="49.18771" lon="1.99765">
        <ele>187.3</ele>
        <time>2023-03-26T11:16:34Z</time>
      </trkpt>
      <trkpt lat="49.18771" lon="1.99766">
        <ele>187.4</ele>
        <time>2023-03-26T11:16:39Z</time>
      </trkpt>
      <trkpt lat="49.18772" lon="1.99767">
        <ele>187.4</ele>
        <time>2023-03-26T11:16:45Z</time>
      </trkpt>
      <trkpt lat="49.18771" lon="1.99766">
        <ele>187.4</ele>
        <time>2023-03-26T11:16:51Z</time>
      </trkpt>
      <trkpt lat="49.18771" lon="1.99766">
        <ele>187.4</ele>
        <time>2023-03-26T11:16:57Z</time>
      </trkpt>
      <trkpt lat="49.18771" lon="1.99764">
        <ele>187.4</ele>
        <time>2023-03-26T11:17:02Z</time>
      </trkpt>
      <trkpt lat="49.18772" lon="1.99763">
        <ele>187.5</ele>
        <time>2023-03-26T11:17:08Z</time>
      </trkpt>
      <trkpt lat="49.18772" lon="1.99761">
        <ele>187.5</ele>
        <time>2023-03-26T11:17:14Z</time>
      </trkpt>
      <trkpt lat="49.18772" lon="1.99761">
        <ele>187.6</ele>
        <time>2023-03-26T11:17:19Z</time>
      </trkpt>
      <trkpt lat="49.18772" lon="1.9976">
        <ele>187.6</ele>
        <time>2023-03-26T11:17:25Z</time>
      </trkpt>
      <trkpt lat="49.18772" lon="1.9976">
        <ele>187.7</ele>
        <time>2023-03-26T11:17:31Z</time>
      </trkpt>
      <trkpt lat="49.18772" lon="1.99759">
        <ele>187.8</ele>
        <time>2023-03-26T11:17:37Z</time>
      </trkpt>
      <trkpt lat="49.18772" lon="1.99763">
        <ele>187.9</ele>
        <time>2023-03-26T11:17:42Z</time>
      </trkpt>
      <trkpt lat="49.18773" lon="1.99764">
        <ele>187.9</ele>
        <time>2023-03-26T11:17:48Z</time>
      </trkpt>
      <trkpt lat="49.18773" lon="1.99765">
        <ele>187.9</ele>
        <time>2023-03-26T11:17:53Z</time>
      </trkpt>
      <trkpt lat="49.18773" lon="1.99765">
        <ele>187.9</ele>
        <time>2023-03-26T11:17:59Z</time>
      </trkpt>
      <trkpt lat="49.18773" lon="1.99765">
        <ele>188</ele>
        <time>2023-03-26T11:18:04Z</time>
      </trkpt>
      <trkpt lat="49.18772" lon="1.99765">
        <ele>188</ele>
        <time>2023-03-26T11:18:10Z</time>
      </trkpt>
      <trkpt lat="49.18772" lon="1.99766">
        <ele>188</ele>
        <time>2023-03-26T11:18:16Z</time>
      </trkpt>
      <trkpt lat="49.18772" lon="1.99766">
        <ele>188</ele>
        <time>2023-03-26T11:18:21Z</time>
      </trkpt>
      <trkpt lat="49.18772" lon="1.99766">
        <ele>188</ele>
        <time>2023-03-26T11:18:27Z</time>
      </trkpt>
      <trkpt lat="49.18772" lon="1.99766">
        <ele>188.1</ele>
        <time>2023-03-26T11:18:33Z</time>
      </trkpt>
      <trkpt lat="49.18772" lon="1.99766">
        <ele>188.1</ele>
        <time>2023-03-26T11:18:38Z</time>
      </trkpt>
      <trkpt lat="49.18772" lon="1.99766">
        <ele>188.1</ele>
        <time>2023-03-26T11:18:44Z</time>
      </trkpt>
      <trkpt lat="49.18772" lon="1.99766">
        <ele>188.1</ele>
        <time>2023-03-26T11:18:49Z</time>
      </trkpt>
      <trkpt lat="49.18772" lon="1.99766">
        <ele>188.1</ele>
        <time>2023-03-26T11:18:55Z</time>
      </trkpt>
      <trkpt lat="49.18771" lon="1.99766">
        <ele>188.1</ele>
        <time>2023-03-26T11:19:01Z</time>
      </trkpt>
      <trkpt lat="49.18771" lon="1.99766">
        <ele>188.1</ele>
        <time>2023-03-26T11:19:06Z</time>
      </trkpt>
      <trkpt lat="49.18771" lon="1.99766">
        <ele>188.1</ele>
        <time>2023-03-26T11:19:12Z</time>
      </trkpt>
      <trkpt lat="49.18771" lon="1.99766">
        <ele>188.1</ele>
        <time>2023-03-26T11:19:17Z</time>
      </trkpt>
      <trkpt lat="49.18771" lon="1.99766">
        <ele>188.2</ele>
        <time>2023-03-26T11:19:23Z</time>
      </trkpt>
      <trkpt lat="49.18771" lon="1.99766">
        <ele>188.2</ele>
        <time>2023-03-26T11:19:28Z</time>
      </trkpt>
      <trkpt lat="49.18771" lon="1.99766">
        <ele>188.2</ele>
        <time>2023-03-26T11:19:34Z</time>
      </trkpt>
      <trkpt lat="49.18771" lon="1.99766">
        <ele>188.2</ele>
        <time>2023-03-26T11:19:39Z</time>
      </trkpt>
      <trkpt lat="49.18771" lon="1.99766">
        <ele>188.2</ele>
        <time>2023-03-26T11:19:45Z</time>
      </trkpt>
      <trkpt lat="49.18771" lon="1.99766">
        <ele>188.2</ele>
        <time>2023-03-26T11:19:50Z</time>
      </trkpt>
      <trkpt lat="49.18771" lon="1.99765">
        <ele>188.2</ele>
        <time>2023-03-26T11:19:56Z</time>
      </trkpt>
      <trkpt lat="49.18771" lon="1.99765">
        <ele>188.2</ele>
        <time>2023-03-26T11:20:01Z</time>
      </trkpt>
      <trkpt lat="49.18771" lon="1.99765">
        <ele>188.2</ele>
        <time>2023-03-26T11:20:07Z</time>
      </trkpt>
      <trkpt lat="49.18771" lon="1.99765">
        <ele>188.3</ele>
        <time>2023-03-26T11:20:12Z</time>
      </trkpt>
      <trkpt lat="49.18771" lon="1.99765">
        <ele>188.3</ele>
        <time>2023-03-26T11:20:18Z</time>
      </trkpt>
      <trkpt lat="49.18771" lon="1.99765">
        <ele>188.3</ele>
        <time>2023-03-26T11:20:23Z</time>
      </trkpt>
      <trkpt lat="49.18771" lon="1.99765">
        <ele>188.3</ele>
        <time>2023-03-26T11:20:28Z</time>
      </trkpt>
      <trkpt lat="49.18771" lon="1.99765">
        <ele>188.3</ele>
        <time>2023-03-26T11:20:33Z</time>
      </trkpt>
      <trkpt lat="49.18771" lon="1.99765">
        <ele>188.4</ele>
        <time>2023-03-26T11:20:39Z</time>
      </trkpt>
      <trkpt lat="49.18771" lon="1.99765">
        <ele>188.4</ele>
        <time>2023-03-26T11:20:45Z</time>
      </trkpt>
      <trkpt lat="49.18771" lon="1.99765">
        <ele>188.3</ele>
        <time>2023-03-26T11:20:50Z</time>
      </trkpt>
      <trkpt lat="49.18771" lon="1.99765">
        <ele>188.3</ele>
        <time>2023-03-26T11:20:55Z</time>
      </trkpt>
      <trkpt lat="49.18771" lon="1.99764">
        <ele>188.3</ele>
        <time>2023-03-26T11:21:01Z</time>
      </trkpt>
      <trkpt lat="49.18773" lon="1.99764">
        <ele>188.4</ele>
        <time>2023-03-26T11:21:10Z</time>
      </trkpt>
      <trkpt lat="49.18772" lon="1.99769">
        <ele>188.9</ele>
        <time>2023-03-26T11:21:15Z</time>
      </trkpt>
      <trkpt lat="49.18773" lon="1.99767">
        <ele>188.9</ele>
        <time>2023-03-26T11:21:21Z</time>
      </trkpt>
      <trkpt lat="49.18773" lon="1.99766">
        <ele>188.5</ele>
        <time>2023-03-26T11:21:26Z</time>
      </trkpt>
      <trkpt lat="49.18776" lon="1.99767">
        <ele>187.6</ele>
        <time>2023-03-26T11:21:31Z</time>
      </trkpt>
      <trkpt lat="49.18774" lon="1.99766">
        <ele>187.5</ele>
        <time>2023-03-26T11:21:37Z</time>
      </trkpt>
      <trkpt lat="49.18773" lon="1.99765">
        <ele>187.4</ele>
        <time>2023-03-26T11:21:43Z</time>
      </trkpt>
      <trkpt lat="49.18772" lon="1.99765">
        <ele>187.4</ele>
        <time>2023-03-26T11:21:49Z</time>
      </trkpt>
      <trkpt lat="49.18772" lon="1.99765">
        <ele>187.4</ele>
        <time>2023-03-26T11:21:55Z</time>
      </trkpt>
      <trkpt lat="49.18772" lon="1.99765">
        <ele>187.4</ele>
        <time>2023-03-26T11:22:01Z</time>
      </trkpt>
      <trkpt lat="49.18773" lon="1.99766">
        <ele>187.5</ele>
        <time>2023-03-26T11:22:06Z</time>
      </trkpt>
      <trkpt lat="49.18773" lon="1.99766">
        <ele>187.5</ele>
        <time>2023-03-26T11:22:11Z</time>
      </trkpt>
      <trkpt lat="49.18772" lon="1.99766">
        <ele>187.5</ele>
        <time>2023-03-26T11:22:17Z</time>
      </trkpt>
      <trkpt lat="49.18772" lon="1.99767">
        <ele>187.4</ele>
        <time>2023-03-26T11:22:22Z</time>
      </trkpt>
      <trkpt lat="49.18772" lon="1.99767">
        <ele>187.4</ele>
        <time>2023-03-26T11:22:27Z</time>
      </trkpt>
      <trkpt lat="49.18771" lon="1.99767">
        <ele>187.4</ele>
        <time>2023-03-26T11:22:33Z</time>
      </trkpt>
      <trkpt lat="49.18771" lon="1.99767">
        <ele>187.3</ele>
        <time>2023-03-26T11:22:38Z</time>
      </trkpt>
      <trkpt lat="49.18771" lon="1.99767">
        <ele>187.3</ele>
        <time>2023-03-26T11:22:44Z</time>
      </trkpt>
      <trkpt lat="49.18771" lon="1.99767">
        <ele>187.2</ele>
        <time>2023-03-26T11:22:50Z</time>
      </trkpt>
      <trkpt lat="49.1877" lon="1.99767">
        <ele>187.2</ele>
        <time>2023-03-26T11:22:55Z</time>
      </trkpt>
      <trkpt lat="49.1877" lon="1.99767">
        <ele>187.1</ele>
        <time>2023-03-26T11:23:01Z</time>
      </trkpt>
      <trkpt lat="49.18771" lon="1.99768">
        <ele>187.1</ele>
        <time>2023-03-26T11:23:06Z</time>
      </trkpt>
      <trkpt lat="49.18771" lon="1.99768">
        <ele>187.1</ele>
        <time>2023-03-26T11:23:12Z</time>
      </trkpt>
      <trkpt lat="49.18771" lon="1.99767">
        <ele>187</ele>
        <time>2023-03-26T11:23:18Z</time>
      </trkpt>
      <trkpt lat="49.18771" lon="1.99767">
        <ele>187</ele>
        <time>2023-03-26T11:23:24Z</time>
      </trkpt>
      <trkpt lat="49.18771" lon="1.99767">
        <ele>186.9</ele>
        <time>2023-03-26T11:23:30Z</time>
      </trkpt>
      <trkpt lat="49.18771" lon="1.99767">
        <ele>186.9</ele>
        <time>2023-03-26T11:23:35Z</time>
      </trkpt>
      <trkpt lat="49.18771" lon="1.99767">
        <ele>186.8</ele>
        <time>2023-03-26T11:23:41Z</time>
      </trkpt>
      <trkpt lat="49.18772" lon="1.99764">
        <ele>186.7</ele>
        <time>2023-03-26T11:23:47Z</time>
      </trkpt>
      <trkpt lat="49.18775" lon="1.99753">
        <ele>186.5</ele>
        <time>2023-03-26T11:23:53Z</time>
      </trkpt>
      <trkpt lat="49.18777" lon="1.99744">
        <ele>186.4</ele>
        <time>2023-03-26T11:23:59Z</time>
      </trkpt>
      <trkpt lat="49.1878" lon="1.99734">
        <ele>186.5</ele>
        <time>2023-03-26T11:24:05Z</time>
      </trkpt>
      <trkpt lat="49.18779" lon="1.99727">
        <ele>186.6</ele>
        <time>2023-03-26T11:24:11Z</time>
      </trkpt>
      <trkpt lat="49.18774" lon="1.99724">
        <ele>186.7</ele>
        <time>2023-03-26T11:24:16Z</time>
      </trkpt>
      <trkpt lat="49.1877" lon="1.99727">
        <ele>186.4</ele>
        <time>2023-03-26T11:24:22Z</time>
      </trkpt>
      <trkpt lat="49.18765" lon="1.99727">
        <ele>186.1</ele>
        <time>2023-03-26T11:24:27Z</time>
      </trkpt>
      <trkpt lat="49.18758" lon="1.99726">
        <ele>185.5</ele>
        <time>2023-03-26T11:24:32Z</time>
      </trkpt>
      <trkpt lat="49.18752" lon="1.99726">
        <ele>184.6</ele>
        <time>2023-03-26T11:24:38Z</time>
      </trkpt>
      <trkpt lat="49.18747" lon="1.99728">
        <ele>183.7</ele>
        <time>2023-03-26T11:24:43Z</time>
      </trkpt>
      <trkpt lat="49.18744" lon="1.99726">
        <ele>182.7</ele>
        <time>2023-03-26T11:24:48Z</time>
      </trkpt>
      <trkpt lat="49.18739" lon="1.99727">
        <ele>181.6</ele>
        <time>2023-03-26T11:24:54Z</time>
      </trkpt>
      <trkpt lat="49.18735" lon="1.99725">
        <ele>180.6</ele>
        <time>2023-03-26T11:24:59Z</time>
      </trkpt>
      <trkpt lat="49.18732" lon="1.99724">
        <ele>179.9</ele>
        <time>2023-03-26T11:25:05Z</time>
      </trkpt>
      <trkpt lat="49.1873" lon="1.99725">
        <ele>179.6</ele>
        <time>2023-03-26T11:25:11Z</time>
      </trkpt>
      <trkpt lat="49.18729" lon="1.99726">
        <ele>179.3</ele>
        <time>2023-03-26T11:25:17Z</time>
      </trkpt>
      <trkpt lat="49.18729" lon="1.99727">
        <ele>179.3</ele>
        <time>2023-03-26T11:25:22Z</time>
      </trkpt>
      <trkpt lat="49.18729" lon="1.99729">
        <ele>179.3</ele>
        <time>2023-03-26T11:25:28Z</time>
      </trkpt>
      <trkpt lat="49.18728" lon="1.9973">
        <ele>179.3</ele>
        <time>2023-03-26T11:25:34Z</time>
      </trkpt>
      <trkpt lat="49.18725" lon="1.99729">
        <ele>179.2</ele>
        <time>2023-03-26T11:25:39Z</time>
      </trkpt>
      <trkpt lat="49.18719" lon="1.99728">
        <ele>178.8</ele>
        <time>2023-03-26T11:25:45Z</time>
      </trkpt>
      <trkpt lat="49.18716" lon="1.99728">
        <ele>178.6</ele>
        <time>2023-03-26T11:25:50Z</time>
      </trkpt>
      <trkpt lat="49.18708" lon="1.99732">
        <ele>178.3</ele>
        <time>2023-03-26T11:25:56Z</time>
      </trkpt>
      <trkpt lat="49.18698" lon="1.99739">
        <ele>178</ele>
        <time>2023-03-26T11:26:02Z</time>
      </trkpt>
      <trkpt lat="49.18693" lon="1.99738">
        <ele>177.9</ele>
        <time>2023-03-26T11:26:07Z</time>
      </trkpt>
      <trkpt lat="49.18692" lon="1.99731">
        <ele>177.9</ele>
        <time>2023-03-26T11:26:13Z</time>
      </trkpt>
      <trkpt lat="49.18692" lon="1.99723">
        <ele>177.9</ele>
        <time>2023-03-26T11:26:18Z</time>
      </trkpt>
      <trkpt lat="49.18692" lon="1.99718">
        <ele>177.8</ele>
        <time>2023-03-26T11:26:24Z</time>
      </trkpt>
      <trkpt lat="49.18693" lon="1.99714">
        <ele>177.7</ele>
        <time>2023-03-26T11:26:29Z</time>
      </trkpt>
      <trkpt lat="49.18695" lon="1.99706">
        <ele>177.7</ele>
        <time>2023-03-26T11:26:35Z</time>
      </trkpt>
      <trkpt lat="49.18696" lon="1.99694">
        <ele>177.8</ele>
        <time>2023-03-26T11:26:41Z</time>
      </trkpt>
      <trkpt lat="49.18698" lon="1.99684">
        <ele>177.8</ele>
        <time>2023-03-26T11:26:46Z</time>
      </trkpt>
      <trkpt lat="49.187" lon="1.99675">
        <ele>177.8</ele>
        <time>2023-03-26T11:26:51Z</time>
      </trkpt>
      <trkpt lat="49.18702" lon="1.99665">
        <ele>177.8</ele>
        <time>2023-03-26T11:26:56Z</time>
      </trkpt>
      <trkpt lat="49.18703" lon="1.99654">
        <ele>177.7</ele>
        <time>2023-03-26T11:27:02Z</time>
      </trkpt>
      <trkpt lat="49.18704" lon="1.99643">
        <ele>177.7</ele>
        <time>2023-03-26T11:27:07Z</time>
      </trkpt>
      <trkpt lat="49.18705" lon="1.99634">
        <ele>177.8</ele>
        <time>2023-03-26T11:27:12Z</time>
      </trkpt>
      <trkpt lat="49.18707" lon="1.99623">
        <ele>177.7</ele>
        <time>2023-03-26T11:27:18Z</time>
      </trkpt>
      <trkpt lat="49.18709" lon="1.99614">
        <ele>177.6</ele>
        <time>2023-03-26T11:27:23Z</time>
      </trkpt>
      <trkpt lat="49.18711" lon="1.99603">
        <ele>177.4</ele>
        <time>2023-03-26T11:27:29Z</time>
      </trkpt>
      <trkpt lat="49.18714" lon="1.99592">
        <ele>177.2</ele>
        <time>2023-03-26T11:27:35Z</time>
      </trkpt>
      <trkpt lat="49.18718" lon="1.99582">
        <ele>177.1</ele>
        <time>2023-03-26T11:27:41Z</time>
      </trkpt>
      <trkpt lat="49.1872" lon="1.99572">
        <ele>177</ele>
        <time>2023-03-26T11:27:47Z</time>
      </trkpt>
      <trkpt lat="49.18722" lon="1.99563">
        <ele>176.9</ele>
        <time>2023-03-26T11:27:52Z</time>
      </trkpt>
      <trkpt lat="49.18725" lon="1.99552">
        <ele>176.8</ele>
        <time>2023-03-26T11:27:58Z</time>
      </trkpt>
      <trkpt lat="49.18726" lon="1.99544">
        <ele>176.6</ele>
        <time>2023-03-26T11:28:03Z</time>
      </trkpt>
      <trkpt lat="49.18729" lon="1.99535">
        <ele>176.5</ele>
        <time>2023-03-26T11:28:08Z</time>
      </trkpt>
      <trkpt lat="49.18732" lon="1.99525">
        <ele>176.4</ele>
        <time>2023-03-26T11:28:14Z</time>
      </trkpt>
      <trkpt lat="49.18736" lon="1.99515">
        <ele>176.5</ele>
        <time>2023-03-26T11:28:20Z</time>
      </trkpt>
      <trkpt lat="49.18738" lon="1.99505">
        <ele>176.6</ele>
        <time>2023-03-26T11:28:26Z</time>
      </trkpt>
      <trkpt lat="49.18738" lon="1.99495">
        <ele>176.8</ele>
        <time>2023-03-26T11:28:31Z</time>
      </trkpt>
      <trkpt lat="49.18741" lon="1.99485">
        <ele>176.7</ele>
        <time>2023-03-26T11:28:37Z</time>
      </trkpt>
      <trkpt lat="49.18743" lon="1.99474">
        <ele>176.6</ele>
        <time>2023-03-26T11:28:43Z</time>
      </trkpt>
      <trkpt lat="49.18746" lon="1.99465">
        <ele>176.6</ele>
        <time>2023-03-26T11:28:48Z</time>
      </trkpt>
      <trkpt lat="49.18746" lon="1.99455">
        <ele>176.6</ele>
        <time>2023-03-26T11:28:53Z</time>
      </trkpt>
      <trkpt lat="49.18749" lon="1.99446">
        <ele>176.7</ele>
        <time>2023-03-26T11:28:59Z</time>
      </trkpt>
      <trkpt lat="49.18747" lon="1.99434">
        <ele>176.8</ele>
        <time>2023-03-26T11:29:05Z</time>
      </trkpt>
      <trkpt lat="49.18746" lon="1.99423">
        <ele>177.2</ele>
        <time>2023-03-26T11:29:11Z</time>
      </trkpt>
      <trkpt lat="49.18749" lon="1.99413">
        <ele>177.6</ele>
        <time>2023-03-26T11:29:17Z</time>
      </trkpt>
      <trkpt lat="49.1875" lon="1.99404">
        <ele>178</ele>
        <time>2023-03-26T11:29:22Z</time>
      </trkpt>
      <trkpt lat="49.18748" lon="1.99397">
        <ele>178.4</ele>
        <time>2023-03-26T11:29:27Z</time>
      </trkpt>
      <trkpt lat="49.18746" lon="1.99388">
        <ele>179</ele>
        <time>2023-03-26T11:29:33Z</time>
      </trkpt>
      <trkpt lat="49.18743" lon="1.99379">
        <ele>179.8</ele>
        <time>2023-03-26T11:29:38Z</time>
      </trkpt>
      <trkpt lat="49.18738" lon="1.99375">
        <ele>180.5</ele>
        <time>2023-03-26T11:29:43Z</time>
      </trkpt>
      <trkpt lat="49.18732" lon="1.99368">
        <ele>181.2</ele>
        <time>2023-03-26T11:29:49Z</time>
      </trkpt>
      <trkpt lat="49.18727" lon="1.99362">
        <ele>181.7</ele>
        <time>2023-03-26T11:29:54Z</time>
      </trkpt>
      <trkpt lat="49.18722" lon="1.9936">
        <ele>182</ele>
        <time>2023-03-26T11:29:59Z</time>
      </trkpt>
      <trkpt lat="49.18717" lon="1.99354">
        <ele>182.2</ele>
        <time>2023-03-26T11:30:04Z</time>
      </trkpt>
      <trkpt lat="49.18709" lon="1.99349">
        <ele>182.2</ele>
        <time>2023-03-26T11:30:10Z</time>
      </trkpt>
      <trkpt lat="49.18703" lon="1.99345">
        <ele>182.3</ele>
        <time>2023-03-26T11:30:15Z</time>
      </trkpt>
      <trkpt lat="49.18698" lon="1.99339">
        <ele>182.5</ele>
        <time>2023-03-26T11:30:21Z</time>
      </trkpt>
      <trkpt lat="49.18693" lon="1.99332">
        <ele>182.9</ele>
        <time>2023-03-26T11:30:27Z</time>
      </trkpt>
      <trkpt lat="49.18688" lon="1.9933">
        <ele>183.1</ele>
        <time>2023-03-26T11:30:32Z</time>
      </trkpt>
      <trkpt lat="49.18682" lon="1.99328">
        <ele>183.3</ele>
        <time>2023-03-26T11:30:38Z</time>
      </trkpt>
      <trkpt lat="49.18676" lon="1.99324">
        <ele>183.4</ele>
        <time>2023-03-26T11:30:43Z</time>
      </trkpt>
      <trkpt lat="49.18666" lon="1.99319">
        <ele>183.6</ele>
        <time>2023-03-26T11:30:48Z</time>
      </trkpt>
      <trkpt lat="49.18658" lon="1.99312">
        <ele>184.1</ele>
        <time>2023-03-26T11:30:53Z</time>
      </trkpt>
      <trkpt lat="49.18653" lon="1.99308">
        <ele>184.8</ele>
        <time>2023-03-26T11:30:59Z</time>
      </trkpt>
      <trkpt lat="49.18647" lon="1.99303">
        <ele>185.2</ele>
        <time>2023-03-26T11:31:05Z</time>
      </trkpt>
      <trkpt lat="49.18642" lon="1.99303">
        <ele>185.2</ele>
        <time>2023-03-26T11:31:10Z</time>
      </trkpt>
      <trkpt lat="49.18635" lon="1.99303">
        <ele>184.9</ele>
        <time>2023-03-26T11:31:16Z</time>
      </trkpt>
      <trkpt lat="49.18631" lon="1.99301">
        <ele>184.7</ele>
        <time>2023-03-26T11:31:21Z</time>
      </trkpt>
      <trkpt lat="49.18624" lon="1.99297">
        <ele>184.6</ele>
        <time>2023-03-26T11:31:27Z</time>
      </trkpt>
      <trkpt lat="49.18619" lon="1.99293">
        <ele>184.6</ele>
        <time>2023-03-26T11:31:32Z</time>
      </trkpt>
      <trkpt lat="49.18613" lon="1.99291">
        <ele>184.5</ele>
        <time>2023-03-26T11:31:37Z</time>
      </trkpt>
      <trkpt lat="49.18606" lon="1.9929">
        <ele>184.5</ele>
        <time>2023-03-26T11:31:43Z</time>
      </trkpt>
      <trkpt lat="49.18599" lon="1.99293">
        <ele>184.1</ele>
        <time>2023-03-26T11:31:48Z</time>
      </trkpt>
      <trkpt lat="49.18594" lon="1.99293">
        <ele>183.8</ele>
        <time>2023-03-26T11:31:53Z</time>
      </trkpt>
      <trkpt lat="49.18588" lon="1.99293">
        <ele>183.3</ele>
        <time>2023-03-26T11:31:58Z</time>
      </trkpt>
      <trkpt lat="49.18581" lon="1.9929">
        <ele>182.6</ele>
        <time>2023-03-26T11:32:04Z</time>
      </trkpt>
      <trkpt lat="49.18576" lon="1.99289">
        <ele>182</ele>
        <time>2023-03-26T11:32:09Z</time>
      </trkpt>
      <trkpt lat="49.1857" lon="1.99291">
        <ele>180.9</ele>
        <time>2023-03-26T11:32:15Z</time>
      </trkpt>
      <trkpt lat="49.18565" lon="1.99289">
        <ele>180.2</ele>
        <time>2023-03-26T11:32:21Z</time>
      </trkpt>
      <trkpt lat="49.18556" lon="1.99286">
        <ele>179.6</ele>
        <time>2023-03-26T11:32:27Z</time>
      </trkpt>
      <trkpt lat="49.1855" lon="1.99282">
        <ele>179.1</ele>
        <time>2023-03-26T11:32:33Z</time>
      </trkpt>
      <trkpt lat="49.18544" lon="1.99279">
        <ele>178.6</ele>
        <time>2023-03-26T11:32:38Z</time>
      </trkpt>
      <trkpt lat="49.1854" lon="1.99275">
        <ele>178.2</ele>
        <time>2023-03-26T11:32:43Z</time>
      </trkpt>
      <trkpt lat="49.18534" lon="1.9927">
        <ele>178.2</ele>
        <time>2023-03-26T11:32:49Z</time>
      </trkpt>
      <trkpt lat="49.18529" lon="1.99268">
        <ele>178.1</ele>
        <time>2023-03-26T11:32:55Z</time>
      </trkpt>
      <trkpt lat="49.18519" lon="1.99261">
        <ele>177.7</ele>
        <time>2023-03-26T11:33:01Z</time>
      </trkpt>
      <trkpt lat="49.18514" lon="1.99252">
        <ele>177</ele>
        <time>2023-03-26T11:33:06Z</time>
      </trkpt>
      <trkpt lat="49.18506" lon="1.99244">
        <ele>175.7</ele>
        <time>2023-03-26T11:33:12Z</time>
      </trkpt>
      <trkpt lat="49.18498" lon="1.99242">
        <ele>174.3</ele>
        <time>2023-03-26T11:33:18Z</time>
      </trkpt>
      <trkpt lat="49.18491" lon="1.99241">
        <ele>173.2</ele>
        <time>2023-03-26T11:33:23Z</time>
      </trkpt>
      <trkpt lat="49.18486" lon="1.99242">
        <ele>172.2</ele>
        <time>2023-03-26T11:33:28Z</time>
      </trkpt>
      <trkpt lat="49.18477" lon="1.99247">
        <ele>171.4</ele>
        <time>2023-03-26T11:33:34Z</time>
      </trkpt>
      <trkpt lat="49.18469" lon="1.99251">
        <ele>170.9</ele>
        <time>2023-03-26T11:33:39Z</time>
      </trkpt>
      <trkpt lat="49.18463" lon="1.99255">
        <ele>170.4</ele>
        <time>2023-03-26T11:33:45Z</time>
      </trkpt>
      <trkpt lat="49.18459" lon="1.99262">
        <ele>170.1</ele>
        <time>2023-03-26T11:33:51Z</time>
      </trkpt>
      <trkpt lat="49.18453" lon="1.99269">
        <ele>169.9</ele>
        <time>2023-03-26T11:33:57Z</time>
      </trkpt>
      <trkpt lat="49.18447" lon="1.99276">
        <ele>169.7</ele>
        <time>2023-03-26T11:34:03Z</time>
      </trkpt>
      <trkpt lat="49.1844" lon="1.99283">
        <ele>169.4</ele>
        <time>2023-03-26T11:34:09Z</time>
      </trkpt>
      <trkpt lat="49.18433" lon="1.9929">
        <ele>168.9</ele>
        <time>2023-03-26T11:34:15Z</time>
      </trkpt>
      <trkpt lat="49.18427" lon="1.99297">
        <ele>168.4</ele>
        <time>2023-03-26T11:34:20Z</time>
      </trkpt>
      <trkpt lat="49.18422" lon="1.99301">
        <ele>167.9</ele>
        <time>2023-03-26T11:34:25Z</time>
      </trkpt>
      <trkpt lat="49.18414" lon="1.99309">
        <ele>167.4</ele>
        <time>2023-03-26T11:34:31Z</time>
      </trkpt>
      <trkpt lat="49.18408" lon="1.99315">
        <ele>166.8</ele>
        <time>2023-03-26T11:34:37Z</time>
      </trkpt>
      <trkpt lat="49.18403" lon="1.99323">
        <ele>166.5</ele>
        <time>2023-03-26T11:34:43Z</time>
      </trkpt>
      <trkpt lat="49.18397" lon="1.99328">
        <ele>166.1</ele>
        <time>2023-03-26T11:34:48Z</time>
      </trkpt>
      <trkpt lat="49.18393" lon="1.99333">
        <ele>165.8</ele>
        <time>2023-03-26T11:34:53Z</time>
      </trkpt>
      <trkpt lat="49.18386" lon="1.99344">
        <ele>165.7</ele>
        <time>2023-03-26T11:34:59Z</time>
      </trkpt>
      <trkpt lat="49.18383" lon="1.9935">
        <ele>165.6</ele>
        <time>2023-03-26T11:35:04Z</time>
      </trkpt>
      <trkpt lat="49.18376" lon="1.99356">
        <ele>165.3</ele>
        <time>2023-03-26T11:35:10Z</time>
      </trkpt>
      <trkpt lat="49.18371" lon="1.99362">
        <ele>165.2</ele>
        <time>2023-03-26T11:35:15Z</time>
      </trkpt>
      <trkpt lat="49.18365" lon="1.99369">
        <ele>164.9</ele>
        <time>2023-03-26T11:35:21Z</time>
      </trkpt>
      <trkpt lat="49.18358" lon="1.99376">
        <ele>164.5</ele>
        <time>2023-03-26T11:35:27Z</time>
      </trkpt>
      <trkpt lat="49.18351" lon="1.99381">
        <ele>164.2</ele>
        <time>2023-03-26T11:35:32Z</time>
      </trkpt>
      <trkpt lat="49.18346" lon="1.99382">
        <ele>164</ele>
        <time>2023-03-26T11:35:37Z</time>
      </trkpt>
      <trkpt lat="49.18339" lon="1.99376">
        <ele>164.1</ele>
        <time>2023-03-26T11:35:43Z</time>
      </trkpt>
      <trkpt lat="49.18334" lon="1.9937">
        <ele>164.1</ele>
        <time>2023-03-26T11:35:48Z</time>
      </trkpt>
      <trkpt lat="49.1833" lon="1.99362">
        <ele>164.4</ele>
        <time>2023-03-26T11:35:53Z</time>
      </trkpt>
      <trkpt lat="49.18328" lon="1.99355">
        <ele>164.7</ele>
        <time>2023-03-26T11:35:58Z</time>
      </trkpt>
      <trkpt lat="49.18324" lon="1.99347">
        <ele>165</ele>
        <time>2023-03-26T11:36:04Z</time>
      </trkpt>
      <trkpt lat="49.18319" lon="1.99337">
        <ele>165</ele>
        <time>2023-03-26T11:36:10Z</time>
      </trkpt>
      <trkpt lat="49.18313" lon="1.99327">
        <ele>165</ele>
        <time>2023-03-26T11:36:16Z</time>
      </trkpt>
      <trkpt lat="49.18308" lon="1.99316">
        <ele>165.2</ele>
        <time>2023-03-26T11:36:21Z</time>
      </trkpt>
      <trkpt lat="49.18306" lon="1.99307">
        <ele>165.4</ele>
        <time>2023-03-26T11:36:27Z</time>
      </trkpt>
      <trkpt lat="49.183" lon="1.99296">
        <ele>165.6</ele>
        <time>2023-03-26T11:36:33Z</time>
      </trkpt>
      <trkpt lat="49.18298" lon="1.99291">
        <ele>165.7</ele>
        <time>2023-03-26T11:36:38Z</time>
      </trkpt>
      <trkpt lat="49.18294" lon="1.99279">
        <ele>165.6</ele>
        <time>2023-03-26T11:36:44Z</time>
      </trkpt>
      <trkpt lat="49.18292" lon="1.9927">
        <ele>165.5</ele>
        <time>2023-03-26T11:36:50Z</time>
      </trkpt>
      <trkpt lat="49.18287" lon="1.99259">
        <ele>165.6</ele>
        <time>2023-03-26T11:36:55Z</time>
      </trkpt>
      <trkpt lat="49.18284" lon="1.99251">
        <ele>165.7</ele>
        <time>2023-03-26T11:37:00Z</time>
      </trkpt>
      <trkpt lat="49.18279" lon="1.99242">
        <ele>165.7</ele>
        <time>2023-03-26T11:37:06Z</time>
      </trkpt>
      <trkpt lat="49.18276" lon="1.99233">
        <ele>165.7</ele>
        <time>2023-03-26T11:37:11Z</time>
      </trkpt>
      <trkpt lat="49.18272" lon="1.99225">
        <ele>165.4</ele>
        <time>2023-03-26T11:37:17Z</time>
      </trkpt>
      <trkpt lat="49.18266" lon="1.99213">
        <ele>165</ele>
        <time>2023-03-26T11:37:23Z</time>
      </trkpt>
      <trkpt lat="49.18262" lon="1.99205">
        <ele>164.7</ele>
        <time>2023-03-26T11:37:28Z</time>
      </trkpt>
      <trkpt lat="49.18257" lon="1.99196">
        <ele>164.5</ele>
        <time>2023-03-26T11:37:33Z</time>
      </trkpt>
      <trkpt lat="49.18252" lon="1.99185">
        <ele>164.2</ele>
        <time>2023-03-26T11:37:39Z</time>
      </trkpt>
      <trkpt lat="49.18249" lon="1.99178">
        <ele>163.9</ele>
        <time>2023-03-26T11:37:44Z</time>
      </trkpt>
      <trkpt lat="49.18245" lon="1.99167">
        <ele>163.6</ele>
        <time>2023-03-26T11:37:49Z</time>
      </trkpt>
      <trkpt lat="49.18242" lon="1.9916">
        <ele>163.4</ele>
        <time>2023-03-26T11:37:54Z</time>
      </trkpt>
      <trkpt lat="49.18238" lon="1.99153">
        <ele>163.3</ele>
        <time>2023-03-26T11:37:59Z</time>
      </trkpt>
      <trkpt lat="49.18233" lon="1.99141">
        <ele>163.2</ele>
        <time>2023-03-26T11:38:05Z</time>
      </trkpt>
      <trkpt lat="49.18229" lon="1.99132">
        <ele>163.2</ele>
        <time>2023-03-26T11:38:11Z</time>
      </trkpt>
      <trkpt lat="49.18225" lon="1.99121">
        <ele>163.2</ele>
        <time>2023-03-26T11:38:17Z</time>
      </trkpt>
      <trkpt lat="49.18219" lon="1.99113">
        <ele>163.1</ele>
        <time>2023-03-26T11:38:23Z</time>
      </trkpt>
      <trkpt lat="49.18214" lon="1.99105">
        <ele>162.9</ele>
        <time>2023-03-26T11:38:28Z</time>
      </trkpt>
      <trkpt lat="49.18209" lon="1.99098">
        <ele>162.8</ele>
        <time>2023-03-26T11:38:33Z</time>
      </trkpt>
      <trkpt lat="49.18206" lon="1.99088">
        <ele>162.6</ele>
        <time>2023-03-26T11:38:39Z</time>
      </trkpt>
      <trkpt lat="49.18204" lon="1.99083">
        <ele>162.6</ele>
        <time>2023-03-26T11:38:44Z</time>
      </trkpt>
      <trkpt lat="49.182" lon="1.99073">
        <ele>162.8</ele>
        <time>2023-03-26T11:38:50Z</time>
      </trkpt>
      <trkpt lat="49.18198" lon="1.99063">
        <ele>163.1</ele>
        <time>2023-03-26T11:38:56Z</time>
      </trkpt>
      <trkpt lat="49.18191" lon="1.99053">
        <ele>163.3</ele>
        <time>2023-03-26T11:39:02Z</time>
      </trkpt>
      <trkpt lat="49.18187" lon="1.99044">
        <ele>163.5</ele>
        <time>2023-03-26T11:39:07Z</time>
      </trkpt>
      <trkpt lat="49.18184" lon="1.99035">
        <ele>163.7</ele>
        <time>2023-03-26T11:39:13Z</time>
      </trkpt>
      <trkpt lat="49.18179" lon="1.99025">
        <ele>163.9</ele>
        <time>2023-03-26T11:39:19Z</time>
      </trkpt>
      <trkpt lat="49.18176" lon="1.99016">
        <ele>164.1</ele>
        <time>2023-03-26T11:39:25Z</time>
      </trkpt>
      <trkpt lat="49.18173" lon="1.99007">
        <ele>164</ele>
        <time>2023-03-26T11:39:31Z</time>
      </trkpt>
      <trkpt lat="49.18169" lon="1.98999">
        <ele>164.1</ele>
        <time>2023-03-26T11:39:36Z</time>
      </trkpt>
      <trkpt lat="49.18165" lon="1.98991">
        <ele>164.2</ele>
        <time>2023-03-26T11:39:41Z</time>
      </trkpt>
      <trkpt lat="49.18161" lon="1.98984">
        <ele>164.3</ele>
        <time>2023-03-26T11:39:46Z</time>
      </trkpt>
      <trkpt lat="49.18156" lon="1.98979">
        <ele>164.2</ele>
        <time>2023-03-26T11:39:52Z</time>
      </trkpt>
      <trkpt lat="49.18157" lon="1.98977">
        <ele>164.1</ele>
        <time>2023-03-26T11:39:58Z</time>
      </trkpt>
      <trkpt lat="49.18157" lon="1.98977">
        <ele>164.1</ele>
        <time>2023-03-26T11:40:04Z</time>
      </trkpt>
      <trkpt lat="49.18157" lon="1.98978">
        <ele>164.1</ele>
        <time>2023-03-26T11:40:09Z</time>
      </trkpt>
      <trkpt lat="49.18157" lon="1.98978">
        <ele>164.1</ele>
        <time>2023-03-26T11:40:15Z</time>
      </trkpt>
      <trkpt lat="49.18157" lon="1.98977">
        <ele>163.9</ele>
        <time>2023-03-26T11:40:20Z</time>
      </trkpt>
      <trkpt lat="49.18155" lon="1.9897">
        <ele>163.7</ele>
        <time>2023-03-26T11:40:26Z</time>
      </trkpt>
      <trkpt lat="49.18153" lon="1.98962">
        <ele>163.7</ele>
        <time>2023-03-26T11:40:31Z</time>
      </trkpt>
      <trkpt lat="49.1815" lon="1.98951">
        <ele>163.7</ele>
        <time>2023-03-26T11:40:37Z</time>
      </trkpt>
      <trkpt lat="49.18146" lon="1.98945">
        <ele>163.7</ele>
        <time>2023-03-26T11:40:42Z</time>
      </trkpt>
      <trkpt lat="49.18142" lon="1.98937">
        <ele>163.8</ele>
        <time>2023-03-26T11:40:47Z</time>
      </trkpt>
      <trkpt lat="49.18135" lon="1.9893">
        <ele>164.1</ele>
        <time>2023-03-26T11:40:53Z</time>
      </trkpt>
      <trkpt lat="49.18129" lon="1.9892">
        <ele>164.6</ele>
        <time>2023-03-26T11:40:59Z</time>
      </trkpt>
      <trkpt lat="49.18124" lon="1.98911">
        <ele>165</ele>
        <time>2023-03-26T11:41:04Z</time>
      </trkpt>
      <trkpt lat="49.1812" lon="1.98904">
        <ele>165.3</ele>
        <time>2023-03-26T11:41:10Z</time>
      </trkpt>
      <trkpt lat="49.18113" lon="1.98896">
        <ele>165.7</ele>
        <time>2023-03-26T11:41:16Z</time>
      </trkpt>
      <trkpt lat="49.18106" lon="1.9889">
        <ele>166.1</ele>
        <time>2023-03-26T11:41:22Z</time>
      </trkpt>
      <trkpt lat="49.18101" lon="1.98884">
        <ele>166.5</ele>
        <time>2023-03-26T11:41:27Z</time>
      </trkpt>
      <trkpt lat="49.18097" lon="1.98877">
        <ele>167.2</ele>
        <time>2023-03-26T11:41:32Z</time>
      </trkpt>
      <trkpt lat="49.1809" lon="1.9887">
        <ele>167.9</ele>
        <time>2023-03-26T11:41:38Z</time>
      </trkpt>
      <trkpt lat="49.18085" lon="1.98861">
        <ele>168.6</ele>
        <time>2023-03-26T11:41:44Z</time>
      </trkpt>
      <trkpt lat="49.18078" lon="1.98853">
        <ele>169.3</ele>
        <time>2023-03-26T11:41:50Z</time>
      </trkpt>
      <trkpt lat="49.18071" lon="1.98846">
        <ele>170.1</ele>
        <time>2023-03-26T11:41:56Z</time>
      </trkpt>
      <trkpt lat="49.18063" lon="1.9884">
        <ele>170.8</ele>
        <time>2023-03-26T11:42:02Z</time>
      </trkpt>
      <trkpt lat="49.18058" lon="1.98839">
        <ele>171.2</ele>
        <time>2023-03-26T11:42:07Z</time>
      </trkpt>
      <trkpt lat="49.18051" lon="1.9884">
        <ele>171.7</ele>
        <time>2023-03-26T11:42:13Z</time>
      </trkpt>
      <trkpt lat="49.18046" lon="1.98839">
        <ele>172</ele>
        <time>2023-03-26T11:42:19Z</time>
      </trkpt>
      <trkpt lat="49.1804" lon="1.98836">
        <ele>172.1</ele>
        <time>2023-03-26T11:42:24Z</time>
      </trkpt>
      <trkpt lat="49.18033" lon="1.98831">
        <ele>172.6</ele>
        <time>2023-03-26T11:42:30Z</time>
      </trkpt>
      <trkpt lat="49.18024" lon="1.98822">
        <ele>173</ele>
        <time>2023-03-26T11:42:36Z</time>
      </trkpt>
      <trkpt lat="49.1802" lon="1.98819">
        <ele>173.2</ele>
        <time>2023-03-26T11:42:41Z</time>
      </trkpt>
      <trkpt lat="49.18015" lon="1.98814">
        <ele>173.4</ele>
        <time>2023-03-26T11:42:46Z</time>
      </trkpt>
      <trkpt lat="49.18013" lon="1.98811">
        <ele>173.6</ele>
        <time>2023-03-26T11:42:51Z</time>
      </trkpt>
      <trkpt lat="49.1801" lon="1.98807">
        <ele>173.7</ele>
        <time>2023-03-26T11:42:56Z</time>
      </trkpt>
      <trkpt lat="49.18005" lon="1.98797">
        <ele>173.6</ele>
        <time>2023-03-26T11:43:02Z</time>
      </trkpt>
      <trkpt lat="49.18" lon="1.98791">
        <ele>173.5</ele>
        <time>2023-03-26T11:43:08Z</time>
      </trkpt>
      <trkpt lat="49.17995" lon="1.98784">
        <ele>173.5</ele>
        <time>2023-03-26T11:43:13Z</time>
      </trkpt>
      <trkpt lat="49.1799" lon="1.98777">
        <ele>173.4</ele>
        <time>2023-03-26T11:43:18Z</time>
      </trkpt>
      <trkpt lat="49.17988" lon="1.98771">
        <ele>173.1</ele>
        <time>2023-03-26T11:43:24Z</time>
      </trkpt>
      <trkpt lat="49.17985" lon="1.9876">
        <ele>173.2</ele>
        <time>2023-03-26T11:43:30Z</time>
      </trkpt>
      <trkpt lat="49.17978" lon="1.98754">
        <ele>173.3</ele>
        <time>2023-03-26T11:43:36Z</time>
      </trkpt>
      <trkpt lat="49.17973" lon="1.98747">
        <ele>173.3</ele>
        <time>2023-03-26T11:43:41Z</time>
      </trkpt>
      <trkpt lat="49.17967" lon="1.9874">
        <ele>173</ele>
        <time>2023-03-26T11:43:47Z</time>
      </trkpt>
      <trkpt lat="49.17959" lon="1.98729">
        <ele>172.9</ele>
        <time>2023-03-26T11:43:53Z</time>
      </trkpt>
      <trkpt lat="49.17956" lon="1.98722">
        <ele>172.4</ele>
        <time>2023-03-26T11:43:59Z</time>
      </trkpt>
      <trkpt lat="49.17952" lon="1.98716">
        <ele>171.7</ele>
        <time>2023-03-26T11:44:04Z</time>
      </trkpt>
      <trkpt lat="49.17945" lon="1.98705">
        <ele>171</ele>
        <time>2023-03-26T11:44:10Z</time>
      </trkpt>
      <trkpt lat="49.17939" lon="1.98697">
        <ele>170.7</ele>
        <time>2023-03-26T11:44:16Z</time>
      </trkpt>
      <trkpt lat="49.17934" lon="1.98689">
        <ele>170.1</ele>
        <time>2023-03-26T11:44:22Z</time>
      </trkpt>
      <trkpt lat="49.17927" lon="1.98686">
        <ele>169.4</ele>
        <time>2023-03-26T11:44:28Z</time>
      </trkpt>
      <trkpt lat="49.1792" lon="1.98683">
        <ele>168.6</ele>
        <time>2023-03-26T11:44:33Z</time>
      </trkpt>
      <trkpt lat="49.17914" lon="1.98678">
        <ele>167.7</ele>
        <time>2023-03-26T11:44:38Z</time>
      </trkpt>
      <trkpt lat="49.17912" lon="1.98671">
        <ele>166.8</ele>
        <time>2023-03-26T11:44:43Z</time>
      </trkpt>
      <trkpt lat="49.1791" lon="1.98662">
        <ele>165.9</ele>
        <time>2023-03-26T11:44:48Z</time>
      </trkpt>
      <trkpt lat="49.17908" lon="1.98652">
        <ele>164.8</ele>
        <time>2023-03-26T11:44:54Z</time>
      </trkpt>
      <trkpt lat="49.17904" lon="1.98645">
        <ele>164</ele>
        <time>2023-03-26T11:44:59Z</time>
      </trkpt>
      <trkpt lat="49.17895" lon="1.98635">
        <ele>163.2</ele>
        <time>2023-03-26T11:45:05Z</time>
      </trkpt>
      <trkpt lat="49.17892" lon="1.98629">
        <ele>162.5</ele>
        <time>2023-03-26T11:45:10Z</time>
      </trkpt>
      <trkpt lat="49.17887" lon="1.98621">
        <ele>161.8</ele>
        <time>2023-03-26T11:45:16Z</time>
      </trkpt>
      <trkpt lat="49.17882" lon="1.98613">
        <ele>161.4</ele>
        <time>2023-03-26T11:45:22Z</time>
      </trkpt>
      <trkpt lat="49.17877" lon="1.98604">
        <ele>161</ele>
        <time>2023-03-26T11:45:28Z</time>
      </trkpt>
      <trkpt lat="49.17872" lon="1.98598">
        <ele>160.7</ele>
        <time>2023-03-26T11:45:33Z</time>
      </trkpt>
      <trkpt lat="49.17866" lon="1.98589">
        <ele>160.3</ele>
        <time>2023-03-26T11:45:39Z</time>
      </trkpt>
      <trkpt lat="49.17862" lon="1.98583">
        <ele>160.1</ele>
        <time>2023-03-26T11:45:44Z</time>
      </trkpt>
      <trkpt lat="49.17856" lon="1.98576">
        <ele>160</ele>
        <time>2023-03-26T11:45:50Z</time>
      </trkpt>
      <trkpt lat="49.17851" lon="1.98569">
        <ele>160.1</ele>
        <time>2023-03-26T11:45:56Z</time>
      </trkpt>
      <trkpt lat="49.17846" lon="1.98562">
        <ele>160.2</ele>
        <time>2023-03-26T11:46:02Z</time>
      </trkpt>
      <trkpt lat="49.17841" lon="1.98556">
        <ele>160.4</ele>
        <time>2023-03-26T11:46:07Z</time>
      </trkpt>
      <trkpt lat="49.17836" lon="1.98551">
        <ele>160.6</ele>
        <time>2023-03-26T11:46:12Z</time>
      </trkpt>
      <trkpt lat="49.1783" lon="1.98543">
        <ele>161</ele>
        <time>2023-03-26T11:46:18Z</time>
      </trkpt>
      <trkpt lat="49.17826" lon="1.98537">
        <ele>161.3</ele>
        <time>2023-03-26T11:46:23Z</time>
      </trkpt>
      <trkpt lat="49.17822" lon="1.98531">
        <ele>161.7</ele>
        <time>2023-03-26T11:46:28Z</time>
      </trkpt>
      <trkpt lat="49.17817" lon="1.98526">
        <ele>162.1</ele>
        <time>2023-03-26T11:46:34Z</time>
      </trkpt>
      <trkpt lat="49.17812" lon="1.98523">
        <ele>162.5</ele>
        <time>2023-03-26T11:46:40Z</time>
      </trkpt>
      <trkpt lat="49.17807" lon="1.98517">
        <ele>162.8</ele>
        <time>2023-03-26T11:46:45Z</time>
      </trkpt>
      <trkpt lat="49.17803" lon="1.9851">
        <ele>163.2</ele>
        <time>2023-03-26T11:46:50Z</time>
      </trkpt>
      <trkpt lat="49.17797" lon="1.98502">
        <ele>163.5</ele>
        <time>2023-03-26T11:46:56Z</time>
      </trkpt>
      <trkpt lat="49.17792" lon="1.98495">
        <ele>164</ele>
        <time>2023-03-26T11:47:02Z</time>
      </trkpt>
      <trkpt lat="49.17788" lon="1.98489">
        <ele>164.4</ele>
        <time>2023-03-26T11:47:07Z</time>
      </trkpt>
      <trkpt lat="49.17784" lon="1.98483">
        <ele>165</ele>
        <time>2023-03-26T11:47:13Z</time>
      </trkpt>
      <trkpt lat="49.1778" lon="1.98478">
        <ele>165.5</ele>
        <time>2023-03-26T11:47:18Z</time>
      </trkpt>
      <trkpt lat="49.17776" lon="1.98472">
        <ele>166.1</ele>
        <time>2023-03-26T11:47:23Z</time>
      </trkpt>
      <trkpt lat="49.17772" lon="1.98466">
        <ele>166.6</ele>
        <time>2023-03-26T11:47:28Z</time>
      </trkpt>
      <trkpt lat="49.17766" lon="1.98459">
        <ele>167.2</ele>
        <time>2023-03-26T11:47:34Z</time>
      </trkpt>
      <trkpt lat="49.17762" lon="1.98454">
        <ele>167.7</ele>
        <time>2023-03-26T11:47:39Z</time>
      </trkpt>
      <trkpt lat="49.17758" lon="1.98447">
        <ele>168.1</ele>
        <time>2023-03-26T11:47:45Z</time>
      </trkpt>
      <trkpt lat="49.17752" lon="1.98439">
        <ele>168.4</ele>
        <time>2023-03-26T11:47:51Z</time>
      </trkpt>
      <trkpt lat="49.17745" lon="1.98432">
        <ele>168.7</ele>
        <time>2023-03-26T11:47:57Z</time>
      </trkpt>
      <trkpt lat="49.17739" lon="1.98426">
        <ele>169</ele>
        <time>2023-03-26T11:48:03Z</time>
      </trkpt>
      <trkpt lat="49.17734" lon="1.9842">
        <ele>169.3</ele>
        <time>2023-03-26T11:48:08Z</time>
      </trkpt>
      <trkpt lat="49.17729" lon="1.98414">
        <ele>169.5</ele>
        <time>2023-03-26T11:48:13Z</time>
      </trkpt>
      <trkpt lat="49.17722" lon="1.98407">
        <ele>169.6</ele>
        <time>2023-03-26T11:48:19Z</time>
      </trkpt>
      <trkpt lat="49.17717" lon="1.984">
        <ele>169.6</ele>
        <time>2023-03-26T11:48:24Z</time>
      </trkpt>
      <trkpt lat="49.17714" lon="1.98396">
        <ele>169.8</ele>
        <time>2023-03-26T11:48:30Z</time>
      </trkpt>
      <trkpt lat="49.1771" lon="1.98392">
        <ele>169.9</ele>
        <time>2023-03-26T11:48:35Z</time>
      </trkpt>
      <trkpt lat="49.17704" lon="1.98387">
        <ele>170.2</ele>
        <time>2023-03-26T11:48:41Z</time>
      </trkpt>
      <trkpt lat="49.17698" lon="1.9838">
        <ele>170.6</ele>
        <time>2023-03-26T11:48:47Z</time>
      </trkpt>
      <trkpt lat="49.17691" lon="1.98373">
        <ele>171</ele>
        <time>2023-03-26T11:48:53Z</time>
      </trkpt>
      <trkpt lat="49.17685" lon="1.98366">
        <ele>171.5</ele>
        <time>2023-03-26T11:48:58Z</time>
      </trkpt>
      <trkpt lat="49.17679" lon="1.98359">
        <ele>172.1</ele>
        <time>2023-03-26T11:49:04Z</time>
      </trkpt>
      <trkpt lat="49.17675" lon="1.98353">
        <ele>172.8</ele>
        <time>2023-03-26T11:49:09Z</time>
      </trkpt>
      <trkpt lat="49.17671" lon="1.98347">
        <ele>173.3</ele>
        <time>2023-03-26T11:49:14Z</time>
      </trkpt>
      <trkpt lat="49.17666" lon="1.9834">
        <ele>174</ele>
        <time>2023-03-26T11:49:20Z</time>
      </trkpt>
      <trkpt lat="49.17661" lon="1.98334">
        <ele>174.6</ele>
        <time>2023-03-26T11:49:26Z</time>
      </trkpt>
      <trkpt lat="49.17655" lon="1.98328">
        <ele>175.1</ele>
        <time>2023-03-26T11:49:31Z</time>
      </trkpt>
      <trkpt lat="49.17648" lon="1.98321">
        <ele>175.5</ele>
        <time>2023-03-26T11:49:37Z</time>
      </trkpt>
      <trkpt lat="49.17641" lon="1.98316">
        <ele>176.6</ele>
        <time>2023-03-26T11:49:42Z</time>
      </trkpt>
      <trkpt lat="49.17639" lon="1.98313">
        <ele>176.9</ele>
        <time>2023-03-26T11:49:48Z</time>
      </trkpt>
      <trkpt lat="49.17637" lon="1.98307">
        <ele>176.9</ele>
        <time>2023-03-26T11:49:53Z</time>
      </trkpt>
      <trkpt lat="49.17637" lon="1.98299">
        <ele>176.7</ele>
        <time>2023-03-26T11:49:58Z</time>
      </trkpt>
      <trkpt lat="49.17638" lon="1.98301">
        <ele>176.7</ele>
        <time>2023-03-26T11:50:04Z</time>
      </trkpt>
      <trkpt lat="49.17638" lon="1.98303">
        <ele>176.4</ele>
        <time>2023-03-26T11:50:09Z</time>
      </trkpt>
      <trkpt lat="49.17639" lon="1.98299">
        <ele>175</ele>
        <time>2023-03-26T11:50:17Z</time>
      </trkpt>
      <trkpt lat="49.17638" lon="1.98301">
        <ele>174.8</ele>
        <time>2023-03-26T11:50:22Z</time>
      </trkpt>
      <trkpt lat="49.17635" lon="1.98306">
        <ele>174.7</ele>
        <time>2023-03-26T11:50:28Z</time>
      </trkpt>
      <trkpt lat="49.17638" lon="1.98308">
        <ele>174.1</ele>
        <time>2023-03-26T11:50:33Z</time>
      </trkpt>
      <trkpt lat="49.17639" lon="1.98307">
        <ele>173.7</ele>
        <time>2023-03-26T11:50:38Z</time>
      </trkpt>
      <trkpt lat="49.17641" lon="1.9831">
        <ele>173</ele>
        <time>2023-03-26T11:50:43Z</time>
      </trkpt>
      <trkpt lat="49.17642" lon="1.98312">
        <ele>172.7</ele>
        <time>2023-03-26T11:50:49Z</time>
      </trkpt>
      <trkpt lat="49.17642" lon="1.98313">
        <ele>172.5</ele>
        <time>2023-03-26T11:50:54Z</time>
      </trkpt>
      <trkpt lat="49.17642" lon="1.98314">
        <ele>172.4</ele>
        <time>2023-03-26T11:50:59Z</time>
      </trkpt>
      <trkpt lat="49.17642" lon="1.98314">
        <ele>172.4</ele>
        <time>2023-03-26T11:51:05Z</time>
      </trkpt>
      <trkpt lat="49.17643" lon="1.98316">
        <ele>172.3</ele>
        <time>2023-03-26T11:51:11Z</time>
      </trkpt>
      <trkpt lat="49.17643" lon="1.98317">
        <ele>172.3</ele>
        <time>2023-03-26T11:51:17Z</time>
      </trkpt>
      <trkpt lat="49.17643" lon="1.98317">
        <ele>172.3</ele>
        <time>2023-03-26T11:51:23Z</time>
      </trkpt>
      <trkpt lat="49.17643" lon="1.98318">
        <ele>172.3</ele>
        <time>2023-03-26T11:51:28Z</time>
      </trkpt>
      <trkpt lat="49.17643" lon="1.98319">
        <ele>172.3</ele>
        <time>2023-03-26T11:51:34Z</time>
      </trkpt>
      <trkpt lat="49.17643" lon="1.9832">
        <ele>172.3</ele>
        <time>2023-03-26T11:51:39Z</time>
      </trkpt>
      <trkpt lat="49.17643" lon="1.9832">
        <ele>172.3</ele>
        <time>2023-03-26T11:51:45Z</time>
      </trkpt>
      <trkpt lat="49.17642" lon="1.9832">
        <ele>172.4</ele>
        <time>2023-03-26T11:51:50Z</time>
      </trkpt>
      <trkpt lat="49.17638" lon="1.98322">
        <ele>172.3</ele>
        <time>2023-03-26T11:51:55Z</time>
      </trkpt>
      <trkpt lat="49.17634" lon="1.98329">
        <ele>172</ele>
        <time>2023-03-26T11:52:01Z</time>
      </trkpt>
      <trkpt lat="49.17629" lon="1.98337">
        <ele>171.6</ele>
        <time>2023-03-26T11:52:07Z</time>
      </trkpt>
      <trkpt lat="49.17624" lon="1.98346">
        <ele>171</ele>
        <time>2023-03-26T11:52:13Z</time>
      </trkpt>
      <trkpt lat="49.17618" lon="1.98353">
        <ele>170.5</ele>
        <time>2023-03-26T11:52:19Z</time>
      </trkpt>
      <trkpt lat="49.17613" lon="1.98359">
        <ele>170.1</ele>
        <time>2023-03-26T11:52:24Z</time>
      </trkpt>
      <trkpt lat="49.17609" lon="1.98367">
        <ele>169.6</ele>
        <time>2023-03-26T11:52:29Z</time>
      </trkpt>
      <trkpt lat="49.17604" lon="1.98376">
        <ele>169</ele>
        <time>2023-03-26T11:52:35Z</time>
      </trkpt>
      <trkpt lat="49.176" lon="1.98383">
        <ele>168.4</ele>
        <time>2023-03-26T11:52:40Z</time>
      </trkpt>
      <trkpt lat="49.17595" lon="1.98391">
        <ele>167.9</ele>
        <time>2023-03-26T11:52:46Z</time>
      </trkpt>
      <trkpt lat="49.17589" lon="1.98398">
        <ele>167.5</ele>
        <time>2023-03-26T11:52:52Z</time>
      </trkpt>
      <trkpt lat="49.17582" lon="1.98404">
        <ele>167.2</ele>
        <time>2023-03-26T11:52:58Z</time>
      </trkpt>
      <trkpt lat="49.17576" lon="1.9841">
        <ele>166.8</ele>
        <time>2023-03-26T11:53:04Z</time>
      </trkpt>
      <trkpt lat="49.17572" lon="1.98417">
        <ele>166.7</ele>
        <time>2023-03-26T11:53:09Z</time>
      </trkpt>
      <trkpt lat="49.17567" lon="1.98426">
        <ele>166.3</ele>
        <time>2023-03-26T11:53:15Z</time>
      </trkpt>
      <trkpt lat="49.17562" lon="1.98438">
        <ele>166.1</ele>
        <time>2023-03-26T11:53:20Z</time>
      </trkpt>
      <trkpt lat="49.17555" lon="1.98449">
        <ele>166.4</ele>
        <time>2023-03-26T11:53:26Z</time>
      </trkpt>
      <trkpt lat="49.17549" lon="1.98457">
        <ele>166.7</ele>
        <time>2023-03-26T11:53:31Z</time>
      </trkpt>
      <trkpt lat="49.17542" lon="1.98467">
        <ele>167.1</ele>
        <time>2023-03-26T11:53:37Z</time>
      </trkpt>
      <trkpt lat="49.17535" lon="1.98478">
        <ele>167.8</ele>
        <time>2023-03-26T11:53:43Z</time>
      </trkpt>
      <trkpt lat="49.17529" lon="1.98487">
        <ele>168.5</ele>
        <time>2023-03-26T11:53:49Z</time>
      </trkpt>
      <trkpt lat="49.17524" lon="1.98496">
        <ele>168.9</ele>
        <time>2023-03-26T11:53:54Z</time>
      </trkpt>
      <trkpt lat="49.17517" lon="1.98505">
        <ele>169.5</ele>
        <time>2023-03-26T11:54:00Z</time>
      </trkpt>
      <trkpt lat="49.17513" lon="1.98512">
        <ele>170.1</ele>
        <time>2023-03-26T11:54:05Z</time>
      </trkpt>
      <trkpt lat="49.17507" lon="1.98522">
        <ele>170.9</ele>
        <time>2023-03-26T11:54:11Z</time>
      </trkpt>
      <trkpt lat="49.17501" lon="1.98528">
        <ele>171.5</ele>
        <time>2023-03-26T11:54:16Z</time>
      </trkpt>
      <trkpt lat="49.17495" lon="1.98537">
        <ele>172.3</ele>
        <time>2023-03-26T11:54:22Z</time>
      </trkpt>
      <trkpt lat="49.17489" lon="1.98545">
        <ele>173.1</ele>
        <time>2023-03-26T11:54:27Z</time>
      </trkpt>
      <trkpt lat="49.17484" lon="1.9855">
        <ele>173.7</ele>
        <time>2023-03-26T11:54:32Z</time>
      </trkpt>
      <trkpt lat="49.17479" lon="1.98557">
        <ele>174.2</ele>
        <time>2023-03-26T11:54:38Z</time>
      </trkpt>
      <trkpt lat="49.17475" lon="1.98564">
        <ele>174.4</ele>
        <time>2023-03-26T11:54:43Z</time>
      </trkpt>
      <trkpt lat="49.1747" lon="1.98573">
        <ele>174.5</ele>
        <time>2023-03-26T11:54:48Z</time>
      </trkpt>
      <trkpt lat="49.17464" lon="1.98583">
        <ele>174.8</ele>
        <time>2023-03-26T11:54:54Z</time>
      </trkpt>
      <trkpt lat="49.17458" lon="1.98588">
        <ele>174.9</ele>
        <time>2023-03-26T11:55:00Z</time>
      </trkpt>
      <trkpt lat="49.17451" lon="1.98594">
        <ele>175.1</ele>
        <time>2023-03-26T11:55:06Z</time>
      </trkpt>
      <trkpt lat="49.17445" lon="1.98604">
        <ele>175.4</ele>
        <time>2023-03-26T11:55:12Z</time>
      </trkpt>
      <trkpt lat="49.17441" lon="1.98609">
        <ele>175.5</ele>
        <time>2023-03-26T11:55:17Z</time>
      </trkpt>
      <trkpt lat="49.17436" lon="1.98617">
        <ele>175.5</ele>
        <time>2023-03-26T11:55:23Z</time>
      </trkpt>
      <trkpt lat="49.17431" lon="1.98626">
        <ele>175.4</ele>
        <time>2023-03-26T11:55:28Z</time>
      </trkpt>
      <trkpt lat="49.17425" lon="1.98635">
        <ele>175.5</ele>
        <time>2023-03-26T11:55:34Z</time>
      </trkpt>
      <trkpt lat="49.17421" lon="1.98642">
        <ele>175.7</ele>
        <time>2023-03-26T11:55:39Z</time>
      </trkpt>
      <trkpt lat="49.17414" lon="1.98651">
        <ele>175.9</ele>
        <time>2023-03-26T11:55:44Z</time>
      </trkpt>
      <trkpt lat="49.17408" lon="1.98662">
        <ele>176.3</ele>
        <time>2023-03-26T11:55:50Z</time>
      </trkpt>
      <trkpt lat="49.17401" lon="1.98671">
        <ele>176.5</ele>
        <time>2023-03-26T11:55:55Z</time>
      </trkpt>
      <trkpt lat="49.17396" lon="1.98679">
        <ele>176.8</ele>
        <time>2023-03-26T11:56:01Z</time>
      </trkpt>
      <trkpt lat="49.17391" lon="1.98685">
        <ele>177</ele>
        <time>2023-03-26T11:56:06Z</time>
      </trkpt>
      <trkpt lat="49.17386" lon="1.98691">
        <ele>177.3</ele>
        <time>2023-03-26T11:56:12Z</time>
      </trkpt>
      <trkpt lat="49.17381" lon="1.98697">
        <ele>177.4</ele>
        <time>2023-03-26T11:56:17Z</time>
      </trkpt>
      <trkpt lat="49.17373" lon="1.98705">
        <ele>177.6</ele>
        <time>2023-03-26T11:56:23Z</time>
      </trkpt>
      <trkpt lat="49.17366" lon="1.98711">
        <ele>178</ele>
        <time>2023-03-26T11:56:29Z</time>
      </trkpt>
      <trkpt lat="49.17366" lon="1.98711">
        <ele>178.1</ele>
        <time>2023-03-26T11:56:34Z</time>
      </trkpt>
      <trkpt lat="49.17365" lon="1.98711">
        <ele>178.1</ele>
        <time>2023-03-26T11:56:39Z</time>
      </trkpt>
      <trkpt lat="49.17359" lon="1.98716">
        <ele>178.1</ele>
        <time>2023-03-26T11:56:45Z</time>
      </trkpt>
      <trkpt lat="49.17353" lon="1.98719">
        <ele>178.3</ele>
        <time>2023-03-26T11:56:50Z</time>
      </trkpt>
      <trkpt lat="49.17353" lon="1.98724">
        <ele>178.6</ele>
        <time>2023-03-26T11:56:55Z</time>
      </trkpt>
      <trkpt lat="49.17342" lon="1.9872">
        <ele>178.8</ele>
        <time>2023-03-26T11:57:00Z</time>
      </trkpt>
      <trkpt lat="49.17334" lon="1.98717">
        <ele>178.7</ele>
        <time>2023-03-26T11:57:05Z</time>
      </trkpt>
      <trkpt lat="49.17324" lon="1.98715">
        <ele>178.7</ele>
        <time>2023-03-26T11:57:11Z</time>
      </trkpt>
      <trkpt lat="49.17318" lon="1.9871">
        <ele>178.6</ele>
        <time>2023-03-26T11:57:17Z</time>
      </trkpt>
      <trkpt lat="49.1731" lon="1.98708">
        <ele>178.6</ele>
        <time>2023-03-26T11:57:23Z</time>
      </trkpt>
      <trkpt lat="49.17302" lon="1.98705">
        <ele>178.4</ele>
        <time>2023-03-26T11:57:29Z</time>
      </trkpt>
      <trkpt lat="49.17294" lon="1.98702">
        <ele>178.5</ele>
        <time>2023-03-26T11:57:35Z</time>
      </trkpt>
      <trkpt lat="49.17286" lon="1.98697">
        <ele>178.4</ele>
        <time>2023-03-26T11:57:41Z</time>
      </trkpt>
      <trkpt lat="49.17279" lon="1.98692">
        <ele>178.5</ele>
        <time>2023-03-26T11:57:46Z</time>
      </trkpt>
      <trkpt lat="49.17273" lon="1.98692">
        <ele>178.4</ele>
        <time>2023-03-26T11:57:51Z</time>
      </trkpt>
      <trkpt lat="49.17267" lon="1.98696">
        <ele>178.3</ele>
        <time>2023-03-26T11:57:57Z</time>
      </trkpt>
      <trkpt lat="49.17262" lon="1.98691">
        <ele>178.1</ele>
        <time>2023-03-26T11:58:03Z</time>
      </trkpt>
      <trkpt lat="49.17254" lon="1.98683">
        <ele>178.3</ele>
        <time>2023-03-26T11:58:09Z</time>
      </trkpt>
      <trkpt lat="49.17246" lon="1.98676">
        <ele>178.6</ele>
        <time>2023-03-26T11:58:14Z</time>
      </trkpt>
      <trkpt lat="49.1724" lon="1.98671">
        <ele>178.9</ele>
        <time>2023-03-26T11:58:19Z</time>
      </trkpt>
      <trkpt lat="49.1723" lon="1.98666">
        <ele>179.6</ele>
        <time>2023-03-26T11:58:25Z</time>
      </trkpt>
      <trkpt lat="49.17222" lon="1.98662">
        <ele>180.3</ele>
        <time>2023-03-26T11:58:31Z</time>
      </trkpt>
      <trkpt lat="49.17214" lon="1.98656">
        <ele>180.9</ele>
        <time>2023-03-26T11:58:37Z</time>
      </trkpt>
      <trkpt lat="49.17207" lon="1.98652">
        <ele>181.4</ele>
        <time>2023-03-26T11:58:43Z</time>
      </trkpt>
      <trkpt lat="49.172" lon="1.98647">
        <ele>181.7</ele>
        <time>2023-03-26T11:58:49Z</time>
      </trkpt>
      <trkpt lat="49.17194" lon="1.98642">
        <ele>182.3</ele>
        <time>2023-03-26T11:58:55Z</time>
      </trkpt>
      <trkpt lat="49.17188" lon="1.98635">
        <ele>182.9</ele>
        <time>2023-03-26T11:59:01Z</time>
      </trkpt>
      <trkpt lat="49.1718" lon="1.98632">
        <ele>183.4</ele>
        <time>2023-03-26T11:59:07Z</time>
      </trkpt>
      <trkpt lat="49.17173" lon="1.98624">
        <ele>183.6</ele>
        <time>2023-03-26T11:59:12Z</time>
      </trkpt>
      <trkpt lat="49.17166" lon="1.98619">
        <ele>183.9</ele>
        <time>2023-03-26T11:59:18Z</time>
      </trkpt>
      <trkpt lat="49.1716" lon="1.98612">
        <ele>184</ele>
        <time>2023-03-26T11:59:24Z</time>
      </trkpt>
      <trkpt lat="49.17154" lon="1.98606">
        <ele>184</ele>
        <time>2023-03-26T11:59:29Z</time>
      </trkpt>
      <trkpt lat="49.17149" lon="1.986">
        <ele>184.2</ele>
        <time>2023-03-26T11:59:35Z</time>
      </trkpt>
      <trkpt lat="49.17142" lon="1.9859">
        <ele>184.4</ele>
        <time>2023-03-26T11:59:41Z</time>
      </trkpt>
      <trkpt lat="49.17136" lon="1.98584">
        <ele>184.7</ele>
        <time>2023-03-26T11:59:46Z</time>
      </trkpt>
      <trkpt lat="49.1713" lon="1.9858">
        <ele>184.9</ele>
        <time>2023-03-26T11:59:52Z</time>
      </trkpt>
      <trkpt lat="49.17124" lon="1.98575">
        <ele>185.1</ele>
        <time>2023-03-26T11:59:57Z</time>
      </trkpt>
      <trkpt lat="49.17119" lon="1.98567">
        <ele>185.5</ele>
        <time>2023-03-26T12:00:03Z</time>
      </trkpt>
      <trkpt lat="49.17114" lon="1.98562">
        <ele>186.1</ele>
        <time>2023-03-26T12:00:08Z</time>
      </trkpt>
      <trkpt lat="49.17107" lon="1.98556">
        <ele>186.7</ele>
        <time>2023-03-26T12:00:14Z</time>
      </trkpt>
      <trkpt lat="49.17102" lon="1.98551">
        <ele>187</ele>
        <time>2023-03-26T12:00:19Z</time>
      </trkpt>
      <trkpt lat="49.17095" lon="1.98544">
        <ele>187.5</ele>
        <time>2023-03-26T12:00:25Z</time>
      </trkpt>
      <trkpt lat="49.17089" lon="1.98539">
        <ele>187.9</ele>
        <time>2023-03-26T12:00:31Z</time>
      </trkpt>
      <trkpt lat="49.17081" lon="1.98532">
        <ele>188.2</ele>
        <time>2023-03-26T12:00:37Z</time>
      </trkpt>
      <trkpt lat="49.17076" lon="1.98525">
        <ele>188.3</ele>
        <time>2023-03-26T12:00:42Z</time>
      </trkpt>
      <trkpt lat="49.1707" lon="1.98521">
        <ele>188.4</ele>
        <time>2023-03-26T12:00:47Z</time>
      </trkpt>
      <trkpt lat="49.17065" lon="1.98516">
        <ele>188.4</ele>
        <time>2023-03-26T12:00:53Z</time>
      </trkpt>
      <trkpt lat="49.17058" lon="1.98508">
        <ele>188.5</ele>
        <time>2023-03-26T12:00:59Z</time>
      </trkpt>
      <trkpt lat="49.17052" lon="1.985">
        <ele>188.5</ele>
        <time>2023-03-26T12:01:05Z</time>
      </trkpt>
      <trkpt lat="49.17044" lon="1.98493">
        <ele>188.4</ele>
        <time>2023-03-26T12:01:11Z</time>
      </trkpt>
      <trkpt lat="49.17038" lon="1.98486">
        <ele>188.4</ele>
        <time>2023-03-26T12:01:16Z</time>
      </trkpt>
      <trkpt lat="49.17031" lon="1.98478">
        <ele>188.5</ele>
        <time>2023-03-26T12:01:22Z</time>
      </trkpt>
      <trkpt lat="49.17026" lon="1.98472">
        <ele>188.6</ele>
        <time>2023-03-26T12:01:28Z</time>
      </trkpt>
      <trkpt lat="49.17022" lon="1.98468">
        <ele>188.6</ele>
        <time>2023-03-26T12:01:33Z</time>
      </trkpt>
      <trkpt lat="49.17016" lon="1.98461">
        <ele>188.6</ele>
        <time>2023-03-26T12:01:39Z</time>
      </trkpt>
      <trkpt lat="49.1701" lon="1.98453">
        <ele>188.5</ele>
        <time>2023-03-26T12:01:44Z</time>
      </trkpt>
      <trkpt lat="49.17003" lon="1.98448">
        <ele>188.5</ele>
        <time>2023-03-26T12:01:50Z</time>
      </trkpt>
      <trkpt lat="49.16999" lon="1.98443">
        <ele>188.8</ele>
        <time>2023-03-26T12:01:55Z</time>
      </trkpt>
      <trkpt lat="49.16993" lon="1.98437">
        <ele>189.2</ele>
        <time>2023-03-26T12:02:00Z</time>
      </trkpt>
      <trkpt lat="49.16989" lon="1.98432">
        <ele>189.6</ele>
        <time>2023-03-26T12:02:05Z</time>
      </trkpt>
      <trkpt lat="49.16983" lon="1.98427">
        <ele>190.1</ele>
        <time>2023-03-26T12:02:11Z</time>
      </trkpt>
      <trkpt lat="49.16977" lon="1.9842">
        <ele>190.5</ele>
        <time>2023-03-26T12:02:17Z</time>
      </trkpt>
      <trkpt lat="49.16972" lon="1.98413">
        <ele>190.9</ele>
        <time>2023-03-26T12:02:22Z</time>
      </trkpt>
      <trkpt lat="49.16966" lon="1.98406">
        <ele>190.9</ele>
        <time>2023-03-26T12:02:27Z</time>
      </trkpt>
      <trkpt lat="49.1696" lon="1.98399">
        <ele>191</ele>
        <time>2023-03-26T12:02:33Z</time>
      </trkpt>
      <trkpt lat="49.16955" lon="1.98395">
        <ele>191</ele>
        <time>2023-03-26T12:02:38Z</time>
      </trkpt>
      <trkpt lat="49.1695" lon="1.98389">
        <ele>191</ele>
        <time>2023-03-26T12:02:43Z</time>
      </trkpt>
      <trkpt lat="49.16945" lon="1.98384">
        <ele>190.9</ele>
        <time>2023-03-26T12:02:48Z</time>
      </trkpt>
      <trkpt lat="49.16938" lon="1.98377">
        <ele>190.8</ele>
        <time>2023-03-26T12:02:54Z</time>
      </trkpt>
      <trkpt lat="49.16933" lon="1.98373">
        <ele>190.8</ele>
        <time>2023-03-26T12:02:59Z</time>
      </trkpt>
      <trkpt lat="49.16925" lon="1.98366">
        <ele>190.6</ele>
        <time>2023-03-26T12:03:05Z</time>
      </trkpt>
      <trkpt lat="49.1692" lon="1.98361">
        <ele>190.5</ele>
        <time>2023-03-26T12:03:10Z</time>
      </trkpt>
      <trkpt lat="49.16914" lon="1.98354">
        <ele>190.6</ele>
        <time>2023-03-26T12:03:15Z</time>
      </trkpt>
      <trkpt lat="49.16908" lon="1.98348">
        <ele>190.7</ele>
        <time>2023-03-26T12:03:21Z</time>
      </trkpt>
      <trkpt lat="49.16903" lon="1.98344">
        <ele>190.9</ele>
        <time>2023-03-26T12:03:26Z</time>
      </trkpt>
      <trkpt lat="49.16898" lon="1.9834">
        <ele>191.2</ele>
        <time>2023-03-26T12:03:32Z</time>
      </trkpt>
      <trkpt lat="49.16892" lon="1.98335">
        <ele>191.5</ele>
        <time>2023-03-26T12:03:38Z</time>
      </trkpt>
      <trkpt lat="49.16886" lon="1.98328">
        <ele>192.1</ele>
        <time>2023-03-26T12:03:44Z</time>
      </trkpt>
      <trkpt lat="49.16881" lon="1.98324">
        <ele>192.7</ele>
        <time>2023-03-26T12:03:49Z</time>
      </trkpt>
      <trkpt lat="49.16874" lon="1.98316">
        <ele>193.5</ele>
        <time>2023-03-26T12:03:55Z</time>
      </trkpt>
      <trkpt lat="49.16866" lon="1.98312">
        <ele>194.2</ele>
        <time>2023-03-26T12:04:01Z</time>
      </trkpt>
      <trkpt lat="49.16861" lon="1.98307">
        <ele>194.8</ele>
        <time>2023-03-26T12:04:06Z</time>
      </trkpt>
      <trkpt lat="49.16855" lon="1.98299">
        <ele>195.3</ele>
        <time>2023-03-26T12:04:12Z</time>
      </trkpt>
      <trkpt lat="49.16849" lon="1.98295">
        <ele>195.7</ele>
        <time>2023-03-26T12:04:17Z</time>
      </trkpt>
      <trkpt lat="49.16844" lon="1.9829">
        <ele>196.6</ele>
        <time>2023-03-26T12:04:23Z</time>
      </trkpt>
      <trkpt lat="49.16839" lon="1.98286">
        <ele>197</ele>
        <time>2023-03-26T12:04:28Z</time>
      </trkpt>
      <trkpt lat="49.16832" lon="1.98279">
        <ele>197.4</ele>
        <time>2023-03-26T12:04:34Z</time>
      </trkpt>
      <trkpt lat="49.16827" lon="1.98274">
        <ele>197.6</ele>
        <time>2023-03-26T12:04:39Z</time>
      </trkpt>
      <trkpt lat="49.16821" lon="1.98267">
        <ele>197.7</ele>
        <time>2023-03-26T12:04:45Z</time>
      </trkpt>
      <trkpt lat="49.16817" lon="1.98262">
        <ele>197.8</ele>
        <time>2023-03-26T12:04:50Z</time>
      </trkpt>
      <trkpt lat="49.16811" lon="1.98258">
        <ele>198</ele>
        <time>2023-03-26T12:04:56Z</time>
      </trkpt>
      <trkpt lat="49.16804" lon="1.98255">
        <ele>198.2</ele>
        <time>2023-03-26T12:05:02Z</time>
      </trkpt>
      <trkpt lat="49.168" lon="1.98249">
        <ele>198.4</ele>
        <time>2023-03-26T12:05:07Z</time>
      </trkpt>
      <trkpt lat="49.16795" lon="1.98245">
        <ele>198.7</ele>
        <time>2023-03-26T12:05:12Z</time>
      </trkpt>
      <trkpt lat="49.1679" lon="1.9824">
        <ele>199</ele>
        <time>2023-03-26T12:05:17Z</time>
      </trkpt>
      <trkpt lat="49.16783" lon="1.98235">
        <ele>199.5</ele>
        <time>2023-03-26T12:05:23Z</time>
      </trkpt>
      <trkpt lat="49.16775" lon="1.9823">
        <ele>200</ele>
        <time>2023-03-26T12:05:29Z</time>
      </trkpt>
      <trkpt lat="49.16771" lon="1.98225">
        <ele>200.5</ele>
        <time>2023-03-26T12:05:34Z</time>
      </trkpt>
      <trkpt lat="49.16765" lon="1.98219">
        <ele>201</ele>
        <time>2023-03-26T12:05:39Z</time>
      </trkpt>
      <trkpt lat="49.1676" lon="1.98215">
        <ele>201.4</ele>
        <time>2023-03-26T12:05:44Z</time>
      </trkpt>
      <trkpt lat="49.16755" lon="1.98209">
        <ele>201.6</ele>
        <time>2023-03-26T12:05:50Z</time>
      </trkpt>
      <trkpt lat="49.16748" lon="1.98204">
        <ele>201.8</ele>
        <time>2023-03-26T12:05:56Z</time>
      </trkpt>
      <trkpt lat="49.16742" lon="1.98199">
        <ele>201.8</ele>
        <time>2023-03-26T12:06:02Z</time>
      </trkpt>
      <trkpt lat="49.16734" lon="1.98193">
        <ele>201.8</ele>
        <time>2023-03-26T12:06:08Z</time>
      </trkpt>
      <trkpt lat="49.16727" lon="1.98187">
        <ele>201.9</ele>
        <time>2023-03-26T12:06:14Z</time>
      </trkpt>
      <trkpt lat="49.16719" lon="1.98181">
        <ele>202.1</ele>
        <time>2023-03-26T12:06:20Z</time>
      </trkpt>
      <trkpt lat="49.16712" lon="1.98175">
        <ele>202.1</ele>
        <time>2023-03-26T12:06:26Z</time>
      </trkpt>
      <trkpt lat="49.16705" lon="1.9817">
        <ele>202.1</ele>
        <time>2023-03-26T12:06:31Z</time>
      </trkpt>
      <trkpt lat="49.16699" lon="1.98165">
        <ele>202.5</ele>
        <time>2023-03-26T12:06:37Z</time>
      </trkpt>
      <trkpt lat="49.16693" lon="1.98159">
        <ele>202.8</ele>
        <time>2023-03-26T12:06:42Z</time>
      </trkpt>
      <trkpt lat="49.16689" lon="1.98155">
        <ele>203.1</ele>
        <time>2023-03-26T12:06:47Z</time>
      </trkpt>
      <trkpt lat="49.16685" lon="1.98149">
        <ele>203.4</ele>
        <time>2023-03-26T12:06:52Z</time>
      </trkpt>
      <trkpt lat="49.16678" lon="1.98143">
        <ele>203.4</ele>
        <time>2023-03-26T12:06:58Z</time>
      </trkpt>
      <trkpt lat="49.16671" lon="1.98137">
        <ele>203.5</ele>
        <time>2023-03-26T12:07:04Z</time>
      </trkpt>
      <trkpt lat="49.16663" lon="1.98128">
        <ele>203.5</ele>
        <time>2023-03-26T12:07:10Z</time>
      </trkpt>
      <trkpt lat="49.16658" lon="1.98122">
        <ele>203.4</ele>
        <time>2023-03-26T12:07:15Z</time>
      </trkpt>
      <trkpt lat="49.16653" lon="1.98117">
        <ele>203.2</ele>
        <time>2023-03-26T12:07:21Z</time>
      </trkpt>
      <trkpt lat="49.16646" lon="1.9811">
        <ele>203</ele>
        <time>2023-03-26T12:07:27Z</time>
      </trkpt>
      <trkpt lat="49.16647" lon="1.9811">
        <ele>203</ele>
        <time>2023-03-26T12:07:33Z</time>
      </trkpt>
      <trkpt lat="49.16648" lon="1.98109">
        <ele>203</ele>
        <time>2023-03-26T12:07:38Z</time>
      </trkpt>
      <trkpt lat="49.16648" lon="1.9811">
        <ele>203</ele>
        <time>2023-03-26T12:07:44Z</time>
      </trkpt>
      <trkpt lat="49.16649" lon="1.9811">
        <ele>203.1</ele>
        <time>2023-03-26T12:07:49Z</time>
      </trkpt>
      <trkpt lat="49.16651" lon="1.98113">
        <ele>203.5</ele>
        <time>2023-03-26T12:07:55Z</time>
      </trkpt>
      <trkpt lat="49.16651" lon="1.98113">
        <ele>204.1</ele>
        <time>2023-03-26T12:08:02Z</time>
      </trkpt>
      <trkpt lat="49.16651" lon="1.98114">
        <ele>204.5</ele>
        <time>2023-03-26T12:08:07Z</time>
      </trkpt>
      <trkpt lat="49.16651" lon="1.98115">
        <ele>204.5</ele>
        <time>2023-03-26T12:08:12Z</time>
      </trkpt>
      <trkpt lat="49.16651" lon="1.98114">
        <ele>204.5</ele>
        <time>2023-03-26T12:08:18Z</time>
      </trkpt>
      <trkpt lat="49.16652" lon="1.98115">
        <ele>204.5</ele>
        <time>2023-03-26T12:08:23Z</time>
      </trkpt>
      <trkpt lat="49.16652" lon="1.98115">
        <ele>204.5</ele>
        <time>2023-03-26T12:08:28Z</time>
      </trkpt>
      <trkpt lat="49.16651" lon="1.98114">
        <ele>204.5</ele>
        <time>2023-03-26T12:08:34Z</time>
      </trkpt>
      <trkpt lat="49.16651" lon="1.98115">
        <ele>204.5</ele>
        <time>2023-03-26T12:08:40Z</time>
      </trkpt>
      <trkpt lat="49.16649" lon="1.98112">
        <ele>204.4</ele>
        <time>2023-03-26T12:08:46Z</time>
      </trkpt>
      <trkpt lat="49.16643" lon="1.98106">
        <ele>204.4</ele>
        <time>2023-03-26T12:08:51Z</time>
      </trkpt>
      <trkpt lat="49.16636" lon="1.98098">
        <ele>204.5</ele>
        <time>2023-03-26T12:08:56Z</time>
      </trkpt>
      <trkpt lat="49.16629" lon="1.98093">
        <ele>204.9</ele>
        <time>2023-03-26T12:09:02Z</time>
      </trkpt>
      <trkpt lat="49.16622" lon="1.98088">
        <ele>205.4</ele>
        <time>2023-03-26T12:09:08Z</time>
      </trkpt>
      <trkpt lat="49.16617" lon="1.98082">
        <ele>205.8</ele>
        <time>2023-03-26T12:09:13Z</time>
      </trkpt>
      <trkpt lat="49.16611" lon="1.98076">
        <ele>206</ele>
        <time>2023-03-26T12:09:19Z</time>
      </trkpt>
      <trkpt lat="49.16603" lon="1.98069">
        <ele>206.3</ele>
        <time>2023-03-26T12:09:25Z</time>
      </trkpt>
      <trkpt lat="49.16599" lon="1.98065">
        <ele>206.5</ele>
        <time>2023-03-26T12:09:31Z</time>
      </trkpt>
      <trkpt lat="49.16592" lon="1.98058">
        <ele>206.7</ele>
        <time>2023-03-26T12:09:37Z</time>
      </trkpt>
      <trkpt lat="49.16586" lon="1.98052">
        <ele>207.1</ele>
        <time>2023-03-26T12:09:43Z</time>
      </trkpt>
      <trkpt lat="49.16581" lon="1.98048">
        <ele>207.4</ele>
        <time>2023-03-26T12:09:48Z</time>
      </trkpt>
      <trkpt lat="49.16574" lon="1.98044">
        <ele>207.7</ele>
        <time>2023-03-26T12:09:53Z</time>
      </trkpt>
      <trkpt lat="49.16568" lon="1.9804">
        <ele>208.1</ele>
        <time>2023-03-26T12:09:58Z</time>
      </trkpt>
      <trkpt lat="49.16559" lon="1.98036">
        <ele>208.7</ele>
        <time>2023-03-26T12:10:04Z</time>
      </trkpt>
      <trkpt lat="49.16553" lon="1.98033">
        <ele>209.2</ele>
        <time>2023-03-26T12:10:09Z</time>
      </trkpt>
      <trkpt lat="49.16548" lon="1.98028">
        <ele>209.4</ele>
        <time>2023-03-26T12:10:14Z</time>
      </trkpt>
      <trkpt lat="49.16542" lon="1.98023">
        <ele>209.7</ele>
        <time>2023-03-26T12:10:19Z</time>
      </trkpt>
      <trkpt lat="49.16537" lon="1.98019">
        <ele>210</ele>
        <time>2023-03-26T12:10:25Z</time>
      </trkpt>
      <trkpt lat="49.16532" lon="1.98014">
        <ele>210.2</ele>
        <time>2023-03-26T12:10:30Z</time>
      </trkpt>
      <trkpt lat="49.16527" lon="1.98011">
        <ele>210.6</ele>
        <time>2023-03-26T12:10:35Z</time>
      </trkpt>
      <trkpt lat="49.16521" lon="1.98004">
        <ele>211.3</ele>
        <time>2023-03-26T12:10:41Z</time>
      </trkpt>
      <trkpt lat="49.16515" lon="1.97998">
        <ele>211.9</ele>
        <time>2023-03-26T12:10:46Z</time>
      </trkpt>
      <trkpt lat="49.16508" lon="1.97994">
        <ele>212.4</ele>
        <time>2023-03-26T12:10:51Z</time>
      </trkpt>
      <trkpt lat="49.16502" lon="1.97987">
        <ele>213</ele>
        <time>2023-03-26T12:10:57Z</time>
      </trkpt>
      <trkpt lat="49.16498" lon="1.97982">
        <ele>213.4</ele>
        <time>2023-03-26T12:11:03Z</time>
      </trkpt>
      <trkpt lat="49.16493" lon="1.97978">
        <ele>213.5</ele>
        <time>2023-03-26T12:11:08Z</time>
      </trkpt>
      <trkpt lat="49.16489" lon="1.97972">
        <ele>213.6</ele>
        <time>2023-03-26T12:11:13Z</time>
      </trkpt>
      <trkpt lat="49.1648" lon="1.97965">
        <ele>213.4</ele>
        <time>2023-03-26T12:11:19Z</time>
      </trkpt>
      <trkpt lat="49.16474" lon="1.97957">
        <ele>213.4</ele>
        <time>2023-03-26T12:11:25Z</time>
      </trkpt>
      <trkpt lat="49.16469" lon="1.97949">
        <ele>213.5</ele>
        <time>2023-03-26T12:11:31Z</time>
      </trkpt>
      <trkpt lat="49.16464" lon="1.97945">
        <ele>213.6</ele>
        <time>2023-03-26T12:11:37Z</time>
      </trkpt>
      <trkpt lat="49.16459" lon="1.97942">
        <ele>213.9</ele>
        <time>2023-03-26T12:11:43Z</time>
      </trkpt>
      <trkpt lat="49.16453" lon="1.97936">
        <ele>214.3</ele>
        <time>2023-03-26T12:11:48Z</time>
      </trkpt>
      <trkpt lat="49.16446" lon="1.97929">
        <ele>215.1</ele>
        <time>2023-03-26T12:11:54Z</time>
      </trkpt>
      <trkpt lat="49.16442" lon="1.97925">
        <ele>216.1</ele>
        <time>2023-03-26T12:11:59Z</time>
      </trkpt>
      <trkpt lat="49.16437" lon="1.97919">
        <ele>216.9</ele>
        <time>2023-03-26T12:12:05Z</time>
      </trkpt>
      <trkpt lat="49.16431" lon="1.97914">
        <ele>217.6</ele>
        <time>2023-03-26T12:12:11Z</time>
      </trkpt>
      <trkpt lat="49.16423" lon="1.97905">
        <ele>218.1</ele>
        <time>2023-03-26T12:12:17Z</time>
      </trkpt>
      <trkpt lat="49.16418" lon="1.97909">
        <ele>218.3</ele>
        <time>2023-03-26T12:12:22Z</time>
      </trkpt>
      <trkpt lat="49.16414" lon="1.97921">
        <ele>218.9</ele>
        <time>2023-03-26T12:12:28Z</time>
      </trkpt>
      <trkpt lat="49.16411" lon="1.97927">
        <ele>219.8</ele>
        <time>2023-03-26T12:12:33Z</time>
      </trkpt>
      <trkpt lat="49.16408" lon="1.97933">
        <ele>221</ele>
        <time>2023-03-26T12:12:38Z</time>
      </trkpt>
      <trkpt lat="49.16405" lon="1.97941">
        <ele>221.9</ele>
        <time>2023-03-26T12:12:44Z</time>
      </trkpt>
      <trkpt lat="49.16404" lon="1.97946">
        <ele>222.5</ele>
        <time>2023-03-26T12:12:49Z</time>
      </trkpt>
      <trkpt lat="49.16394" lon="1.97953">
        <ele>223</ele>
        <time>2023-03-26T12:12:55Z</time>
      </trkpt>
      <trkpt lat="49.16391" lon="1.97959">
        <ele>223.6</ele>
        <time>2023-03-26T12:13:00Z</time>
      </trkpt>
      <trkpt lat="49.16387" lon="1.97969">
        <ele>224.3</ele>
        <time>2023-03-26T12:13:05Z</time>
      </trkpt>
      <trkpt lat="49.1638" lon="1.97981">
        <ele>225.1</ele>
        <time>2023-03-26T12:13:11Z</time>
      </trkpt>
      <trkpt lat="49.16376" lon="1.97989">
        <ele>225.7</ele>
        <time>2023-03-26T12:13:16Z</time>
      </trkpt>
      <trkpt lat="49.16372" lon="1.97995">
        <ele>226.4</ele>
        <time>2023-03-26T12:13:22Z</time>
      </trkpt>
      <trkpt lat="49.16367" lon="1.98003">
        <ele>226.9</ele>
        <time>2023-03-26T12:13:27Z</time>
      </trkpt>
      <trkpt lat="49.16365" lon="1.98011">
        <ele>227.4</ele>
        <time>2023-03-26T12:13:32Z</time>
      </trkpt>
      <trkpt lat="49.16362" lon="1.98022">
        <ele>228.3</ele>
        <time>2023-03-26T12:13:38Z</time>
      </trkpt>
      <trkpt lat="49.16359" lon="1.9803">
        <ele>229.5</ele>
        <time>2023-03-26T12:13:44Z</time>
      </trkpt>
      <trkpt lat="49.16354" lon="1.9804">
        <ele>230.9</ele>
        <time>2023-03-26T12:13:50Z</time>
      </trkpt>
      <trkpt lat="49.16346" lon="1.98051">
        <ele>232.4</ele>
        <time>2023-03-26T12:13:55Z</time>
      </trkpt>
      <trkpt lat="49.16344" lon="1.98059">
        <ele>233.9</ele>
        <time>2023-03-26T12:14:01Z</time>
      </trkpt>
      <trkpt lat="49.1634" lon="1.98067">
        <ele>235.1</ele>
        <time>2023-03-26T12:14:06Z</time>
      </trkpt>
      <trkpt lat="49.16335" lon="1.98077">
        <ele>236.2</ele>
        <time>2023-03-26T12:14:11Z</time>
      </trkpt>
      <trkpt lat="49.1633" lon="1.9808">
        <ele>237.1</ele>
        <time>2023-03-26T12:14:17Z</time>
      </trkpt>
      <trkpt lat="49.16328" lon="1.98085">
        <ele>237.5</ele>
        <time>2023-03-26T12:14:23Z</time>
      </trkpt>
      <trkpt lat="49.16324" lon="1.98092">
        <ele>237.6</ele>
        <time>2023-03-26T12:14:29Z</time>
      </trkpt>
      <trkpt lat="49.16319" lon="1.98098">
        <ele>237.5</ele>
        <time>2023-03-26T12:14:35Z</time>
      </trkpt>
      <trkpt lat="49.16313" lon="1.98103">
        <ele>237.6</ele>
        <time>2023-03-26T12:14:40Z</time>
      </trkpt>
      <trkpt lat="49.16309" lon="1.9811">
        <ele>238.2</ele>
        <time>2023-03-26T12:14:46Z</time>
      </trkpt>
      <trkpt lat="49.16304" lon="1.98113">
        <ele>238.6</ele>
        <time>2023-03-26T12:14:51Z</time>
      </trkpt>
      <trkpt lat="49.163" lon="1.98121">
        <ele>239.1</ele>
        <time>2023-03-26T12:14:57Z</time>
      </trkpt>
      <trkpt lat="49.16296" lon="1.98127">
        <ele>239.6</ele>
        <time>2023-03-26T12:15:03Z</time>
      </trkpt>
      <trkpt lat="49.1629" lon="1.98137">
        <ele>240.1</ele>
        <time>2023-03-26T12:15:09Z</time>
      </trkpt>
      <trkpt lat="49.16282" lon="1.98147">
        <ele>240.6</ele>
        <time>2023-03-26T12:15:15Z</time>
      </trkpt>
      <trkpt lat="49.16279" lon="1.98154">
        <ele>240.9</ele>
        <time>2023-03-26T12:15:20Z</time>
      </trkpt>
      <trkpt lat="49.16273" lon="1.98162">
        <ele>240.9</ele>
        <time>2023-03-26T12:15:26Z</time>
      </trkpt>
      <trkpt lat="49.16269" lon="1.98165">
        <ele>241.1</ele>
        <time>2023-03-26T12:15:31Z</time>
      </trkpt>
      <trkpt lat="49.1627" lon="1.98171">
        <ele>242</ele>
        <time>2023-03-26T12:15:37Z</time>
      </trkpt>
      <trkpt lat="49.16268" lon="1.98172">
        <ele>242.3</ele>
        <time>2023-03-26T12:15:42Z</time>
      </trkpt>
      <trkpt lat="49.16265" lon="1.98176">
        <ele>242.5</ele>
        <time>2023-03-26T12:15:49Z</time>
      </trkpt>
      <trkpt lat="49.16265" lon="1.98182">
        <ele>242.8</ele>
        <time>2023-03-26T12:15:54Z</time>
      </trkpt>
      <trkpt lat="49.16263" lon="1.98193">
        <ele>243</ele>
        <time>2023-03-26T12:16:00Z</time>
      </trkpt>
      <trkpt lat="49.1626" lon="1.98202">
        <ele>243.3</ele>
        <time>2023-03-26T12:16:05Z</time>
      </trkpt>
      <trkpt lat="49.16254" lon="1.98213">
        <ele>243.6</ele>
        <time>2023-03-26T12:16:11Z</time>
      </trkpt>
      <trkpt lat="49.16248" lon="1.98222">
        <ele>244.3</ele>
        <time>2023-03-26T12:16:17Z</time>
      </trkpt>
      <trkpt lat="49.16245" lon="1.98226">
        <ele>245.2</ele>
        <time>2023-03-26T12:16:23Z</time>
      </trkpt>
      <trkpt lat="49.16237" lon="1.98233">
        <ele>246.2</ele>
        <time>2023-03-26T12:16:29Z</time>
      </trkpt>
      <trkpt lat="49.16229" lon="1.98239">
        <ele>247.7</ele>
        <time>2023-03-26T12:16:35Z</time>
      </trkpt>
      <trkpt lat="49.16223" lon="1.98246">
        <ele>249</ele>
        <time>2023-03-26T12:16:40Z</time>
      </trkpt>
      <trkpt lat="49.16218" lon="1.98254">
        <ele>250.7</ele>
        <time>2023-03-26T12:16:46Z</time>
      </trkpt>
      <trkpt lat="49.16213" lon="1.98261">
        <ele>251.7</ele>
        <time>2023-03-26T12:16:51Z</time>
      </trkpt>
      <trkpt lat="49.16209" lon="1.98267">
        <ele>252.4</ele>
        <time>2023-03-26T12:16:56Z</time>
      </trkpt>
      <trkpt lat="49.16203" lon="1.9828">
        <ele>253.2</ele>
        <time>2023-03-26T12:17:02Z</time>
      </trkpt>
      <trkpt lat="49.16198" lon="1.98288">
        <ele>253.4</ele>
        <time>2023-03-26T12:17:07Z</time>
      </trkpt>
      <trkpt lat="49.16194" lon="1.98298">
        <ele>253.9</ele>
        <time>2023-03-26T12:17:13Z</time>
      </trkpt>
      <trkpt lat="49.16189" lon="1.98308">
        <ele>254.4</ele>
        <time>2023-03-26T12:17:19Z</time>
      </trkpt>
      <trkpt lat="49.16185" lon="1.98316">
        <ele>254.9</ele>
        <time>2023-03-26T12:17:25Z</time>
      </trkpt>
      <trkpt lat="49.16182" lon="1.98326">
        <ele>255.3</ele>
        <time>2023-03-26T12:17:31Z</time>
      </trkpt>
      <trkpt lat="49.16178" lon="1.98336">
        <ele>255.3</ele>
        <time>2023-03-26T12:17:37Z</time>
      </trkpt>
      <trkpt lat="49.16172" lon="1.98344">
        <ele>255.1</ele>
        <time>2023-03-26T12:17:42Z</time>
      </trkpt>
      <trkpt lat="49.16169" lon="1.98348">
        <ele>254.6</ele>
        <time>2023-03-26T12:17:47Z</time>
      </trkpt>
      <trkpt lat="49.16165" lon="1.98355">
        <ele>253.8</ele>
        <time>2023-03-26T12:17:52Z</time>
      </trkpt>
      <trkpt lat="49.16161" lon="1.98366">
        <ele>252.9</ele>
        <time>2023-03-26T12:17:58Z</time>
      </trkpt>
      <trkpt lat="49.16156" lon="1.98372">
        <ele>251.8</ele>
        <time>2023-03-26T12:18:04Z</time>
      </trkpt>
      <trkpt lat="49.1615" lon="1.98378">
        <ele>250.8</ele>
        <time>2023-03-26T12:18:09Z</time>
      </trkpt>
      <trkpt lat="49.16142" lon="1.9839">
        <ele>249.7</ele>
        <time>2023-03-26T12:18:15Z</time>
      </trkpt>
      <trkpt lat="49.16137" lon="1.98397">
        <ele>249.7</ele>
        <time>2023-03-26T12:18:21Z</time>
      </trkpt>
      <trkpt lat="49.16134" lon="1.98404">
        <ele>250</ele>
        <time>2023-03-26T12:18:26Z</time>
      </trkpt>
      <trkpt lat="49.1613" lon="1.98406">
        <ele>250.2</ele>
        <time>2023-03-26T12:18:32Z</time>
      </trkpt>
      <trkpt lat="49.16129" lon="1.98415">
        <ele>250.3</ele>
        <time>2023-03-26T12:18:38Z</time>
      </trkpt>
      <trkpt lat="49.16129" lon="1.98419">
        <ele>250.5</ele>
        <time>2023-03-26T12:18:43Z</time>
      </trkpt>
      <trkpt lat="49.16128" lon="1.98427">
        <ele>250.4</ele>
        <time>2023-03-26T12:18:48Z</time>
      </trkpt>
      <trkpt lat="49.16127" lon="1.98435">
        <ele>249.9</ele>
        <time>2023-03-26T12:18:54Z</time>
      </trkpt>
      <trkpt lat="49.16125" lon="1.98444">
        <ele>249.4</ele>
        <time>2023-03-26T12:19:00Z</time>
      </trkpt>
      <trkpt lat="49.16122" lon="1.98452">
        <ele>249</ele>
        <time>2023-03-26T12:19:05Z</time>
      </trkpt>
      <trkpt lat="49.1612" lon="1.98456">
        <ele>248.9</ele>
        <time>2023-03-26T12:19:10Z</time>
      </trkpt>
      <trkpt lat="49.16121" lon="1.98462">
        <ele>248.9</ele>
        <time>2023-03-26T12:19:16Z</time>
      </trkpt>
      <trkpt lat="49.16121" lon="1.98471">
        <ele>248.9</ele>
        <time>2023-03-26T12:19:22Z</time>
      </trkpt>
      <trkpt lat="49.16121" lon="1.98479">
        <ele>248.8</ele>
        <time>2023-03-26T12:19:27Z</time>
      </trkpt>
      <trkpt lat="49.16121" lon="1.98481">
        <ele>248.7</ele>
        <time>2023-03-26T12:19:33Z</time>
      </trkpt>
      <trkpt lat="49.1612" lon="1.98481">
        <ele>248.4</ele>
        <time>2023-03-26T12:19:39Z</time>
      </trkpt>
      <trkpt lat="49.1612" lon="1.98486">
        <ele>247.7</ele>
        <time>2023-03-26T12:19:45Z</time>
      </trkpt>
      <trkpt lat="49.1612" lon="1.98487">
        <ele>247.4</ele>
        <time>2023-03-26T12:19:50Z</time>
      </trkpt>
      <trkpt lat="49.1612" lon="1.98488">
        <ele>247.1</ele>
        <time>2023-03-26T12:19:56Z</time>
      </trkpt>
      <trkpt lat="49.1612" lon="1.98487">
        <ele>247</ele>
        <time>2023-03-26T12:20:01Z</time>
      </trkpt>
      <trkpt lat="49.1612" lon="1.98486">
        <ele>246.1</ele>
        <time>2023-03-26T12:20:07Z</time>
      </trkpt>
      <trkpt lat="49.16118" lon="1.98487">
        <ele>245.1</ele>
        <time>2023-03-26T12:20:13Z</time>
      </trkpt>
      <trkpt lat="49.16119" lon="1.98486">
        <ele>244.8</ele>
        <time>2023-03-26T12:20:19Z</time>
      </trkpt>
      <trkpt lat="49.16117" lon="1.98488">
        <ele>244.3</ele>
        <time>2023-03-26T12:20:25Z</time>
      </trkpt>
      <trkpt lat="49.16115" lon="1.98492">
        <ele>243.9</ele>
        <time>2023-03-26T12:20:30Z</time>
      </trkpt>
      <trkpt lat="49.16113" lon="1.98498">
        <ele>243.7</ele>
        <time>2023-03-26T12:20:35Z</time>
      </trkpt>
      <trkpt lat="49.16112" lon="1.98508">
        <ele>243.6</ele>
        <time>2023-03-26T12:20:41Z</time>
      </trkpt>
      <trkpt lat="49.16111" lon="1.98516">
        <ele>243.6</ele>
        <time>2023-03-26T12:20:46Z</time>
      </trkpt>
      <trkpt lat="49.1611" lon="1.98523">
        <ele>243.7</ele>
        <time>2023-03-26T12:20:52Z</time>
      </trkpt>
      <trkpt lat="49.16108" lon="1.98531">
        <ele>243.8</ele>
        <time>2023-03-26T12:20:57Z</time>
      </trkpt>
      <trkpt lat="49.16108" lon="1.98537">
        <ele>243.9</ele>
        <time>2023-03-26T12:21:02Z</time>
      </trkpt>
      <trkpt lat="49.16108" lon="1.98541">
        <ele>243.8</ele>
        <time>2023-03-26T12:21:08Z</time>
      </trkpt>
      <trkpt lat="49.16105" lon="1.98546">
        <ele>243.5</ele>
        <time>2023-03-26T12:21:13Z</time>
      </trkpt>
      <trkpt lat="49.16102" lon="1.98557">
        <ele>243</ele>
        <time>2023-03-26T12:21:19Z</time>
      </trkpt>
      <trkpt lat="49.16096" lon="1.98571">
        <ele>242.8</ele>
        <time>2023-03-26T12:21:25Z</time>
      </trkpt>
      <trkpt lat="49.16093" lon="1.98576">
        <ele>242.6</ele>
        <time>2023-03-26T12:21:30Z</time>
      </trkpt>
      <trkpt lat="49.16088" lon="1.98583">
        <ele>242.3</ele>
        <time>2023-03-26T12:21:36Z</time>
      </trkpt>
      <trkpt lat="49.16085" lon="1.98589">
        <ele>242.1</ele>
        <time>2023-03-26T12:21:41Z</time>
      </trkpt>
      <trkpt lat="49.16083" lon="1.98595">
        <ele>241.7</ele>
        <time>2023-03-26T12:21:47Z</time>
      </trkpt>
      <trkpt lat="49.16079" lon="1.98603">
        <ele>241.7</ele>
        <time>2023-03-26T12:21:52Z</time>
      </trkpt>
      <trkpt lat="49.16075" lon="1.98609">
        <ele>241.9</ele>
        <time>2023-03-26T12:21:57Z</time>
      </trkpt>
      <trkpt lat="49.16072" lon="1.98617">
        <ele>241.9</ele>
        <time>2023-03-26T12:22:03Z</time>
      </trkpt>
      <trkpt lat="49.16067" lon="1.98623">
        <ele>241.5</ele>
        <time>2023-03-26T12:22:09Z</time>
      </trkpt>
      <trkpt lat="49.16064" lon="1.98629">
        <ele>241.4</ele>
        <time>2023-03-26T12:22:14Z</time>
      </trkpt>
      <trkpt lat="49.1606" lon="1.98638">
        <ele>240.9</ele>
        <time>2023-03-26T12:22:20Z</time>
      </trkpt>
      <trkpt lat="49.16056" lon="1.98642">
        <ele>240.7</ele>
        <time>2023-03-26T12:22:25Z</time>
      </trkpt>
      <trkpt lat="49.16051" lon="1.98649">
        <ele>240.9</ele>
        <time>2023-03-26T12:22:31Z</time>
      </trkpt>
      <trkpt lat="49.16048" lon="1.98655">
        <ele>241</ele>
        <time>2023-03-26T12:22:36Z</time>
      </trkpt>
      <trkpt lat="49.16048" lon="1.98658">
        <ele>240.8</ele>
        <time>2023-03-26T12:22:41Z</time>
      </trkpt>
      <trkpt lat="49.16045" lon="1.98667">
        <ele>240.7</ele>
        <time>2023-03-26T12:22:46Z</time>
      </trkpt>
      <trkpt lat="49.16041" lon="1.98676">
        <ele>240.8</ele>
        <time>2023-03-26T12:22:51Z</time>
      </trkpt>
      <trkpt lat="49.1604" lon="1.98686">
        <ele>241</ele>
        <time>2023-03-26T12:22:57Z</time>
      </trkpt>
      <trkpt lat="49.16038" lon="1.98694">
        <ele>241</ele>
        <time>2023-03-26T12:23:02Z</time>
      </trkpt>
      <trkpt lat="49.16035" lon="1.98703">
        <ele>240.7</ele>
        <time>2023-03-26T12:23:08Z</time>
      </trkpt>
      <trkpt lat="49.16033" lon="1.9871">
        <ele>240.4</ele>
        <time>2023-03-26T12:23:14Z</time>
      </trkpt>
      <trkpt lat="49.16032" lon="1.98715">
        <ele>240.3</ele>
        <time>2023-03-26T12:23:19Z</time>
      </trkpt>
      <trkpt lat="49.1603" lon="1.9872">
        <ele>240.2</ele>
        <time>2023-03-26T12:23:24Z</time>
      </trkpt>
      <trkpt lat="49.16028" lon="1.98728">
        <ele>239.7</ele>
        <time>2023-03-26T12:23:30Z</time>
      </trkpt>
      <trkpt lat="49.16025" lon="1.98738">
        <ele>238.9</ele>
        <time>2023-03-26T12:23:36Z</time>
      </trkpt>
      <trkpt lat="49.16022" lon="1.98747">
        <ele>238.3</ele>
        <time>2023-03-26T12:23:41Z</time>
      </trkpt>
      <trkpt lat="49.16017" lon="1.98757">
        <ele>238.2</ele>
        <time>2023-03-26T12:23:47Z</time>
      </trkpt>
      <trkpt lat="49.16014" lon="1.98763">
        <ele>238.2</ele>
        <time>2023-03-26T12:23:53Z</time>
      </trkpt>
      <trkpt lat="49.1601" lon="1.98768">
        <ele>238</ele>
        <time>2023-03-26T12:23:59Z</time>
      </trkpt>
      <trkpt lat="49.16007" lon="1.98776">
        <ele>237.7</ele>
        <time>2023-03-26T12:24:05Z</time>
      </trkpt>
      <trkpt lat="49.16005" lon="1.98786">
        <ele>237.6</ele>
        <time>2023-03-26T12:24:10Z</time>
      </trkpt>
      <trkpt lat="49.16003" lon="1.98799">
        <ele>237.5</ele>
        <time>2023-03-26T12:24:16Z</time>
      </trkpt>
      <trkpt lat="49.15997" lon="1.98805">
        <ele>237.2</ele>
        <time>2023-03-26T12:24:21Z</time>
      </trkpt>
      <trkpt lat="49.15991" lon="1.98814">
        <ele>237.2</ele>
        <time>2023-03-26T12:24:26Z</time>
      </trkpt>
      <trkpt lat="49.15987" lon="1.98823">
        <ele>237.4</ele>
        <time>2023-03-26T12:24:32Z</time>
      </trkpt>
      <trkpt lat="49.15985" lon="1.98829">
        <ele>237.4</ele>
        <time>2023-03-26T12:24:37Z</time>
      </trkpt>
      <trkpt lat="49.15983" lon="1.98841">
        <ele>237.5</ele>
        <time>2023-03-26T12:24:43Z</time>
      </trkpt>
      <trkpt lat="49.15978" lon="1.98847">
        <ele>237.6</ele>
        <time>2023-03-26T12:24:49Z</time>
      </trkpt>
      <trkpt lat="49.15972" lon="1.98857">
        <ele>237.8</ele>
        <time>2023-03-26T12:24:55Z</time>
      </trkpt>
      <trkpt lat="49.15966" lon="1.98866">
        <ele>238.4</ele>
        <time>2023-03-26T12:25:01Z</time>
      </trkpt>
      <trkpt lat="49.15964" lon="1.98872">
        <ele>238.7</ele>
        <time>2023-03-26T12:25:06Z</time>
      </trkpt>
      <trkpt lat="49.15964" lon="1.9888">
        <ele>239.6</ele>
        <time>2023-03-26T12:25:11Z</time>
      </trkpt>
      <trkpt lat="49.15962" lon="1.98891">
        <ele>240.2</ele>
        <time>2023-03-26T12:25:17Z</time>
      </trkpt>
      <trkpt lat="49.15959" lon="1.98902">
        <ele>240.7</ele>
        <time>2023-03-26T12:25:23Z</time>
      </trkpt>
      <trkpt lat="49.15957" lon="1.98913">
        <ele>241.3</ele>
        <time>2023-03-26T12:25:28Z</time>
      </trkpt>
      <trkpt lat="49.15952" lon="1.98921">
        <ele>242.2</ele>
        <time>2023-03-26T12:25:34Z</time>
      </trkpt>
      <trkpt lat="49.15948" lon="1.9893">
        <ele>242.8</ele>
        <time>2023-03-26T12:25:39Z</time>
      </trkpt>
      <trkpt lat="49.15943" lon="1.98938">
        <ele>243.5</ele>
        <time>2023-03-26T12:25:45Z</time>
      </trkpt>
      <trkpt lat="49.15941" lon="1.98946">
        <ele>243.9</ele>
        <time>2023-03-26T12:25:51Z</time>
      </trkpt>
      <trkpt lat="49.15937" lon="1.98954">
        <ele>244.3</ele>
        <time>2023-03-26T12:25:57Z</time>
      </trkpt>
      <trkpt lat="49.15934" lon="1.9896">
        <ele>244.6</ele>
        <time>2023-03-26T12:26:03Z</time>
      </trkpt>
      <trkpt lat="49.1593" lon="1.98971">
        <ele>244.5</ele>
        <time>2023-03-26T12:26:08Z</time>
      </trkpt>
      <trkpt lat="49.15928" lon="1.98982">
        <ele>244.3</ele>
        <time>2023-03-26T12:26:14Z</time>
      </trkpt>
      <trkpt lat="49.15923" lon="1.98987">
        <ele>244.1</ele>
        <time>2023-03-26T12:26:20Z</time>
      </trkpt>
      <trkpt lat="49.15921" lon="1.98993">
        <ele>243.9</ele>
        <time>2023-03-26T12:26:25Z</time>
      </trkpt>
      <trkpt lat="49.15918" lon="1.98999">
        <ele>243.5</ele>
        <time>2023-03-26T12:26:31Z</time>
      </trkpt>
      <trkpt lat="49.15915" lon="1.99007">
        <ele>243.1</ele>
        <time>2023-03-26T12:26:36Z</time>
      </trkpt>
      <trkpt lat="49.15911" lon="1.99021">
        <ele>242.6</ele>
        <time>2023-03-26T12:26:42Z</time>
      </trkpt>
      <trkpt lat="49.15906" lon="1.99034">
        <ele>242.3</ele>
        <time>2023-03-26T12:26:48Z</time>
      </trkpt>
      <trkpt lat="49.159" lon="1.99047">
        <ele>242.4</ele>
        <time>2023-03-26T12:26:54Z</time>
      </trkpt>
      <trkpt lat="49.15892" lon="1.99059">
        <ele>242.8</ele>
        <time>2023-03-26T12:27:00Z</time>
      </trkpt>
      <trkpt lat="49.15887" lon="1.99066">
        <ele>243</ele>
        <time>2023-03-26T12:27:06Z</time>
      </trkpt>
      <trkpt lat="49.15882" lon="1.99073">
        <ele>242.9</ele>
        <time>2023-03-26T12:27:12Z</time>
      </trkpt>
      <trkpt lat="49.15878" lon="1.99083">
        <ele>242.8</ele>
        <time>2023-03-26T12:27:18Z</time>
      </trkpt>
      <trkpt lat="49.15875" lon="1.99089">
        <ele>242.7</ele>
        <time>2023-03-26T12:27:23Z</time>
      </trkpt>
      <trkpt lat="49.15872" lon="1.991">
        <ele>242.5</ele>
        <time>2023-03-26T12:27:29Z</time>
      </trkpt>
      <trkpt lat="49.15868" lon="1.99109">
        <ele>242.3</ele>
        <time>2023-03-26T12:27:34Z</time>
      </trkpt>
      <trkpt lat="49.15863" lon="1.99119">
        <ele>242.1</ele>
        <time>2023-03-26T12:27:40Z</time>
      </trkpt>
      <trkpt lat="49.15858" lon="1.99127">
        <ele>241.8</ele>
        <time>2023-03-26T12:27:45Z</time>
      </trkpt>
      <trkpt lat="49.15855" lon="1.99136">
        <ele>241.6</ele>
        <time>2023-03-26T12:27:50Z</time>
      </trkpt>
      <trkpt lat="49.15852" lon="1.99145">
        <ele>241.4</ele>
        <time>2023-03-26T12:27:56Z</time>
      </trkpt>
      <trkpt lat="49.15847" lon="1.99154">
        <ele>241.2</ele>
        <time>2023-03-26T12:28:02Z</time>
      </trkpt>
      <trkpt lat="49.15841" lon="1.99165">
        <ele>241.1</ele>
        <time>2023-03-26T12:28:08Z</time>
      </trkpt>
      <trkpt lat="49.15836" lon="1.99175">
        <ele>241.6</ele>
        <time>2023-03-26T12:28:13Z</time>
      </trkpt>
      <trkpt lat="49.15831" lon="1.99183">
        <ele>242.7</ele>
        <time>2023-03-26T12:28:19Z</time>
      </trkpt>
      <trkpt lat="49.15827" lon="1.99191">
        <ele>243.8</ele>
        <time>2023-03-26T12:28:25Z</time>
      </trkpt>
      <trkpt lat="49.15822" lon="1.99202">
        <ele>244.8</ele>
        <time>2023-03-26T12:28:31Z</time>
      </trkpt>
      <trkpt lat="49.15818" lon="1.99212">
        <ele>245.7</ele>
        <time>2023-03-26T12:28:36Z</time>
      </trkpt>
      <trkpt lat="49.15817" lon="1.99222">
        <ele>246.4</ele>
        <time>2023-03-26T12:28:42Z</time>
      </trkpt>
      <trkpt lat="49.15818" lon="1.99226">
        <ele>246.5</ele>
        <time>2023-03-26T12:28:48Z</time>
      </trkpt>
      <trkpt lat="49.15819" lon="1.99225">
        <ele>246.6</ele>
        <time>2023-03-26T12:28:53Z</time>
      </trkpt>
      <trkpt lat="49.15818" lon="1.99225">
        <ele>246.5</ele>
        <time>2023-03-26T12:28:59Z</time>
      </trkpt>
      <trkpt lat="49.15818" lon="1.99226">
        <ele>246.5</ele>
        <time>2023-03-26T12:29:04Z</time>
      </trkpt>
      <trkpt lat="49.15818" lon="1.99226">
        <ele>246.4</ele>
        <time>2023-03-26T12:29:09Z</time>
      </trkpt>
      <trkpt lat="49.15818" lon="1.99225">
        <ele>246.4</ele>
        <time>2023-03-26T12:29:14Z</time>
      </trkpt>
      <trkpt lat="49.15818" lon="1.99225">
        <ele>246.4</ele>
        <time>2023-03-26T12:29:19Z</time>
      </trkpt>
      <trkpt lat="49.15818" lon="1.99225">
        <ele>246.4</ele>
        <time>2023-03-26T12:29:25Z</time>
      </trkpt>
      <trkpt lat="49.15818" lon="1.99225">
        <ele>246.3</ele>
        <time>2023-03-26T12:29:30Z</time>
      </trkpt>
      <trkpt lat="49.15818" lon="1.99225">
        <ele>246.3</ele>
        <time>2023-03-26T12:29:36Z</time>
      </trkpt>
      <trkpt lat="49.15818" lon="1.99225">
        <ele>246.2</ele>
        <time>2023-03-26T12:29:41Z</time>
      </trkpt>
      <trkpt lat="49.15816" lon="1.99225">
        <ele>245.9</ele>
        <time>2023-03-26T12:29:47Z</time>
      </trkpt>
      <trkpt lat="49.15815" lon="1.99227">
        <ele>245.7</ele>
        <time>2023-03-26T12:29:53Z</time>
      </trkpt>
      <trkpt lat="49.15815" lon="1.99229">
        <ele>245.6</ele>
        <time>2023-03-26T12:29:59Z</time>
      </trkpt>
      <trkpt lat="49.15815" lon="1.99229">
        <ele>245.5</ele>
        <time>2023-03-26T12:30:05Z</time>
      </trkpt>
      <trkpt lat="49.15815" lon="1.99229">
        <ele>245.4</ele>
        <time>2023-03-26T12:30:10Z</time>
      </trkpt>
      <trkpt lat="49.15815" lon="1.99229">
        <ele>245.3</ele>
        <time>2023-03-26T12:30:16Z</time>
      </trkpt>
      <trkpt lat="49.15816" lon="1.99229">
        <ele>245.2</ele>
        <time>2023-03-26T12:30:21Z</time>
      </trkpt>
      <trkpt lat="49.15815" lon="1.99231">
        <ele>244.7</ele>
        <time>2023-03-26T12:30:26Z</time>
      </trkpt>
      <trkpt lat="49.15815" lon="1.99232">
        <ele>244.4</ele>
        <time>2023-03-26T12:30:32Z</time>
      </trkpt>
      <trkpt lat="49.15814" lon="1.99235">
        <ele>244.6</ele>
        <time>2023-03-26T12:30:37Z</time>
      </trkpt>
      <trkpt lat="49.15811" lon="1.99242">
        <ele>244.9</ele>
        <time>2023-03-26T12:30:43Z</time>
      </trkpt>
      <trkpt lat="49.15809" lon="1.99251">
        <ele>245</ele>
        <time>2023-03-26T12:30:49Z</time>
      </trkpt>
      <trkpt lat="49.15805" lon="1.99258">
        <ele>245.2</ele>
        <time>2023-03-26T12:30:55Z</time>
      </trkpt>
      <trkpt lat="49.15802" lon="1.99264">
        <ele>245.3</ele>
        <time>2023-03-26T12:31:00Z</time>
      </trkpt>
      <trkpt lat="49.15801" lon="1.9927">
        <ele>245.4</ele>
        <time>2023-03-26T12:31:05Z</time>
      </trkpt>
      <trkpt lat="49.15797" lon="1.99278">
        <ele>245.3</ele>
        <time>2023-03-26T12:31:10Z</time>
      </trkpt>
      <trkpt lat="49.15795" lon="1.99287">
        <ele>245.5</ele>
        <time>2023-03-26T12:31:16Z</time>
      </trkpt>
      <trkpt lat="49.15793" lon="1.99299">
        <ele>245.9</ele>
        <time>2023-03-26T12:31:22Z</time>
      </trkpt>
      <trkpt lat="49.15789" lon="1.99305">
        <ele>246.2</ele>
        <time>2023-03-26T12:31:28Z</time>
      </trkpt>
      <trkpt lat="49.15786" lon="1.99312">
        <ele>246.4</ele>
        <time>2023-03-26T12:31:33Z</time>
      </trkpt>
      <trkpt lat="49.15784" lon="1.99318">
        <ele>246.8</ele>
        <time>2023-03-26T12:31:38Z</time>
      </trkpt>
      <trkpt lat="49.15779" lon="1.99325">
        <ele>247.5</ele>
        <time>2023-03-26T12:31:44Z</time>
      </trkpt>
      <trkpt lat="49.15778" lon="1.9933">
        <ele>247.6</ele>
        <time>2023-03-26T12:31:49Z</time>
      </trkpt>
      <trkpt lat="49.15777" lon="1.99335">
        <ele>247.5</ele>
        <time>2023-03-26T12:31:54Z</time>
      </trkpt>
      <trkpt lat="49.15774" lon="1.99347">
        <ele>247.2</ele>
        <time>2023-03-26T12:32:00Z</time>
      </trkpt>
      <trkpt lat="49.15771" lon="1.99357">
        <ele>247.2</ele>
        <time>2023-03-26T12:32:06Z</time>
      </trkpt>
      <trkpt lat="49.15766" lon="1.99369">
        <ele>247.2</ele>
        <time>2023-03-26T12:32:11Z</time>
      </trkpt>
      <trkpt lat="49.15762" lon="1.99377">
        <ele>247.3</ele>
        <time>2023-03-26T12:32:17Z</time>
      </trkpt>
      <trkpt lat="49.15759" lon="1.99386">
        <ele>247.3</ele>
        <time>2023-03-26T12:32:23Z</time>
      </trkpt>
      <trkpt lat="49.15758" lon="1.99395">
        <ele>247.1</ele>
        <time>2023-03-26T12:32:28Z</time>
      </trkpt>
      <trkpt lat="49.15754" lon="1.99405">
        <ele>246.9</ele>
        <time>2023-03-26T12:32:34Z</time>
      </trkpt>
      <trkpt lat="49.15749" lon="1.99412">
        <ele>246.9</ele>
        <time>2023-03-26T12:32:40Z</time>
      </trkpt>
      <trkpt lat="49.15748" lon="1.99416">
        <ele>247.1</ele>
        <time>2023-03-26T12:32:45Z</time>
      </trkpt>
      <trkpt lat="49.15747" lon="1.9942">
        <ele>247.6</ele>
        <time>2023-03-26T12:32:50Z</time>
      </trkpt>
      <trkpt lat="49.15745" lon="1.99428">
        <ele>248</ele>
        <time>2023-03-26T12:32:56Z</time>
      </trkpt>
      <trkpt lat="49.15743" lon="1.99435">
        <ele>248.8</ele>
        <time>2023-03-26T12:33:02Z</time>
      </trkpt>
      <trkpt lat="49.15737" lon="1.99443">
        <ele>249.2</ele>
        <time>2023-03-26T12:33:08Z</time>
      </trkpt>
      <trkpt lat="49.15734" lon="1.99456">
        <ele>248.7</ele>
        <time>2023-03-26T12:33:14Z</time>
      </trkpt>
      <trkpt lat="49.1573" lon="1.99465">
        <ele>248.2</ele>
        <time>2023-03-26T12:33:19Z</time>
      </trkpt>
      <trkpt lat="49.15728" lon="1.9947">
        <ele>248</ele>
        <time>2023-03-26T12:33:25Z</time>
      </trkpt>
      <trkpt lat="49.15724" lon="1.99479">
        <ele>247.9</ele>
        <time>2023-03-26T12:33:30Z</time>
      </trkpt>
      <trkpt lat="49.15719" lon="1.99489">
        <ele>247.8</ele>
        <time>2023-03-26T12:33:36Z</time>
      </trkpt>
      <trkpt lat="49.15717" lon="1.99495">
        <ele>247.8</ele>
        <time>2023-03-26T12:33:41Z</time>
      </trkpt>
      <trkpt lat="49.15716" lon="1.99506">
        <ele>248</ele>
        <time>2023-03-26T12:33:47Z</time>
      </trkpt>
      <trkpt lat="49.15712" lon="1.99514">
        <ele>248.3</ele>
        <time>2023-03-26T12:33:52Z</time>
      </trkpt>
      <trkpt lat="49.15708" lon="1.99525">
        <ele>248.9</ele>
        <time>2023-03-26T12:33:58Z</time>
      </trkpt>
      <trkpt lat="49.15705" lon="1.99536">
        <ele>249.7</ele>
        <time>2023-03-26T12:34:04Z</time>
      </trkpt>
      <trkpt lat="49.15703" lon="1.99537">
        <ele>249.8</ele>
        <time>2023-03-26T12:34:09Z</time>
      </trkpt>
      <trkpt lat="49.15704" lon="1.99536">
        <ele>249.8</ele>
        <time>2023-03-26T12:34:15Z</time>
      </trkpt>
      <trkpt lat="49.15705" lon="1.99534">
        <ele>249.8</ele>
        <time>2023-03-26T12:34:21Z</time>
      </trkpt>
      <trkpt lat="49.15705" lon="1.99534">
        <ele>249.8</ele>
        <time>2023-03-26T12:34:26Z</time>
      </trkpt>
      <trkpt lat="49.15706" lon="1.99534">
        <ele>249.8</ele>
        <time>2023-03-26T12:34:31Z</time>
      </trkpt>
      <trkpt lat="49.15707" lon="1.99535">
        <ele>249.8</ele>
        <time>2023-03-26T12:34:36Z</time>
      </trkpt>
      <trkpt lat="49.15709" lon="1.99537">
        <ele>249.6</ele>
        <time>2023-03-26T12:34:42Z</time>
      </trkpt>
      <trkpt lat="49.15709" lon="1.99539">
        <ele>249.6</ele>
        <time>2023-03-26T12:34:48Z</time>
      </trkpt>
      <trkpt lat="49.15709" lon="1.99542">
        <ele>249</ele>
        <time>2023-03-26T12:34:54Z</time>
      </trkpt>
      <trkpt lat="49.15708" lon="1.99548">
        <ele>248.1</ele>
        <time>2023-03-26T12:34:59Z</time>
      </trkpt>
      <trkpt lat="49.15705" lon="1.99556">
        <ele>247.1</ele>
        <time>2023-03-26T12:35:05Z</time>
      </trkpt>
      <trkpt lat="49.157" lon="1.99571">
        <ele>245.8</ele>
        <time>2023-03-26T12:35:11Z</time>
      </trkpt>
      <trkpt lat="49.15697" lon="1.99583">
        <ele>245</ele>
        <time>2023-03-26T12:35:17Z</time>
      </trkpt>
      <trkpt lat="49.15695" lon="1.99592">
        <ele>244.5</ele>
        <time>2023-03-26T12:35:22Z</time>
      </trkpt>
      <trkpt lat="49.15693" lon="1.99597">
        <ele>243.9</ele>
        <time>2023-03-26T12:35:28Z</time>
      </trkpt>
      <trkpt lat="49.1569" lon="1.996">
        <ele>243.7</ele>
        <time>2023-03-26T12:35:33Z</time>
      </trkpt>
      <trkpt lat="49.15687" lon="1.99605">
        <ele>243.6</ele>
        <time>2023-03-26T12:35:39Z</time>
      </trkpt>
      <trkpt lat="49.15684" lon="1.99611">
        <ele>243.7</ele>
        <time>2023-03-26T12:35:44Z</time>
      </trkpt>
      <trkpt lat="49.15681" lon="1.99618">
        <ele>243.7</ele>
        <time>2023-03-26T12:35:49Z</time>
      </trkpt>
      <trkpt lat="49.15676" lon="1.99629">
        <ele>243.4</ele>
        <time>2023-03-26T12:35:54Z</time>
      </trkpt>
      <trkpt lat="49.1567" lon="1.99642">
        <ele>243.3</ele>
        <time>2023-03-26T12:36:00Z</time>
      </trkpt>
      <trkpt lat="49.15667" lon="1.99649">
        <ele>243.1</ele>
        <time>2023-03-26T12:36:05Z</time>
      </trkpt>
      <trkpt lat="49.15664" lon="1.99656">
        <ele>242.9</ele>
        <time>2023-03-26T12:36:10Z</time>
      </trkpt>
      <trkpt lat="49.1566" lon="1.99666">
        <ele>243.2</ele>
        <time>2023-03-26T12:36:15Z</time>
      </trkpt>
      <trkpt lat="49.15655" lon="1.99674">
        <ele>243.4</ele>
        <time>2023-03-26T12:36:21Z</time>
      </trkpt>
      <trkpt lat="49.1565" lon="1.9968">
        <ele>244.4</ele>
        <time>2023-03-26T12:36:26Z</time>
      </trkpt>
      <trkpt lat="49.15647" lon="1.99685">
        <ele>245.2</ele>
        <time>2023-03-26T12:36:32Z</time>
      </trkpt>
      <trkpt lat="49.15644" lon="1.99689">
        <ele>246.6</ele>
        <time>2023-03-26T12:36:37Z</time>
      </trkpt>
      <trkpt lat="49.1564" lon="1.99698">
        <ele>248.1</ele>
        <time>2023-03-26T12:36:43Z</time>
      </trkpt>
      <trkpt lat="49.15636" lon="1.99707">
        <ele>249.5</ele>
        <time>2023-03-26T12:36:48Z</time>
      </trkpt>
      <trkpt lat="49.15632" lon="1.99719">
        <ele>250.7</ele>
        <time>2023-03-26T12:36:54Z</time>
      </trkpt>
      <trkpt lat="49.15626" lon="1.99731">
        <ele>251.5</ele>
        <time>2023-03-26T12:37:00Z</time>
      </trkpt>
      <trkpt lat="49.15621" lon="1.99738">
        <ele>251.8</ele>
        <time>2023-03-26T12:37:05Z</time>
      </trkpt>
      <trkpt lat="49.15614" lon="1.99745">
        <ele>252.3</ele>
        <time>2023-03-26T12:37:11Z</time>
      </trkpt>
      <trkpt lat="49.15609" lon="1.99752">
        <ele>252.8</ele>
        <time>2023-03-26T12:37:17Z</time>
      </trkpt>
      <trkpt lat="49.15605" lon="1.99759">
        <ele>253.7</ele>
        <time>2023-03-26T12:37:23Z</time>
      </trkpt>
      <trkpt lat="49.15601" lon="1.99767">
        <ele>254.3</ele>
        <time>2023-03-26T12:37:28Z</time>
      </trkpt>
      <trkpt lat="49.15596" lon="1.99776">
        <ele>255</ele>
        <time>2023-03-26T12:37:33Z</time>
      </trkpt>
      <trkpt lat="49.15591" lon="1.99785">
        <ele>255.7</ele>
        <time>2023-03-26T12:37:39Z</time>
      </trkpt>
      <trkpt lat="49.15587" lon="1.99793">
        <ele>256.5</ele>
        <time>2023-03-26T12:37:45Z</time>
      </trkpt>
      <trkpt lat="49.15583" lon="1.99802">
        <ele>257.7</ele>
        <time>2023-03-26T12:37:51Z</time>
      </trkpt>
      <trkpt lat="49.15579" lon="1.9981">
        <ele>258.6</ele>
        <time>2023-03-26T12:37:56Z</time>
      </trkpt>
      <trkpt lat="49.15573" lon="1.99819">
        <ele>259.3</ele>
        <time>2023-03-26T12:38:02Z</time>
      </trkpt>
      <trkpt lat="49.1557" lon="1.99826">
        <ele>259.7</ele>
        <time>2023-03-26T12:38:07Z</time>
      </trkpt>
      <trkpt lat="49.15567" lon="1.99834">
        <ele>259.8</ele>
        <time>2023-03-26T12:38:13Z</time>
      </trkpt>
      <trkpt lat="49.15562" lon="1.99844">
        <ele>259.4</ele>
        <time>2023-03-26T12:38:19Z</time>
      </trkpt>
      <trkpt lat="49.15558" lon="1.99854">
        <ele>258.9</ele>
        <time>2023-03-26T12:38:25Z</time>
      </trkpt>
      <trkpt lat="49.15554" lon="1.99862">
        <ele>258.4</ele>
        <time>2023-03-26T12:38:31Z</time>
      </trkpt>
      <trkpt lat="49.1555" lon="1.99869">
        <ele>257.9</ele>
        <time>2023-03-26T12:38:37Z</time>
      </trkpt>
      <trkpt lat="49.15544" lon="1.99877">
        <ele>257.6</ele>
        <time>2023-03-26T12:38:43Z</time>
      </trkpt>
      <trkpt lat="49.15538" lon="1.99885">
        <ele>257.9</ele>
        <time>2023-03-26T12:38:48Z</time>
      </trkpt>
      <trkpt lat="49.15534" lon="1.99893">
        <ele>258.2</ele>
        <time>2023-03-26T12:38:53Z</time>
      </trkpt>
      <trkpt lat="49.1553" lon="1.999">
        <ele>258.6</ele>
        <time>2023-03-26T12:38:58Z</time>
      </trkpt>
      <trkpt lat="49.15526" lon="1.99908">
        <ele>259.3</ele>
        <time>2023-03-26T12:39:04Z</time>
      </trkpt>
      <trkpt lat="49.15523" lon="1.99915">
        <ele>259.5</ele>
        <time>2023-03-26T12:39:09Z</time>
      </trkpt>
      <trkpt lat="49.1552" lon="1.99924">
        <ele>259.3</ele>
        <time>2023-03-26T12:39:15Z</time>
      </trkpt>
      <trkpt lat="49.15516" lon="1.99932">
        <ele>259</ele>
        <time>2023-03-26T12:39:20Z</time>
      </trkpt>
      <trkpt lat="49.15512" lon="1.99944">
        <ele>258.4</ele>
        <time>2023-03-26T12:39:26Z</time>
      </trkpt>
      <trkpt lat="49.15508" lon="1.99955">
        <ele>257.4</ele>
        <time>2023-03-26T12:39:32Z</time>
      </trkpt>
      <trkpt lat="49.15504" lon="1.99966">
        <ele>256.6</ele>
        <time>2023-03-26T12:39:38Z</time>
      </trkpt>
      <trkpt lat="49.155" lon="1.99975">
        <ele>256</ele>
        <time>2023-03-26T12:39:43Z</time>
      </trkpt>
      <trkpt lat="49.15495" lon="1.99984">
        <ele>255.3</ele>
        <time>2023-03-26T12:39:48Z</time>
      </trkpt>
      <trkpt lat="49.1549" lon="1.99994">
        <ele>254.7</ele>
        <time>2023-03-26T12:39:54Z</time>
      </trkpt>
      <trkpt lat="49.15483" lon="2.00006">
        <ele>254.2</ele>
        <time>2023-03-26T12:40:00Z</time>
      </trkpt>
      <trkpt lat="49.15479" lon="2.00013">
        <ele>253.9</ele>
        <time>2023-03-26T12:40:05Z</time>
      </trkpt>
      <trkpt lat="49.15476" lon="2.00018">
        <ele>253.5</ele>
        <time>2023-03-26T12:40:10Z</time>
      </trkpt>
      <trkpt lat="49.15472" lon="2.00024">
        <ele>253.3</ele>
        <time>2023-03-26T12:40:15Z</time>
      </trkpt>
      <trkpt lat="49.15467" lon="2.00029">
        <ele>253.3</ele>
        <time>2023-03-26T12:40:21Z</time>
      </trkpt>
      <trkpt lat="49.15462" lon="2.00036">
        <ele>253.4</ele>
        <time>2023-03-26T12:40:26Z</time>
      </trkpt>
      <trkpt lat="49.15458" lon="2.00041">
        <ele>253.3</ele>
        <time>2023-03-26T12:40:31Z</time>
      </trkpt>
      <trkpt lat="49.15453" lon="2.00047">
        <ele>253.2</ele>
        <time>2023-03-26T12:40:36Z</time>
      </trkpt>
      <trkpt lat="49.15447" lon="2.00055">
        <ele>253.3</ele>
        <time>2023-03-26T12:40:41Z</time>
      </trkpt>
      <trkpt lat="49.15442" lon="2.0006">
        <ele>253.5</ele>
        <time>2023-03-26T12:40:46Z</time>
      </trkpt>
      <trkpt lat="49.15437" lon="2.00071">
        <ele>253.7</ele>
        <time>2023-03-26T12:40:52Z</time>
      </trkpt>
      <trkpt lat="49.15432" lon="2.0008">
        <ele>253.9</ele>
        <time>2023-03-26T12:40:58Z</time>
      </trkpt>
      <trkpt lat="49.15428" lon="2.0009">
        <ele>253.9</ele>
        <time>2023-03-26T12:41:04Z</time>
      </trkpt>
      <trkpt lat="49.15422" lon="2.00094">
        <ele>253.7</ele>
        <time>2023-03-26T12:41:09Z</time>
      </trkpt>
      <trkpt lat="49.15419" lon="2.00096">
        <ele>253.7</ele>
        <time>2023-03-26T12:41:14Z</time>
      </trkpt>
      <trkpt lat="49.15415" lon="2.001">
        <ele>253.9</ele>
        <time>2023-03-26T12:41:20Z</time>
      </trkpt>
      <trkpt lat="49.15412" lon="2.00107">
        <ele>253.8</ele>
        <time>2023-03-26T12:41:26Z</time>
      </trkpt>
      <trkpt lat="49.15408" lon="2.00114">
        <ele>253.9</ele>
        <time>2023-03-26T12:41:31Z</time>
      </trkpt>
      <trkpt lat="49.15402" lon="2.00124">
        <ele>253.6</ele>
        <time>2023-03-26T12:41:37Z</time>
      </trkpt>
      <trkpt lat="49.15396" lon="2.00136">
        <ele>253.4</ele>
        <time>2023-03-26T12:41:43Z</time>
      </trkpt>
      <trkpt lat="49.15392" lon="2.00145">
        <ele>253.1</ele>
        <time>2023-03-26T12:41:48Z</time>
      </trkpt>
      <trkpt lat="49.15385" lon="2.00155">
        <ele>252.4</ele>
        <time>2023-03-26T12:41:54Z</time>
      </trkpt>
      <trkpt lat="49.15379" lon="2.00163">
        <ele>251.8</ele>
        <time>2023-03-26T12:42:00Z</time>
      </trkpt>
      <trkpt lat="49.15377" lon="2.00168">
        <ele>251.5</ele>
        <time>2023-03-26T12:42:05Z</time>
      </trkpt>
      <trkpt lat="49.15375" lon="2.00172">
        <ele>251.2</ele>
        <time>2023-03-26T12:42:11Z</time>
      </trkpt>
      <trkpt lat="49.15368" lon="2.00178">
        <ele>250.3</ele>
        <time>2023-03-26T12:42:17Z</time>
      </trkpt>
      <trkpt lat="49.15363" lon="2.00184">
        <ele>249.9</ele>
        <time>2023-03-26T12:42:22Z</time>
      </trkpt>
      <trkpt lat="49.15357" lon="2.00192">
        <ele>249.4</ele>
        <time>2023-03-26T12:42:28Z</time>
      </trkpt>
      <trkpt lat="49.1535" lon="2.00202">
        <ele>249</ele>
        <time>2023-03-26T12:42:34Z</time>
      </trkpt>
      <trkpt lat="49.15345" lon="2.00209">
        <ele>248.7</ele>
        <time>2023-03-26T12:42:40Z</time>
      </trkpt>
      <trkpt lat="49.15344" lon="2.00216">
        <ele>247.7</ele>
        <time>2023-03-26T12:42:46Z</time>
      </trkpt>
      <trkpt lat="49.15342" lon="2.00224">
        <ele>247.1</ele>
        <time>2023-03-26T12:42:52Z</time>
      </trkpt>
      <trkpt lat="49.15339" lon="2.00231">
        <ele>246.5</ele>
        <time>2023-03-26T12:42:58Z</time>
      </trkpt>
      <trkpt lat="49.15336" lon="2.00235">
        <ele>246.4</ele>
        <time>2023-03-26T12:43:04Z</time>
      </trkpt>
      <trkpt lat="49.15333" lon="2.00244">
        <ele>246.4</ele>
        <time>2023-03-26T12:43:10Z</time>
      </trkpt>
      <trkpt lat="49.15328" lon="2.00256">
        <ele>246.7</ele>
        <time>2023-03-26T12:43:15Z</time>
      </trkpt>
      <trkpt lat="49.15321" lon="2.00269">
        <ele>247.2</ele>
        <time>2023-03-26T12:43:21Z</time>
      </trkpt>
      <trkpt lat="49.15316" lon="2.00283">
        <ele>247.8</ele>
        <time>2023-03-26T12:43:27Z</time>
      </trkpt>
      <trkpt lat="49.15311" lon="2.00294">
        <ele>248.4</ele>
        <time>2023-03-26T12:43:33Z</time>
      </trkpt>
      <trkpt lat="49.15307" lon="2.00303">
        <ele>249.3</ele>
        <time>2023-03-26T12:43:38Z</time>
      </trkpt>
      <trkpt lat="49.15302" lon="2.00312">
        <ele>250</ele>
        <time>2023-03-26T12:43:43Z</time>
      </trkpt>
      <trkpt lat="49.15296" lon="2.00321">
        <ele>250.7</ele>
        <time>2023-03-26T12:43:49Z</time>
      </trkpt>
      <trkpt lat="49.1529" lon="2.00329">
        <ele>251.4</ele>
        <time>2023-03-26T12:43:55Z</time>
      </trkpt>
      <trkpt lat="49.15286" lon="2.00336">
        <ele>251.9</ele>
        <time>2023-03-26T12:44:00Z</time>
      </trkpt>
      <trkpt lat="49.15283" lon="2.00344">
        <ele>252.5</ele>
        <time>2023-03-26T12:44:06Z</time>
      </trkpt>
      <trkpt lat="49.15278" lon="2.00352">
        <ele>253.1</ele>
        <time>2023-03-26T12:44:11Z</time>
      </trkpt>
      <trkpt lat="49.15273" lon="2.00361">
        <ele>253.6</ele>
        <time>2023-03-26T12:44:16Z</time>
      </trkpt>
      <trkpt lat="49.15268" lon="2.00368">
        <ele>254.3</ele>
        <time>2023-03-26T12:44:21Z</time>
      </trkpt>
      <trkpt lat="49.15262" lon="2.00377">
        <ele>255.4</ele>
        <time>2023-03-26T12:44:27Z</time>
      </trkpt>
      <trkpt lat="49.15256" lon="2.00387">
        <ele>256.4</ele>
        <time>2023-03-26T12:44:33Z</time>
      </trkpt>
      <trkpt lat="49.1525" lon="2.00399">
        <ele>257.5</ele>
        <time>2023-03-26T12:44:39Z</time>
      </trkpt>
      <trkpt lat="49.15243" lon="2.00407">
        <ele>258</ele>
        <time>2023-03-26T12:44:44Z</time>
      </trkpt>
      <trkpt lat="49.15238" lon="2.00411">
        <ele>258.3</ele>
        <time>2023-03-26T12:44:49Z</time>
      </trkpt>
      <trkpt lat="49.15235" lon="2.00416">
        <ele>258.4</ele>
        <time>2023-03-26T12:44:55Z</time>
      </trkpt>
      <trkpt lat="49.15231" lon="2.0042">
        <ele>258.2</ele>
        <time>2023-03-26T12:45:01Z</time>
      </trkpt>
      <trkpt lat="49.15229" lon="2.00423">
        <ele>257.8</ele>
        <time>2023-03-26T12:45:06Z</time>
      </trkpt>
      <trkpt lat="49.15226" lon="2.00429">
        <ele>257.1</ele>
        <time>2023-03-26T12:45:11Z</time>
      </trkpt>
      <trkpt lat="49.15222" lon="2.00437">
        <ele>256.3</ele>
        <time>2023-03-26T12:45:16Z</time>
      </trkpt>
      <trkpt lat="49.15218" lon="2.00448">
        <ele>255.2</ele>
        <time>2023-03-26T12:45:22Z</time>
      </trkpt>
      <trkpt lat="49.15213" lon="2.00462">
        <ele>254.1</ele>
        <time>2023-03-26T12:45:28Z</time>
      </trkpt>
      <trkpt lat="49.15208" lon="2.00471">
        <ele>253.6</ele>
        <time>2023-03-26T12:45:33Z</time>
      </trkpt>
      <trkpt lat="49.15204" lon="2.0048">
        <ele>252.8</ele>
        <time>2023-03-26T12:45:39Z</time>
      </trkpt>
      <trkpt lat="49.152" lon="2.00487">
        <ele>252.4</ele>
        <time>2023-03-26T12:45:45Z</time>
      </trkpt>
      <trkpt lat="49.15195" lon="2.00494">
        <ele>252.1</ele>
        <time>2023-03-26T12:45:50Z</time>
      </trkpt>
      <trkpt lat="49.1519" lon="2.00502">
        <ele>251.7</ele>
        <time>2023-03-26T12:45:56Z</time>
      </trkpt>
      <trkpt lat="49.15186" lon="2.00509">
        <ele>251.5</ele>
        <time>2023-03-26T12:46:01Z</time>
      </trkpt>
      <trkpt lat="49.15182" lon="2.00515">
        <ele>251.5</ele>
        <time>2023-03-26T12:46:06Z</time>
      </trkpt>
      <trkpt lat="49.15177" lon="2.00523">
        <ele>251.4</ele>
        <time>2023-03-26T12:46:12Z</time>
      </trkpt>
      <trkpt lat="49.15171" lon="2.00532">
        <ele>251.4</ele>
        <time>2023-03-26T12:46:18Z</time>
      </trkpt>
      <trkpt lat="49.15166" lon="2.00539">
        <ele>251.3</ele>
        <time>2023-03-26T12:46:24Z</time>
      </trkpt>
      <trkpt lat="49.15163" lon="2.00546">
        <ele>251.2</ele>
        <time>2023-03-26T12:46:29Z</time>
      </trkpt>
      <trkpt lat="49.15159" lon="2.00554">
        <ele>251</ele>
        <time>2023-03-26T12:46:34Z</time>
      </trkpt>
      <trkpt lat="49.15153" lon="2.00562">
        <ele>250.6</ele>
        <time>2023-03-26T12:46:39Z</time>
      </trkpt>
      <trkpt lat="49.15148" lon="2.00569">
        <ele>250.1</ele>
        <time>2023-03-26T12:46:44Z</time>
      </trkpt>
      <trkpt lat="49.15142" lon="2.00578">
        <ele>249.8</ele>
        <time>2023-03-26T12:46:50Z</time>
      </trkpt>
      <trkpt lat="49.15137" lon="2.00584">
        <ele>249.8</ele>
        <time>2023-03-26T12:46:56Z</time>
      </trkpt>
      <trkpt lat="49.15132" lon="2.00591">
        <ele>250</ele>
        <time>2023-03-26T12:47:02Z</time>
      </trkpt>
      <trkpt lat="49.15125" lon="2.00599">
        <ele>250</ele>
        <time>2023-03-26T12:47:08Z</time>
      </trkpt>
      <trkpt lat="49.15119" lon="2.00606">
        <ele>250.2</ele>
        <time>2023-03-26T12:47:14Z</time>
      </trkpt>
      <trkpt lat="49.15113" lon="2.00615">
        <ele>250.6</ele>
        <time>2023-03-26T12:47:20Z</time>
      </trkpt>
      <trkpt lat="49.15107" lon="2.00622">
        <ele>251</ele>
        <time>2023-03-26T12:47:25Z</time>
      </trkpt>
      <trkpt lat="49.151" lon="2.00632">
        <ele>251.4</ele>
        <time>2023-03-26T12:47:31Z</time>
      </trkpt>
      <trkpt lat="49.15095" lon="2.00638">
        <ele>251.8</ele>
        <time>2023-03-26T12:47:36Z</time>
      </trkpt>
      <trkpt lat="49.1509" lon="2.00644">
        <ele>252.4</ele>
        <time>2023-03-26T12:47:41Z</time>
      </trkpt>
      <trkpt lat="49.15084" lon="2.0065">
        <ele>253</ele>
        <time>2023-03-26T12:47:47Z</time>
      </trkpt>
      <trkpt lat="49.15077" lon="2.00656">
        <ele>253.3</ele>
        <time>2023-03-26T12:47:52Z</time>
      </trkpt>
      <trkpt lat="49.1507" lon="2.00663">
        <ele>253.7</ele>
        <time>2023-03-26T12:47:58Z</time>
      </trkpt>
      <trkpt lat="49.15065" lon="2.00668">
        <ele>253.9</ele>
        <time>2023-03-26T12:48:03Z</time>
      </trkpt>
      <trkpt lat="49.15061" lon="2.0067">
        <ele>254</ele>
        <time>2023-03-26T12:48:09Z</time>
      </trkpt>
      <trkpt lat="49.15056" lon="2.00671">
        <ele>254</ele>
        <time>2023-03-26T12:48:14Z</time>
      </trkpt>
      <trkpt lat="49.15049" lon="2.00679">
        <ele>253.9</ele>
        <time>2023-03-26T12:48:20Z</time>
      </trkpt>
      <trkpt lat="49.15044" lon="2.00686">
        <ele>253.7</ele>
        <time>2023-03-26T12:48:26Z</time>
      </trkpt>
      <trkpt lat="49.1504" lon="2.00695">
        <ele>253.5</ele>
        <time>2023-03-26T12:48:31Z</time>
      </trkpt>
      <trkpt lat="49.15035" lon="2.00705">
        <ele>253.2</ele>
        <time>2023-03-26T12:48:37Z</time>
      </trkpt>
      <trkpt lat="49.15029" lon="2.00716">
        <ele>252.8</ele>
        <time>2023-03-26T12:48:43Z</time>
      </trkpt>
      <trkpt lat="49.15025" lon="2.00727">
        <ele>252.1</ele>
        <time>2023-03-26T12:48:49Z</time>
      </trkpt>
      <trkpt lat="49.15022" lon="2.00737">
        <ele>251.2</ele>
        <time>2023-03-26T12:48:54Z</time>
      </trkpt>
      <trkpt lat="49.15017" lon="2.00744">
        <ele>250.3</ele>
        <time>2023-03-26T12:48:59Z</time>
      </trkpt>
      <trkpt lat="49.1501" lon="2.00751">
        <ele>248.8</ele>
        <time>2023-03-26T12:49:05Z</time>
      </trkpt>
      <trkpt lat="49.15004" lon="2.00755">
        <ele>247.1</ele>
        <time>2023-03-26T12:49:11Z</time>
      </trkpt>
      <trkpt lat="49.14995" lon="2.00761">
        <ele>245.2</ele>
        <time>2023-03-26T12:49:17Z</time>
      </trkpt>
      <trkpt lat="49.1499" lon="2.00762">
        <ele>243.6</ele>
        <time>2023-03-26T12:49:23Z</time>
      </trkpt>
      <trkpt lat="49.14984" lon="2.00764">
        <ele>241.9</ele>
        <time>2023-03-26T12:49:28Z</time>
      </trkpt>
      <trkpt lat="49.14977" lon="2.00769">
        <ele>239.4</ele>
        <time>2023-03-26T12:49:34Z</time>
      </trkpt>
      <trkpt lat="49.14973" lon="2.0077">
        <ele>237.7</ele>
        <time>2023-03-26T12:49:39Z</time>
      </trkpt>
      <trkpt lat="49.14967" lon="2.00774">
        <ele>235.6</ele>
        <time>2023-03-26T12:49:45Z</time>
      </trkpt>
      <trkpt lat="49.14958" lon="2.00781">
        <ele>233.7</ele>
        <time>2023-03-26T12:49:51Z</time>
      </trkpt>
      <trkpt lat="49.14949" lon="2.00787">
        <ele>232</ele>
        <time>2023-03-26T12:49:57Z</time>
      </trkpt>
      <trkpt lat="49.1494" lon="2.00792">
        <ele>230.5</ele>
        <time>2023-03-26T12:50:03Z</time>
      </trkpt>
      <trkpt lat="49.14935" lon="2.00795">
        <ele>229.6</ele>
        <time>2023-03-26T12:50:08Z</time>
      </trkpt>
      <trkpt lat="49.14928" lon="2.00798">
        <ele>228.5</ele>
        <time>2023-03-26T12:50:13Z</time>
      </trkpt>
      <trkpt lat="49.14923" lon="2.00802">
        <ele>227.4</ele>
        <time>2023-03-26T12:50:19Z</time>
      </trkpt>
      <trkpt lat="49.14917" lon="2.00811">
        <ele>226.5</ele>
        <time>2023-03-26T12:50:25Z</time>
      </trkpt>
      <trkpt lat="49.14913" lon="2.00819">
        <ele>225.8</ele>
        <time>2023-03-26T12:50:31Z</time>
      </trkpt>
      <trkpt lat="49.14908" lon="2.00826">
        <ele>225.5</ele>
        <time>2023-03-26T12:50:36Z</time>
      </trkpt>
      <trkpt lat="49.14903" lon="2.00835">
        <ele>224.7</ele>
        <time>2023-03-26T12:50:42Z</time>
      </trkpt>
      <trkpt lat="49.14898" lon="2.00842">
        <ele>224.2</ele>
        <time>2023-03-26T12:50:47Z</time>
      </trkpt>
      <trkpt lat="49.14893" lon="2.00848">
        <ele>223.7</ele>
        <time>2023-03-26T12:50:53Z</time>
      </trkpt>
      <trkpt lat="49.14888" lon="2.00858">
        <ele>223.3</ele>
        <time>2023-03-26T12:50:58Z</time>
      </trkpt>
      <trkpt lat="49.14884" lon="2.00867">
        <ele>223.1</ele>
        <time>2023-03-26T12:51:04Z</time>
      </trkpt>
      <trkpt lat="49.14879" lon="2.00871">
        <ele>222.9</ele>
        <time>2023-03-26T12:51:09Z</time>
      </trkpt>
      <trkpt lat="49.1487" lon="2.0088">
        <ele>222.7</ele>
        <time>2023-03-26T12:51:15Z</time>
      </trkpt>
      <trkpt lat="49.14865" lon="2.00891">
        <ele>222.6</ele>
        <time>2023-03-26T12:51:21Z</time>
      </trkpt>
      <trkpt lat="49.14862" lon="2.00899">
        <ele>222.7</ele>
        <time>2023-03-26T12:51:27Z</time>
      </trkpt>
      <trkpt lat="49.1486" lon="2.00908">
        <ele>222.8</ele>
        <time>2023-03-26T12:51:32Z</time>
      </trkpt>
      <trkpt lat="49.14856" lon="2.00914">
        <ele>222.9</ele>
        <time>2023-03-26T12:51:37Z</time>
      </trkpt>
      <trkpt lat="49.1485" lon="2.00922">
        <ele>222.9</ele>
        <time>2023-03-26T12:51:43Z</time>
      </trkpt>
      <trkpt lat="49.14846" lon="2.00926">
        <ele>223</ele>
        <time>2023-03-26T12:51:48Z</time>
      </trkpt>
      <trkpt lat="49.1484" lon="2.00936">
        <ele>223.2</ele>
        <time>2023-03-26T12:51:54Z</time>
      </trkpt>
      <trkpt lat="49.14835" lon="2.00945">
        <ele>223.7</ele>
        <time>2023-03-26T12:51:59Z</time>
      </trkpt>
      <trkpt lat="49.14829" lon="2.00953">
        <ele>224</ele>
        <time>2023-03-26T12:52:05Z</time>
      </trkpt>
      <trkpt lat="49.14825" lon="2.0096">
        <ele>224</ele>
        <time>2023-03-26T12:52:10Z</time>
      </trkpt>
      <trkpt lat="49.14819" lon="2.00966">
        <ele>224.2</ele>
        <time>2023-03-26T12:52:16Z</time>
      </trkpt>
      <trkpt lat="49.14814" lon="2.00973">
        <ele>224.3</ele>
        <time>2023-03-26T12:52:22Z</time>
      </trkpt>
      <trkpt lat="49.14809" lon="2.00982">
        <ele>224.4</ele>
        <time>2023-03-26T12:52:28Z</time>
      </trkpt>
      <trkpt lat="49.14803" lon="2.00991">
        <ele>224.4</ele>
        <time>2023-03-26T12:52:34Z</time>
      </trkpt>
      <trkpt lat="49.14799" lon="2.00996">
        <ele>224.3</ele>
        <time>2023-03-26T12:52:39Z</time>
      </trkpt>
      <trkpt lat="49.14795" lon="2.01002">
        <ele>224.1</ele>
        <time>2023-03-26T12:52:45Z</time>
      </trkpt>
      <trkpt lat="49.14792" lon="2.01006">
        <ele>224</ele>
        <time>2023-03-26T12:52:50Z</time>
      </trkpt>
      <trkpt lat="49.14786" lon="2.01016">
        <ele>224.1</ele>
        <time>2023-03-26T12:52:56Z</time>
      </trkpt>
      <trkpt lat="49.1478" lon="2.01026">
        <ele>224.6</ele>
        <time>2023-03-26T12:53:02Z</time>
      </trkpt>
      <trkpt lat="49.14775" lon="2.01034">
        <ele>225.1</ele>
        <time>2023-03-26T12:53:08Z</time>
      </trkpt>
      <trkpt lat="49.14774" lon="2.01038">
        <ele>225.4</ele>
        <time>2023-03-26T12:53:13Z</time>
      </trkpt>
      <trkpt lat="49.14769" lon="2.01042">
        <ele>225.3</ele>
        <time>2023-03-26T12:53:19Z</time>
      </trkpt>
      <trkpt lat="49.14764" lon="2.01044">
        <ele>224.8</ele>
        <time>2023-03-26T12:53:24Z</time>
      </trkpt>
      <trkpt lat="49.14757" lon="2.01048">
        <ele>223.5</ele>
        <time>2023-03-26T12:53:30Z</time>
      </trkpt>
      <trkpt lat="49.14751" lon="2.01053">
        <ele>222.3</ele>
        <time>2023-03-26T12:53:35Z</time>
      </trkpt>
      <trkpt lat="49.14744" lon="2.01058">
        <ele>220.4</ele>
        <time>2023-03-26T12:53:41Z</time>
      </trkpt>
      <trkpt lat="49.1474" lon="2.01062">
        <ele>218.7</ele>
        <time>2023-03-26T12:53:46Z</time>
      </trkpt>
      <trkpt lat="49.14736" lon="2.0107">
        <ele>217</ele>
        <time>2023-03-26T12:53:52Z</time>
      </trkpt>
      <trkpt lat="49.14732" lon="2.01077">
        <ele>215.9</ele>
        <time>2023-03-26T12:53:57Z</time>
      </trkpt>
      <trkpt lat="49.14728" lon="2.01083">
        <ele>215.3</ele>
        <time>2023-03-26T12:54:03Z</time>
      </trkpt>
      <trkpt lat="49.14725" lon="2.01088">
        <ele>214.6</ele>
        <time>2023-03-26T12:54:08Z</time>
      </trkpt>
      <trkpt lat="49.14719" lon="2.01097">
        <ele>213.7</ele>
        <time>2023-03-26T12:54:14Z</time>
      </trkpt>
      <trkpt lat="49.14714" lon="2.01103">
        <ele>212.8</ele>
        <time>2023-03-26T12:54:20Z</time>
      </trkpt>
      <trkpt lat="49.14709" lon="2.01107">
        <ele>211.6</ele>
        <time>2023-03-26T12:54:25Z</time>
      </trkpt>
      <trkpt lat="49.14704" lon="2.01112">
        <ele>210.3</ele>
        <time>2023-03-26T12:54:31Z</time>
      </trkpt>
      <trkpt lat="49.14699" lon="2.0112">
        <ele>209.4</ele>
        <time>2023-03-26T12:54:36Z</time>
      </trkpt>
      <trkpt lat="49.14694" lon="2.01127">
        <ele>208.9</ele>
        <time>2023-03-26T12:54:41Z</time>
      </trkpt>
      <trkpt lat="49.14688" lon="2.01134">
        <ele>208.2</ele>
        <time>2023-03-26T12:54:47Z</time>
      </trkpt>
      <trkpt lat="49.14682" lon="2.01141">
        <ele>207.8</ele>
        <time>2023-03-26T12:54:52Z</time>
      </trkpt>
      <trkpt lat="49.14673" lon="2.01151">
        <ele>207.4</ele>
        <time>2023-03-26T12:54:58Z</time>
      </trkpt>
      <trkpt lat="49.14666" lon="2.01159">
        <ele>207</ele>
        <time>2023-03-26T12:55:03Z</time>
      </trkpt>
      <trkpt lat="49.14659" lon="2.01167">
        <ele>206.6</ele>
        <time>2023-03-26T12:55:08Z</time>
      </trkpt>
      <trkpt lat="49.14652" lon="2.01171">
        <ele>205.9</ele>
        <time>2023-03-26T12:55:14Z</time>
      </trkpt>
      <trkpt lat="49.14644" lon="2.01176">
        <ele>205.2</ele>
        <time>2023-03-26T12:55:20Z</time>
      </trkpt>
      <trkpt lat="49.14638" lon="2.01181">
        <ele>204.7</ele>
        <time>2023-03-26T12:55:25Z</time>
      </trkpt>
      <trkpt lat="49.14632" lon="2.01184">
        <ele>204.4</ele>
        <time>2023-03-26T12:55:30Z</time>
      </trkpt>
      <trkpt lat="49.14626" lon="2.0119">
        <ele>204.1</ele>
        <time>2023-03-26T12:55:36Z</time>
      </trkpt>
      <trkpt lat="49.1462" lon="2.01197">
        <ele>203.9</ele>
        <time>2023-03-26T12:55:41Z</time>
      </trkpt>
      <trkpt lat="49.14611" lon="2.01206">
        <ele>203.8</ele>
        <time>2023-03-26T12:55:47Z</time>
      </trkpt>
      <trkpt lat="49.14606" lon="2.01213">
        <ele>203.5</ele>
        <time>2023-03-26T12:55:53Z</time>
      </trkpt>
      <trkpt lat="49.146" lon="2.0122">
        <ele>203.2</ele>
        <time>2023-03-26T12:55:59Z</time>
      </trkpt>
      <trkpt lat="49.14594" lon="2.01228">
        <ele>202.9</ele>
        <time>2023-03-26T12:56:05Z</time>
      </trkpt>
      <trkpt lat="49.14588" lon="2.01237">
        <ele>202.6</ele>
        <time>2023-03-26T12:56:11Z</time>
      </trkpt>
      <trkpt lat="49.14586" lon="2.01243">
        <ele>202.4</ele>
        <time>2023-03-26T12:56:17Z</time>
      </trkpt>
      <trkpt lat="49.14583" lon="2.01249">
        <ele>202.4</ele>
        <time>2023-03-26T12:56:22Z</time>
      </trkpt>
      <trkpt lat="49.14578" lon="2.01259">
        <ele>202.5</ele>
        <time>2023-03-26T12:56:28Z</time>
      </trkpt>
      <trkpt lat="49.14574" lon="2.01265">
        <ele>202.4</ele>
        <time>2023-03-26T12:56:33Z</time>
      </trkpt>
      <trkpt lat="49.1457" lon="2.01275">
        <ele>202.1</ele>
        <time>2023-03-26T12:56:39Z</time>
      </trkpt>
      <trkpt lat="49.14568" lon="2.01282">
        <ele>201.8</ele>
        <time>2023-03-26T12:56:44Z</time>
      </trkpt>
      <trkpt lat="49.14563" lon="2.01292">
        <ele>201.5</ele>
        <time>2023-03-26T12:56:50Z</time>
      </trkpt>
      <trkpt lat="49.1456" lon="2.01297">
        <ele>201</ele>
        <time>2023-03-26T12:56:56Z</time>
      </trkpt>
      <trkpt lat="49.14558" lon="2.01302">
        <ele>200.4</ele>
        <time>2023-03-26T12:57:01Z</time>
      </trkpt>
      <trkpt lat="49.14553" lon="2.01313">
        <ele>200</ele>
        <time>2023-03-26T12:57:07Z</time>
      </trkpt>
      <trkpt lat="49.14549" lon="2.01318">
        <ele>199.7</ele>
        <time>2023-03-26T12:57:12Z</time>
      </trkpt>
      <trkpt lat="49.14548" lon="2.01325">
        <ele>199.6</ele>
        <time>2023-03-26T12:57:17Z</time>
      </trkpt>
      <trkpt lat="49.14546" lon="2.01334">
        <ele>199</ele>
        <time>2023-03-26T12:57:23Z</time>
      </trkpt>
      <trkpt lat="49.14544" lon="2.01342">
        <ele>198.4</ele>
        <time>2023-03-26T12:57:29Z</time>
      </trkpt>
      <trkpt lat="49.14541" lon="2.01346">
        <ele>197.8</ele>
        <time>2023-03-26T12:57:35Z</time>
      </trkpt>
      <trkpt lat="49.14539" lon="2.01355">
        <ele>197.2</ele>
        <time>2023-03-26T12:57:40Z</time>
      </trkpt>
      <trkpt lat="49.14534" lon="2.01368">
        <ele>196.5</ele>
        <time>2023-03-26T12:57:46Z</time>
      </trkpt>
      <trkpt lat="49.14531" lon="2.01379">
        <ele>196.2</ele>
        <time>2023-03-26T12:57:52Z</time>
      </trkpt>
      <trkpt lat="49.14527" lon="2.01389">
        <ele>196.1</ele>
        <time>2023-03-26T12:57:58Z</time>
      </trkpt>
      <trkpt lat="49.14522" lon="2.014">
        <ele>196.1</ele>
        <time>2023-03-26T12:58:04Z</time>
      </trkpt>
      <trkpt lat="49.14517" lon="2.01412">
        <ele>196.4</ele>
        <time>2023-03-26T12:58:10Z</time>
      </trkpt>
      <trkpt lat="49.14513" lon="2.01423">
        <ele>196.8</ele>
        <time>2023-03-26T12:58:15Z</time>
      </trkpt>
      <trkpt lat="49.14508" lon="2.01432">
        <ele>197.4</ele>
        <time>2023-03-26T12:58:20Z</time>
      </trkpt>
      <trkpt lat="49.145" lon="2.01445">
        <ele>197.9</ele>
        <time>2023-03-26T12:58:26Z</time>
      </trkpt>
      <trkpt lat="49.14492" lon="2.01457">
        <ele>198</ele>
        <time>2023-03-26T12:58:32Z</time>
      </trkpt>
      <trkpt lat="49.14486" lon="2.01466">
        <ele>198</ele>
        <time>2023-03-26T12:58:37Z</time>
      </trkpt>
      <trkpt lat="49.1448" lon="2.01473">
        <ele>198.1</ele>
        <time>2023-03-26T12:58:42Z</time>
      </trkpt>
      <trkpt lat="49.14475" lon="2.01481">
        <ele>198.1</ele>
        <time>2023-03-26T12:58:47Z</time>
      </trkpt>
      <trkpt lat="49.1447" lon="2.01489">
        <ele>197.7</ele>
        <time>2023-03-26T12:58:53Z</time>
      </trkpt>
      <trkpt lat="49.14465" lon="2.01497">
        <ele>197.1</ele>
        <time>2023-03-26T12:58:58Z</time>
      </trkpt>
      <trkpt lat="49.14461" lon="2.01505">
        <ele>196.4</ele>
        <time>2023-03-26T12:59:03Z</time>
      </trkpt>
      <trkpt lat="49.14455" lon="2.01513">
        <ele>195.7</ele>
        <time>2023-03-26T12:59:09Z</time>
      </trkpt>
      <trkpt lat="49.14451" lon="2.0152">
        <ele>195.2</ele>
        <time>2023-03-26T12:59:14Z</time>
      </trkpt>
      <trkpt lat="49.14447" lon="2.01526">
        <ele>194.6</ele>
        <time>2023-03-26T12:59:19Z</time>
      </trkpt>
      <trkpt lat="49.1444" lon="2.01535">
        <ele>194</ele>
        <time>2023-03-26T12:59:25Z</time>
      </trkpt>
      <trkpt lat="49.14436" lon="2.01542">
        <ele>193.7</ele>
        <time>2023-03-26T12:59:30Z</time>
      </trkpt>
      <trkpt lat="49.1443" lon="2.0155">
        <ele>193.4</ele>
        <time>2023-03-26T12:59:35Z</time>
      </trkpt>
      <trkpt lat="49.14424" lon="2.0156">
        <ele>193</ele>
        <time>2023-03-26T12:59:41Z</time>
      </trkpt>
      <trkpt lat="49.1442" lon="2.01566">
        <ele>192.8</ele>
        <time>2023-03-26T12:59:46Z</time>
      </trkpt>
      <trkpt lat="49.14417" lon="2.01572">
        <ele>192.5</ele>
        <time>2023-03-26T12:59:51Z</time>
      </trkpt>
      <trkpt lat="49.14413" lon="2.01577">
        <ele>192.2</ele>
        <time>2023-03-26T12:59:57Z</time>
      </trkpt>
      <trkpt lat="49.14407" lon="2.01585">
        <ele>191.9</ele>
        <time>2023-03-26T13:00:03Z</time>
      </trkpt>
      <trkpt lat="49.14401" lon="2.01592">
        <ele>191.8</ele>
        <time>2023-03-26T13:00:08Z</time>
      </trkpt>
      <trkpt lat="49.14396" lon="2.01601">
        <ele>191.8</ele>
        <time>2023-03-26T13:00:13Z</time>
      </trkpt>
      <trkpt lat="49.14389" lon="2.01611">
        <ele>191.8</ele>
        <time>2023-03-26T13:00:19Z</time>
      </trkpt>
      <trkpt lat="49.1438" lon="2.01619">
        <ele>191.7</ele>
        <time>2023-03-26T13:00:25Z</time>
      </trkpt>
      <trkpt lat="49.14374" lon="2.01627">
        <ele>191.6</ele>
        <time>2023-03-26T13:00:30Z</time>
      </trkpt>
      <trkpt lat="49.14368" lon="2.01637">
        <ele>191.4</ele>
        <time>2023-03-26T13:00:36Z</time>
      </trkpt>
      <trkpt lat="49.14362" lon="2.0165">
        <ele>191.3</ele>
        <time>2023-03-26T13:00:42Z</time>
      </trkpt>
      <trkpt lat="49.14355" lon="2.01662">
        <ele>191.1</ele>
        <time>2023-03-26T13:00:48Z</time>
      </trkpt>
      <trkpt lat="49.14351" lon="2.0167">
        <ele>190.9</ele>
        <time>2023-03-26T13:00:54Z</time>
      </trkpt>
      <trkpt lat="49.14344" lon="2.01675">
        <ele>190.5</ele>
        <time>2023-03-26T13:01:00Z</time>
      </trkpt>
      <trkpt lat="49.14343" lon="2.01673">
        <ele>190.1</ele>
        <time>2023-03-26T13:01:05Z</time>
      </trkpt>
      <trkpt lat="49.14344" lon="2.01668">
        <ele>189.4</ele>
        <time>2023-03-26T13:01:11Z</time>
      </trkpt>
      <trkpt lat="49.14347" lon="2.01663">
        <ele>188.5</ele>
        <time>2023-03-26T13:01:16Z</time>
      </trkpt>
      <trkpt lat="49.1435" lon="2.01658">
        <ele>187.9</ele>
        <time>2023-03-26T13:01:22Z</time>
      </trkpt>
      <trkpt lat="49.14355" lon="2.01653">
        <ele>186.6</ele>
        <time>2023-03-26T13:01:27Z</time>
      </trkpt>
      <trkpt lat="49.1436" lon="2.01645">
        <ele>184.1</ele>
        <time>2023-03-26T13:01:33Z</time>
      </trkpt>
      <trkpt lat="49.14363" lon="2.01639">
        <ele>182.3</ele>
        <time>2023-03-26T13:01:38Z</time>
      </trkpt>
      <trkpt lat="49.14364" lon="2.0163">
        <ele>179.5</ele>
        <time>2023-03-26T13:01:44Z</time>
      </trkpt>
      <trkpt lat="49.14365" lon="2.01622">
        <ele>177</ele>
        <time>2023-03-26T13:01:49Z</time>
      </trkpt>
      <trkpt lat="49.14366" lon="2.01616">
        <ele>175.2</ele>
        <time>2023-03-26T13:01:54Z</time>
      </trkpt>
      <trkpt lat="49.14367" lon="2.01609">
        <ele>172.9</ele>
        <time>2023-03-26T13:02:00Z</time>
      </trkpt>
      <trkpt lat="49.14367" lon="2.01599">
        <ele>168.4</ele>
        <time>2023-03-26T13:02:06Z</time>
      </trkpt>
      <trkpt lat="49.14366" lon="2.01587">
        <ele>164.2</ele>
        <time>2023-03-26T13:02:12Z</time>
      </trkpt>
      <trkpt lat="49.14364" lon="2.01573">
        <ele>160.8</ele>
        <time>2023-03-26T13:02:18Z</time>
      </trkpt>
      <trkpt lat="49.1436" lon="2.01556">
        <ele>157.6</ele>
        <time>2023-03-26T13:02:23Z</time>
      </trkpt>
      <trkpt lat="49.14356" lon="2.0154">
        <ele>154.6</ele>
        <time>2023-03-26T13:02:28Z</time>
      </trkpt>
      <trkpt lat="49.14349" lon="2.01519">
        <ele>151.8</ele>
        <time>2023-03-26T13:02:34Z</time>
      </trkpt>
      <trkpt lat="49.14342" lon="2.01504">
        <ele>150.1</ele>
        <time>2023-03-26T13:02:39Z</time>
      </trkpt>
      <trkpt lat="49.14333" lon="2.01489">
        <ele>148.7</ele>
        <time>2023-03-26T13:02:45Z</time>
      </trkpt>
      <trkpt lat="49.14325" lon="2.01477">
        <ele>147.9</ele>
        <time>2023-03-26T13:02:50Z</time>
      </trkpt>
      <trkpt lat="49.14318" lon="2.01467">
        <ele>147.5</ele>
        <time>2023-03-26T13:02:55Z</time>
      </trkpt>
      <trkpt lat="49.14309" lon="2.01459">
        <ele>147.1</ele>
        <time>2023-03-26T13:03:01Z</time>
      </trkpt>
      <trkpt lat="49.14303" lon="2.01454">
        <ele>146.6</ele>
        <time>2023-03-26T13:03:06Z</time>
      </trkpt>
      <trkpt lat="49.14297" lon="2.0145">
        <ele>146</ele>
        <time>2023-03-26T13:03:11Z</time>
      </trkpt>
      <trkpt lat="49.14291" lon="2.01444">
        <ele>145.3</ele>
        <time>2023-03-26T13:03:17Z</time>
      </trkpt>
      <trkpt lat="49.14285" lon="2.01438">
        <ele>145</ele>
        <time>2023-03-26T13:03:22Z</time>
      </trkpt>
      <trkpt lat="49.14278" lon="2.01431">
        <ele>144.6</ele>
        <time>2023-03-26T13:03:28Z</time>
      </trkpt>
      <trkpt lat="49.14272" lon="2.01424">
        <ele>144.3</ele>
        <time>2023-03-26T13:03:33Z</time>
      </trkpt>
      <trkpt lat="49.14265" lon="2.01416">
        <ele>144.2</ele>
        <time>2023-03-26T13:03:38Z</time>
      </trkpt>
      <trkpt lat="49.14258" lon="2.01408">
        <ele>144.1</ele>
        <time>2023-03-26T13:03:44Z</time>
      </trkpt>
      <trkpt lat="49.14254" lon="2.01402">
        <ele>144.1</ele>
        <time>2023-03-26T13:03:49Z</time>
      </trkpt>
      <trkpt lat="49.14249" lon="2.01396">
        <ele>143.9</ele>
        <time>2023-03-26T13:03:54Z</time>
      </trkpt>
      <trkpt lat="49.14243" lon="2.0139">
        <ele>143.6</ele>
        <time>2023-03-26T13:04:00Z</time>
      </trkpt>
      <trkpt lat="49.14237" lon="2.01383">
        <ele>143.4</ele>
        <time>2023-03-26T13:04:05Z</time>
      </trkpt>
      <trkpt lat="49.14231" lon="2.01374">
        <ele>143.5</ele>
        <time>2023-03-26T13:04:11Z</time>
      </trkpt>
      <trkpt lat="49.14225" lon="2.01367">
        <ele>143.6</ele>
        <time>2023-03-26T13:04:16Z</time>
      </trkpt>
      <trkpt lat="49.14219" lon="2.01359">
        <ele>143.8</ele>
        <time>2023-03-26T13:04:21Z</time>
      </trkpt>
      <trkpt lat="49.14212" lon="2.01351">
        <ele>143.9</ele>
        <time>2023-03-26T13:04:27Z</time>
      </trkpt>
      <trkpt lat="49.14205" lon="2.01345">
        <ele>143.9</ele>
        <time>2023-03-26T13:04:32Z</time>
      </trkpt>
      <trkpt lat="49.14198" lon="2.01339">
        <ele>144</ele>
        <time>2023-03-26T13:04:37Z</time>
      </trkpt>
      <trkpt lat="49.14192" lon="2.01332">
        <ele>144.1</ele>
        <time>2023-03-26T13:04:42Z</time>
      </trkpt>
      <trkpt lat="49.14186" lon="2.01324">
        <ele>144.2</ele>
        <time>2023-03-26T13:04:48Z</time>
      </trkpt>
      <trkpt lat="49.14179" lon="2.01317">
        <ele>144.5</ele>
        <time>2023-03-26T13:04:53Z</time>
      </trkpt>
      <trkpt lat="49.14171" lon="2.0131">
        <ele>145.1</ele>
        <time>2023-03-26T13:04:59Z</time>
      </trkpt>
      <trkpt lat="49.14164" lon="2.01302">
        <ele>145.7</ele>
        <time>2023-03-26T13:05:05Z</time>
      </trkpt>
      <trkpt lat="49.14159" lon="2.01296">
        <ele>145.7</ele>
        <time>2023-03-26T13:05:10Z</time>
      </trkpt>
      <trkpt lat="49.14152" lon="2.0129">
        <ele>145.7</ele>
        <time>2023-03-26T13:05:16Z</time>
      </trkpt>
      <trkpt lat="49.14147" lon="2.01287">
        <ele>145.5</ele>
        <time>2023-03-26T13:05:21Z</time>
      </trkpt>
      <trkpt lat="49.1414" lon="2.01281">
        <ele>144.9</ele>
        <time>2023-03-26T13:05:27Z</time>
      </trkpt>
      <trkpt lat="49.14135" lon="2.01274">
        <ele>144.5</ele>
        <time>2023-03-26T13:05:32Z</time>
      </trkpt>
      <trkpt lat="49.1413" lon="2.01267">
        <ele>144.3</ele>
        <time>2023-03-26T13:05:37Z</time>
      </trkpt>
      <trkpt lat="49.14124" lon="2.01257">
        <ele>144.1</ele>
        <time>2023-03-26T13:05:43Z</time>
      </trkpt>
      <trkpt lat="49.14119" lon="2.01248">
        <ele>144</ele>
        <time>2023-03-26T13:05:48Z</time>
      </trkpt>
      <trkpt lat="49.14114" lon="2.0124">
        <ele>143.8</ele>
        <time>2023-03-26T13:05:54Z</time>
      </trkpt>
      <trkpt lat="49.14108" lon="2.01233">
        <ele>143.9</ele>
        <time>2023-03-26T13:05:59Z</time>
      </trkpt>
      <trkpt lat="49.14101" lon="2.01222">
        <ele>144.1</ele>
        <time>2023-03-26T13:06:05Z</time>
      </trkpt>
      <trkpt lat="49.14095" lon="2.01214">
        <ele>144.4</ele>
        <time>2023-03-26T13:06:10Z</time>
      </trkpt>
      <trkpt lat="49.14088" lon="2.01205">
        <ele>144.6</ele>
        <time>2023-03-26T13:06:16Z</time>
      </trkpt>
      <trkpt lat="49.14083" lon="2.01195">
        <ele>144.7</ele>
        <time>2023-03-26T13:06:22Z</time>
      </trkpt>
      <trkpt lat="49.14079" lon="2.01187">
        <ele>144.8</ele>
        <time>2023-03-26T13:06:27Z</time>
      </trkpt>
      <trkpt lat="49.14072" lon="2.01177">
        <ele>145</ele>
        <time>2023-03-26T13:06:33Z</time>
      </trkpt>
      <trkpt lat="49.14068" lon="2.01166">
        <ele>145</ele>
        <time>2023-03-26T13:06:39Z</time>
      </trkpt>
      <trkpt lat="49.14065" lon="2.01157">
        <ele>145</ele>
        <time>2023-03-26T13:06:44Z</time>
      </trkpt>
      <trkpt lat="49.1406" lon="2.01147">
        <ele>145.1</ele>
        <time>2023-03-26T13:06:50Z</time>
      </trkpt>
      <trkpt lat="49.14056" lon="2.01138">
        <ele>145.1</ele>
        <time>2023-03-26T13:06:55Z</time>
      </trkpt>
      <trkpt lat="49.14051" lon="2.01128">
        <ele>145.1</ele>
        <time>2023-03-26T13:07:00Z</time>
      </trkpt>
      <trkpt lat="49.14046" lon="2.01116">
        <ele>144.8</ele>
        <time>2023-03-26T13:07:06Z</time>
      </trkpt>
      <trkpt lat="49.1404" lon="2.01104">
        <ele>144.4</ele>
        <time>2023-03-26T13:07:12Z</time>
      </trkpt>
      <trkpt lat="49.14036" lon="2.01096">
        <ele>144.1</ele>
        <time>2023-03-26T13:07:17Z</time>
      </trkpt>
      <trkpt lat="49.14031" lon="2.01085">
        <ele>143.8</ele>
        <time>2023-03-26T13:07:23Z</time>
      </trkpt>
      <trkpt lat="49.14028" lon="2.01076">
        <ele>143.4</ele>
        <time>2023-03-26T13:07:28Z</time>
      </trkpt>
      <trkpt lat="49.14026" lon="2.01067">
        <ele>143.1</ele>
        <time>2023-03-26T13:07:34Z</time>
      </trkpt>
      <trkpt lat="49.14024" lon="2.01058">
        <ele>143.2</ele>
        <time>2023-03-26T13:07:40Z</time>
      </trkpt>
      <trkpt lat="49.1402" lon="2.01046">
        <ele>143.3</ele>
        <time>2023-03-26T13:07:45Z</time>
      </trkpt>
      <trkpt lat="49.14015" lon="2.01036">
        <ele>143.2</ele>
        <time>2023-03-26T13:07:50Z</time>
      </trkpt>
      <trkpt lat="49.1401" lon="2.01024">
        <ele>143.1</ele>
        <time>2023-03-26T13:07:56Z</time>
      </trkpt>
      <trkpt lat="49.14003" lon="2.01015">
        <ele>143.2</ele>
        <time>2023-03-26T13:08:02Z</time>
      </trkpt>
      <trkpt lat="49.13998" lon="2.0101">
        <ele>143.1</ele>
        <time>2023-03-26T13:08:07Z</time>
      </trkpt>
      <trkpt lat="49.13995" lon="2.01005">
        <ele>142.7</ele>
        <time>2023-03-26T13:08:13Z</time>
      </trkpt>
      <trkpt lat="49.13992" lon="2.01001">
        <ele>142.4</ele>
        <time>2023-03-26T13:08:19Z</time>
      </trkpt>
      <trkpt lat="49.1399" lon="2.00997">
        <ele>142.3</ele>
        <time>2023-03-26T13:08:24Z</time>
      </trkpt>
      <trkpt lat="49.13989" lon="2.00992">
        <ele>142.6</ele>
        <time>2023-03-26T13:08:30Z</time>
      </trkpt>
      <trkpt lat="49.13989" lon="2.00989">
        <ele>142.7</ele>
        <time>2023-03-26T13:08:35Z</time>
      </trkpt>
      <trkpt lat="49.1399" lon="2.00988">
        <ele>142.8</ele>
        <time>2023-03-26T13:08:41Z</time>
      </trkpt>
      <trkpt lat="49.1399" lon="2.00987">
        <ele>143</ele>
        <time>2023-03-26T13:08:47Z</time>
      </trkpt>
      <trkpt lat="49.1399" lon="2.00987">
        <ele>143.2</ele>
        <time>2023-03-26T13:08:52Z</time>
      </trkpt>
      <trkpt lat="49.1399" lon="2.00986">
        <ele>143.9</ele>
        <time>2023-03-26T13:08:57Z</time>
      </trkpt>
      <trkpt lat="49.13989" lon="2.00985">
        <ele>145.3</ele>
        <time>2023-03-26T13:09:03Z</time>
      </trkpt>
      <trkpt lat="49.13988" lon="2.00986">
        <ele>146.3</ele>
        <time>2023-03-26T13:09:09Z</time>
      </trkpt>
      <trkpt lat="49.13988" lon="2.00988">
        <ele>146.6</ele>
        <time>2023-03-26T13:09:15Z</time>
      </trkpt>
      <trkpt lat="49.13987" lon="2.00986">
        <ele>148.2</ele>
        <time>2023-03-26T13:09:21Z</time>
      </trkpt>
      <trkpt lat="49.13987" lon="2.00984">
        <ele>148.6</ele>
        <time>2023-03-26T13:09:27Z</time>
      </trkpt>
      <trkpt lat="49.13987" lon="2.00984">
        <ele>149.1</ele>
        <time>2023-03-26T13:09:33Z</time>
      </trkpt>
      <trkpt lat="49.13987" lon="2.00984">
        <ele>149.5</ele>
        <time>2023-03-26T13:09:38Z</time>
      </trkpt>
      <trkpt lat="49.13987" lon="2.00984">
        <ele>149.8</ele>
        <time>2023-03-26T13:09:43Z</time>
      </trkpt>
      <trkpt lat="49.13987" lon="2.00988">
        <ele>151.5</ele>
        <time>2023-03-26T13:09:49Z</time>
      </trkpt>
      <trkpt lat="49.13988" lon="2.00989">
        <ele>151.8</ele>
        <time>2023-03-26T13:09:54Z</time>
      </trkpt>
      <trkpt lat="49.13988" lon="2.00989">
        <ele>152.1</ele>
        <time>2023-03-26T13:10:00Z</time>
      </trkpt>
      <trkpt lat="49.13988" lon="2.00989">
        <ele>152.4</ele>
        <time>2023-03-26T13:10:05Z</time>
      </trkpt>
      <trkpt lat="49.13988" lon="2.00989">
        <ele>152.8</ele>
        <time>2023-03-26T13:10:11Z</time>
      </trkpt>
      <trkpt lat="49.13989" lon="2.00989">
        <ele>153.1</ele>
        <time>2023-03-26T13:10:16Z</time>
      </trkpt>
      <trkpt lat="49.13989" lon="2.00989">
        <ele>153.3</ele>
        <time>2023-03-26T13:10:21Z</time>
      </trkpt>
      <trkpt lat="49.1399" lon="2.00988">
        <ele>153.6</ele>
        <time>2023-03-26T13:10:27Z</time>
      </trkpt>
      <trkpt lat="49.1399" lon="2.00988">
        <ele>153.9</ele>
        <time>2023-03-26T13:10:32Z</time>
      </trkpt>
      <trkpt lat="49.1399" lon="2.00988">
        <ele>154.1</ele>
        <time>2023-03-26T13:10:38Z</time>
      </trkpt>
      <trkpt lat="49.1399" lon="2.0099">
        <ele>155.1</ele>
        <time>2023-03-26T13:10:43Z</time>
      </trkpt>
      <trkpt lat="49.1399" lon="2.00991">
        <ele>155.7</ele>
        <time>2023-03-26T13:10:49Z</time>
      </trkpt>
      <trkpt lat="49.1399" lon="2.00991">
        <ele>155.9</ele>
        <time>2023-03-26T13:10:54Z</time>
      </trkpt>
      <trkpt lat="49.1399" lon="2.00992">
        <ele>156.4</ele>
        <time>2023-03-26T13:10:59Z</time>
      </trkpt>
      <trkpt lat="49.1399" lon="2.00993">
        <ele>156.9</ele>
        <time>2023-03-26T13:11:05Z</time>
      </trkpt>
      <trkpt lat="49.13993" lon="2.00995">
        <ele>157.1</ele>
        <time>2023-03-26T13:11:11Z</time>
      </trkpt>
      <trkpt lat="49.13995" lon="2.00996">
        <ele>157.3</ele>
        <time>2023-03-26T13:11:17Z</time>
      </trkpt>
      <trkpt lat="49.13993" lon="2.01001">
        <ele>159.5</ele>
        <time>2023-03-26T13:11:23Z</time>
      </trkpt>
      <trkpt lat="49.13988" lon="2.01007">
        <ele>161</ele>
        <time>2023-03-26T13:11:29Z</time>
      </trkpt>
      <trkpt lat="49.13985" lon="2.01014">
        <ele>162.8</ele>
        <time>2023-03-26T13:11:34Z</time>
      </trkpt>
      <trkpt lat="49.1398" lon="2.01026">
        <ele>164.4</ele>
        <time>2023-03-26T13:11:40Z</time>
      </trkpt>
      <trkpt lat="49.13978" lon="2.01034">
        <ele>165.2</ele>
        <time>2023-03-26T13:11:46Z</time>
      </trkpt>
      <trkpt lat="49.13978" lon="2.01041">
        <ele>165.5</ele>
        <time>2023-03-26T13:11:51Z</time>
      </trkpt>
      <trkpt lat="49.13977" lon="2.0105">
        <ele>165.5</ele>
        <time>2023-03-26T13:11:56Z</time>
      </trkpt>
      <trkpt lat="49.13974" lon="2.01059">
        <ele>165.4</ele>
        <time>2023-03-26T13:12:02Z</time>
      </trkpt>
      <trkpt lat="49.13974" lon="2.01067">
        <ele>165.3</ele>
        <time>2023-03-26T13:12:07Z</time>
      </trkpt>
      <trkpt lat="49.13972" lon="2.01076">
        <ele>165.2</ele>
        <time>2023-03-26T13:12:13Z</time>
      </trkpt>
      <trkpt lat="49.13969" lon="2.01087">
        <ele>164.8</ele>
        <time>2023-03-26T13:12:19Z</time>
      </trkpt>
      <trkpt lat="49.13966" lon="2.01098">
        <ele>164.2</ele>
        <time>2023-03-26T13:12:24Z</time>
      </trkpt>
      <trkpt lat="49.13966" lon="2.01112">
        <ele>163.2</ele>
        <time>2023-03-26T13:12:30Z</time>
      </trkpt>
      <trkpt lat="49.13965" lon="2.01123">
        <ele>162.6</ele>
        <time>2023-03-26T13:12:35Z</time>
      </trkpt>
      <trkpt lat="49.13963" lon="2.01131">
        <ele>162.2</ele>
        <time>2023-03-26T13:12:40Z</time>
      </trkpt>
      <trkpt lat="49.13962" lon="2.01138">
        <ele>161.3</ele>
        <time>2023-03-26T13:12:46Z</time>
      </trkpt>
      <trkpt lat="49.1396" lon="2.01146">
        <ele>160.7</ele>
        <time>2023-03-26T13:12:51Z</time>
      </trkpt>
      <trkpt lat="49.13959" lon="2.01156">
        <ele>159.9</ele>
        <time>2023-03-26T13:12:57Z</time>
      </trkpt>
      <trkpt lat="49.13958" lon="2.01168">
        <ele>158.9</ele>
        <time>2023-03-26T13:13:03Z</time>
      </trkpt>
      <trkpt lat="49.13956" lon="2.01179">
        <ele>157.8</ele>
        <time>2023-03-26T13:13:08Z</time>
      </trkpt>
      <trkpt lat="49.13954" lon="2.0119">
        <ele>156.6</ele>
        <time>2023-03-26T13:13:13Z</time>
      </trkpt>
      <trkpt lat="49.13951" lon="2.01204">
        <ele>155.3</ele>
        <time>2023-03-26T13:13:19Z</time>
      </trkpt>
      <trkpt lat="49.1395" lon="2.01214">
        <ele>154.4</ele>
        <time>2023-03-26T13:13:24Z</time>
      </trkpt>
      <trkpt lat="49.13947" lon="2.01226">
        <ele>153.5</ele>
        <time>2023-03-26T13:13:30Z</time>
      </trkpt>
      <trkpt lat="49.13945" lon="2.01238">
        <ele>152.8</ele>
        <time>2023-03-26T13:13:36Z</time>
      </trkpt>
      <trkpt lat="49.13945" lon="2.01248">
        <ele>152.3</ele>
        <time>2023-03-26T13:13:42Z</time>
      </trkpt>
      <trkpt lat="49.13944" lon="2.01256">
        <ele>151.7</ele>
        <time>2023-03-26T13:13:47Z</time>
      </trkpt>
      <trkpt lat="49.1394" lon="2.01269">
        <ele>151.2</ele>
        <time>2023-03-26T13:13:53Z</time>
      </trkpt>
      <trkpt lat="49.13938" lon="2.01282">
        <ele>151</ele>
        <time>2023-03-26T13:13:59Z</time>
      </trkpt>
      <trkpt lat="49.13937" lon="2.01291">
        <ele>150.9</ele>
        <time>2023-03-26T13:14:04Z</time>
      </trkpt>
      <trkpt lat="49.13936" lon="2.01302">
        <ele>150.7</ele>
        <time>2023-03-26T13:14:10Z</time>
      </trkpt>
      <trkpt lat="49.13934" lon="2.01313">
        <ele>150.4</ele>
        <time>2023-03-26T13:14:16Z</time>
      </trkpt>
      <trkpt lat="49.13934" lon="2.01324">
        <ele>150.7</ele>
        <time>2023-03-26T13:14:22Z</time>
      </trkpt>
      <trkpt lat="49.13931" lon="2.01336">
        <ele>151.5</ele>
        <time>2023-03-26T13:14:28Z</time>
      </trkpt>
      <trkpt lat="49.13928" lon="2.01349">
        <ele>152.3</ele>
        <time>2023-03-26T13:14:34Z</time>
      </trkpt>
      <trkpt lat="49.13924" lon="2.01358">
        <ele>153.4</ele>
        <time>2023-03-26T13:14:39Z</time>
      </trkpt>
      <trkpt lat="49.13924" lon="2.01369">
        <ele>154.3</ele>
        <time>2023-03-26T13:14:45Z</time>
      </trkpt>
      <trkpt lat="49.13923" lon="2.01378">
        <ele>155.4</ele>
        <time>2023-03-26T13:14:51Z</time>
      </trkpt>
      <trkpt lat="49.13924" lon="2.01385">
        <ele>156.1</ele>
        <time>2023-03-26T13:14:57Z</time>
      </trkpt>
      <trkpt lat="49.13923" lon="2.01394">
        <ele>156.6</ele>
        <time>2023-03-26T13:15:03Z</time>
      </trkpt>
      <trkpt lat="49.13921" lon="2.01406">
        <ele>157.1</ele>
        <time>2023-03-26T13:15:08Z</time>
      </trkpt>
      <trkpt lat="49.13918" lon="2.01415">
        <ele>157.8</ele>
        <time>2023-03-26T13:15:13Z</time>
      </trkpt>
      <trkpt lat="49.13917" lon="2.01425">
        <ele>158.2</ele>
        <time>2023-03-26T13:15:19Z</time>
      </trkpt>
      <trkpt lat="49.13914" lon="2.01439">
        <ele>158.6</ele>
        <time>2023-03-26T13:15:25Z</time>
      </trkpt>
      <trkpt lat="49.13913" lon="2.01453">
        <ele>159.1</ele>
        <time>2023-03-26T13:15:31Z</time>
      </trkpt>
      <trkpt lat="49.13912" lon="2.01466">
        <ele>159.3</ele>
        <time>2023-03-26T13:15:37Z</time>
      </trkpt>
      <trkpt lat="49.13909" lon="2.01478">
        <ele>159.7</ele>
        <time>2023-03-26T13:15:43Z</time>
      </trkpt>
      <trkpt lat="49.13907" lon="2.01488">
        <ele>160.2</ele>
        <time>2023-03-26T13:15:49Z</time>
      </trkpt>
      <trkpt lat="49.13907" lon="2.01496">
        <ele>160.8</ele>
        <time>2023-03-26T13:15:54Z</time>
      </trkpt>
      <trkpt lat="49.13907" lon="2.01506">
        <ele>161.5</ele>
        <time>2023-03-26T13:16:00Z</time>
      </trkpt>
      <trkpt lat="49.13907" lon="2.01514">
        <ele>162.3</ele>
        <time>2023-03-26T13:16:06Z</time>
      </trkpt>
      <trkpt lat="49.13904" lon="2.01525">
        <ele>162.7</ele>
        <time>2023-03-26T13:16:11Z</time>
      </trkpt>
      <trkpt lat="49.139" lon="2.01539">
        <ele>162.9</ele>
        <time>2023-03-26T13:16:17Z</time>
      </trkpt>
      <trkpt lat="49.13897" lon="2.01554">
        <ele>163.1</ele>
        <time>2023-03-26T13:16:23Z</time>
      </trkpt>
      <trkpt lat="49.13895" lon="2.01562">
        <ele>163.3</ele>
        <time>2023-03-26T13:16:28Z</time>
      </trkpt>
      <trkpt lat="49.13894" lon="2.01572">
        <ele>163.7</ele>
        <time>2023-03-26T13:16:34Z</time>
      </trkpt>
      <trkpt lat="49.13893" lon="2.01584">
        <ele>164.2</ele>
        <time>2023-03-26T13:16:40Z</time>
      </trkpt>
      <trkpt lat="49.13891" lon="2.01593">
        <ele>164.5</ele>
        <time>2023-03-26T13:16:45Z</time>
      </trkpt>
      <trkpt lat="49.1389" lon="2.01604">
        <ele>164.8</ele>
        <time>2023-03-26T13:16:50Z</time>
      </trkpt>
      <trkpt lat="49.13887" lon="2.01617">
        <ele>165.1</ele>
        <time>2023-03-26T13:16:56Z</time>
      </trkpt>
      <trkpt lat="49.13886" lon="2.01627">
        <ele>165</ele>
        <time>2023-03-26T13:17:02Z</time>
      </trkpt>
      <trkpt lat="49.13884" lon="2.01636">
        <ele>165</ele>
        <time>2023-03-26T13:17:07Z</time>
      </trkpt>
      <trkpt lat="49.13884" lon="2.01644">
        <ele>165</ele>
        <time>2023-03-26T13:17:12Z</time>
      </trkpt>
      <trkpt lat="49.13884" lon="2.01656">
        <ele>165.1</ele>
        <time>2023-03-26T13:17:18Z</time>
      </trkpt>
      <trkpt lat="49.13881" lon="2.01665">
        <ele>165.2</ele>
        <time>2023-03-26T13:17:23Z</time>
      </trkpt>
      <trkpt lat="49.13876" lon="2.01673">
        <ele>165.5</ele>
        <time>2023-03-26T13:17:29Z</time>
      </trkpt>
      <trkpt lat="49.13874" lon="2.01686">
        <ele>166.1</ele>
        <time>2023-03-26T13:17:35Z</time>
      </trkpt>
      <trkpt lat="49.13873" lon="2.01694">
        <ele>166.5</ele>
        <time>2023-03-26T13:17:40Z</time>
      </trkpt>
      <trkpt lat="49.13872" lon="2.01702">
        <ele>166.9</ele>
        <time>2023-03-26T13:17:46Z</time>
      </trkpt>
      <trkpt lat="49.1387" lon="2.0171">
        <ele>167</ele>
        <time>2023-03-26T13:17:51Z</time>
      </trkpt>
      <trkpt lat="49.13866" lon="2.0172">
        <ele>167.1</ele>
        <time>2023-03-26T13:17:56Z</time>
      </trkpt>
      <trkpt lat="49.13865" lon="2.01731">
        <ele>167.1</ele>
        <time>2023-03-26T13:18:02Z</time>
      </trkpt>
      <trkpt lat="49.13864" lon="2.01735">
        <ele>167</ele>
        <time>2023-03-26T13:18:07Z</time>
      </trkpt>
      <trkpt lat="49.13864" lon="2.01742">
        <ele>166.9</ele>
        <time>2023-03-26T13:18:12Z</time>
      </trkpt>
      <trkpt lat="49.13864" lon="2.01748">
        <ele>166.7</ele>
        <time>2023-03-26T13:18:17Z</time>
      </trkpt>
      <trkpt lat="49.13862" lon="2.0176">
        <ele>166.6</ele>
        <time>2023-03-26T13:18:23Z</time>
      </trkpt>
      <trkpt lat="49.1386" lon="2.01768">
        <ele>166.4</ele>
        <time>2023-03-26T13:18:28Z</time>
      </trkpt>
      <trkpt lat="49.13857" lon="2.01779">
        <ele>166.3</ele>
        <time>2023-03-26T13:18:34Z</time>
      </trkpt>
      <trkpt lat="49.13856" lon="2.01786">
        <ele>166</ele>
        <time>2023-03-26T13:18:39Z</time>
      </trkpt>
      <trkpt lat="49.13854" lon="2.01798">
        <ele>165.7</ele>
        <time>2023-03-26T13:18:45Z</time>
      </trkpt>
      <trkpt lat="49.13852" lon="2.01812">
        <ele>165.7</ele>
        <time>2023-03-26T13:18:51Z</time>
      </trkpt>
      <trkpt lat="49.13852" lon="2.01819">
        <ele>165.8</ele>
        <time>2023-03-26T13:18:56Z</time>
      </trkpt>
      <trkpt lat="49.13849" lon="2.01831">
        <ele>165.8</ele>
        <time>2023-03-26T13:19:02Z</time>
      </trkpt>
      <trkpt lat="49.13848" lon="2.01841">
        <ele>165.8</ele>
        <time>2023-03-26T13:19:07Z</time>
      </trkpt>
      <trkpt lat="49.13846" lon="2.01851">
        <ele>165.6</ele>
        <time>2023-03-26T13:19:12Z</time>
      </trkpt>
      <trkpt lat="49.13844" lon="2.01862">
        <ele>165.4</ele>
        <time>2023-03-26T13:19:18Z</time>
      </trkpt>
      <trkpt lat="49.13841" lon="2.01875">
        <ele>165.1</ele>
        <time>2023-03-26T13:19:24Z</time>
      </trkpt>
      <trkpt lat="49.13841" lon="2.01883">
        <ele>164.9</ele>
        <time>2023-03-26T13:19:29Z</time>
      </trkpt>
      <trkpt lat="49.13842" lon="2.0189">
        <ele>164.8</ele>
        <time>2023-03-26T13:19:34Z</time>
      </trkpt>
      <trkpt lat="49.13841" lon="2.01898">
        <ele>164.6</ele>
        <time>2023-03-26T13:19:40Z</time>
      </trkpt>
      <trkpt lat="49.13839" lon="2.01909">
        <ele>164.5</ele>
        <time>2023-03-26T13:19:45Z</time>
      </trkpt>
      <trkpt lat="49.13836" lon="2.01921">
        <ele>164.7</ele>
        <time>2023-03-26T13:19:50Z</time>
      </trkpt>
      <trkpt lat="49.13833" lon="2.01938">
        <ele>165.1</ele>
        <time>2023-03-26T13:19:56Z</time>
      </trkpt>
      <trkpt lat="49.13831" lon="2.01949">
        <ele>165.5</ele>
        <time>2023-03-26T13:20:02Z</time>
      </trkpt>
      <trkpt lat="49.1383" lon="2.01956">
        <ele>165.6</ele>
        <time>2023-03-26T13:20:07Z</time>
      </trkpt>
      <trkpt lat="49.13828" lon="2.01967">
        <ele>165.6</ele>
        <time>2023-03-26T13:20:12Z</time>
      </trkpt>
      <trkpt lat="49.13825" lon="2.01981">
        <ele>165.6</ele>
        <time>2023-03-26T13:20:18Z</time>
      </trkpt>
      <trkpt lat="49.13825" lon="2.01989">
        <ele>165.6</ele>
        <time>2023-03-26T13:20:23Z</time>
      </trkpt>
      <trkpt lat="49.13822" lon="2.02001">
        <ele>165.8</ele>
        <time>2023-03-26T13:20:28Z</time>
      </trkpt>
      <trkpt lat="49.13819" lon="2.02014">
        <ele>166.1</ele>
        <time>2023-03-26T13:20:34Z</time>
      </trkpt>
      <trkpt lat="49.13817" lon="2.02026">
        <ele>166.5</ele>
        <time>2023-03-26T13:20:40Z</time>
      </trkpt>
      <trkpt lat="49.13815" lon="2.02036">
        <ele>166.9</ele>
        <time>2023-03-26T13:20:45Z</time>
      </trkpt>
      <trkpt lat="49.13813" lon="2.02045">
        <ele>167.3</ele>
        <time>2023-03-26T13:20:50Z</time>
      </trkpt>
      <trkpt lat="49.13813" lon="2.02053">
        <ele>167.6</ele>
        <time>2023-03-26T13:20:55Z</time>
      </trkpt>
      <trkpt lat="49.13813" lon="2.02062">
        <ele>168</ele>
        <time>2023-03-26T13:21:00Z</time>
      </trkpt>
      <trkpt lat="49.13811" lon="2.02073">
        <ele>168.4</ele>
        <time>2023-03-26T13:21:05Z</time>
      </trkpt>
      <trkpt lat="49.13809" lon="2.02084">
        <ele>168.9</ele>
        <time>2023-03-26T13:21:11Z</time>
      </trkpt>
      <trkpt lat="49.13807" lon="2.02095">
        <ele>169.3</ele>
        <time>2023-03-26T13:21:17Z</time>
      </trkpt>
      <trkpt lat="49.13803" lon="2.0211">
        <ele>169.6</ele>
        <time>2023-03-26T13:21:23Z</time>
      </trkpt>
      <trkpt lat="49.13802" lon="2.02117">
        <ele>169.4</ele>
        <time>2023-03-26T13:21:28Z</time>
      </trkpt>
      <trkpt lat="49.138" lon="2.02128">
        <ele>169.1</ele>
        <time>2023-03-26T13:21:34Z</time>
      </trkpt>
      <trkpt lat="49.13799" lon="2.02137">
        <ele>168.8</ele>
        <time>2023-03-26T13:21:40Z</time>
      </trkpt>
      <trkpt lat="49.13798" lon="2.02146">
        <ele>168.4</ele>
        <time>2023-03-26T13:21:45Z</time>
      </trkpt>
      <trkpt lat="49.13796" lon="2.02157">
        <ele>168</ele>
        <time>2023-03-26T13:21:50Z</time>
      </trkpt>
      <trkpt lat="49.13794" lon="2.02169">
        <ele>167.7</ele>
        <time>2023-03-26T13:21:56Z</time>
      </trkpt>
      <trkpt lat="49.13793" lon="2.02183">
        <ele>167.4</ele>
        <time>2023-03-26T13:22:02Z</time>
      </trkpt>
      <trkpt lat="49.13792" lon="2.02193">
        <ele>167.2</ele>
        <time>2023-03-26T13:22:07Z</time>
      </trkpt>
      <trkpt lat="49.13792" lon="2.022">
        <ele>167.3</ele>
        <time>2023-03-26T13:22:13Z</time>
      </trkpt>
      <trkpt lat="49.13793" lon="2.02207">
        <ele>167.5</ele>
        <time>2023-03-26T13:22:19Z</time>
      </trkpt>
      <trkpt lat="49.13793" lon="2.02216">
        <ele>167.4</ele>
        <time>2023-03-26T13:22:24Z</time>
      </trkpt>
      <trkpt lat="49.13792" lon="2.02229">
        <ele>167.4</ele>
        <time>2023-03-26T13:22:29Z</time>
      </trkpt>
      <trkpt lat="49.13791" lon="2.02241">
        <ele>167.3</ele>
        <time>2023-03-26T13:22:34Z</time>
      </trkpt>
      <trkpt lat="49.1379" lon="2.02253">
        <ele>167.4</ele>
        <time>2023-03-26T13:22:40Z</time>
      </trkpt>
      <trkpt lat="49.1379" lon="2.02263">
        <ele>167.5</ele>
        <time>2023-03-26T13:22:45Z</time>
      </trkpt>
      <trkpt lat="49.13789" lon="2.02273">
        <ele>167.5</ele>
        <time>2023-03-26T13:22:50Z</time>
      </trkpt>
      <trkpt lat="49.13791" lon="2.02286">
        <ele>167.6</ele>
        <time>2023-03-26T13:22:56Z</time>
      </trkpt>
      <trkpt lat="49.1379" lon="2.023">
        <ele>167.6</ele>
        <time>2023-03-26T13:23:02Z</time>
      </trkpt>
      <trkpt lat="49.13791" lon="2.02309">
        <ele>167.6</ele>
        <time>2023-03-26T13:23:07Z</time>
      </trkpt>
      <trkpt lat="49.13794" lon="2.02318">
        <ele>167.7</ele>
        <time>2023-03-26T13:23:13Z</time>
      </trkpt>
      <trkpt lat="49.13794" lon="2.02328">
        <ele>167.9</ele>
        <time>2023-03-26T13:23:18Z</time>
      </trkpt>
      <trkpt lat="49.13794" lon="2.0234">
        <ele>168.1</ele>
        <time>2023-03-26T13:23:24Z</time>
      </trkpt>
      <trkpt lat="49.13795" lon="2.02348">
        <ele>168.2</ele>
        <time>2023-03-26T13:23:29Z</time>
      </trkpt>
      <trkpt lat="49.13796" lon="2.02354">
        <ele>168.2</ele>
        <time>2023-03-26T13:23:34Z</time>
      </trkpt>
      <trkpt lat="49.13797" lon="2.02365">
        <ele>168</ele>
        <time>2023-03-26T13:23:40Z</time>
      </trkpt>
      <trkpt lat="49.13798" lon="2.02376">
        <ele>167.8</ele>
        <time>2023-03-26T13:23:46Z</time>
      </trkpt>
      <trkpt lat="49.138" lon="2.02386">
        <ele>167.7</ele>
        <time>2023-03-26T13:23:51Z</time>
      </trkpt>
      <trkpt lat="49.13801" lon="2.02399">
        <ele>167.6</ele>
        <time>2023-03-26T13:23:57Z</time>
      </trkpt>
      <trkpt lat="49.13802" lon="2.0241">
        <ele>167.6</ele>
        <time>2023-03-26T13:24:02Z</time>
      </trkpt>
      <trkpt lat="49.13803" lon="2.02419">
        <ele>167.4</ele>
        <time>2023-03-26T13:24:08Z</time>
      </trkpt>
      <trkpt lat="49.13804" lon="2.02426">
        <ele>167.3</ele>
        <time>2023-03-26T13:24:13Z</time>
      </trkpt>
      <trkpt lat="49.13806" lon="2.02437">
        <ele>167.2</ele>
        <time>2023-03-26T13:24:18Z</time>
      </trkpt>
      <trkpt lat="49.1381" lon="2.02449">
        <ele>167.4</ele>
        <time>2023-03-26T13:24:23Z</time>
      </trkpt>
      <trkpt lat="49.13812" lon="2.02461">
        <ele>167.6</ele>
        <time>2023-03-26T13:24:29Z</time>
      </trkpt>
      <trkpt lat="49.13812" lon="2.02468">
        <ele>167.6</ele>
        <time>2023-03-26T13:24:34Z</time>
      </trkpt>
      <trkpt lat="49.13814" lon="2.02481">
        <ele>167.6</ele>
        <time>2023-03-26T13:24:40Z</time>
      </trkpt>
      <trkpt lat="49.13815" lon="2.0249">
        <ele>167.5</ele>
        <time>2023-03-26T13:24:45Z</time>
      </trkpt>
      <trkpt lat="49.13817" lon="2.02502">
        <ele>167.3</ele>
        <time>2023-03-26T13:24:51Z</time>
      </trkpt>
      <trkpt lat="49.13818" lon="2.0251">
        <ele>166.9</ele>
        <time>2023-03-26T13:24:56Z</time>
      </trkpt>
      <trkpt lat="49.13823" lon="2.02521">
        <ele>166.4</ele>
        <time>2023-03-26T13:25:02Z</time>
      </trkpt>
      <trkpt lat="49.13826" lon="2.02529">
        <ele>166.2</ele>
        <time>2023-03-26T13:25:07Z</time>
      </trkpt>
      <trkpt lat="49.13829" lon="2.02538">
        <ele>166</ele>
        <time>2023-03-26T13:25:12Z</time>
      </trkpt>
      <trkpt lat="49.13832" lon="2.02547">
        <ele>165.8</ele>
        <time>2023-03-26T13:25:17Z</time>
      </trkpt>
      <trkpt lat="49.13834" lon="2.02557">
        <ele>165.5</ele>
        <time>2023-03-26T13:25:23Z</time>
      </trkpt>
      <trkpt lat="49.13836" lon="2.02566">
        <ele>165.2</ele>
        <time>2023-03-26T13:25:28Z</time>
      </trkpt>
      <trkpt lat="49.13839" lon="2.02574">
        <ele>164.9</ele>
        <time>2023-03-26T13:25:33Z</time>
      </trkpt>
      <trkpt lat="49.13841" lon="2.02583">
        <ele>164.9</ele>
        <time>2023-03-26T13:25:38Z</time>
      </trkpt>
      <trkpt lat="49.13844" lon="2.02593">
        <ele>165.1</ele>
        <time>2023-03-26T13:25:43Z</time>
      </trkpt>
      <trkpt lat="49.13847" lon="2.02602">
        <ele>165.4</ele>
        <time>2023-03-26T13:25:49Z</time>
      </trkpt>
      <trkpt lat="49.1385" lon="2.02611">
        <ele>165.6</ele>
        <time>2023-03-26T13:25:54Z</time>
      </trkpt>
      <trkpt lat="49.13853" lon="2.0262">
        <ele>166</ele>
        <time>2023-03-26T13:26:00Z</time>
      </trkpt>
      <trkpt lat="49.13854" lon="2.02628">
        <ele>166.3</ele>
        <time>2023-03-26T13:26:05Z</time>
      </trkpt>
      <trkpt lat="49.13857" lon="2.02635">
        <ele>166.4</ele>
        <time>2023-03-26T13:26:10Z</time>
      </trkpt>
      <trkpt lat="49.13862" lon="2.02644">
        <ele>166.3</ele>
        <time>2023-03-26T13:26:16Z</time>
      </trkpt>
      <trkpt lat="49.13865" lon="2.02653">
        <ele>166</ele>
        <time>2023-03-26T13:26:22Z</time>
      </trkpt>
      <trkpt lat="49.13868" lon="2.0266">
        <ele>165.7</ele>
        <time>2023-03-26T13:26:27Z</time>
      </trkpt>
      <trkpt lat="49.13871" lon="2.02671">
        <ele>165.3</ele>
        <time>2023-03-26T13:26:33Z</time>
      </trkpt>
      <trkpt lat="49.13875" lon="2.02679">
        <ele>164.9</ele>
        <time>2023-03-26T13:26:38Z</time>
      </trkpt>
      <trkpt lat="49.13878" lon="2.02687">
        <ele>164.6</ele>
        <time>2023-03-26T13:26:43Z</time>
      </trkpt>
      <trkpt lat="49.13882" lon="2.02692">
        <ele>164.5</ele>
        <time>2023-03-26T13:26:49Z</time>
      </trkpt>
      <trkpt lat="49.13885" lon="2.02703">
        <ele>164.4</ele>
        <time>2023-03-26T13:26:55Z</time>
      </trkpt>
      <trkpt lat="49.13889" lon="2.0271">
        <ele>164</ele>
        <time>2023-03-26T13:27:00Z</time>
      </trkpt>
      <trkpt lat="49.13893" lon="2.02717">
        <ele>163.8</ele>
        <time>2023-03-26T13:27:06Z</time>
      </trkpt>
      <trkpt lat="49.13896" lon="2.02724">
        <ele>163.3</ele>
        <time>2023-03-26T13:27:11Z</time>
      </trkpt>
      <trkpt lat="49.139" lon="2.02733">
        <ele>162.8</ele>
        <time>2023-03-26T13:27:17Z</time>
      </trkpt>
      <trkpt lat="49.13907" lon="2.02739">
        <ele>162.3</ele>
        <time>2023-03-26T13:27:23Z</time>
      </trkpt>
      <trkpt lat="49.13911" lon="2.02742">
        <ele>161.8</ele>
        <time>2023-03-26T13:27:28Z</time>
      </trkpt>
      <trkpt lat="49.13916" lon="2.02747">
        <ele>161.2</ele>
        <time>2023-03-26T13:27:33Z</time>
      </trkpt>
      <trkpt lat="49.1392" lon="2.02753">
        <ele>160.2</ele>
        <time>2023-03-26T13:27:38Z</time>
      </trkpt>
      <trkpt lat="49.13926" lon="2.02757">
        <ele>158.6</ele>
        <time>2023-03-26T13:27:44Z</time>
      </trkpt>
      <trkpt lat="49.1393" lon="2.0276">
        <ele>157.3</ele>
        <time>2023-03-26T13:27:49Z</time>
      </trkpt>
      <trkpt lat="49.13936" lon="2.02767">
        <ele>155.2</ele>
        <time>2023-03-26T13:27:55Z</time>
      </trkpt>
      <trkpt lat="49.13942" lon="2.0278">
        <ele>154.1</ele>
        <time>2023-03-26T13:28:01Z</time>
      </trkpt>
      <trkpt lat="49.13946" lon="2.02789">
        <ele>153.8</ele>
        <time>2023-03-26T13:28:06Z</time>
      </trkpt>
      <trkpt lat="49.13952" lon="2.02798">
        <ele>153.8</ele>
        <time>2023-03-26T13:28:11Z</time>
      </trkpt>
      <trkpt lat="49.13958" lon="2.02807">
        <ele>153.6</ele>
        <time>2023-03-26T13:28:17Z</time>
      </trkpt>
      <trkpt lat="49.13961" lon="2.02813">
        <ele>153.2</ele>
        <time>2023-03-26T13:28:23Z</time>
      </trkpt>
      <trkpt lat="49.13963" lon="2.02823">
        <ele>152.7</ele>
        <time>2023-03-26T13:28:29Z</time>
      </trkpt>
      <trkpt lat="49.13965" lon="2.02835">
        <ele>152.6</ele>
        <time>2023-03-26T13:28:34Z</time>
      </trkpt>
      <trkpt lat="49.13968" lon="2.02851">
        <ele>152.6</ele>
        <time>2023-03-26T13:28:40Z</time>
      </trkpt>
      <trkpt lat="49.13972" lon="2.02863">
        <ele>152.7</ele>
        <time>2023-03-26T13:28:45Z</time>
      </trkpt>
      <trkpt lat="49.13975" lon="2.02873">
        <ele>152.9</ele>
        <time>2023-03-26T13:28:50Z</time>
      </trkpt>
      <trkpt lat="49.13979" lon="2.02882">
        <ele>153.3</ele>
        <time>2023-03-26T13:28:56Z</time>
      </trkpt>
      <trkpt lat="49.13984" lon="2.02891">
        <ele>153.9</ele>
        <time>2023-03-26T13:29:02Z</time>
      </trkpt>
      <trkpt lat="49.13988" lon="2.02899">
        <ele>154.4</ele>
        <time>2023-03-26T13:29:07Z</time>
      </trkpt>
      <trkpt lat="49.13994" lon="2.02907">
        <ele>155.1</ele>
        <time>2023-03-26T13:29:13Z</time>
      </trkpt>
      <trkpt lat="49.13999" lon="2.02914">
        <ele>155.7</ele>
        <time>2023-03-26T13:29:19Z</time>
      </trkpt>
      <trkpt lat="49.14002" lon="2.02921">
        <ele>156.2</ele>
        <time>2023-03-26T13:29:24Z</time>
      </trkpt>
      <trkpt lat="49.14007" lon="2.0293">
        <ele>157</ele>
        <time>2023-03-26T13:29:30Z</time>
      </trkpt>
      <trkpt lat="49.14011" lon="2.02937">
        <ele>157.7</ele>
        <time>2023-03-26T13:29:35Z</time>
      </trkpt>
      <trkpt lat="49.14014" lon="2.02944">
        <ele>158.3</ele>
        <time>2023-03-26T13:29:40Z</time>
      </trkpt>
      <trkpt lat="49.14018" lon="2.02953">
        <ele>159</ele>
        <time>2023-03-26T13:29:46Z</time>
      </trkpt>
      <trkpt lat="49.14022" lon="2.02961">
        <ele>159.6</ele>
        <time>2023-03-26T13:29:51Z</time>
      </trkpt>
      <trkpt lat="49.14027" lon="2.02971">
        <ele>160.2</ele>
        <time>2023-03-26T13:29:57Z</time>
      </trkpt>
      <trkpt lat="49.14032" lon="2.02981">
        <ele>160.7</ele>
        <time>2023-03-26T13:30:03Z</time>
      </trkpt>
      <trkpt lat="49.14036" lon="2.0299">
        <ele>161.1</ele>
        <time>2023-03-26T13:30:08Z</time>
      </trkpt>
      <trkpt lat="49.1404" lon="2.02999">
        <ele>161.3</ele>
        <time>2023-03-26T13:30:14Z</time>
      </trkpt>
      <trkpt lat="49.14045" lon="2.03008">
        <ele>161.4</ele>
        <time>2023-03-26T13:30:20Z</time>
      </trkpt>
      <trkpt lat="49.14049" lon="2.03011">
        <ele>161.4</ele>
        <time>2023-03-26T13:30:25Z</time>
      </trkpt>
      <trkpt lat="49.14052" lon="2.03009">
        <ele>161.7</ele>
        <time>2023-03-26T13:30:30Z</time>
      </trkpt>
      <trkpt lat="49.14057" lon="2.02999">
        <ele>162.5</ele>
        <time>2023-03-26T13:30:36Z</time>
      </trkpt>
      <trkpt lat="49.14061" lon="2.02989">
        <ele>163.2</ele>
        <time>2023-03-26T13:30:41Z</time>
      </trkpt>
      <trkpt lat="49.14064" lon="2.02975">
        <ele>164.1</ele>
        <time>2023-03-26T13:30:47Z</time>
      </trkpt>
      <trkpt lat="49.14068" lon="2.02962">
        <ele>165.1</ele>
        <time>2023-03-26T13:30:53Z</time>
      </trkpt>
      <trkpt lat="49.1407" lon="2.02952">
        <ele>165.8</ele>
        <time>2023-03-26T13:30:58Z</time>
      </trkpt>
      <trkpt lat="49.14073" lon="2.02942">
        <ele>166.6</ele>
        <time>2023-03-26T13:31:04Z</time>
      </trkpt>
      <trkpt lat="49.14076" lon="2.02934">
        <ele>167.2</ele>
        <time>2023-03-26T13:31:09Z</time>
      </trkpt>
      <trkpt lat="49.14078" lon="2.02923">
        <ele>167.7</ele>
        <time>2023-03-26T13:31:15Z</time>
      </trkpt>
      <trkpt lat="49.1408" lon="2.02913">
        <ele>168.1</ele>
        <time>2023-03-26T13:31:21Z</time>
      </trkpt>
      <trkpt lat="49.14082" lon="2.02901">
        <ele>168.3</ele>
        <time>2023-03-26T13:31:27Z</time>
      </trkpt>
      <trkpt lat="49.14085" lon="2.02893">
        <ele>168.5</ele>
        <time>2023-03-26T13:31:32Z</time>
      </trkpt>
      <trkpt lat="49.14088" lon="2.02883">
        <ele>169</ele>
        <time>2023-03-26T13:31:38Z</time>
      </trkpt>
      <trkpt lat="49.14091" lon="2.02874">
        <ele>169.5</ele>
        <time>2023-03-26T13:31:44Z</time>
      </trkpt>
      <trkpt lat="49.14095" lon="2.02865">
        <ele>170.1</ele>
        <time>2023-03-26T13:31:50Z</time>
      </trkpt>
      <trkpt lat="49.14098" lon="2.02856">
        <ele>170.6</ele>
        <time>2023-03-26T13:31:55Z</time>
      </trkpt>
      <trkpt lat="49.14101" lon="2.02848">
        <ele>171</ele>
        <time>2023-03-26T13:32:00Z</time>
      </trkpt>
      <trkpt lat="49.14104" lon="2.02838">
        <ele>171.3</ele>
        <time>2023-03-26T13:32:05Z</time>
      </trkpt>
      <trkpt lat="49.14107" lon="2.02824">
        <ele>171.6</ele>
        <time>2023-03-26T13:32:11Z</time>
      </trkpt>
      <trkpt lat="49.1411" lon="2.02812">
        <ele>172</ele>
        <time>2023-03-26T13:32:17Z</time>
      </trkpt>
      <trkpt lat="49.14112" lon="2.02802">
        <ele>172.2</ele>
        <time>2023-03-26T13:32:23Z</time>
      </trkpt>
      <trkpt lat="49.14115" lon="2.02793">
        <ele>172.2</ele>
        <time>2023-03-26T13:32:29Z</time>
      </trkpt>
      <trkpt lat="49.14118" lon="2.02786">
        <ele>172.2</ele>
        <time>2023-03-26T13:32:34Z</time>
      </trkpt>
      <trkpt lat="49.1412" lon="2.02775">
        <ele>172.2</ele>
        <time>2023-03-26T13:32:40Z</time>
      </trkpt>
      <trkpt lat="49.14123" lon="2.02766">
        <ele>172.1</ele>
        <time>2023-03-26T13:32:46Z</time>
      </trkpt>
      <trkpt lat="49.14126" lon="2.02758">
        <ele>172</ele>
        <time>2023-03-26T13:32:51Z</time>
      </trkpt>
      <trkpt lat="49.14128" lon="2.02748">
        <ele>171.9</ele>
        <time>2023-03-26T13:32:57Z</time>
      </trkpt>
      <trkpt lat="49.14131" lon="2.02739">
        <ele>171.9</ele>
        <time>2023-03-26T13:33:02Z</time>
      </trkpt>
      <trkpt lat="49.14133" lon="2.02727">
        <ele>172</ele>
        <time>2023-03-26T13:33:07Z</time>
      </trkpt>
      <trkpt lat="49.14136" lon="2.02716">
        <ele>172.4</ele>
        <time>2023-03-26T13:33:12Z</time>
      </trkpt>
      <trkpt lat="49.1414" lon="2.02706">
        <ele>172.9</ele>
        <time>2023-03-26T13:33:18Z</time>
      </trkpt>
      <trkpt lat="49.14142" lon="2.02697">
        <ele>173.4</ele>
        <time>2023-03-26T13:33:23Z</time>
      </trkpt>
      <trkpt lat="49.14144" lon="2.02686">
        <ele>174</ele>
        <time>2023-03-26T13:33:28Z</time>
      </trkpt>
      <trkpt lat="49.14147" lon="2.02677">
        <ele>174.5</ele>
        <time>2023-03-26T13:33:34Z</time>
      </trkpt>
      <trkpt lat="49.14149" lon="2.02668">
        <ele>175</ele>
        <time>2023-03-26T13:33:40Z</time>
      </trkpt>
      <trkpt lat="49.14151" lon="2.0266">
        <ele>175.4</ele>
        <time>2023-03-26T13:33:45Z</time>
      </trkpt>
      <trkpt lat="49.14153" lon="2.02651">
        <ele>175.8</ele>
        <time>2023-03-26T13:33:50Z</time>
      </trkpt>
      <trkpt lat="49.14156" lon="2.02641">
        <ele>176.4</ele>
        <time>2023-03-26T13:33:56Z</time>
      </trkpt>
      <trkpt lat="49.14158" lon="2.02629">
        <ele>177</ele>
        <time>2023-03-26T13:34:02Z</time>
      </trkpt>
      <trkpt lat="49.1416" lon="2.02619">
        <ele>177.5</ele>
        <time>2023-03-26T13:34:08Z</time>
      </trkpt>
      <trkpt lat="49.14162" lon="2.02608">
        <ele>177.9</ele>
        <time>2023-03-26T13:34:14Z</time>
      </trkpt>
      <trkpt lat="49.14165" lon="2.026">
        <ele>178.3</ele>
        <time>2023-03-26T13:34:19Z</time>
      </trkpt>
      <trkpt lat="49.14168" lon="2.02595">
        <ele>178.9</ele>
        <time>2023-03-26T13:34:25Z</time>
      </trkpt>
      <trkpt lat="49.14171" lon="2.02587">
        <ele>179.3</ele>
        <time>2023-03-26T13:34:30Z</time>
      </trkpt>
      <trkpt lat="49.14174" lon="2.02577">
        <ele>179.9</ele>
        <time>2023-03-26T13:34:36Z</time>
      </trkpt>
      <trkpt lat="49.14175" lon="2.02568">
        <ele>180.1</ele>
        <time>2023-03-26T13:34:41Z</time>
      </trkpt>
      <trkpt lat="49.14178" lon="2.02559">
        <ele>180.3</ele>
        <time>2023-03-26T13:34:47Z</time>
      </trkpt>
      <trkpt lat="49.14179" lon="2.0255">
        <ele>180.6</ele>
        <time>2023-03-26T13:34:52Z</time>
      </trkpt>
      <trkpt lat="49.14183" lon="2.02539">
        <ele>181</ele>
        <time>2023-03-26T13:34:58Z</time>
      </trkpt>
      <trkpt lat="49.14185" lon="2.02529">
        <ele>181.7</ele>
        <time>2023-03-26T13:35:04Z</time>
      </trkpt>
      <trkpt lat="49.14188" lon="2.02519">
        <ele>182.4</ele>
        <time>2023-03-26T13:35:09Z</time>
      </trkpt>
      <trkpt lat="49.1419" lon="2.0251">
        <ele>183</ele>
        <time>2023-03-26T13:35:14Z</time>
      </trkpt>
      <trkpt lat="49.14193" lon="2.02501">
        <ele>183.6</ele>
        <time>2023-03-26T13:35:20Z</time>
      </trkpt>
      <trkpt lat="49.14195" lon="2.02491">
        <ele>184.2</ele>
        <time>2023-03-26T13:35:26Z</time>
      </trkpt>
      <trkpt lat="49.14198" lon="2.02482">
        <ele>184.7</ele>
        <time>2023-03-26T13:35:32Z</time>
      </trkpt>
      <trkpt lat="49.142" lon="2.02469">
        <ele>185.1</ele>
        <time>2023-03-26T13:35:38Z</time>
      </trkpt>
      <trkpt lat="49.14201" lon="2.0246">
        <ele>185.3</ele>
        <time>2023-03-26T13:35:43Z</time>
      </trkpt>
      <trkpt lat="49.14203" lon="2.02452">
        <ele>185.5</ele>
        <time>2023-03-26T13:35:48Z</time>
      </trkpt>
      <trkpt lat="49.14206" lon="2.02445">
        <ele>185.7</ele>
        <time>2023-03-26T13:35:54Z</time>
      </trkpt>
      <trkpt lat="49.14209" lon="2.02439">
        <ele>185.9</ele>
        <time>2023-03-26T13:35:59Z</time>
      </trkpt>
      <trkpt lat="49.14211" lon="2.02429">
        <ele>186.2</ele>
        <time>2023-03-26T13:36:05Z</time>
      </trkpt>
      <trkpt lat="49.14211" lon="2.02418">
        <ele>186.4</ele>
        <time>2023-03-26T13:36:10Z</time>
      </trkpt>
      <trkpt lat="49.14212" lon="2.02409">
        <ele>186.7</ele>
        <time>2023-03-26T13:36:16Z</time>
      </trkpt>
      <trkpt lat="49.14213" lon="2.02397">
        <ele>187</ele>
        <time>2023-03-26T13:36:22Z</time>
      </trkpt>
      <trkpt lat="49.14214" lon="2.02389">
        <ele>187.4</ele>
        <time>2023-03-26T13:36:27Z</time>
      </trkpt>
      <trkpt lat="49.14214" lon="2.02382">
        <ele>187.8</ele>
        <time>2023-03-26T13:36:33Z</time>
      </trkpt>
      <trkpt lat="49.14217" lon="2.02375">
        <ele>188.1</ele>
        <time>2023-03-26T13:36:38Z</time>
      </trkpt>
      <trkpt lat="49.1422" lon="2.02365">
        <ele>188.4</ele>
        <time>2023-03-26T13:36:44Z</time>
      </trkpt>
      <trkpt lat="49.14224" lon="2.02356">
        <ele>188.8</ele>
        <time>2023-03-26T13:36:50Z</time>
      </trkpt>
      <trkpt lat="49.14227" lon="2.02344">
        <ele>189.4</ele>
        <time>2023-03-26T13:36:56Z</time>
      </trkpt>
      <trkpt lat="49.14232" lon="2.02339">
        <ele>189.7</ele>
        <time>2023-03-26T13:37:01Z</time>
      </trkpt>
      <trkpt lat="49.14238" lon="2.02336">
        <ele>189.8</ele>
        <time>2023-03-26T13:37:06Z</time>
      </trkpt>
      <trkpt lat="49.14242" lon="2.02327">
        <ele>189.9</ele>
        <time>2023-03-26T13:37:12Z</time>
      </trkpt>
      <trkpt lat="49.14247" lon="2.02319">
        <ele>190</ele>
        <time>2023-03-26T13:37:17Z</time>
      </trkpt>
      <trkpt lat="49.14251" lon="2.02308">
        <ele>190.3</ele>
        <time>2023-03-26T13:37:23Z</time>
      </trkpt>
      <trkpt lat="49.14255" lon="2.02297">
        <ele>190.7</ele>
        <time>2023-03-26T13:37:29Z</time>
      </trkpt>
      <trkpt lat="49.14258" lon="2.02288">
        <ele>190.8</ele>
        <time>2023-03-26T13:37:35Z</time>
      </trkpt>
      <trkpt lat="49.14259" lon="2.02279">
        <ele>190.8</ele>
        <time>2023-03-26T13:37:41Z</time>
      </trkpt>
      <trkpt lat="49.14263" lon="2.02269">
        <ele>190.6</ele>
        <time>2023-03-26T13:37:47Z</time>
      </trkpt>
      <trkpt lat="49.14265" lon="2.02263">
        <ele>190.5</ele>
        <time>2023-03-26T13:37:52Z</time>
      </trkpt>
      <trkpt lat="49.14267" lon="2.02258">
        <ele>190</ele>
        <time>2023-03-26T13:37:57Z</time>
      </trkpt>
      <trkpt lat="49.14268" lon="2.02248">
        <ele>189.5</ele>
        <time>2023-03-26T13:38:03Z</time>
      </trkpt>
      <trkpt lat="49.14269" lon="2.02237">
        <ele>189.4</ele>
        <time>2023-03-26T13:38:08Z</time>
      </trkpt>
      <trkpt lat="49.14268" lon="2.02226">
        <ele>189.4</ele>
        <time>2023-03-26T13:38:13Z</time>
      </trkpt>
      <trkpt lat="49.14266" lon="2.02214">
        <ele>189.3</ele>
        <time>2023-03-26T13:38:19Z</time>
      </trkpt>
      <trkpt lat="49.14264" lon="2.02205">
        <ele>189.2</ele>
        <time>2023-03-26T13:38:25Z</time>
      </trkpt>
      <trkpt lat="49.14264" lon="2.02194">
        <ele>189</ele>
        <time>2023-03-26T13:38:31Z</time>
      </trkpt>
      <trkpt lat="49.14263" lon="2.02178">
        <ele>189.3</ele>
        <time>2023-03-26T13:38:37Z</time>
      </trkpt>
      <trkpt lat="49.14267" lon="2.02171">
        <ele>189.6</ele>
        <time>2023-03-26T13:38:42Z</time>
      </trkpt>
      <trkpt lat="49.1427" lon="2.02164">
        <ele>190.1</ele>
        <time>2023-03-26T13:38:48Z</time>
      </trkpt>
      <trkpt lat="49.14272" lon="2.02161">
        <ele>190.6</ele>
        <time>2023-03-26T13:38:53Z</time>
      </trkpt>
      <trkpt lat="49.14275" lon="2.02161">
        <ele>191.2</ele>
        <time>2023-03-26T13:38:59Z</time>
      </trkpt>
      <trkpt lat="49.14273" lon="2.02164">
        <ele>191.3</ele>
        <time>2023-03-26T13:39:05Z</time>
      </trkpt>
      <trkpt lat="49.14272" lon="2.02165">
        <ele>191.3</ele>
        <time>2023-03-26T13:39:10Z</time>
      </trkpt>
      <trkpt lat="49.14272" lon="2.02165">
        <ele>191.2</ele>
        <time>2023-03-26T13:39:15Z</time>
      </trkpt>
      <trkpt lat="49.14271" lon="2.02166">
        <ele>191.2</ele>
        <time>2023-03-26T13:39:21Z</time>
      </trkpt>
      <trkpt lat="49.14271" lon="2.02167">
        <ele>191.2</ele>
        <time>2023-03-26T13:39:26Z</time>
      </trkpt>
      <trkpt lat="49.14271" lon="2.02168">
        <ele>191.2</ele>
        <time>2023-03-26T13:39:31Z</time>
      </trkpt>
      <trkpt lat="49.1427" lon="2.02168">
        <ele>191.2</ele>
        <time>2023-03-26T13:39:37Z</time>
      </trkpt>
      <trkpt lat="49.1427" lon="2.02169">
        <ele>191.2</ele>
        <time>2023-03-26T13:39:42Z</time>
      </trkpt>
      <trkpt lat="49.1427" lon="2.02169">
        <ele>191.2</ele>
        <time>2023-03-26T13:39:48Z</time>
      </trkpt>
      <trkpt lat="49.1427" lon="2.0217">
        <ele>191.2</ele>
        <time>2023-03-26T13:39:54Z</time>
      </trkpt>
      <trkpt lat="49.14269" lon="2.0217">
        <ele>191.2</ele>
        <time>2023-03-26T13:39:59Z</time>
      </trkpt>
      <trkpt lat="49.14269" lon="2.0217">
        <ele>191.2</ele>
        <time>2023-03-26T13:40:04Z</time>
      </trkpt>
      <trkpt lat="49.1427" lon="2.0217">
        <ele>191.3</ele>
        <time>2023-03-26T13:40:10Z</time>
      </trkpt>
      <trkpt lat="49.1427" lon="2.02171">
        <ele>191.3</ele>
        <time>2023-03-26T13:40:15Z</time>
      </trkpt>
      <trkpt lat="49.1427" lon="2.02171">
        <ele>191.3</ele>
        <time>2023-03-26T13:40:21Z</time>
      </trkpt>
      <trkpt lat="49.1427" lon="2.02171">
        <ele>191.5</ele>
        <time>2023-03-26T13:40:27Z</time>
      </trkpt>
      <trkpt lat="49.1427" lon="2.02171">
        <ele>191.5</ele>
        <time>2023-03-26T13:40:32Z</time>
      </trkpt>
      <trkpt lat="49.1427" lon="2.02171">
        <ele>191.6</ele>
        <time>2023-03-26T13:40:38Z</time>
      </trkpt>
      <trkpt lat="49.1427" lon="2.02171">
        <ele>191.6</ele>
        <time>2023-03-26T13:40:43Z</time>
      </trkpt>
      <trkpt lat="49.1427" lon="2.02171">
        <ele>191.6</ele>
        <time>2023-03-26T13:40:48Z</time>
      </trkpt>
      <trkpt lat="49.14269" lon="2.02171">
        <ele>191.6</ele>
        <time>2023-03-26T13:40:53Z</time>
      </trkpt>
      <trkpt lat="49.14269" lon="2.02171">
        <ele>191.7</ele>
        <time>2023-03-26T13:40:59Z</time>
      </trkpt>
      <trkpt lat="49.14269" lon="2.02172">
        <ele>191.8</ele>
        <time>2023-03-26T13:41:04Z</time>
      </trkpt>
      <trkpt lat="49.14269" lon="2.02172">
        <ele>191.8</ele>
        <time>2023-03-26T13:41:10Z</time>
      </trkpt>
      <trkpt lat="49.14269" lon="2.02173">
        <ele>191.8</ele>
        <time>2023-03-26T13:41:15Z</time>
      </trkpt>
      <trkpt lat="49.14269" lon="2.02174">
        <ele>191.9</ele>
        <time>2023-03-26T13:41:21Z</time>
      </trkpt>
      <trkpt lat="49.14268" lon="2.02173">
        <ele>192</ele>
        <time>2023-03-26T13:41:27Z</time>
      </trkpt>
      <trkpt lat="49.14268" lon="2.02173">
        <ele>192</ele>
        <time>2023-03-26T13:41:32Z</time>
      </trkpt>
      <trkpt lat="49.14269" lon="2.02173">
        <ele>192</ele>
        <time>2023-03-26T13:41:38Z</time>
      </trkpt>
      <trkpt lat="49.1427" lon="2.02151">
        <ele>189.8</ele>
        <time>2023-03-26T13:44:27Z</time>
      </trkpt>
    </trkseg>
  </trk>
</gpx>